# Wetter Temperatur Luftdruck Luftfeuchtigkeit Sichtweite Windgeschwindigkeit Windrichtung Zeit
1 Clouds 15 1019 87 10000 3.6 240 20:38 17.10.2019
2 Clouds 15 1019 82 10000 3.1 240 20:19 17.10.2019
3 Clouds 15 1019 82 10000 3.1 240 19:56 17.10.2019
4 Clouds 15 1019 82 10000 3.6 240 19:37 17.10.2019
5 Clouds 15 1019 82 10000 5.7 230 19:18 17.10.2019
6 Clouds 16 1019 82 10000 3.6 220 18:42 17.10.2019
7 Clouds 16 1019 82 10000 3.6 230 18:21 17.10.2019
8 Clouds 16 1019 82 10000 3.6 230 17:55 17.10.2019
9 Clouds 15 1019 77 10000 4.1 230 17:37 17.10.2019
10 Clouds 15 1019 77 10000 3.1 210 17:19 17.10.2019
11 Clouds 15 1019 82 10000 3.1 230 16:55 17.10.2019
12 Clouds 15 1019 82 10000 3.1 230 16:36 17.10.2019
13 Clouds 15 1020 82 10000 3.6 200 16:18 17.10.2019
14 Clouds 15 1020 87 10000 3.1 190 15:41 17.10.2019
15 Clouds 14 1020 87 10000 3.6 190 15:21 17.10.2019
16 Clouds 14 1020 87 10000 3.6 190 14:59 17.10.2019
17 Clouds 14 1020 87 10000 3.6 190 14:59 17.10.2019
18 Clouds 14 1020 87 10000 3.6 220 14:41 17.10.2019
19 Clouds 14 1021 87 10000 2.6 220 14:23 17.10.2019
20 Clouds 13 1021 87 10000 3.1 210 13:42 17.10.2019
21 Clouds 13 1021 82 10000 2.1 200 13:22 17.10.2019
22 Clouds 13 1021 82 10000 2.1 200 12:59 17.10.2019
23 Clouds 13 1021 82 10000 1.5 200 12:40 17.10.2019
24 Clouds 12 1021 82 10000 1.5 200 12:20 17.10.2019
25 Clouds 11 1021 87 10000 2.1 210 11:58 17.10.2019
26 Clouds 11 1021 81 10000 2.1 200 11:40 17.10.2019
27 Rain 10 1020 87 8000 1.5 190 11:19 17.10.2019
28 Rain 10 1020 87 7000 1.5 150 10:54 17.10.2019
29 -273 0 0 0 0 0 10:54 17.10.2019
30 Rain 10 1020 87 7000 1.5 150 10:36 17.10.2019
31 Rain 9 1020 87 8000 2.1 240 10:18 17.10.2019
32 Rain 10 1020 87 8000 2.1 240 10:18 17.10.2019
33 Rain 9 1020 93 6000 1.5 30 09:41 17.10.2019
34 Rain 9 1019 76 10000 2.1 180 09:21 17.10.2019
35 Clouds 9 1019 76 10000 2.1 180 08:58 17.10.2019
36 Clouds 9 1019 76 10000 2.1 180 08:58 17.10.2019
37 Rain 9 1019 76 10000 2.1 180 08:39 17.10.2019
38 Rain 9 1019 76 10000 1 0 08:20 17.10.2019
39 -273 0 0 0 0 0 07:54 17.10.2019
40 -273 0 0 0 0 0 07:54 17.10.2019
41 Rain 9 1019 71 10000 0.5 0 07:36 17.10.2019
42 Clouds 9 1018 81 10000 1 350 07:18 17.10.2019
43 Clouds 9 1018 81 10000 1 360 06:39 17.10.2019
44 Clouds 9 1018 87 10000 1.5 10 06:20 17.10.2019
45 Clouds 9 1018 81 10000 1 360 05:49 17.10.2019
46 Clouds 9 1018 81 10000 1 360 05:30 17.10.2019
47 Clouds 9 1019 81 10000 1 360 04:51 17.10.2019
48 Clouds 9 1019 81 10000 1 0 03:54 17.10.2019
49 Clouds 10 1019 66 10000 2.1 140 02:36 17.10.2019
50 Clouds 11 1019 66 10000 2.1 130 00:57 17.10.2019
51 Clouds 12 1019 62 10000 2.1 130 00:38 17.10.2019
52 Clear 12 1019 54 10000 1.5 140 00:18 17.10.2019
53 Clear 13 1019 47 10000 2.1 200 23:42 16.10.2019
54 Clear 13 1019 47 10000 2.1 200 23:21 16.10.2019
55 Clear 13 1019 47 10000 2.1 200 23:21 16.10.2019
56 Clear 13 1019 47 10000 2.1 200 23:21 16.10.2019
57 Clear 13 1019 47 10000 2.1 200 22:55 16.10.2019
58 Clear 14 1019 47 10000 2.6 210 22:36 16.10.2019
59 Clear 14 1019 47 10000 2.6 210 22:36 16.10.2019
60 Clear 14 1019 47 10000 3.1 220 22:18 16.10.2019
61 -273 0 0 0 0 0 21:56 16.10.2019
62 Clear 14 1019 50 10000 2.6 230 21:37 16.10.2019
63 Clouds 15 1019 44 10000 2.1 220 21:18 16.10.2019
64 Clouds 15 1019 44 10000 2.1 220 20:57 16.10.2019
65 Clouds 15 1019 41 10000 3.1 230 20:38 16.10.2019
66 Clouds 16 1019 36 10000 3.6 220 20:20 16.10.2019
67 Clouds 16 1019 36 10000 3.6 220 20:20 16.10.2019
68 Clouds 17 1019 36 10000 3.6 220 19:57 16.10.2019
69 Clouds 17 1019 33 10000 5.7 220 19:38 16.10.2019
70 Clouds 17 1018 31 10000 4.6 210 19:20 16.10.2019
71 Clouds 18 1018 34 10000 4.6 210 18:39 16.10.2019
72 Clouds 18 1018 34 10000 4.6 210 18:19 16.10.2019
73 Clouds 18 1018 36 10000 4.1 200 17:58 16.10.2019
74 Clouds 18 1018 36 10000 4.1 200 17:58 16.10.2019
75 Clouds 18 1019 36 10000 4.1 200 17:39 16.10.2019
76 Clouds 18 1019 36 10000 5.1 220 17:21 16.10.2019
77 Clouds 18 1019 36 10000 5.1 220 16:59 16.10.2019
78 Clouds 18 1019 45 10000 4.1 210 16:41 16.10.2019
79 -273 0 0 0 0 0 16:41 16.10.2019
80 Clouds 18 1019 45 10000 4.1 210 16:20 16.10.2019
81 Clouds 17 1020 48 10000 5.1 230 15:56 16.10.2019
82 Clouds 17 1020 45 10000 4.6 220 15:38 16.10.2019
83 Clouds 17 1020 48 10000 5.1 230 15:18 16.10.2019
84 Clouds 17 1020 48 10000 5.1 230 14:56 16.10.2019
85 Clouds 16 1021 55 10000 4.6 210 14:38 16.10.2019
86 Clouds 16 1021 55 10000 4.6 210 14:18 16.10.2019
87 Clouds 16 1021 51 10000 5.7 230 13:56 16.10.2019
88 Clouds 15 1022 55 10000 4.1 230 13:37 16.10.2019
89 Clouds 15 1022 55 10000 4.1 230 13:19 16.10.2019
90 -273 0 0 0 0 0 12:41 16.10.2019
91 Clouds 14 1022 62 10000 2.6 200 12:19 16.10.2019
92 Clouds 12 1022 62 10000 3.1 180 11:44 16.10.2019
93 Clouds 12 1022 62 10000 2.1 170 11:19 16.10.2019
94 Clouds 11 1022 66 10000 1.5 180 10:41 16.10.2019
95 Clouds 10 1022 66 10000 1.5 180 10:22 16.10.2019
96 Clouds 8 1022 71 10000 1 0 09:58 16.10.2019
97 Clouds 9 1022 71 10000 1 0 09:58 16.10.2019
98 Clouds 8 1022 71 10000 1 0 09:39 16.10.2019
99 Clouds 8 1022 71 10000 1 0 09:39 16.10.2019
100 Clouds 8 1021 71 10000 1 0 09:20 16.10.2019
101 Clouds 7 1021 81 10000 1.5 160 08:44 16.10.2019
102 Clouds 7 1021 81 10000 1.5 160 08:26 16.10.2019
103 Clouds 7 1021 81 10000 1.5 180 07:56 16.10.2019
104 Clouds 7 1020 81 10000 0.5 0 07:38 16.10.2019
105 Clouds 7 1020 81 10000 0.5 0 07:20 16.10.2019
106 Clouds 8 1020 93 10000 1 0 06:40 16.10.2019
107 Clouds 8 1020 81 10000 0.5 0 06:19 16.10.2019
108 Clouds 9 1021 70 10000 1 0 03:46 16.10.2019
109 Clouds 10 1021 66 10000 1 0 02:50 16.10.2019
110 Clouds 11 1022 62 10000 1.5 150 01:20 16.10.2019
111 Clouds 11 1021 58 10000 1.5 130 00:58 16.10.2019
112 Clouds 11 1021 58 10000 1.5 130 00:39 16.10.2019
113 Clouds 11 1022 54 10000 1 0 23:42 15.10.2019
114 Clouds 11 1022 54 10000 1 0 23:23 15.10.2019
115 Clouds 11 1021 47 10000 2.1 250 22:59 15.10.2019
116 Clouds 12 1021 54 10000 3.1 230 22:40 15.10.2019
117 Clouds 12 1021 54 10000 3.1 230 22:21 15.10.2019
118 Clouds 13 1021 47 10000 3.1 220 21:57 15.10.2019
119 Clouds 12 1021 47 10000 2.6 220 21:39 15.10.2019
120 Clouds 12 1021 47 10000 2.6 220 21:20 15.10.2019
121 Clouds 13 1021 54 10000 3.1 220 20:58 15.10.2019
122 Clouds 13 1021 47 10000 3.6 210 20:40 15.10.2019
123 Clouds 13 1021 47 10000 3.6 210 20:22 15.10.2019
124 Clouds 15 1021 47 10000 3.6 210 19:59 15.10.2019
125 Clouds 15 1021 44 10000 3.6 230 19:41 15.10.2019
126 Clouds 15 1021 44 10000 3.6 230 19:20 15.10.2019
127 Clouds 15 1021 44 10000 3.6 230 19:20 15.10.2019
128 Clouds 16 1020 44 10000 4.1 230 18:57 15.10.2019
129 Clouds 16 1020 44 10000 4.1 230 18:39 15.10.2019
130 Clouds 16 1020 41 10000 4.1 210 18:20 15.10.2019
131 Clouds 16 1021 44 10000 4.1 230 17:42 15.10.2019
132 Clouds 16 1021 44 10000 4.1 230 17:42 15.10.2019
133 Clouds 16 1021 44 10000 4.1 230 17:42 15.10.2019
134 Clouds 16 1021 41 10000 4.6 200 17:21 15.10.2019
135 Clouds 16 1020 44 10000 3.6 220 16:59 15.10.2019
136 Clouds 16 1021 44 10000 3.6 210 16:41 15.10.2019
137 Clouds 16 1021 44 10000 3.6 210 16:21 15.10.2019
138 Clouds 16 1021 44 10000 3.6 210 16:21 15.10.2019
139 Clouds 16 1021 44 10000 4.1 200 15:55 15.10.2019
140 Clouds 16 1021 44 10000 3.6 200 15:37 15.10.2019
141 Clouds 16 1021 44 10000 3.6 200 15:19 15.10.2019
142 Clouds 15 1021 51 10000 4.6 220 14:54 15.10.2019
143 -273 0 0 0 0 0 14:36 15.10.2019
144 Clouds 15 1022 51 10000 4.1 220 14:18 15.10.2019
145 Clouds 14 1022 54 10000 4.6 240 13:43 15.10.2019
146 Clouds 14 1022 54 10000 4.6 240 13:20 15.10.2019
147 Clouds 13 1022 54 10000 4.1 250 12:46 15.10.2019
148 Clear 12 1022 58 10000 3.1 250 12:23 15.10.2019
149 Clear 12 1022 58 10000 3.1 250 11:59 15.10.2019
150 Clear 11 1022 66 10000 3.6 250 11:41 15.10.2019
151 Clear 11 1022 66 10000 3.6 250 11:20 15.10.2019
152 Clear 10 1022 62 10000 4.1 260 10:46 15.10.2019
153 Clear 10 1021 66 10000 4.1 260 10:24 15.10.2019
154 Clear 9 1021 70 10000 4.1 260 09:59 15.10.2019
155 Clear 9 1021 70 10000 4.1 260 09:40 15.10.2019
156 Clear 8 1021 75 10000 2.6 240 09:21 15.10.2019
157 Clear 8 1021 75 10000 2.6 240 09:21 15.10.2019
158 -273 0 0 0 0 0 08:58 15.10.2019
159 Clear 8 1020 75 10000 4.6 270 08:39 15.10.2019
160 Clear 8 1020 75 10000 4.6 270 08:19 15.10.2019
161 Clear 8 1020 81 10000 3.1 260 07:43 15.10.2019
162 Clear 8 1020 75 10000 3.6 270 07:22 15.10.2019
163 Clear 8 1019 66 10000 1 340 06:57 15.10.2019
164 Clear 8 1019 61 10000 6.2 280 06:39 15.10.2019
165 Clear 8 1019 61 10000 3.6 270 05:56 15.10.2019
166 Clear 8 1019 61 10000 1.5 260 05:36 15.10.2019
167 Clear 8 1019 61 10000 4.6 280 04:48 15.10.2019
168 Clear 9 1019 61 10000 5.1 270 04:18 15.10.2019
169 Clear 9 1019 57 10000 8.2 290 03:35 15.10.2019
170 Clear 9 1019 57 10000 8.2 290 03:35 15.10.2019
171 Clouds 10 1018 62 10000 3.6 260 01:57 15.10.2019
172 Clouds 10 1018 66 10000 5.1 250 01:39 15.10.2019
173 Clouds 10 1018 66 10000 5.1 270 00:59 15.10.2019
174 Clouds 10 1018 66 10000 4.1 250 00:25 15.10.2019
175 Clear 10 1017 71 10000 4.1 260 23:58 14.10.2019
176 Clouds 10 1017 76 10000 3.6 240 23:37 14.10.2019
177 Clouds 10 1017 76 10000 3.6 240 23:18 14.10.2019
178 Clouds 10 1017 81 10000 3.6 250 22:39 14.10.2019
179 Rain 10 1017 93 10000 5.1 240 22:20 14.10.2019
180 Rain 11 1016 93 10000 4.1 230 21:58 14.10.2019
181 Rain 10 1016 93 10000 5.1 230 21:39 14.10.2019
182 Clouds 11 1016 93 10000 5.1 230 21:20 14.10.2019
183 Clouds 11 1016 93 10000 5.1 230 20:57 14.10.2019
184 Clouds 11 1016 93 10000 5.1 230 20:57 14.10.2019
185 Drizzle 11 1016 93 10000 5.7 230 20:38 14.10.2019
186 Drizzle 11 1016 93 10000 5.7 230 20:38 14.10.2019
187 Rain 11 1016 93 10000 5.7 230 20:19 14.10.2019
188 Rain 11 1015 87 10000 7.2 230 19:43 14.10.2019
189 Rain 12 1015 87 6000 8.7 230 19:25 14.10.2019
190 Rain 13 1014 82 10000 8.7 260 18:59 14.10.2019
191 Rain 13 1015 93 5000 11.3 240 18:40 14.10.2019
192 Rain 13 1015 93 8000 10.8 240 18:40 14.10.2019
193 Rain 16 1014 87 3000 13.4 240 18:20 14.10.2019
194 Rain 16 1014 87 3000 13.4 240 18:20 14.10.2019
195 Rain 17 1014 62 3000 7.7 220 17:58 14.10.2019
196 Clouds 19 1013 45 10000 7.2 230 17:40 14.10.2019
197 Clouds 19 1013 45 10000 7.2 230 17:21 14.10.2019
198 Clouds 19 1013 45 10000 6.7 230 16:44 14.10.2019
199 Clouds 19 1013 45 10000 8.2 220 16:22 14.10.2019
200 Clouds 19 1013 45 10000 8.2 220 15:57 14.10.2019
201 Clouds 19 1013 45 10000 8.2 220 15:57 14.10.2019
202 Clouds 19 1013 48 10000 7.2 230 15:38 14.10.2019
203 Clouds 19 1013 52 10000 7.7 230 15:20 14.10.2019
204 Clouds 18 1014 59 10000 7.7 230 14:43 14.10.2019
205 Clouds 18 1014 59 10000 7.7 230 14:24 14.10.2019
206 Clouds 17 1014 72 10000 7.2 240 13:56 14.10.2019
207 Clouds 17 1014 77 10000 7.2 240 13:37 14.10.2019
208 Rain 17 1014 82 10000 6.2 240 13:18 14.10.2019
209 Rain 17 1014 77 10000 10.3 230 12:40 14.10.2019
210 Rain 17 1014 77 10000 10.3 230 12:40 14.10.2019
211 Rain 17 1014 63 10000 9.8 220 12:19 14.10.2019
212 Rain 17 1014 63 10000 9.8 220 12:19 14.10.2019
213 Clouds 17 1013 63 10000 7.2 200 11:46 14.10.2019
214 Clouds 18 1013 63 10000 7.2 200 11:27 14.10.2019
215 Clouds 17 1013 63 10000 7.2 210 10:59 14.10.2019
216 Rain 17 1013 67 10000 6.7 210 10:39 14.10.2019
217 Rain 17 1012 67 10000 6.7 210 10:20 14.10.2019
218 Rain 17 1012 67 10000 6.7 210 09:56 14.10.2019
219 Rain 17 1012 68 10000 6.2 210 09:37 14.10.2019
220 Clouds 17 1012 63 10000 5.7 220 09:18 14.10.2019
221 Clouds 17 1012 55 10000 5.7 200 08:44 14.10.2019
222 Clear 16 1011 67 10000 2.1 140 08:22 14.10.2019
223 Clear 16 1011 67 10000 3.1 130 07:42 14.10.2019
224 Clear 16 1011 87 10000 1.5 30 07:19 14.10.2019
225 Clear 16 1011 87 10000 2.1 340 06:53 14.10.2019
226 Clear 16 1011 87 10000 2.1 340 06:26 14.10.2019
227 Clear 17 1011 82 10000 1.5 360 05:49 14.10.2019
228 Clear 16 1012 82 10000 2.1 360 04:48 14.10.2019
229 Clear 17 1012 82 10000 1 350 03:28 14.10.2019
230 Clear 17 1013 82 10000 2.1 330 02:49 14.10.2019
231 Clear 17 1014 82 10000 1.5 330 01:24 14.10.2019
232 Clear 17 1014 82 10000 1.5 330 00:58 14.10.2019
233 Clear 16 1015 82 10000 1.5 340 00:20 14.10.2019
234 Clear 17 1015 77 10000 1 0 23:45 13.10.2019
235 Clouds 18 1015 72 10000 1.5 340 23:20 13.10.2019
236 Clouds 18 1015 72 10000 1.5 340 22:58 13.10.2019
237 Clouds 18 1015 72 10000 1.5 340 22:58 13.10.2019
238 Clear 18 1015 68 10000 1.9 134.723 22:40 13.10.2019
239 Clear 19 1015 63 10000 0.5 0 22:21 13.10.2019
240 Clear 19 1015 63 10000 0.5 0 22:21 13.10.2019
241 Clear 19 1015 63 10000 0.5 0 21:58 13.10.2019
242 Clear 19 1015 72 10000 0.5 40 21:37 13.10.2019
243 Clear 19 1015 63 10000 0.9 172.292 21:19 13.10.2019
244 Clear 20 1015 63 10000 0.51 130.407 20:57 13.10.2019
245 Clear 20 1015 56 10000 1 0 20:39 13.10.2019
246 Clear 21 1015 53 10000 1.5 180 20:21 13.10.2019
247 Clear 22 1015 53 10000 1.5 180 19:58 13.10.2019
248 Clear 22 1015 49 10000 2.1 180 19:39 13.10.2019
249 Clear 23 1015 47 10000 1 0 19:21 13.10.2019
250 -273 0 0 0 0 0 18:57 13.10.2019
251 -273 0 0 0 0 0 18:57 13.10.2019
252 Clear 23 1015 49 10000 2.6 190 18:56 13.10.2019
253 Clear 23 1015 49 10000 2.6 190 18:56 13.10.2019
254 Clear 23 1015 49 10000 2.6 190 18:36 13.10.2019
255 Clear 23 1016 47 10000 2.6 210 18:18 13.10.2019
256 Clear 23 1016 47 10000 2.6 210 17:54 13.10.2019
257 Clear 23 1016 49 10000 3.6 190 17:36 13.10.2019
258 Clear 23 1016 49 10000 4.6 190 17:18 13.10.2019
259 Clear 23 1016 53 10000 3.6 200 16:41 13.10.2019
260 Clear 23 1016 53 10000 3.6 200 16:18 13.10.2019
261 -273 0 0 0 0 0 15:56 13.10.2019
262 Clouds 22 1017 53 10000 3.1 190 15:37 13.10.2019
263 Clouds 22 1017 53 10000 3.1 190 15:37 13.10.2019
264 Clouds 22 1017 56 10000 2.6 180 15:18 13.10.2019
265 Clouds 21 1017 56 10000 2.6 180 14:57 13.10.2019
266 Clouds 21 1018 56 10000 3.1 190 14:38 13.10.2019
267 Clouds 21 1018 64 10000 3.6 200 14:19 13.10.2019
268 Clouds 20 1018 64 10000 3.6 180 13:41 13.10.2019
269 Clouds 20 1018 64 10000 3.6 180 13:23 13.10.2019
270 Clouds 20 1018 64 10000 3.6 180 12:59 13.10.2019
271 Clouds 19 1018 77 10000 3.1 190 12:39 13.10.2019
272 Clouds 19 1018 77 10000 2.1 170 12:20 13.10.2019
273 Clouds 19 1018 77 10000 2.1 170 11:58 13.10.2019
274 Clouds 18 1018 77 10000 2.6 150 11:39 13.10.2019
275 Clear 17 1018 88 10000 3.1 170 11:20 13.10.2019
276 Clear 17 1018 82 10000 2.6 180 10:56 13.10.2019
277 Clear 17 1018 82 10000 2.6 180 10:38 13.10.2019
278 Clear 16 1017 87 10000 2.1 180 10:19 13.10.2019
279 Clear 16 1017 93 10000 0.5 0 09:39 13.10.2019
280 Clear 15 1016 93 10000 2.1 140 09:21 13.10.2019
281 Clear 15 1016 93 10000 2.6 130 08:44 13.10.2019
282 Clear 15 1016 93 10000 2.6 130 08:25 13.10.2019
283 Clear 15 1016 87 10000 2.6 130 07:51 13.10.2019
284 Clear 15 1016 87 10000 2.6 130 07:33 13.10.2019
285 Clear 15 1015 93 10000 2.6 320 06:53 13.10.2019
286 Clear 15 1015 93 10000 2.6 320 06:24 13.10.2019
287 Clear 15 1015 93 10000 2.6 320 06:24 13.10.2019
288 Clear 15 1016 87 10000 2.1 350 05:21 13.10.2019
289 Clear 16 1016 87 10000 1.5 360 04:34 13.10.2019
290 Clouds 16 1017 82 10000 3.1 340 03:24 13.10.2019
291 Clouds 16 1017 87 10000 4.1 330 02:31 13.10.2019
292 Clouds 16 1017 87 10000 4.1 330 02:31 13.10.2019
293 Clouds 16 1017 82 10000 0.5 360 01:37 13.10.2019
294 Rain 17 1017 77 10000 5.1 130 00:56 13.10.2019
295 Rain 17 1017 77 10000 5.1 130 00:56 13.10.2019
296 Rain 17 1017 77 10000 3.1 130 00:38 13.10.2019
297 Rain 18 1019 64 10000 2.6 220 00:19 13.10.2019
298 Rain 18 1017 77 10000 2.6 10 23:42 12.10.2019
299 Rain 18 1017 77 10000 2.6 10 23:42 12.10.2019
300 Clear 18 1017 77 10000 2.6 10 23:23 12.10.2019
301 Rain 18 1018 68 10000 2.6 140 22:59 12.10.2019
302 Thunderstorm 18 1017 56 10000 4.1 120 22:40 12.10.2019
303 Rain 18 1017 56 10000 4.1 120 22:22 12.10.2019
304 Rain 19 1017 52 10000 3.1 160 21:58 12.10.2019
305 Rain 19 1017 52 10000 3.1 160 21:58 12.10.2019
306 Rain 18 1018 82 10000 6.7 280 21:39 12.10.2019
307 Rain 20 1018 72 8000 5.1 160 21:21 12.10.2019
308 Rain 22 1017 43 4000 11.3 210 20:54 12.10.2019
309 Rain 22 1017 43 4000 11.3 210 20:54 12.10.2019
310 Thunderstorm 23 1017 43 4000 11.3 210 20:36 12.10.2019
311 Thunderstorm 23 1015 44 10000 1.5 150 20:18 12.10.2019
312 Clear 25 1016 31 10000 2.6 150 19:36 12.10.2019
313 Clear 26 1016 34 10000 2.6 140 19:18 12.10.2019
314 Clear 26 1016 36 10000 4.1 150 18:43 12.10.2019
315 Clear 25 1016 36 10000 4.1 150 18:24 12.10.2019
316 Rain 26 1017 38 10000 4.1 150 17:46 12.10.2019
317 Rain 26 1017 38 10000 4.1 150 17:22 12.10.2019
318 Clear 26 1017 36 10000 3.6 140 16:59 12.10.2019
319 Clear 26 1017 36 10000 3.6 140 16:59 12.10.2019
320 Clear 26 1017 39 10000 4.1 130 16:40 12.10.2019
321 Clear 25 1017 44 10000 3.1 130 16:21 12.10.2019
322 Clear 25 1017 44 10000 3.1 130 15:56 12.10.2019
323 Clear 25 1018 44 10000 2.1 130 15:37 12.10.2019
324 Clear 25 1018 47 10000 3.1 130 15:18 12.10.2019
325 Clear 24 1019 47 10000 2.1 120 14:40 12.10.2019
326 Clear 24 1019 50 10000 2.1 90 14:20 12.10.2019
327 Clear 23 1019 50 10000 2.1 90 13:51 12.10.2019
328 Clear 23 1019 56 10000 2.1 0 13:32 12.10.2019
329 Clear 22 1019 64 10000 2.6 120 12:55 12.10.2019
330 Clear 22 1019 56 10000 1.5 90 12:55 12.10.2019
331 Clear 22 1019 64 10000 2.6 120 12:37 12.10.2019
332 Clear 21 1019 68 10000 1.5 60 12:19 12.10.2019
333 Clear 20 1019 72 10000 3.6 90 11:43 12.10.2019
334 Clear 20 1019 72 10000 3.6 90 11:43 12.10.2019
335 Clear 20 1019 72 10000 3.6 90 11:23 12.10.2019
336 Clear 19 1019 72 10000 3.6 90 10:58 12.10.2019
337 Clear 19 1019 72 10000 3.6 100 10:39 12.10.2019
338 Clear 18 1019 72 10000 2.1 90 10:20 12.10.2019
339 Clear 19 1019 72 10000 2.1 90 10:20 12.10.2019
340 Clear 18 1019 72 10000 2.1 90 09:57 12.10.2019
341 Clear 18 1019 72 10000 2.1 90 09:57 12.10.2019
342 Clear 17 1018 72 10000 1.5 50 09:37 12.10.2019
343 Clear 17 1019 77 10000 1 0 09:19 12.10.2019
344 Clear 17 1019 77 10000 1 0 09:19 12.10.2019
345 Clear 17 1018 77 10000 1.5 150 08:44 12.10.2019
346 Clear 17 1018 72 10000 2.1 100 08:23 12.10.2019
347 Clear 17 1018 72 10000 2.1 100 07:50 12.10.2019
348 Clear 17 1018 72 10000 1.5 80 07:30 12.10.2019
349 Clear 19 1018 68 10000 0.5 0 06:27 12.10.2019
350 Clear 19 1018 68 10000 0.5 0 05:42 12.10.2019
351 Clear 19 1018 60 10000 1.5 110 04:34 12.10.2019
352 Clear 20 1018 60 10000 2.1 140 03:53 12.10.2019
353 Clear 21 1018 52 10000 1 0 02:45 12.10.2019
354 Clear 21 1018 49 10000 2.1 140 01:32 12.10.2019
355 Clear 22 1018 49 10000 1 0 00:55 12.10.2019
356 Clear 22 1018 49 10000 1 0 00:55 12.10.2019
357 Clear 22 1018 49 10000 1 0 00:37 12.10.2019
358 Clear 22 1018 49 10000 2.1 110 23:55 11.10.2019
359 Clear 22 1018 53 10000 1.5 80 23:36 11.10.2019
360 Clear 23 1018 53 10000 1 100 23:18 11.10.2019
361 Clear 23 1018 56 10000 0.5 0 22:37 11.10.2019
362 Clear 23 1018 50 10000 1 0 22:19 11.10.2019
363 Clear 23 1018 50 10000 1.5 130 21:42 11.10.2019
364 Clouds 23 1018 50 10000 1.5 150 21:21 11.10.2019
365 Clear 23 1018 50 10000 1.5 150 20:57 11.10.2019
366 Clear 23 1018 50 10000 1.5 150 20:38 11.10.2019
367 Clear 23 1018 50 10000 1.5 150 20:38 11.10.2019
368 Clouds 24 1018 44 10000 2.1 180 20:19 11.10.2019
369 Clear 25 1018 47 10000 2.1 140 19:55 11.10.2019
370 Clear 25 1018 47 10000 2.1 140 19:36 11.10.2019
371 Clear 26 1018 44 10000 0.5 0 19:18 11.10.2019
372 Clear 26 1018 44 10000 0.5 0 19:18 11.10.2019
373 Clear 26 1018 44 10000 0.5 0 19:18 11.10.2019
374 Clear 26 1018 44 10000 0.5 0 19:18 11.10.2019
375 Clear 26 1018 44 10000 0.5 0 19:18 11.10.2019
376 Clear 26 1018 44 10000 1 0 18:54 11.10.2019
377 Clear 26 1018 44 10000 1 0 18:36 11.10.2019
378 Clear 26 1018 44 10000 1 0 18:36 11.10.2019
379 Clear 26 1019 47 10000 1 0 18:18 11.10.2019
380 Clear 26 1019 44 10000 1 0 17:54 11.10.2019
381 Clear 26 1019 44 10000 1 0 17:36 11.10.2019
382 Clear 26 1019 50 10000 2.1 0 17:18 11.10.2019
383 Clear 26 1019 50 10000 2.1 0 17:18 11.10.2019
384 Clear 26 1019 50 10000 1.5 150 16:40 11.10.2019
385 Clear 25 1020 50 10000 2.6 110 16:19 11.10.2019
386 Clear 25 1020 50 10000 2.6 110 15:58 11.10.2019
387 Clear 25 1021 53 10000 1.5 0 15:38 11.10.2019
388 Clear 24 1021 60 10000 3.1 100 15:18 11.10.2019
389 Clear 24 1022 56 10000 2.6 120 14:46 11.10.2019
390 Clear 24 1022 56 10000 2.6 120 14:28 11.10.2019
391 Clear 23 1022 60 10000 3.6 120 13:56 11.10.2019
392 Clear 23 1023 60 10000 3.1 100 13:37 11.10.2019
393 Clear 22 1023 64 10000 3.1 100 13:18 11.10.2019
394 Clear 22 1023 64 10000 2.6 90 12:42 11.10.2019
395 Clear 21 1023 64 10000 2.6 90 12:22 11.10.2019
396 Clear 20 1023 68 10000 2.6 90 12:00 11.10.2019
397 Clear 20 1023 68 10000 3.1 90 11:40 11.10.2019
398 Clear 19 1023 68 10000 1.5 50 11:21 11.10.2019
399 Clear 19 1023 68 10000 1.5 50 10:56 11.10.2019
400 Clear 18 1023 72 10000 1.5 60 10:38 11.10.2019
401 Clear 17 1022 68 10000 1 0 10:20 11.10.2019
402 Clear 17 1022 68 10000 1 0 10:20 11.10.2019
403 Clear 16 1022 68 10000 1 0 09:55 11.10.2019
404 Clear 16 1022 72 10000 1.5 30 09:37 11.10.2019
405 Clear 15 1022 77 10000 0.5 0 09:18 11.10.2019
406 Clear 15 1022 77 10000 1 0 08:40 11.10.2019
407 Clear 15 1022 77 10000 1 0 08:21 11.10.2019
408 Clear 15 1022 77 10000 1 0 07:59 11.10.2019
409 Clear 15 1021 77 10000 1 0 07:40 11.10.2019
410 Clear 15 1021 82 10000 1.5 360 07:20 11.10.2019
411 Clear 15 1021 82 10000 1.5 360 06:44 11.10.2019
412 Clear 15 1021 82 10000 1.5 350 06:21 11.10.2019
413 Clear 16 1021 77 10000 1 360 05:37 11.10.2019
414 Clear 16 1021 77 10000 1 340 04:59 11.10.2019
415 Clear 16 1021 72 10000 2.1 340 04:24 11.10.2019
416 Clear 18 1021 67 10000 2.1 360 01:58 11.10.2019
417 Clouds 19 1021 68 10000 1 360 00:42 11.10.2019
418 Clouds 19 1021 68 10000 1 360 00:23 11.10.2019
419 Clouds 19 1021 68 10000 1.5 310 00:23 11.10.2019
420 Clear 20 1021 60 10000 2.1 140 23:42 10.10.2019
421 Clear 21 1020 60 10000 1.5 360 23:21 10.10.2019
422 Clear 21 1020 56 10000 1 0 22:57 10.10.2019
423 Clear 21 1020 56 10000 1 0 22:38 10.10.2019
424 Clear 21 1020 56 10000 1 0 22:20 10.10.2019
425 Clear 21 1020 56 10000 1 0 21:56 10.10.2019
426 Clear 21 1020 56 10000 1 0 21:56 10.10.2019
427 Clear 21 1020 56 10000 1 360 21:38 10.10.2019
428 Clear 22 1020 53 10000 1 350 21:20 10.10.2019
429 Clear 22 1020 53 10000 0.87 302.905 20:42 10.10.2019
430 Clear 23 1020 44 10000 0.5 0 20:21 10.10.2019
431 Clear 24 1020 44 10000 0.5 0 19:58 10.10.2019
432 Clear 24 1020 44 10000 0.87 302.905 19:40 10.10.2019
433 Clear 25 1020 39 10000 0.87 302.905 19:20 10.10.2019
434 Clear 26 1020 39 10000 0.87 302.905 18:57 10.10.2019
435 Clear 25 1020 41 10000 1.5 200 18:38 10.10.2019
436 Clear 25 1020 41 10000 1.5 0 18:19 10.10.2019
437 Clear 26 1020 44 10000 1 0 17:41 10.10.2019
438 Clear 25 1020 47 10000 1.5 0 17:20 10.10.2019
439 Clear 25 1020 47 10000 1.5 0 16:59 10.10.2019
440 Clear 25 1020 47 10000 1.5 0 16:41 10.10.2019
441 Clear 25 1020 47 10000 1.5 0 16:22 10.10.2019
442 Clear 24 1021 50 10000 2.1 0 15:44 10.10.2019
443 Clear 24 1021 50 10000 2.1 0 15:25 10.10.2019
444 Clear 23 1022 56 10000 3.1 70 14:59 10.10.2019
445 Clear 23 1021 53 10000 2.6 80 14:59 10.10.2019
446 Clear 23 1022 56 10000 3.1 70 14:38 10.10.2019
447 Clear 23 1022 56 10000 3.1 70 14:38 10.10.2019
448 Clouds 22 1022 56 10000 2.6 30 14:19 10.10.2019
449 Clouds 22 1022 56 10000 2.6 10 13:59 10.10.2019
450 Clouds 22 1022 56 10000 2.6 10 13:41 10.10.2019
451 Clouds 21 1023 56 10000 2.6 20 13:19 10.10.2019
452 Clouds 21 1023 56 10000 2.6 20 13:19 10.10.2019
453 Clouds 20 1023 56 10000 2.6 20 12:56 10.10.2019
454 Clouds 19 1023 56 10000 2.1 360 12:38 10.10.2019
455 Clouds 19 1023 59 10000 2.6 10 12:19 10.10.2019
456 Clouds 18 1023 59 10000 2.1 350 11:55 10.10.2019
457 Clouds 17 1023 59 10000 2.1 350 11:36 10.10.2019
458 Clouds 17 1022 59 10000 4.1 50 11:18 10.10.2019
459 Clouds 17 1022 63 10000 1.5 40 10:44 10.10.2019
460 Clouds 16 1022 63 10000 1.5 40 10:25 10.10.2019
461 -273 0 0 0 0 0 09:55 10.10.2019
462 Clouds 15 1021 63 10000 1.5 20 09:37 10.10.2019
463 Clouds 14 1021 63 10000 2.6 360 09:19 10.10.2019
464 Clouds 14 1021 62 10000 3.1 360 08:41 10.10.2019
465 Clouds 13 1021 62 10000 3.1 360 08:23 10.10.2019
466 Clouds 13 1021 62 10000 3.1 360 07:58 10.10.2019
467 Clouds 13 1021 62 10000 3.1 360 07:40 10.10.2019
468 Clouds 13 1020 67 10000 2.1 360 07:20 10.10.2019
469 Clear 13 1020 67 10000 2.1 20 06:45 10.10.2019
470 Clear 14 1020 67 10000 2.1 20 06:22 10.10.2019
471 Clear 14 1020 62 10000 2.6 350 05:23 10.10.2019
472 Clear 15 1020 62 10000 2.1 10 04:37 10.10.2019
473 Clear 16 1020 55 10000 4.1 360 02:54 10.10.2019
474 Clear 18 1020 55 10000 3.1 10 01:42 10.10.2019
475 Clear 18 1020 55 10000 3.1 10 01:42 10.10.2019
476 Clear 18 1019 52 10000 3.1 360 01:23 10.10.2019
477 Clear 18 1019 49 10000 3.6 340 00:45 10.10.2019
478 Clear 19 1019 43 10000 4.1 350 00:19 10.10.2019
479 Clear 20 1019 37 10000 2.6 30 23:39 09.10.2019
480 Clear 21 1018 38 10000 2.1 30 23:19 09.10.2019
481 Clear 22 1018 33 10000 2.1 10 22:43 09.10.2019
482 Clear 22 1018 29 10000 2.6 340 22:24 09.10.2019
483 Clear 23 1018 29 10000 2.6 340 21:59 09.10.2019
484 Clear 23 1017 27 10000 3.1 320 21:39 09.10.2019
485 Clear 24 1017 27 10000 2.6 310 21:20 09.10.2019
486 Clear 24 1017 27 10000 2.6 310 20:56 09.10.2019
487 Clear 24 1017 27 10000 2.6 310 20:56 09.10.2019
488 Clear 24 1017 24 10000 2.6 290 20:37 09.10.2019
489 Clear 25 1017 36 10000 2.1 0 20:18 09.10.2019
490 Clear 27 1016 32 10000 3.1 220 19:45 09.10.2019
491 Clear 27 1016 32 10000 3.1 220 19:24 09.10.2019
492 Clear 28 1016 32 10000 3.1 180 18:58 09.10.2019
493 Clear 27 1016 30 10000 1 0 18:38 09.10.2019
494 Clear 28 1017 32 10000 1.5 0 18:18 09.10.2019
495 Clear 28 1017 32 10000 2.1 180 17:55 09.10.2019
496 Clear 28 1017 32 10000 2.1 180 17:37 09.10.2019
497 Clear 27 1017 32 10000 1 0 17:18 09.10.2019
498 Clear 28 1017 37 10000 1.5 0 16:41 09.10.2019
499 Clear 28 1017 37 10000 1.5 0 16:23 09.10.2019
500 Clear 27 1018 39 10000 2.1 330 15:58 09.10.2019
501 Clear 27 1018 39 10000 1.5 110 15:39 09.10.2019
502 Clear 26 1018 41 10000 1.5 0 15:20 09.10.2019
503 Clear 26 1018 41 10000 1.5 0 14:58 09.10.2019
504 Clear 26 1018 41 10000 1.5 0 14:58 09.10.2019
505 Clear 26 1018 41 10000 1.5 0 14:40 09.10.2019
506 Clear 25 1019 41 10000 2.1 0 14:18 09.10.2019
507 Clear 25 1019 47 10000 2.1 360 13:40 09.10.2019
508 Clear 24 1019 47 10000 2.1 0 13:21 09.10.2019
509 Clear 24 1019 47 10000 2.1 0 12:59 09.10.2019
510 Clear 24 1019 47 10000 2.1 0 12:59 09.10.2019
511 Clear 23 1019 46 10000 2.6 30 12:40 09.10.2019
512 Clear 22 1019 46 10000 1.5 0 12:21 09.10.2019
513 Clear 22 1019 46 10000 1.5 0 11:55 09.10.2019
514 Clear 21 1019 49 10000 2.1 80 11:37 09.10.2019
515 Clear 20 1019 46 10000 1.5 110 11:19 09.10.2019
516 Clear 20 1019 52 10000 1.5 60 10:44 09.10.2019
517 Clear 19 1018 55 10000 0.5 0 10:21 09.10.2019
518 Clear 18 1018 55 10000 0.5 0 09:59 09.10.2019
519 Clear 17 1018 59 10000 1 0 09:40 09.10.2019
520 Clear 17 1018 59 10000 1 0 09:40 09.10.2019
521 Clear 17 1018 59 10000 1 0 09:40 09.10.2019
522 Clear 17 1018 59 10000 2.6 340 09:19 09.10.2019
523 Clear 16 1018 67 10000 1.5 340 08:41 09.10.2019
524 Clear 16 1017 67 10000 2 334.523 08:23 09.10.2019
525 Clear 16 1017 67 10000 2 334.523 07:58 09.10.2019
526 Clear 16 1017 67 10000 2 334.523 07:39 09.10.2019
527 Clear 17 1017 71 10000 0.5 0 07:20 09.10.2019
528 Clear 17 1017 67 10000 1 0 06:51 09.10.2019
529 Clear 17 1017 67 10000 3.1 360 05:56 09.10.2019
530 Clear 17 1017 67 10000 1 0 05:28 09.10.2019
531 Clear 18 1017 67 10000 1 10 04:25 09.10.2019
532 Clear 19 1018 63 10000 1.86 331.404 02:52 09.10.2019
533 Clear 20 1018 55 10000 1.5 360 01:43 09.10.2019
534 Clear 20 1018 52 10000 1.5 350 01:20 09.10.2019
535 Clear 20 1018 52 10000 1.5 350 01:20 09.10.2019
536 Clear 21 1018 52 10000 1.5 350 00:56 09.10.2019
537 Clear 21 1018 52 10000 2.1 10 00:38 09.10.2019
538 Clear 21 1018 49 10000 2.1 340 00:19 09.10.2019
539 Clear 21 1018 49 10000 2.1 360 23:39 08.10.2019
540 Clear 22 1017 46 10000 1 0 23:19 08.10.2019
541 Clear 22 1017 46 10000 1 0 22:56 08.10.2019
542 Clear 22 1018 46 10000 1.25 302.068 22:38 08.10.2019
543 Clear 22 1018 40 10000 0.5 90 22:19 08.10.2019
544 Clear 23 1018 40 10000 0.5 90 21:57 08.10.2019
545 Clear 23 1018 37 10000 1.25 302.068 21:39 08.10.2019
546 Clear 24 1018 38 10000 1.59 236.908 21:19 08.10.2019
547 Clear 24 1018 38 10000 1.59 236.908 21:19 08.10.2019
548 Clear 25 1018 38 10000 1.59 236.908 20:56 08.10.2019
549 Clear 25 1017 31 10000 1 0 20:37 08.10.2019
550 Clear 26 1017 28 10000 2.1 190 20:19 08.10.2019
551 Clear 28 1017 28 10000 2.1 190 19:56 08.10.2019
552 Clear 27 1017 28 10000 2.1 190 19:37 08.10.2019
553 Clear 28 1017 28 10000 3.1 190 19:19 08.10.2019
554 Clear 28 1018 26 10000 2.6 210 18:46 08.10.2019
555 Clear 28 1018 25 10000 1.5 180 18:27 08.10.2019
556 Clear 28 1018 25 10000 1.5 180 17:59 08.10.2019
557 Clear 28 1018 26 10000 2.6 180 17:40 08.10.2019
558 Clear 28 1018 26 10000 2.6 180 17:40 08.10.2019
559 Clear 28 1018 26 10000 2.6 180 17:40 08.10.2019
560 Clear 28 1018 26 10000 2.1 170 17:20 08.10.2019
561 Clear 28 1018 26 10000 2.1 170 16:56 08.10.2019
562 Clear 28 1019 28 10000 2.6 130 16:38 08.10.2019
563 Clear 28 1019 30 10000 2.1 190 16:20 08.10.2019
564 Clear 27 1019 28 10000 2.1 0 15:40 08.10.2019
565 Clear 27 1020 30 10000 2.1 0 15:21 08.10.2019
566 Clear 26 1020 30 10000 2.1 0 14:57 08.10.2019
567 Clear 26 1020 34 10000 2.1 140 14:39 08.10.2019
568 Clear 26 1021 36 10000 2.1 100 14:20 08.10.2019
569 Clear 26 1021 36 10000 2.1 100 13:56 08.10.2019
570 Clear 25 1021 36 10000 1 0 13:37 08.10.2019
571 Clear 24 1021 33 10000 0.5 0 13:18 08.10.2019
572 Clear 24 1022 38 10000 1 0 12:42 08.10.2019
573 Clear 22 1022 40 10000 1.5 70 12:21 08.10.2019
574 Clear 22 1022 40 10000 1.5 70 11:59 08.10.2019
575 Clear 21 1022 43 10000 1 0 11:40 08.10.2019
576 Clear 21 1022 45 10000 1 0 11:22 08.10.2019
577 Clear 20 1021 45 10000 1 0 10:55 08.10.2019
578 Clear 20 1021 45 10000 1 0 10:36 08.10.2019
579 Clear 18 1021 52 10000 1 0 10:18 08.10.2019
580 Clear 17 1021 55 10000 1 0 09:41 08.10.2019
581 Clear 17 1021 55 10000 1 0 09:41 08.10.2019
582 Clear 17 1021 55 10000 1 0 09:41 08.10.2019
583 Clear 16 1021 62 10000 1 0 09:23 08.10.2019
584 Clear 15 1021 62 10000 1 0 08:59 08.10.2019
585 Clear 15 1021 55 10000 1 360 08:41 08.10.2019
586 Clear 14 1021 55 10000 1 360 08:22 08.10.2019
587 Clear 15 1021 62 10000 0.67 64.551 07:42 08.10.2019
588 Clear 15 1020 66 10000 1 360 07:21 08.10.2019
589 Clear 15 1020 62 10000 2.1 350 06:49 08.10.2019
590 Clear 15 1020 62 10000 2.1 350 06:28 08.10.2019
591 Clear 15 1020 62 10000 2.1 350 05:45 08.10.2019
592 Clear 16 1020 62 10000 2.1 350 05:25 08.10.2019
593 Clear 17 1020 55 10000 3.1 340 03:57 08.10.2019
594 Clear 17 1020 55 10000 1.5 350 03:24 08.10.2019
595 Clear 18 1020 45 10000 1 0 02:35 08.10.2019
596 Clear 19 1020 42 10000 1 90 01:44 08.10.2019
597 Clear 19 1020 45 10000 0.5 240 01:25 08.10.2019
598 Clear 20 1020 42 10000 1 0 00:45 08.10.2019
599 Clear 20 1020 42 10000 1 10 00:20 08.10.2019
600 Clear 21 1020 40 10000 1 0 23:39 07.10.2019
601 Clear 21 1020 40 10000 1 0 23:19 07.10.2019
602 Clear 21 1020 40 10000 1 0 22:56 07.10.2019
603 Clear 22 1020 46 10000 1 0 22:37 07.10.2019
604 Clear 22 1020 46 10000 1 0 22:19 07.10.2019
605 Clear 22 1020 46 10000 2.56 331.523 21:55 07.10.2019
606 Clear 22 1020 46 10000 0.5 0 21:37 07.10.2019
607 Clear 23 1020 43 10000 1 170 21:18 07.10.2019
608 Clear 23 1020 43 10000 1 170 21:18 07.10.2019
609 Clear 24 1020 43 10000 1 170 20:57 07.10.2019
610 Clear 24 1020 36 10000 1.5 170 20:38 07.10.2019
611 Clear 25 1019 31 10000 1 0 20:19 07.10.2019
612 Clear 26 1019 30 10000 1.5 150 19:55 07.10.2019
613 Clear 26 1019 31 10000 1 0 19:54 07.10.2019
614 Clear 26 1019 30 10000 1.5 150 19:54 07.10.2019
615 Clear 27 1019 30 10000 1.5 150 19:36 07.10.2019
616 Clear 27 1019 28 10000 1 0 19:18 07.10.2019
617 Clear 28 1019 28 10000 1.5 0 18:42 07.10.2019
618 Clear 28 1019 28 10000 1 0 18:19 07.10.2019
619 Clear 28 1019 28 10000 1 0 17:58 07.10.2019
620 Clear 28 1020 28 10000 1.5 140 17:40 07.10.2019
621 Clear 27 1020 30 10000 3.1 130 17:19 07.10.2019
622 Clear 27 1020 30 10000 2.1 100 16:46 07.10.2019
623 Clear 27 1020 29 10000 2.6 0 16:28 07.10.2019
624 Clear 26 1020 29 10000 2.6 0 15:58 07.10.2019
625 Clear 26 1020 31 10000 1.5 0 15:40 07.10.2019
626 Clear 26 1021 31 10000 1.5 190 15:21 07.10.2019
627 Clear 25 1021 33 10000 1.5 140 14:42 07.10.2019
628 Clear 25 1021 33 10000 1 0 14:23 07.10.2019
629 Clear 24 1021 33 10000 0.5 80 13:45 07.10.2019
630 Clear 23 1021 36 10000 1 0 13:21 07.10.2019
631 Clear 23 1021 36 10000 1 0 12:59 07.10.2019
632 Clear 23 1022 38 10000 1.5 190 12:40 07.10.2019
633 Clear 22 1022 43 10000 1 0 12:21 07.10.2019
634 Clear 22 1022 43 10000 1 0 12:21 07.10.2019
635 Clear 21 1022 43 10000 1 0 11:59 07.10.2019
636 Clear 21 1022 49 10000 1 0 11:40 07.10.2019
637 Clear 20 1022 49 10000 1 0 11:21 07.10.2019
638 Clear 20 1021 48 10000 1 0 10:58 07.10.2019
639 Clear 20 1021 48 10000 1 0 10:58 07.10.2019
640 Clear 19 1021 48 10000 1 0 10:39 07.10.2019
641 Clear 18 1021 52 10000 1 0 10:20 07.10.2019
642 Clear 16 1021 59 10000 1.5 360 09:40 07.10.2019
643 Clear 15 1020 58 10000 1 0 09:22 07.10.2019
644 Clear 15 1021 58 10000 1.5 360 08:44 07.10.2019
645 Clear 15 1020 55 10000 1 0 08:21 07.10.2019
646 Clear 15 1020 55 10000 1 0 07:59 07.10.2019
647 Clear 15 1020 58 10000 1.5 90 07:40 07.10.2019
648 Clear 15 1020 66 10000 1.03 346.993 07:20 07.10.2019
649 Clear 15 1020 62 10000 1.5 30 06:44 07.10.2019
650 Clear 16 1020 62 10000 0.5 0 06:22 07.10.2019
651 Clear 16 1019 62 10000 1 0 05:27 07.10.2019
652 Clear 16 1019 62 10000 0.5 20 04:56 07.10.2019
653 Clear 17 1020 54 10000 1.5 360 04:19 07.10.2019
654 Clear 17 1020 54 10000 0.5 0 03:39 07.10.2019
655 Clear 17 1020 54 10000 0.5 0 03:39 07.10.2019
656 Clear 18 1020 51 10000 1.5 20 03:18 07.10.2019
657 Clear 18 1020 48 10000 0.5 0 02:20 07.10.2019
658 Clear 18 1021 48 10000 3.29 317.572 01:42 07.10.2019
659 Clear 19 1021 42 10000 1.5 200 01:18 07.10.2019
660 Clear 20 1021 42 10000 1 0 00:38 07.10.2019
661 Clear 20 1021 39 10000 0.5 120 00:19 07.10.2019
662 Clear 21 1020 39 10000 1 0 23:42 06.10.2019
663 Clear 21 1020 35 10000 3.1 330 23:21 06.10.2019
664 Clear 22 1020 35 10000 3.1 330 22:58 06.10.2019
665 Clear 22 1020 35 10000 3.1 310 22:40 06.10.2019
666 Clear 22 1020 31 10000 4.6 300 22:21 06.10.2019
667 Clear 22 1020 31 10000 4.6 300 21:57 06.10.2019
668 Clear 23 1020 31 10000 4.6 300 21:37 06.10.2019
669 Clear 23 1020 31 10000 4.6 300 21:37 06.10.2019
670 Clear 23 1019 27 10000 4.1 300 21:19 06.10.2019
671 Clear 23 1019 23 10000 2.1 330 20:57 06.10.2019
672 Clear 24 1019 23 10000 3.6 290 20:38 06.10.2019
673 Clear 25 1019 22 10000 5.1 270 20:20 06.10.2019
674 Clear 26 1019 22 10000 5.1 270 19:57 06.10.2019
675 Clear 26 1019 24 10000 5.7 270 19:37 06.10.2019
676 Clear 27 1019 24 10000 1.5 220 19:19 06.10.2019
677 Clear 27 1019 24 10000 1.5 220 18:56 06.10.2019
678 Clear 27 1019 24 10000 1 240 18:38 06.10.2019
679 Clear 27 1019 24 10000 2.1 210 18:19 06.10.2019
680 Clear 27 1020 23 10000 1.5 0 17:43 06.10.2019
681 Clear 27 1020 23 10000 1.5 0 17:21 06.10.2019
682 Clear 27 1020 24 10000 2.1 230 16:59 06.10.2019
683 Clear 27 1020 24 10000 1 0 16:41 06.10.2019
684 Clear 27 1020 28 10000 1 200 16:23 06.10.2019
685 Clear 26 1020 27 10000 1.5 0 15:45 06.10.2019
686 Clear 26 1020 27 10000 1.5 0 15:45 06.10.2019
687 Clear 26 1020 27 10000 1.5 0 15:23 06.10.2019
688 Clear 25 1021 31 10000 1.5 0 14:59 06.10.2019
689 Clear 25 1021 36 10000 2.1 190 14:40 06.10.2019
690 Clear 24 1021 36 10000 2.1 160 14:22 06.10.2019
691 Clear 24 1022 38 10000 1.5 0 13:55 06.10.2019
692 Clear 24 1022 38 10000 1.5 0 13:37 06.10.2019
693 Clear 23 1021 40 10000 1.5 100 13:19 06.10.2019
694 Clear 23 1021 40 10000 1.5 100 12:55 06.10.2019
695 Clear 22 1022 43 10000 1.5 70 12:37 06.10.2019
696 Clear 21 1022 46 10000 1.5 0 12:19 06.10.2019
697 Clear 20 1021 48 10000 2.1 90 11:43 06.10.2019
698 Clear 19 1021 46 10000 1 0 11:24 06.10.2019
699 Clear 19 1021 46 10000 1 0 11:24 06.10.2019
700 Clear 19 1021 46 10000 1 0 10:58 06.10.2019
701 Clear 19 1021 52 10000 1.5 360 10:39 06.10.2019
702 Clear 17 1021 59 10000 1.5 360 10:21 06.10.2019
703 Clear 16 1020 62 10000 2.1 10 09:42 06.10.2019
704 Clear 16 1020 62 10000 2.1 10 09:42 06.10.2019
705 Clear 15 1020 62 10000 2.1 10 09:21 06.10.2019
706 Clear 14 1020 62 10000 1.5 360 09:21 06.10.2019
707 Clear 13 1019 66 10000 0.5 0 08:57 06.10.2019
708 Clear 13 1019 66 10000 0.5 0 08:39 06.10.2019
709 Clear 13 1019 71 10000 0.5 0 08:19 06.10.2019
710 Clear 13 1020 58 10000 1.5 360 07:41 06.10.2019
711 Clear 13 1019 76 10000 1.5 320 07:18 06.10.2019
712 Clear 14 1019 76 10000 1.5 10 06:18 06.10.2019
713 Clear 15 1019 71 10000 2.1 360 05:27 06.10.2019
714 Clear 17 1019 67 10000 3.34 316.481 03:23 06.10.2019
715 Clear 18 1019 67 10000 1.5 20 02:40 06.10.2019
716 Clear 18 1019 63 10000 1 0 01:57 06.10.2019
717 Clear 18 1018 63 10000 3.17 315.485 01:37 06.10.2019
718 Clear 18 1018 59 10000 2.1 10 01:18 06.10.2019
719 Clear 19 1018 59 10000 2.1 330 00:45 06.10.2019
720 Clear 20 1018 52 10000 2.6 350 00:21 06.10.2019
721 Clear 20 1018 46 10000 2.1 130 23:42 05.10.2019
722 Clear 21 1018 52 10000 1 0 23:21 05.10.2019
723 Clear 21 1018 46 10000 3.6 230 22:56 05.10.2019
724 Clear 21 1018 46 10000 3.6 230 22:38 05.10.2019
725 Clear 21 1018 46 10000 3.6 230 22:38 05.10.2019
726 Clear 20 1018 46 10000 3.6 230 22:38 05.10.2019
727 Clear 21 1018 49 10000 3.1 240 22:19 05.10.2019
728 Clear 22 1018 43 10000 3.6 230 21:42 05.10.2019
729 Clear 22 1018 43 10000 3.6 230 21:42 05.10.2019
730 Clear 22 1018 43 10000 3.6 230 21:24 05.10.2019
731 Clear 23 1017 38 10000 2.1 140 20:59 05.10.2019
732 Clear 23 1017 38 10000 2.6 220 20:40 05.10.2019
733 Clear 25 1017 33 10000 2.6 190 20:20 05.10.2019
734 Clear 25 1017 34 10000 2.6 180 19:57 05.10.2019
735 Clear 26 1017 34 10000 2.6 180 19:37 05.10.2019
736 Clear 26 1017 30 10000 3.1 200 19:18 05.10.2019
737 Clear 26 1017 30 10000 3.1 190 18:55 05.10.2019
738 Clear 26 1017 30 10000 3.1 190 18:36 05.10.2019
739 Clear 27 1017 30 10000 2.6 170 18:18 05.10.2019
740 Clear 27 1017 30 10000 2.1 230 17:42 05.10.2019
741 Clear 26 1017 32 10000 2.1 240 17:22 05.10.2019
742 Clear 26 1017 32 10000 2.1 240 16:56 05.10.2019
743 Clear 26 1017 32 10000 2.1 210 16:37 05.10.2019
744 Clear 26 1017 34 10000 2.1 210 16:19 05.10.2019
745 Clear 26 1018 36 10000 2.1 0 15:56 05.10.2019
746 Clear 25 1018 36 10000 2.1 0 15:37 05.10.2019
747 Clear 25 1018 38 10000 2.6 190 15:19 05.10.2019
748 Clear 24 1018 38 10000 1 100 14:42 05.10.2019
749 Clear 24 1018 38 10000 1 100 14:23 05.10.2019
750 Clear 24 1019 46 10000 2.6 110 13:44 05.10.2019
751 Clear 23 1019 46 10000 1.5 50 13:26 05.10.2019
752 Clear 23 1019 46 10000 1.5 50 12:59 05.10.2019
753 Clear 22 1019 46 10000 1.5 0 12:41 05.10.2019
754 Clear 21 1019 49 10000 1.5 50 12:19 05.10.2019
755 Clear 20 1019 52 10000 1.5 30 11:41 05.10.2019
756 Clear 20 1019 52 10000 1.5 30 11:20 05.10.2019
757 Clear 19 1019 52 10000 1.5 10 10:57 05.10.2019
758 Clear 19 1018 55 10000 1 0 10:57 05.10.2019
759 Clear 19 1018 55 10000 1 0 10:38 05.10.2019
760 Clear 16 1018 59 10000 1 0 10:20 05.10.2019
761 Clear 15 1018 63 10000 1 0 09:41 05.10.2019
762 Clear 14 1018 63 10000 1 0 09:23 05.10.2019
763 Clear 13 1017 76 10000 0.2 99.135 08:43 05.10.2019
764 Clear 13 1017 76 10000 0.2 99.135 08:23 05.10.2019
765 Clear 13 1017 71 10000 0.2 99.135 07:59 05.10.2019
766 Clear 13 1017 71 10000 0.2 99.135 07:39 05.10.2019
767 Clear 13 1017 71 10000 0.2 99.135 07:39 05.10.2019
768 Clear 13 1017 71 10000 0.5 0 07:20 05.10.2019
769 Clear 14 1017 71 10000 2.1 10 06:52 05.10.2019
770 Clear 13 1017 71 10000 1 0 06:21 05.10.2019
771 Clear 14 1017 58 10000 0.5 0 04:46 05.10.2019
772 Clear 16 1017 54 10000 1.5 150 03:32 05.10.2019
773 Clear 18 1017 58 10000 0.5 0 02:26 05.10.2019
774 Clear 18 1017 51 10000 2.6 310 01:26 05.10.2019
775 Clear 19 1017 48 10000 2.1 10 00:48 05.10.2019
776 Clear 19 1017 48 10000 2.1 10 00:48 05.10.2019
777 Clear 19 1017 48 10000 2.1 10 00:27 05.10.2019
778 Clear 20 1017 39 10000 1 0 23:57 04.10.2019
779 Clear 20 1016 37 10000 1.5 130 23:39 04.10.2019
780 Clear 21 1016 35 10000 1.5 180 23:20 04.10.2019
781 Clear 21 1017 35 10000 3.1 220 22:42 04.10.2019
782 Clear 21 1017 35 10000 3.1 220 22:24 04.10.2019
783 Clear 22 1017 37 10000 3.1 230 21:59 04.10.2019
784 Clear 22 1017 34 10000 2.6 220 21:40 04.10.2019
785 Clear 22 1017 34 10000 2.6 220 21:22 04.10.2019
786 Clear 23 1017 31 10000 2.6 220 20:58 04.10.2019
787 Clear 24 1017 29 10000 2.6 220 20:40 04.10.2019
788 Clear 25 1016 26 10000 3.6 210 20:21 04.10.2019
789 Clear 26 1016 26 10000 3.6 200 19:55 04.10.2019
790 Clear 26 1016 26 10000 3.6 200 19:37 04.10.2019
791 Clear 26 1016 24 10000 3.1 190 19:19 04.10.2019
792 Clear 27 1016 23 10000 3.6 220 18:40 04.10.2019
793 Clear 27 1016 23 10000 2.1 210 18:20 04.10.2019
794 Clear 26 1017 26 10000 2.6 180 17:59 04.10.2019
795 Clear 26 1017 26 10000 2.6 180 17:39 04.10.2019
796 Clear 26 1017 24 10000 2.1 260 17:21 04.10.2019
797 Clear 26 1018 26 10000 3.6 210 16:57 04.10.2019
798 Clear 26 1018 26 10000 3.6 210 16:39 04.10.2019
799 -273 0 0 0 0 0 16:39 04.10.2019
800 Clear 26 1018 27 10000 2.1 210 16:18 04.10.2019
801 Clear 26 1018 27 10000 2.1 210 15:55 04.10.2019
802 Clear 25 1018 29 10000 2.6 180 15:37 04.10.2019
803 Clear 25 1018 29 10000 2.6 180 15:19 04.10.2019
804 Clear 25 1018 29 10000 2.6 180 15:19 04.10.2019
805 -273 0 0 0 0 0 14:55 04.10.2019
806 Clear 24 1019 31 10000 2.1 150 14:36 04.10.2019
807 Clear 24 1019 33 10000 2.1 150 14:18 04.10.2019
808 Clear 23 1020 31 10000 1.5 0 13:43 04.10.2019
809 Clear 23 1020 33 10000 1 120 13:21 04.10.2019
810 Clear 22 1020 37 10000 1.5 110 12:47 04.10.2019
811 Clear 21 1020 37 10000 1.5 110 12:29 04.10.2019
812 Clear 20 1020 37 10000 1 0 11:59 04.10.2019
813 Clear 20 1020 37 10000 1 0 11:59 04.10.2019
814 Clear 20 1020 37 10000 1 0 11:59 04.10.2019
815 Clear 20 1020 42 10000 1 0 11:41 04.10.2019
816 Clear 19 1020 42 10000 1.5 60 11:20 04.10.2019
817 Clear 19 1020 42 10000 1.5 60 11:20 04.10.2019
818 Clear 18 1020 45 10000 1 0 10:41 04.10.2019
819 Clear 16 1020 51 10000 0.5 0 10:21 04.10.2019
820 Clear 15 1020 51 10000 0.5 0 09:48 04.10.2019
821 Clear 14 1020 51 10000 0.5 0 09:30 04.10.2019
822 Clear 13 1019 58 10000 1 0 08:57 04.10.2019
823 Clear 13 1019 58 10000 1 0 08:38 04.10.2019
824 Clear 13 1019 58 10000 1 0 08:38 04.10.2019
825 Clear 13 1019 58 10000 1 0 08:20 04.10.2019
826 Clear 13 1019 62 10000 1 360 07:46 04.10.2019
827 Clear 13 1019 71 10000 1 340 07:23 04.10.2019
828 Clear 13 1019 71 10000 2.6 20 06:47 04.10.2019
829 Clear 13 1019 71 10000 2.6 20 06:47 04.10.2019
830 Clear 13 1019 71 10000 2.6 20 06:27 04.10.2019
831 Clear 13 1019 66 10000 0.5 0 05:52 04.10.2019
832 Clear 14 1019 66 10000 1.5 320 05:19 04.10.2019
833 Clear 15 1019 66 10000 0.5 30 03:56 04.10.2019
834 Clear 15 1019 62 10000 0.5 10 02:54 04.10.2019
835 Clear 15 1019 58 10000 1.15 321.387 02:54 04.10.2019
836 Clear 17 1019 54 10000 1 0 02:18 04.10.2019
837 Clear 17 1019 58 10000 1.5 40 01:42 04.10.2019
838 Clear 17 1019 54 10000 1.5 330 01:23 04.10.2019
839 Clear 18 1019 48 10000 2.1 360 00:18 04.10.2019
840 Clear 19 1019 48 10000 3.1 280 23:37 03.10.2019
841 Clear 19 1019 39 10000 1.59 308.131 23:18 03.10.2019
842 Clear 19 1019 39 10000 1.59 308.131 22:57 03.10.2019
843 Clear 19 1019 39 10000 1.59 308.131 22:57 03.10.2019
844 Clear 20 1019 32 10000 2.6 310 22:39 03.10.2019
845 Clear 20 1019 39 10000 3.6 260 22:21 03.10.2019
846 Clear 20 1019 39 10000 2.6 250 21:56 03.10.2019
847 Clear 21 1019 39 10000 2.6 250 21:37 03.10.2019
848 Clear 21 1019 34 10000 2.6 230 21:19 03.10.2019
849 Clear 22 1019 34 10000 2.6 230 20:56 03.10.2019
850 Clear 22 1019 31 10000 1 0 20:37 03.10.2019
851 Clear 23 1018 29 10000 2.6 70 20:19 03.10.2019
852 Clear 24 1018 29 10000 2.6 70 19:55 03.10.2019
853 Clear 24 1018 29 10000 2.6 70 19:55 03.10.2019
854 Clear 24 1018 29 10000 2.6 140 19:36 03.10.2019
855 Clear 24 1018 24 10000 2.1 180 19:18 03.10.2019
856 Clear 25 1018 26 10000 2.6 210 18:40 03.10.2019
857 Clear 25 1019 26 10000 1 0 18:19 03.10.2019
858 Clear 25 1020 25 10000 2.1 120 18:19 03.10.2019
859 Clear 25 1019 26 10000 1 0 17:59 03.10.2019
860 Clear 25 1019 27 10000 1 0 17:41 03.10.2019
861 Clear 24 1019 26 10000 1 0 17:19 03.10.2019
862 Clear 24 1019 29 10000 2.1 180 16:44 03.10.2019
863 Clear 24 1019 29 10000 2.51 291.886 16:26 03.10.2019
864 Clear 24 1019 29 10000 2.51 291.886 15:57 03.10.2019
865 Clear 23 1020 28 10000 1.5 110 15:39 03.10.2019
866 Clear 23 1020 31 10000 1.5 0 15:20 03.10.2019
867 Clear 22 1020 35 10000 1.5 130 14:47 03.10.2019
868 Clear 21 1020 35 10000 1.5 130 14:27 03.10.2019
869 Clear 21 1021 37 10000 2.06 184.149 13:59 03.10.2019
870 Clear 21 1021 40 10000 1.5 0 13:41 03.10.2019
871 Clear 20 1021 40 10000 1.5 0 13:19 03.10.2019
872 Clear 19 1021 42 10000 1 0 12:57 03.10.2019
873 Clear 19 1021 48 10000 1.5 190 12:38 03.10.2019
874 Clear 18 1021 52 10000 2.1 90 12:19 03.10.2019
875 Clear 16 1021 51 10000 1 0 11:41 03.10.2019
876 Clear 16 1021 51 10000 1 0 11:23 03.10.2019
877 Clear 16 1021 55 10000 1 0 10:59 03.10.2019
878 Clear 15 1021 59 10000 0.68 236.052 10:40 03.10.2019
879 Clear 14 1021 59 10000 0.68 236.052 10:19 03.10.2019
880 Clear 13 1021 59 10000 0.68 236.052 09:58 03.10.2019
881 Clear 12 1021 66 10000 0.68 236.052 09:40 03.10.2019
882 Clear 10 1021 71 10000 1.54 249.714 09:21 03.10.2019
883 Clear 11 1020 71 10000 1.51 248.487 08:45 03.10.2019
884 Clear 10 1020 71 10000 1.51 248.487 08:27 03.10.2019
885 Clear 11 1020 71 10000 1.51 248.487 07:57 03.10.2019
886 Clear 11 1020 71 10000 1.51 248.487 07:39 03.10.2019
887 Clear 10 1020 76 10000 1.5 350 07:19 03.10.2019
888 Clear 11 1020 71 10000 1 0 06:50 03.10.2019
889 Clear 11 1020 71 10000 1 0 06:24 03.10.2019
890 Clear 12 1020 66 10000 1 350 05:46 03.10.2019
891 Clear 12 1020 66 10000 1.5 30 05:19 03.10.2019
892 Clear 12 1020 62 10000 1 0 04:27 03.10.2019
893 Clear 13 1020 58 10000 1.14 324.321 03:24 03.10.2019
894 Clear 13 1020 54 10000 0.5 0 02:39 03.10.2019
895 Clear 14 1020 58 10000 1 0 01:52 03.10.2019
896 Clear 14 1021 54 10000 1 0 01:33 03.10.2019
897 Clear 15 1021 54 10000 1.5 50 00:49 03.10.2019
898 Clear 15 1020 48 10000 2.1 110 00:19 03.10.2019
899 Clear 16 1020 45 10000 1.5 0 23:43 02.10.2019
900 Clear 17 1020 45 10000 1.5 0 23:22 02.10.2019
901 Clear 18 1020 42 10000 1 0 22:44 02.10.2019
902 Clear 18 1020 42 10000 1 0 22:22 02.10.2019
903 Clear 18 1020 37 10000 1.5 40 21:58 02.10.2019
904 Clear 18 1020 37 10000 1.5 40 21:38 02.10.2019
905 Clear 19 1020 37 10000 1.5 40 21:20 02.10.2019
906 Clear 19 1019 35 10000 1 0 20:57 02.10.2019
907 Clear 20 1019 35 10000 1 0 20:38 02.10.2019
908 Clear 20 1019 28 10000 0.5 0 20:20 02.10.2019
909 Clear 22 1019 28 10000 0.5 0 19:56 02.10.2019
910 Clear 22 1019 28 10000 1.5 0 19:38 02.10.2019
911 Clear 22 1019 28 10000 1 0 19:19 02.10.2019
912 Clear 22 1019 28 10000 1 0 18:56 02.10.2019
913 Clear 23 1019 29 10000 0.5 0 18:38 02.10.2019
914 Clear 23 1019 29 10000 1.5 0 18:19 02.10.2019
915 Clear 23 1019 29 10000 1.5 10 17:43 02.10.2019
916 Clear 23 1019 35 10000 2.1 60 17:21 02.10.2019
917 Clear 23 1019 35 10000 2.1 60 17:21 02.10.2019
918 Clear 23 1019 35 10000 2.1 60 16:59 02.10.2019
919 Clear 23 1019 33 10000 1.5 0 16:41 02.10.2019
920 Clear 23 1019 33 10000 1.5 0 16:21 02.10.2019
921 Clear 22 1019 33 10000 1.5 90 15:57 02.10.2019
922 Clear 22 1019 35 10000 1 130 15:38 02.10.2019
923 Clear 22 1019 35 10000 1 130 15:18 02.10.2019
924 Clear 21 1019 35 10000 1 0 14:55 02.10.2019
925 Clear 21 1020 35 10000 1 0 14:36 02.10.2019
926 Clear 20 1020 42 10000 1.5 0 14:18 02.10.2019
927 Clear 20 1020 45 10000 2.1 0 13:42 02.10.2019
928 Clear 20 1020 45 10000 2.1 0 13:22 02.10.2019
929 Clear 19 1020 45 10000 2.1 70 12:56 02.10.2019
930 Clear 19 1020 45 10000 1.5 50 12:37 02.10.2019
931 Clear 18 1020 45 10000 1.5 50 12:18 02.10.2019
932 Clear 17 1020 48 10000 2.1 300 11:43 02.10.2019
933 Clear 17 1020 48 10000 2.1 300 11:21 02.10.2019
934 Clear 16 1019 55 10000 3.1 310 10:41 02.10.2019
935 Clear 16 1019 59 10000 2.6 320 10:20 02.10.2019
936 Clear 15 1019 58 10000 4.1 300 09:56 02.10.2019
937 Clear 14 1018 62 10000 3.6 300 09:36 02.10.2019
938 Clear 13 1018 62 10000 3.6 300 09:18 02.10.2019
939 Clear 13 1018 62 10000 5.7 300 08:42 02.10.2019
940 Clear 13 1018 62 10000 5.7 300 08:22 02.10.2019
941 Clear 13 1017 62 10000 5.7 300 07:55 02.10.2019
942 Clear 14 1018 62 10000 5.1 280 07:37 02.10.2019
943 Clear 14 1017 62 10000 1.5 30 07:18 02.10.2019
944 Clear 14 1016 59 10000 2.6 340 06:31 02.10.2019
945 Clear 15 1016 59 10000 6.2 290 05:52 02.10.2019
946 Clear 16 1016 59 10000 6.2 290 05:23 02.10.2019
947 Clear 16 1016 55 10000 6.2 280 04:41 02.10.2019
948 Clear 17 1017 55 10000 5.1 270 03:51 02.10.2019
949 Clear 17 1017 48 10000 2.6 340 02:39 02.10.2019
950 Clear 18 1017 48 10000 2.6 340 02:20 02.10.2019
951 Clear 18 1016 52 10000 2.1 10 01:19 02.10.2019
952 Clear 19 1017 45 10000 2.6 300 00:42 02.10.2019
953 Clear 19 1017 48 10000 2.1 320 00:23 02.10.2019
954 Clear 19 1016 52 10000 1.5 340 23:42 01.10.2019
955 Clear 20 1016 52 10000 1.5 340 23:24 01.10.2019
956 Clear 20 1016 49 10000 2.1 350 22:58 01.10.2019
957 Clear 21 1016 43 10000 5.1 290 22:38 01.10.2019
958 Clear 21 1016 43 10000 5.1 290 22:18 01.10.2019
959 Clear 21 1016 43 10000 4.6 290 21:44 01.10.2019
960 Clear 21 1016 43 10000 4.6 290 21:25 01.10.2019
961 Clear 21 1016 46 10000 3.1 310 20:59 01.10.2019
962 Clear 22 1016 43 10000 5.1 290 20:39 01.10.2019
963 Clear 22 1016 43 10000 5.1 290 20:21 01.10.2019
964 Clear 23 1016 40 10000 6.7 300 19:59 01.10.2019
965 Clear 23 1015 41 10000 6.2 290 19:41 01.10.2019
966 Clear 24 1015 41 10000 6.2 290 19:23 01.10.2019
967 Clear 24 1015 41 10000 6.2 280 18:58 01.10.2019
968 Clouds 25 1014 34 10000 7.7 290 18:38 01.10.2019
969 Clouds 25 1014 34 10000 7.7 290 18:19 01.10.2019
970 -273 0 0 0 0 0 17:54 01.10.2019
971 Clear 25 1015 36 10000 5.1 300 17:36 01.10.2019
972 Clear 26 1015 36 10000 7.2 290 17:18 01.10.2019
973 Clear 26 1015 31 10000 6.2 270 16:41 01.10.2019
974 Clear 26 1015 31 10000 6.2 270 16:41 01.10.2019
975 Clear 26 1015 31 10000 6.2 270 16:22 01.10.2019
976 Clear 26 1015 29 10000 7.2 280 15:55 01.10.2019
977 Clear 26 1015 28 10000 4.6 290 15:37 01.10.2019
978 Clear 26 1015 28 10000 4.6 290 15:18 01.10.2019
979 Clear 26 1015 28 10000 4.6 290 15:18 01.10.2019
980 Clear 25 1015 29 10000 3.6 300 14:40 01.10.2019
981 Clear 25 1015 29 10000 3.6 300 14:20 01.10.2019
982 Clear 24 1016 31 10000 3.6 270 13:57 01.10.2019
983 Clear 24 1016 29 10000 3.6 0 13:37 01.10.2019
984 Clear 23 1016 31 10000 3.1 240 13:18 01.10.2019
985 Clear 23 1016 31 10000 3.1 240 12:56 01.10.2019
986 Clear 22 1016 29 10000 2.1 230 12:37 01.10.2019
987 Clear 22 1016 29 10000 2.1 230 12:18 01.10.2019
988 Clear 21 1016 31 10000 0.5 110 11:56 01.10.2019
989 Clear 21 1016 31 10000 0.5 110 11:56 01.10.2019
990 Clear 21 1016 40 10000 1.5 150 11:37 01.10.2019
991 Clear 20 1016 40 10000 1.5 150 11:18 01.10.2019
992 Clear 19 1016 42 10000 1.5 160 10:47 01.10.2019
993 Clear 18 1016 42 10000 1 0 10:28 01.10.2019
994 Clear 16 1015 51 10000 0.5 0 09:45 01.10.2019
995 Clear 15 1015 51 10000 0.5 0 09:26 01.10.2019
996 Clear 14 1015 54 10000 0.8 300.495 08:45 01.10.2019
997 Clear 14 1015 54 10000 0.8 300.495 08:27 01.10.2019
998 Clear 14 1015 50 10000 0.8 300.495 07:56 01.10.2019
999 Clear 14 1015 50 10000 0.8 300.495 07:38 01.10.2019
1000 Clear 14 1015 50 10000 0.8 300.495 07:19 01.10.2019
1001 Clear 14 1015 62 10000 1.5 340 06:41 01.10.2019
1002 Clear 15 1015 62 10000 1.5 360 06:18 01.10.2019
1003 Clear 15 1015 58 10000 1.5 360 05:43 01.10.2019
1004 Clear 16 1015 58 10000 1.5 360 04:42 01.10.2019
1005 Clear 16 1016 54 10000 1.5 360 03:46 01.10.2019
1006 Clear 18 1016 51 10000 1.5 340 02:20 01.10.2019
1007 Clear 18 1016 48 10000 2.1 340 01:56 01.10.2019
1008 Clear 18 1016 48 10000 2.1 340 01:56 01.10.2019
1009 Clear 19 1016 48 10000 2.1 10 00:52 01.10.2019
1010 Clear 20 1016 42 10000 1.5 110 00:25 01.10.2019
1011 Clear 21 1016 40 10000 1 130 23:42 30.09.2019
1012 Clear 21 1016 32 10000 1 0 23:42 30.09.2019
1013 Clear 22 1016 32 10000 1 0 23:23 30.09.2019
1014 Clear 22 1016 28 10000 1.5 240 22:59 30.09.2019
1015 Clear 22 1016 28 10000 1.5 240 22:59 30.09.2019
1016 Clear 23 1016 28 10000 1.5 240 22:40 30.09.2019
1017 Clear 23 1017 27 10000 3.1 220 22:22 30.09.2019
1018 Clear 23 1016 32 10000 1.5 210 21:56 30.09.2019
1019 Clear 24 1016 25 10000 1.5 190 21:37 30.09.2019
1020 Clear 24 1016 25 10000 1.5 190 21:19 30.09.2019
1021 Clear 25 1016 25 10000 1.5 200 20:55 30.09.2019
1022 Clear 25 1016 25 10000 1.5 200 20:55 30.09.2019
1023 Clear 25 1016 19 10000 2.6 210 20:37 30.09.2019
1024 Clear 26 1016 19 10000 2.6 210 20:19 30.09.2019
1025 Clear 27 1016 20 10000 3.6 210 19:56 30.09.2019
1026 Clear 28 1016 20 10000 3.6 210 19:56 30.09.2019
1027 Clear 27 1016 20 10000 3.6 210 19:56 30.09.2019
1028 Clear 28 1016 20 10000 4.1 210 19:37 30.09.2019
1029 Clear 28 1016 18 10000 4.6 210 19:18 30.09.2019
1030 Clear 29 1017 18 10000 4.1 210 18:42 30.09.2019
1031 Clear 28 1017 18 10000 4.1 210 18:22 30.09.2019
1032 Clear 29 1017 18 10000 4.1 200 17:59 30.09.2019
1033 Clear 29 1017 17 10000 4.1 200 17:40 30.09.2019
1034 Clear 29 1017 17 10000 4.1 200 17:21 30.09.2019
1035 Clear 29 1017 18 10000 3.6 240 16:56 30.09.2019
1036 Clear 28 1018 20 10000 4.1 200 16:37 30.09.2019
1037 Clear 28 1018 20 10000 4.1 200 16:18 30.09.2019
1038 Clear 28 1018 20 10000 3.1 210 15:55 30.09.2019
1039 Clear 28 1019 24 10000 2.6 0 15:37 30.09.2019
1040 Clear 27 1019 22 10000 2.1 180 15:18 30.09.2019
1041 Clear 27 1019 22 10000 2.1 180 14:57 30.09.2019
1042 Clear 27 1019 26 10000 1.5 0 14:37 30.09.2019
1043 Clear 27 1019 26 10000 1.5 0 14:18 30.09.2019
1044 Clear 26 1020 29 10000 1.5 70 13:44 30.09.2019
1045 Clear 26 1020 29 10000 1.5 70 13:23 30.09.2019
1046 Clear 24 1020 31 10000 1 0 12:59 30.09.2019
1047 Clear 24 1020 33 10000 1 0 12:40 30.09.2019
1048 Clear 23 1020 33 10000 1 0 12:21 30.09.2019
1049 Clear 22 1020 40 10000 1 0 11:44 30.09.2019
1050 Clear 21 1020 40 10000 1 0 11:22 30.09.2019
1051 Clear 20 1020 40 10000 1.02 113.08 10:59 30.09.2019
1052 Clear 20 1020 42 10000 1 0 10:39 30.09.2019
1053 Clear 19 1020 42 10000 1 0 10:19 30.09.2019
1054 Clear 18 1020 42 10000 1.02 113.08 09:58 30.09.2019
1055 Clear 17 1020 45 10000 1.02 113.08 09:39 30.09.2019
1056 Clear 16 1020 45 10000 0.66 27.803 09:20 30.09.2019
1057 Clear 15 1019 48 10000 1 0 08:46 30.09.2019
1058 Clear 14 1019 51 10000 1 0 08:28 30.09.2019
1059 Clear 14 1019 51 10000 1 0 07:44 30.09.2019
1060 Clear 14 1019 62 10000 0.44 27.488 07:44 30.09.2019
1061 Clear 14 1019 62 10000 0.44 27.488 07:26 30.09.2019
1062 Clear 15 1019 66 10000 1.5 10 06:56 30.09.2019
1063 Clear 15 1019 62 10000 1 350 06:33 30.09.2019
1064 Clear 16 1019 66 10000 2.1 10 05:47 30.09.2019
1065 Clear 15 1019 66 10000 1 10 05:47 30.09.2019
1066 Clear 16 1019 62 10000 2.6 30 04:32 30.09.2019
1067 Clear 16 1019 62 10000 2.6 30 04:32 30.09.2019
1068 Clear 18 1019 58 10000 2.23 334.55 02:48 30.09.2019
1069 Clear 19 1019 51 10000 1.5 360 01:37 30.09.2019
1070 Clear 21 1019 42 10000 1 0 00:42 30.09.2019
1071 Clear 21 1019 42 10000 2.1 340 00:22 30.09.2019
1072 Clear 21 1019 42 10000 2.1 340 23:47 29.09.2019
1073 Clear 22 1019 39 10000 0.5 90 23:27 29.09.2019
1074 Clear 22 1019 34 10000 2.14 307.685 22:59 29.09.2019
1075 Clear 22 1019 26 10000 2.1 240 22:41 29.09.2019
1076 Clear 22 1019 26 10000 2.1 240 22:23 29.09.2019
1077 Clear 23 1019 37 10000 2.6 230 21:57 29.09.2019
1078 Clear 24 1019 23 10000 2.1 210 21:37 29.09.2019
1079 Clear 24 1018 25 10000 2.6 220 21:19 29.09.2019
1080 Clear 25 1018 22 10000 2.6 210 20:45 29.09.2019
1081 Clear 26 1018 22 10000 2.6 210 20:20 29.09.2019
1082 Clear 26 1018 22 10000 2.6 210 20:20 29.09.2019
1083 Clear 27 1018 20 10000 4.1 200 19:59 29.09.2019
1084 Clear 28 1018 20 10000 3.1 200 19:38 29.09.2019
1085 Clear 28 1018 20 10000 3.1 200 19:19 29.09.2019
1086 Clear 28 1018 20 10000 3.1 200 19:19 29.09.2019
1087 Clear 29 1018 20 10000 3.6 190 18:56 29.09.2019
1088 Clear 29 1018 20 10000 3.6 200 18:38 29.09.2019
1089 Clear 29 1018 21 10000 3.1 210 18:19 29.09.2019
1090 Clear 29 1018 21 10000 3.1 210 17:58 29.09.2019
1091 Clear 29 1018 21 10000 3.1 210 17:40 29.09.2019
1092 Clear 29 1019 19 10000 3.1 200 17:20 29.09.2019
1093 Clear 29 1019 21 10000 3.1 220 16:59 29.09.2019
1094 Clear 29 1019 20 10000 4.1 230 16:40 29.09.2019
1095 Clear 29 1019 20 10000 4.1 230 16:19 29.09.2019
1096 Clear 28 1019 20 10000 4.6 230 15:57 29.09.2019
1097 Clear 28 1020 24 10000 3.6 210 15:36 29.09.2019
1098 Clear 28 1020 24 10000 3.6 210 15:18 29.09.2019
1099 Clear 27 1020 26 10000 4.1 210 14:55 29.09.2019
1100 Clear 27 1021 28 10000 2.6 190 14:36 29.09.2019
1101 Clear 25 1021 34 10000 2.6 0 14:18 29.09.2019
1102 Clear 25 1021 36 10000 1.5 190 13:42 29.09.2019
1103 Clear 24 1021 36 10000 1.5 190 13:19 29.09.2019
1104 Clear 24 1021 36 10000 0.5 0 12:58 29.09.2019
1105 Clear 23 1021 43 10000 1 0 12:40 29.09.2019
1106 Clear 23 1021 43 10000 1 0 12:22 29.09.2019
1107 Clear 21 1021 49 10000 1 0 11:59 29.09.2019
1108 Clear 21 1021 52 10000 1.5 110 11:40 29.09.2019
1109 Clear 20 1021 52 10000 1.5 110 11:19 29.09.2019
1110 Clear 19 1021 52 10000 2.1 90 10:57 29.09.2019
1111 Clear 19 1021 45 10000 1 0 10:38 29.09.2019
1112 Clear 18 1021 45 10000 1 0 10:19 29.09.2019
1113 Clear 16 1020 48 10000 1.5 360 09:56 29.09.2019
1114 Clear 16 1020 48 10000 1.5 360 09:56 29.09.2019
1115 Clear 16 1020 51 10000 1.5 10 09:38 29.09.2019
1116 Clear 15 1020 51 10000 1.5 10 09:18 29.09.2019
1117 Clear 13 1020 58 10000 0.85 78.018 08:42 29.09.2019
1118 Clear 13 1020 58 10000 0.85 78.018 08:21 29.09.2019
1119 Clear 14 1020 58 10000 0.85 78.018 07:43 29.09.2019
1120 Clear 14 1020 58 10000 0.85 78.018 07:25 29.09.2019
1121 Clear 14 1020 66 10000 2.1 350 06:49 29.09.2019
1122 Clear 14 1019 71 10000 1 10 05:55 29.09.2019
1123 Clear 14 1019 71 10000 1 10 05:55 29.09.2019
1124 Clear 15 1020 66 10000 1.5 350 04:42 29.09.2019
1125 Clear 15 1020 66 10000 1.5 350 04:23 29.09.2019
1126 Clear 16 1020 58 10000 1.5 350 02:58 29.09.2019
1127 Clear 17 1020 54 10000 1.5 10 02:19 29.09.2019
1128 Clear 18 1020 51 10000 1.5 340 01:40 29.09.2019
1129 Clear 19 1020 48 10000 1.5 350 00:55 29.09.2019
1130 Clear 19 1020 48 10000 1.5 350 00:36 29.09.2019
1131 Clear 19 1020 48 10000 1.5 350 00:18 29.09.2019
1132 Clear 20 1020 39 10000 1 10 23:37 28.09.2019
1133 Clear 20 1020 39 10000 1 10 23:19 28.09.2019
1134 Clear 21 1020 30 10000 1.03 270.446 22:40 28.09.2019
1135 Clear 21 1020 30 10000 1.03 270.446 22:21 28.09.2019
1136 Clear 22 1020 30 10000 1.03 270.446 21:58 28.09.2019
1137 Clear 22 1020 30 10000 1.03 270.446 21:58 28.09.2019
1138 Clear 22 1020 28 10000 1.03 270.446 21:40 28.09.2019
1139 Clear 22 1020 28 10000 1.6 208.957 21:21 28.09.2019
1140 Clear 24 1020 23 10000 1.5 160 20:57 28.09.2019
1141 Clear 24 1020 22 10000 1.5 160 20:39 28.09.2019
1142 Clear 25 1020 22 10000 1.5 160 20:19 28.09.2019
1143 Clear 25 1020 22 10000 1.5 160 20:19 28.09.2019
1144 Clear 26 1020 18 10000 2.1 170 19:56 28.09.2019
1145 Clear 27 1020 22 10000 2.6 170 19:38 28.09.2019
1146 Clear 27 1020 22 10000 2.6 170 19:38 28.09.2019
1147 Clear 27 1020 22 10000 2.6 170 19:20 28.09.2019
1148 Clear 27 1020 18 10000 2.6 180 18:57 28.09.2019
1149 Clear 28 1020 18 10000 1.5 0 18:38 28.09.2019
1150 Clear 28 1020 18 10000 1.5 0 18:20 28.09.2019
1151 Clear 28 1020 18 10000 2.1 160 17:55 28.09.2019
1152 Clear 28 1020 18 10000 2.1 170 17:37 28.09.2019
1153 Clear 28 1020 18 10000 2.1 170 17:19 28.09.2019
1154 Clear 27 1021 21 10000 1 0 16:41 28.09.2019
1155 Clear 28 1021 21 10000 1 0 16:23 28.09.2019
1156 Clear 27 1021 27 10000 2.1 120 15:42 28.09.2019
1157 Clear 27 1021 27 10000 2.1 120 15:23 28.09.2019
1158 Clear 26 1022 26 10000 1 0 14:57 28.09.2019
1159 Clear 26 1022 27 10000 1.5 0 14:38 28.09.2019
1160 Clear 25 1022 27 10000 1.5 0 14:20 28.09.2019
1161 Clear 25 1022 29 10000 1 190 13:57 28.09.2019
1162 Clear 25 1023 33 10000 2.12 179.973 13:38 28.09.2019
1163 Clear 24 1023 33 10000 2.07 176.009 13:19 28.09.2019
1164 Clear 23 1023 38 10000 1 0 12:44 28.09.2019
1165 Clear 22 1023 38 10000 1 0 12:20 28.09.2019
1166 Clear 21 1023 40 10000 1.5 0 11:55 28.09.2019
1167 Clear 21 1023 43 10000 1 0 11:37 28.09.2019
1168 Clear 20 1023 43 10000 1 0 11:18 28.09.2019
1169 Clear 19 1022 48 10000 1 0 10:42 28.09.2019
1170 Clear 18 1022 48 10000 1 0 10:20 28.09.2019
1171 Clear 17 1022 45 10000 1 0 09:56 28.09.2019
1172 Clear 16 1022 51 10000 1.5 360 09:37 28.09.2019
1173 Clear 15 1022 51 10000 1.5 360 09:18 28.09.2019
1174 Clear 14 1021 58 10000 1.5 360 08:44 28.09.2019
1175 Clear 14 1021 58 10000 1.5 360 08:26 28.09.2019
1176 Clear 14 1021 58 10000 2.1 360 07:45 28.09.2019
1177 Clear 14 1021 54 10000 2.1 350 07:21 28.09.2019
1178 Clear 14 1021 71 10000 1.5 350 06:55 28.09.2019
1179 Clear 14 1021 66 10000 0.5 0 06:31 28.09.2019
1180 Clear 15 1021 66 10000 1 0 05:55 28.09.2019
1181 Clear 15 1021 62 10000 1 360 05:20 28.09.2019
1182 Clear 15 1021 66 10000 1 0 04:39 28.09.2019
1183 Clear 16 1021 62 10000 1.5 10 03:58 28.09.2019
1184 Clear 17 1021 58 10000 2.1 360 03:23 28.09.2019
1185 Clear 18 1021 58 10000 1.5 20 02:56 28.09.2019
1186 Clear 18 1021 51 10000 0.5 0 02:32 28.09.2019
1187 Clear 18 1020 42 10000 1.5 310 01:49 28.09.2019
1188 Clear 19 1020 42 10000 1.5 340 01:26 28.09.2019
1189 Clear 20 1020 42 10000 1 320 00:55 28.09.2019
1190 Clear 20 1020 39 10000 1.98 337.929 00:36 28.09.2019
1191 Clear 20 1020 40 10000 1.5 350 00:18 28.09.2019
1192 Clear 21 1020 39 10000 0.5 80 23:37 27.09.2019
1193 Clear 21 1020 39 10000 0.5 80 23:19 27.09.2019
1194 Clear 22 1020 33 10000 3.1 340 22:45 27.09.2019
1195 Clear 22 1020 33 10000 3.1 340 22:45 27.09.2019
1196 Clear 22 1020 28 10000 2.6 300 22:19 27.09.2019
1197 Clear 23 1020 27 10000 3.1 310 21:57 27.09.2019
1198 Clear 24 1019 28 10000 3.1 300 21:37 27.09.2019
1199 Clear 24 1019 28 10000 3.1 300 21:19 27.09.2019
1200 Clear 24 1019 33 10000 2.6 280 20:56 27.09.2019
1201 Clear 25 1019 29 10000 3.1 280 20:38 27.09.2019
1202 Clear 25 1019 29 10000 3.1 280 20:19 27.09.2019
1203 -273 0 0 0 0 0 19:56 27.09.2019
1204 Clear 27 1019 26 10000 4.1 190 19:37 27.09.2019
1205 Clear 28 1019 26 10000 4.1 190 19:18 27.09.2019
1206 Clear 28 1019 24 10000 3.6 190 18:40 27.09.2019
1207 Clear 28 1019 24 10000 3.6 190 18:22 27.09.2019
1208 Clear 28 1019 26 10000 3.1 200 17:55 27.09.2019
1209 Clear 28 1019 26 10000 3.1 180 17:37 27.09.2019
1210 Clear 28 1019 26 10000 3.1 180 17:18 27.09.2019
1211 -273 0 0 0 0 0 16:57 27.09.2019
1212 Clear 28 1019 24 10000 3.6 180 16:56 27.09.2019
1213 Clear 28 1019 23 10000 2.6 220 16:37 27.09.2019
1214 Clear 28 1019 23 10000 2.6 220 16:37 27.09.2019
1215 Clear 28 1019 23 10000 2.6 220 16:18 27.09.2019
1216 Clear 27 1020 26 10000 3.1 210 15:44 27.09.2019
1217 Clear 27 1020 26 10000 3.1 210 15:20 27.09.2019
1218 Clear 26 1020 28 10000 3.1 220 14:57 27.09.2019
1219 Clear 26 1021 29 10000 2.6 240 14:39 27.09.2019
1220 Clear 26 1021 29 10000 2.6 240 14:20 27.09.2019
1221 Clear 25 1021 36 10000 1.5 0 13:57 27.09.2019
1222 Clear 25 1021 36 10000 1.5 0 13:38 27.09.2019
1223 Clear 24 1021 38 10000 0.5 0 13:19 27.09.2019
1224 Clear 24 1021 38 10000 0.5 0 12:51 27.09.2019
1225 Clear 23 1021 43 10000 1 0 12:23 27.09.2019
1226 Clear 22 1022 43 10000 1 0 11:57 27.09.2019
1227 Clear 21 1022 49 10000 0.5 0 11:38 27.09.2019
1228 Clear 21 1022 49 10000 0.5 0 11:19 27.09.2019
1229 Clear 20 1021 52 10000 1 0 10:43 27.09.2019
1230 Clear 19 1021 52 10000 1 0 10:21 27.09.2019
1231 Clear 17 1021 59 10000 1.5 100 09:56 27.09.2019
1232 Clear 16 1020 72 10000 1.5 0 09:38 27.09.2019
1233 Clear 16 1020 72 10000 1.5 0 09:18 27.09.2019
1234 Clear 15 1020 76 10000 0.8 351.799 08:41 27.09.2019
1235 Clear 15 1020 76 10000 0.8 351.799 08:21 27.09.2019
1236 Clear 15 1020 76 10000 0.8 351.799 08:21 27.09.2019
1237 Clear 15 1020 76 10000 0.8 351.799 08:21 27.09.2019
1238 Clear 15 1020 72 10000 0.5 0 07:49 27.09.2019
1239 Clear 15 1020 63 10000 1 0 07:26 27.09.2019
1240 Clear 16 1020 76 10000 1 340 06:46 27.09.2019
1241 Clear 16 1020 76 10000 1.5 340 06:28 27.09.2019
1242 Clear 16 1020 82 10000 2.1 10 05:54 27.09.2019
1243 Clear 16 1020 82 10000 2.1 10 05:54 27.09.2019
1244 Clear 16 1020 77 10000 1.5 360 05:33 27.09.2019
1245 Clear 17 1020 77 10000 1 340 04:24 27.09.2019
1246 Clear 17 1020 72 10000 1.5 10 03:38 27.09.2019
1247 Clear 19 1020 67 10000 1.5 340 01:55 27.09.2019
1248 Clear 19 1020 63 10000 1.5 360 01:30 27.09.2019
1249 Clear 19 1020 63 10000 1.5 360 01:30 27.09.2019
1250 Clear 20 1020 52 10000 1 0 00:41 27.09.2019
1251 Clear 21 1020 49 10000 1 120 23:57 26.09.2019
1252 Clear 21 1020 49 10000 0.5 0 23:39 26.09.2019
1253 Clear 21 1020 49 10000 0.5 0 23:19 26.09.2019
1254 Clear 21 1020 49 10000 0.5 0 23:19 26.09.2019
1255 Clear 22 1020 46 10000 0.5 0 22:58 26.09.2019
1256 Clear 22 1020 46 10000 1.3 277.726 22:39 26.09.2019
1257 Clear 23 1020 43 10000 1 160 22:18 26.09.2019
1258 Clear 23 1020 43 10000 1 160 21:58 26.09.2019
1259 Clear 23 1020 38 10000 1.5 150 21:38 26.09.2019
1260 Clear 23 1020 38 10000 1.5 150 21:19 26.09.2019
1261 Clear 23 1020 38 10000 1.5 150 21:19 26.09.2019
1262 Clear 24 1019 38 10000 1 0 20:58 26.09.2019
1263 Clear 24 1019 33 10000 2.1 180 20:39 26.09.2019
1264 Clear 25 1019 33 10000 2.1 180 20:21 26.09.2019
1265 Clear 26 1019 31 10000 2.6 170 19:58 26.09.2019
1266 Clear 26 1019 34 10000 3.6 180 19:39 26.09.2019
1267 Clear 26 1019 34 10000 3.6 180 19:18 26.09.2019
1268 Clear 26 1019 30 10000 2.1 160 18:54 26.09.2019
1269 Clear 27 1019 32 10000 2.6 170 18:36 26.09.2019
1270 Clear 27 1019 32 10000 2.6 170 18:18 26.09.2019
1271 Clear 27 1020 30 10000 2.1 180 17:38 26.09.2019
1272 Clear 27 1020 30 10000 2.1 180 17:38 26.09.2019
1273 Clear 27 1020 30 10000 2.1 180 17:38 26.09.2019
1274 Clear 27 1020 30 10000 2.1 180 17:19 26.09.2019
1275 Clear 27 1020 30 10000 2.1 180 17:19 26.09.2019
1276 Clear 27 1020 32 10000 2.6 190 16:56 26.09.2019
1277 Clear 26 1020 34 10000 2.6 0 16:37 26.09.2019
1278 Clear 26 1020 34 10000 2.6 0 16:19 26.09.2019
1279 Clear 25 1020 34 10000 2.6 0 15:55 26.09.2019
1280 Clear 26 1020 34 10000 3.1 170 15:36 26.09.2019
1281 Clear 25 1020 34 10000 3.1 170 15:18 26.09.2019
1282 Clear 24 1021 38 10000 2.6 170 14:41 26.09.2019
1283 Clear 24 1021 38 10000 2.6 170 14:22 26.09.2019
1284 Clear 23 1021 41 10000 1.5 140 13:58 26.09.2019
1285 Clear 23 1022 40 10000 1.5 0 13:39 26.09.2019
1286 Clear 23 1022 40 10000 1.5 0 13:19 26.09.2019
1287 Clear 23 1022 40 10000 1 0 12:55 26.09.2019
1288 Clear 22 1022 43 10000 1 0 12:36 26.09.2019
1289 Clear 21 1022 49 10000 1 210 12:18 26.09.2019
1290 Clear 20 1022 46 10000 0.5 0 11:42 26.09.2019
1291 Clear 20 1022 46 10000 0.5 0 11:20 26.09.2019
1292 Clear 19 1022 55 10000 1 0 10:43 26.09.2019
1293 Clear 18 1022 55 10000 1 0 10:25 26.09.2019
1294 Clear 18 1022 55 10000 1 0 10:25 26.09.2019
1295 Clear 18 1022 55 10000 1 0 10:25 26.09.2019
1296 Clear 16 1021 59 10000 0.5 0 09:59 26.09.2019
1297 Clear 16 1021 59 10000 0.5 0 09:59 26.09.2019
1298 Clear 16 1021 59 10000 0.5 0 09:59 26.09.2019
1299 Clear 16 1021 59 10000 0.5 0 09:59 26.09.2019
1300 Clear 16 1021 63 10000 1.5 10 09:41 26.09.2019
1301 Clear 15 1021 63 10000 1.5 10 09:22 26.09.2019
1302 Clear 14 1021 67 10000 1.5 10 08:54 26.09.2019
1303 Clear 14 1020 67 10000 1 0 08:32 26.09.2019
1304 Clear 14 1020 67 10000 1 0 07:58 26.09.2019
1305 Clear 14 1020 67 10000 1 0 07:40 26.09.2019
1306 Clear 14 1020 67 10000 1 0 07:19 26.09.2019
1307 Clear 14 1020 82 10000 1.5 340 06:43 26.09.2019
1308 Clear 14 1020 82 10000 1.5 340 06:24 26.09.2019
1309 Clear 14 1020 76 10000 2.1 340 05:40 26.09.2019
1310 Clear 15 1020 72 10000 2.6 350 05:20 26.09.2019
1311 Clear 16 1020 63 10000 2.1 350 02:38 26.09.2019
1312 Clear 17 1019 67 10000 1.5 340 01:49 26.09.2019
1313 Clear 17 1020 63 10000 1 0 01:49 26.09.2019
1314 Clear 17 1020 63 10000 1 0 01:26 26.09.2019
1315 Clear 18 1019 63 10000 0.5 320 00:48 26.09.2019
1316 Clear 18 1019 63 10000 0.5 320 00:28 26.09.2019
1317 Clear 19 1019 49 10000 0.5 0 23:45 25.09.2019
1318 Clear 20 1019 49 10000 0.5 0 23:27 25.09.2019
1319 Clear 20 1019 49 10000 1.5 10 22:56 25.09.2019
1320 Clear 20 1019 49 10000 1.5 10 22:56 25.09.2019
1321 Clear 20 1019 45 10000 0.5 0 22:38 25.09.2019
1322 Clear 20 1019 45 10000 0.5 0 22:38 25.09.2019
1323 Clear 20 1019 45 10000 0.5 0 22:20 25.09.2019
1324 Clear 20 1019 45 10000 0.5 0 22:20 25.09.2019
1325 Clear 21 1019 40 10000 1.5 300 21:56 25.09.2019
1326 Clear 21 1019 46 10000 2.1 290 21:38 25.09.2019
1327 Clear 21 1019 46 10000 2.1 290 21:18 25.09.2019
1328 Clear 22 1018 37 10000 2.6 310 20:56 25.09.2019
1329 Clear 22 1018 43 10000 2.6 230 20:38 25.09.2019
1330 Clear 22 1018 43 10000 2.6 230 20:19 25.09.2019
1331 Clear 23 1018 33 10000 2.1 100 19:41 25.09.2019
1332 Clear 23 1018 33 10000 2.1 100 19:41 25.09.2019
1333 Clear 24 1018 33 10000 2.1 100 19:21 25.09.2019
1334 Clear 24 1018 31 10000 1 0 18:57 25.09.2019
1335 Clear 24 1018 31 10000 1.5 0 18:39 25.09.2019
1336 Clear 24 1018 31 10000 0.5 320 18:21 25.09.2019
1337 Clear 24 1018 31 10000 0.5 320 17:58 25.09.2019
1338 Clear 24 1018 33 10000 1 310 17:37 25.09.2019
1339 Clear 24 1019 33 10000 1 170 17:18 25.09.2019
1340 Clear 24 1019 33 10000 1 170 16:44 25.09.2019
1341 Clear 24 1019 36 10000 1.5 130 16:26 25.09.2019
1342 Clear 24 1019 36 10000 1.5 130 16:26 25.09.2019
1343 Clear 23 1019 38 10000 1.5 0 15:58 25.09.2019
1344 Clear 23 1019 38 10000 1 0 15:40 25.09.2019
1345 Clear 23 1019 38 10000 1 0 15:21 25.09.2019
1346 Clear 22 1020 40 10000 1 10 14:54 25.09.2019
1347 Clear 22 1020 40 10000 1 10 14:54 25.09.2019
1348 Clear 22 1020 40 10000 1.5 220 14:36 25.09.2019
1349 Clear 22 1020 40 10000 1.5 220 14:18 25.09.2019
1350 Clear 21 1020 46 10000 1.5 200 13:41 25.09.2019
1351 Clear 21 1020 46 10000 1.5 200 13:20 25.09.2019
1352 Clear 20 1020 46 10000 1 0 12:58 25.09.2019
1353 Clear 20 1020 45 10000 1.5 80 12:39 25.09.2019
1354 Clear 20 1020 45 10000 1.5 80 12:39 25.09.2019
1355 Clear 20 1020 45 10000 1.5 80 12:20 25.09.2019
1356 Clear 19 1020 52 10000 1 0 11:42 25.09.2019
1357 Clear 19 1020 52 10000 1 0 11:21 25.09.2019
1358 Clear 18 1020 52 10000 0.5 0 10:57 25.09.2019
1359 Clear 18 1020 55 10000 1 0 10:38 25.09.2019
1360 Clear 17 1020 55 10000 1 0 10:19 25.09.2019
1361 Clear 17 1020 55 10000 1 0 10:19 25.09.2019
1362 Clear 17 1020 55 10000 1 0 10:19 25.09.2019
1363 Clear 16 1019 59 10000 2.1 320 09:55 25.09.2019
1364 Clear 16 1019 63 10000 2.1 310 09:36 25.09.2019
1365 Clear 16 1019 63 10000 2.1 310 09:18 25.09.2019
1366 Clear 15 1018 67 10000 3.1 300 08:41 25.09.2019
1367 Clear 15 1018 71 10000 3.6 270 08:21 25.09.2019
1368 Clear 15 1018 67 10000 5.7 270 07:56 25.09.2019
1369 Clear 15 1018 67 10000 6.2 270 07:37 25.09.2019
1370 Clear 15 1018 67 10000 6.2 270 07:19 25.09.2019
1371 Clouds 16 1018 59 10000 2.1 220 06:37 25.09.2019
1372 Clear 17 1018 63 10000 0.5 0 05:52 25.09.2019
1373 Clouds 17 1018 67 10000 0.5 0 05:27 25.09.2019
1374 Clouds 17 1018 63 10000 3.1 270 04:49 25.09.2019
1375 Clouds 20 1018 56 10000 3.1 280 01:54 25.09.2019
1376 Clouds 20 1018 56 10000 4.6 270 00:43 25.09.2019
1377 Clouds 20 1018 56 10000 4.1 270 00:23 25.09.2019
1378 Clouds 20 1019 73 10000 5.7 240 23:55 24.09.2019
1379 Clouds 21 1019 73 10000 5.7 240 23:36 24.09.2019
1380 Clouds 21 1019 73 10000 5.7 240 23:18 24.09.2019
1381 Clouds 22 1019 73 10000 4.1 250 22:39 24.09.2019
1382 Clouds 22 1019 73 10000 4.1 250 22:20 24.09.2019
1383 Clear 23 1019 68 10000 4.6 250 21:56 24.09.2019
1384 Clear 23 1018 64 10000 5.7 240 21:37 24.09.2019
1385 Clear 23 1018 64 10000 5.7 240 21:19 24.09.2019
1386 Clear 23 1018 60 10000 5.1 230 20:57 24.09.2019
1387 Clear 23 1018 53 10000 7.2 250 20:38 24.09.2019
1388 Clear 24 1018 53 10000 7.2 250 20:20 24.09.2019
1389 Clear 25 1017 50 10000 6.7 220 19:44 24.09.2019
1390 Clear 25 1017 50 10000 6.7 220 19:22 24.09.2019
1391 Clear 26 1017 44 10000 5.1 220 18:59 24.09.2019
1392 Clear 26 1017 41 10000 6.2 220 18:41 24.09.2019
1393 Clear 26 1017 41 10000 6.2 220 18:22 24.09.2019
1394 Clear 26 1018 39 10000 6.2 210 17:58 24.09.2019
1395 Clear 26 1018 39 10000 6.2 210 17:58 24.09.2019
1396 Clear 26 1018 36 10000 6.2 200 17:38 24.09.2019
1397 Clear 26 1018 36 10000 6.2 200 17:38 24.09.2019
1398 Clear 26 1018 36 10000 6.2 200 17:20 24.09.2019
1399 -273 0 0 0 0 0 16:57 24.09.2019
1400 Clear 26 1019 31 10000 4.6 200 16:39 24.09.2019
1401 Clear 26 1019 31 10000 4.6 200 16:18 24.09.2019
1402 Clear 25 1019 38 10000 4.1 220 15:42 24.09.2019
1403 Clear 25 1019 38 10000 4.1 220 15:23 24.09.2019
1404 Clear 24 1020 41 10000 4.6 200 14:45 24.09.2019
1405 Clear 24 1020 41 10000 4.6 200 14:20 24.09.2019
1406 Clear 23 1020 43 10000 4.1 200 13:57 24.09.2019
1407 Clear 22 1021 43 10000 3.6 0 13:38 24.09.2019
1408 Clear 22 1021 43 10000 3.6 0 13:20 24.09.2019
1409 Clear 21 1021 49 10000 3.6 190 12:40 24.09.2019
1410 Clear 20 1021 49 10000 3.6 190 12:21 24.09.2019
1411 Clear 19 1021 49 10000 3.1 180 11:57 24.09.2019
1412 Clear 19 1021 52 10000 1.5 180 11:39 24.09.2019
1413 Clear 18 1021 52 10000 1 0 11:18 24.09.2019
1414 Clear 17 1021 55 10000 0.5 0 10:39 24.09.2019
1415 Clear 17 1021 55 10000 0.5 0 10:21 24.09.2019
1416 Clear 15 1021 55 10000 0.5 0 09:56 24.09.2019
1417 Clear 14 1021 59 10000 1 0 09:37 24.09.2019
1418 Clear 14 1021 59 10000 1 0 09:18 24.09.2019
1419 Clear 12 1020 76 10000 2.1 140 08:41 24.09.2019
1420 Clear 13 1020 76 10000 2.1 140 08:41 24.09.2019
1421 Clear 12 1020 76 10000 2.1 140 08:41 24.09.2019
1422 Clear 12 1020 76 10000 2.1 140 08:23 24.09.2019
1423 Clear 13 1020 71 10000 0.98 235.92 07:59 24.09.2019
1424 Clear 13 1020 71 10000 0.98 235.92 07:41 24.09.2019
1425 Clear 13 1020 71 10000 0.98 235.92 07:22 24.09.2019
1426 Clear 13 1020 87 10000 1 330 06:46 24.09.2019
1427 Clear 13 1020 87 10000 1 330 06:26 24.09.2019
1428 Clear 14 1020 87 10000 1.5 360 05:23 24.09.2019
1429 Clear 14 1021 82 10000 1.5 350 03:47 24.09.2019
1430 Clear 15 1021 82 10000 1 350 03:26 24.09.2019
1431 Clear 15 1021 82 10000 1 350 02:45 24.09.2019
1432 Clear 16 1021 77 10000 0.5 10 01:42 24.09.2019
1433 Clear 17 1021 67 10000 1.5 140 00:42 24.09.2019
1434 Clear 17 1021 67 10000 1.5 140 00:23 24.09.2019
1435 Clear 18 1021 59 10000 1 0 23:43 23.09.2019
1436 Clear 18 1021 59 10000 1 0 23:43 23.09.2019
1437 Clear 18 1021 59 10000 1 0 23:23 23.09.2019
1438 Clear 19 1021 59 10000 1 0 23:23 23.09.2019
1439 Clear 19 1021 55 10000 1 0 22:56 23.09.2019
1440 Clear 19 1022 48 10000 1 220 22:37 23.09.2019
1441 Clear 19 1022 48 10000 1 220 22:37 23.09.2019
1442 Clear 19 1022 48 10000 1.5 160 22:18 23.09.2019
1443 Clear 20 1022 48 10000 1.5 160 21:54 23.09.2019
1444 Clear 20 1021 40 10000 1.5 200 21:36 23.09.2019
1445 Clear 20 1021 40 10000 1.5 200 21:18 23.09.2019
1446 Clear 21 1021 37 10000 2.6 200 20:40 23.09.2019
1447 Clear 21 1021 37 10000 2.6 200 20:19 23.09.2019
1448 Clear 21 1021 37 10000 2.6 200 20:19 23.09.2019
1449 Clear 22 1021 33 10000 3.1 200 19:55 23.09.2019
1450 Clear 22 1021 38 10000 3.1 200 19:37 23.09.2019
1451 Clear 22 1021 38 10000 3.1 200 19:19 23.09.2019
1452 Clear 23 1021 38 10000 3.1 190 18:42 23.09.2019
1453 Clear 23 1021 38 10000 3.1 190 18:20 23.09.2019
1454 Clear 23 1021 38 10000 3.1 190 17:58 23.09.2019
1455 Clear 23 1021 38 10000 3.6 190 17:39 23.09.2019
1456 Clear 23 1021 38 10000 3.6 190 17:39 23.09.2019
1457 Clear 23 1021 38 10000 3.6 190 17:20 23.09.2019
1458 Clear 23 1021 40 10000 3.6 180 16:57 23.09.2019
1459 Clear 23 1021 43 10000 3.1 170 16:37 23.09.2019
1460 Clear 23 1021 43 10000 3.1 170 16:18 23.09.2019
1461 Clouds 22 1022 43 10000 2.6 200 15:56 23.09.2019
1462 Clouds 22 1022 43 10000 3.1 190 15:38 23.09.2019
1463 Clouds 22 1022 43 10000 3.1 190 15:18 23.09.2019
1464 Clear 21 1022 49 10000 3.1 0 14:40 23.09.2019
1465 Clear 21 1022 49 10000 3.1 0 14:21 23.09.2019
1466 Clear 20 1022 56 10000 3.1 150 13:59 23.09.2019
1467 Clear 20 1022 56 10000 3.1 150 13:59 23.09.2019
1468 Clear 20 1022 56 10000 1.5 0 13:39 23.09.2019
1469 Clear 20 1022 59 10000 2.1 160 13:18 23.09.2019
1470 Clear 19 1022 59 10000 2.1 160 12:55 23.09.2019
1471 Clear 19 1022 59 10000 2.1 140 12:36 23.09.2019
1472 Clear 18 1023 63 10000 2.6 110 12:18 23.09.2019
1473 Clear 18 1023 63 10000 2.6 110 11:43 23.09.2019
1474 Clear 17 1023 55 10000 0.5 180 11:25 23.09.2019
1475 -273 0 0 0 0 0 10:55 23.09.2019
1476 Clear 16 1022 63 10000 0.5 0 10:36 23.09.2019
1477 Clear 16 1022 63 10000 0.5 0 10:18 23.09.2019
1478 Clear 13 1022 76 10000 1.5 360 09:38 23.09.2019
1479 Clear 13 1022 76 10000 1.5 360 09:20 23.09.2019
1480 Clear 11 1021 81 10000 1 0 08:50 23.09.2019
1481 Clear 11 1021 81 10000 1 0 08:30 23.09.2019
1482 Clear 12 1021 81 10000 0.6 128.913 07:58 23.09.2019
1483 Clear 12 1021 81 10000 0.6 128.913 07:31 23.09.2019
1484 Clear 12 1020 93 10000 1.5 350 06:42 23.09.2019
1485 Clear 12 1020 87 10000 1 360 05:57 23.09.2019
1486 Clear 12 1020 87 10000 0.5 350 05:22 23.09.2019
1487 Clear 13 1020 87 10000 1.5 360 04:55 23.09.2019
1488 Clouds 14 1019 82 10000 1 80 03:34 23.09.2019
1489 Clouds 15 1019 62 10000 0.5 0 01:22 23.09.2019
1490 Clouds 16 1019 59 10000 1 0 00:23 23.09.2019
1491 Clear 16 1019 62 10000 2.41 287.518 23:57 22.09.2019
1492 Clear 17 1019 62 10000 2.41 287.518 23:57 22.09.2019
1493 Clear 17 1019 55 10000 1 360 23:33 22.09.2019
1494 Clear 18 1018 52 10000 2.1 340 22:59 22.09.2019
1495 Clear 18 1018 59 10000 3.1 270 22:41 22.09.2019
1496 Clear 18 1018 59 10000 3.1 270 22:23 22.09.2019
1497 Clouds 19 1018 52 10000 1.5 290 21:55 22.09.2019
1498 Clouds 19 1018 48 10000 2.6 290 21:37 22.09.2019
1499 Clouds 19 1018 48 10000 2.6 290 21:19 22.09.2019
1500 Clouds 20 1017 49 10000 3.1 300 20:42 22.09.2019
1501 Clouds 20 1017 49 10000 3.1 300 20:23 22.09.2019
1502 Clouds 21 1017 43 10000 3.1 310 19:55 22.09.2019
1503 Clouds 21 1016 43 10000 2.6 320 19:37 22.09.2019
1504 Clouds 21 1016 43 10000 2.6 320 19:19 22.09.2019
1505 Clouds 22 1016 43 10000 3.1 320 18:55 22.09.2019
1506 Clouds 22 1016 46 10000 4.1 320 18:36 22.09.2019
1507 Clouds 22 1016 46 10000 4.1 320 18:18 22.09.2019
1508 Clouds 22 1016 40 10000 3.1 250 17:41 22.09.2019
1509 Clouds 23 1016 40 10000 3.1 250 17:22 22.09.2019
1510 Clouds 22 1016 40 10000 4.1 270 16:46 22.09.2019
1511 Clouds 23 1016 43 10000 5.1 250 16:27 22.09.2019
1512 Clouds 22 1016 46 10000 3.6 230 15:58 22.09.2019
1513 Clouds 22 1016 46 10000 6.2 270 15:40 22.09.2019
1514 Clouds 22 1016 46 10000 6.2 270 15:21 22.09.2019
1515 Clouds 22 1016 46 10000 6.2 270 15:21 22.09.2019
1516 Clouds 21 1016 49 10000 5.1 260 14:46 22.09.2019
1517 Clouds 21 1016 49 10000 5.1 230 14:26 22.09.2019
1518 Clouds 21 1016 56 10000 4.1 230 13:59 22.09.2019
1519 Clouds 21 1016 56 10000 4.1 230 13:41 22.09.2019
1520 Clouds 21 1016 60 10000 5.1 220 13:22 22.09.2019
1521 Clouds 20 1016 68 10000 5.1 240 12:56 22.09.2019
1522 Clouds 20 1016 72 10000 6.2 240 12:37 22.09.2019
1523 Clouds 19 1016 72 10000 6.2 240 12:18 22.09.2019
1524 Clouds 18 1016 88 10000 4.6 250 11:42 22.09.2019
1525 Clouds 18 1016 88 10000 4.6 250 11:24 22.09.2019
1526 Clouds 17 1015 88 10000 5.1 250 10:55 22.09.2019
1527 Clouds 17 1015 93 10000 4.1 240 10:37 22.09.2019
1528 Clouds 17 1015 93 10000 4.1 240 10:18 22.09.2019
1529 Rain 16 1014 93 10000 4.6 220 09:41 22.09.2019
1530 Rain 16 1014 93 10000 4.6 220 09:20 22.09.2019
1531 Clouds 16 1014 100 10000 3.1 210 08:47 22.09.2019
1532 Clouds 16 1014 100 10000 3.1 210 08:26 22.09.2019
1533 Rain 16 1014 100 9000 2.6 190 07:57 22.09.2019
1534 Rain 16 1014 100 2000 2.1 220 07:39 22.09.2019
1535 Rain 16 1014 100 2000 2.1 220 07:19 22.09.2019
1536 Fog 17 1013 88 4500 2.1 210 06:55 22.09.2019
1537 Clouds 16 1013 88 10000 4.1 200 05:36 22.09.2019
1538 Clouds 17 1013 77 10000 4.1 180 03:49 22.09.2019
1539 Clouds 18 1014 93 6000 1.5 140 02:38 22.09.2019
1540 Clouds 17 1014 93 6000 1.5 140 02:20 22.09.2019
1541 Clouds 17 1014 88 10000 1 0 01:23 22.09.2019
1542 Clouds 18 1014 88 10000 1 0 00:37 22.09.2019
1543 Clouds 18 1014 88 10000 1 30 00:19 22.09.2019
1544 Clouds 18 1014 82 10000 0.5 0 23:41 21.09.2019
1545 Clouds 17 1014 82 10000 0.5 0 23:22 21.09.2019
1546 Clouds 18 1014 88 10000 1.5 260 22:39 21.09.2019
1547 Clouds 18 1014 88 10000 1.5 260 22:21 21.09.2019
1548 Clouds 18 1014 88 10000 1.5 260 22:21 21.09.2019
1549 Clouds 18 1014 93 10000 2.6 270 21:55 21.09.2019
1550 Mist 18 1014 88 10000 3.6 270 21:37 21.09.2019
1551 Mist 18 1014 88 10000 1.5 290 21:18 21.09.2019
1552 Mist 18 1014 88 10000 1.5 290 21:18 21.09.2019
1553 Mist 18 1014 82 10000 2.1 290 20:40 21.09.2019
1554 Mist 18 1014 82 10000 2.1 290 20:40 21.09.2019
1555 Mist 18 1014 82 10000 2.1 290 20:22 21.09.2019
1556 Mist 18 1014 82 10000 2.1 290 20:22 21.09.2019
1557 Mist 18 1014 82 10000 2.6 270 19:54 21.09.2019
1558 Mist 19 1014 82 10000 2.6 290 19:36 21.09.2019
1559 Mist 18 1014 82 10000 2.6 290 19:18 21.09.2019
1560 Drizzle 19 1014 72 10000 2.6 210 18:39 21.09.2019
1561 Drizzle 19 1014 72 10000 2.6 210 18:20 21.09.2019
1562 Rain 20 1014 72 10000 2.6 200 17:42 21.09.2019
1563 Rain 20 1014 72 10000 2.6 200 17:42 21.09.2019
1564 Rain 20 1014 72 10000 2.6 200 17:23 21.09.2019
1565 Rain 20 1014 68 10000 1.5 220 16:56 21.09.2019
1566 Drizzle 20 1014 72 10000 2.6 210 16:36 21.09.2019
1567 Drizzle 19 1014 72 10000 2.6 210 16:18 21.09.2019
1568 Rain 20 1015 68 10000 1.5 200 15:42 21.09.2019
1569 Rain 20 1015 68 10000 1.5 200 15:20 21.09.2019
1570 Drizzle 20 1015 64 10000 2.1 200 14:47 21.09.2019
1571 Drizzle 20 1015 64 10000 3.1 210 14:28 21.09.2019
1572 Clouds 20 1015 68 10000 4.1 210 13:45 21.09.2019
1573 Clouds 21 1015 68 10000 3.1 200 13:25 21.09.2019
1574 Clouds 20 1015 68 10000 2.6 200 12:58 21.09.2019
1575 Clouds 20 1015 68 10000 2.6 200 12:39 21.09.2019
1576 Clouds 20 1015 68 10000 2.6 200 12:20 21.09.2019
1577 Clouds 19 1015 68 10000 3.1 190 11:57 21.09.2019
1578 Clouds 19 1015 72 10000 2.6 180 11:38 21.09.2019
1579 Clouds 19 1015 72 10000 2.6 180 11:18 21.09.2019
1580 Mist 19 1015 77 10000 1 0 10:40 21.09.2019
1581 Mist 18 1015 77 10000 1 0 10:20 21.09.2019
1582 Clear 17 1015 72 10000 3.69 221.163 09:57 21.09.2019
1583 Mist 16 1015 88 10000 2.13 225.267 09:37 21.09.2019
1584 Mist 16 1015 88 10000 2.13 225.267 09:19 21.09.2019
1585 Clouds 16 1015 93 8000 1.5 140 08:48 21.09.2019
1586 Clouds 15 1015 93 8000 1.5 120 08:20 21.09.2019
1587 Clear 16 1015 93 10000 2.24 225.127 07:40 21.09.2019
1588 Clouds 15 1014 100 10000 0.5 0 07:20 21.09.2019
1589 Clear 16 1015 93 10000 2.24 225.127 07:20 21.09.2019
1590 Clouds 16 1014 100 10000 1 40 06:36 21.09.2019
1591 Clouds 16 1014 93 10000 1 20 05:51 21.09.2019
1592 Clouds 16 1015 93 10000 1 0 05:51 21.09.2019
1593 Clouds 16 1015 88 10000 0.5 0 04:40 21.09.2019
1594 Clouds 17 1015 93 10000 1 330 03:39 21.09.2019
1595 Clouds 17 1015 88 10000 3.1 360 02:25 21.09.2019
1596 Clouds 18 1015 88 10000 1 0 01:49 21.09.2019
1597 Rain 18 1015 88 10000 1 0 01:26 21.09.2019
1598 Clouds 18 1015 93 10000 2.1 10 00:26 21.09.2019
1599 Rain 18 1015 88 10000 1.5 160 23:58 20.09.2019
1600 Rain 18 1015 93 10000 4.34 149.471 23:30 20.09.2019
1601 Rain 18 1015 93 10000 1 0 22:56 20.09.2019
1602 Rain 18 1015 93 10000 1 0 22:56 20.09.2019
1603 Rain 18 1015 88 10000 2.1 100 22:38 20.09.2019
1604 Rain 18 1015 88 10000 2.1 100 22:20 20.09.2019
1605 Rain 19 1016 93 4000 5.1 180 21:55 20.09.2019
1606 Thunderstorm 20 1015 57 10000 6.2 160 21:37 20.09.2019
1607 Thunderstorm 21 1015 57 10000 6.2 160 21:18 20.09.2019
1608 Thunderstorm 23 1014 56 10000 3.6 150 20:41 20.09.2019
1609 Thunderstorm 23 1014 56 10000 3.6 150 20:21 20.09.2019
1610 Thunderstorm 23 1014 53 10000 4.6 150 19:57 20.09.2019
1611 Thunderstorm 24 1014 53 10000 4.6 150 19:57 20.09.2019
1612 Thunderstorm 24 1016 68 10000 4.6 130 19:38 20.09.2019
1613 Thunderstorm 24 1016 68 10000 4.6 130 19:20 20.09.2019
1614 Clouds 25 1015 50 10000 5.7 130 18:40 20.09.2019
1615 Clouds 25 1015 50 10000 5.7 130 18:20 20.09.2019
1616 Clouds 25 1015 50 10000 4.1 100 17:58 20.09.2019
1617 Clouds 25 1015 53 10000 3.6 90 17:39 20.09.2019
1618 Clouds 25 1015 53 10000 3.6 90 17:39 20.09.2019
1619 Clouds 25 1015 53 10000 3.6 90 17:21 20.09.2019
1620 Clouds 25 1016 53 10000 4.6 150 16:41 20.09.2019
1621 Clouds 24 1016 53 10000 4.6 150 16:19 20.09.2019
1622 Clouds 24 1017 57 10000 3.6 100 15:43 20.09.2019
1623 Clouds 24 1017 57 10000 3.6 100 15:24 20.09.2019
1624 Clouds 24 1017 60 10000 3.6 100 14:59 20.09.2019
1625 Clouds 23 1017 60 10000 3.1 100 14:41 20.09.2019
1626 Clouds 24 1017 60 10000 3.6 100 14:41 20.09.2019
1627 Clouds 23 1017 60 10000 3.1 100 14:18 20.09.2019
1628 Clouds 23 1017 60 10000 3.1 100 14:18 20.09.2019
1629 Clouds 23 1017 57 10000 3.6 160 13:47 20.09.2019
1630 Clouds 23 1018 64 10000 4.1 120 13:27 20.09.2019
1631 Clouds 23 1018 64 10000 4.1 120 12:57 20.09.2019
1632 Rain 22 1018 64 10000 3.6 90 12:36 20.09.2019
1633 Rain 22 1018 64 10000 3.6 90 12:18 20.09.2019
1634 Clouds 21 1018 64 10000 3.6 110 11:48 20.09.2019
1635 Clouds 21 1018 72 10000 4.1 90 11:21 20.09.2019
1636 Clouds 20 1018 77 10000 3.6 100 10:43 20.09.2019
1637 Clouds 20 1018 77 10000 3.6 100 10:24 20.09.2019
1638 Clouds 19 1018 72 10000 3.1 100 09:55 20.09.2019
1639 Clear 19 1018 72 10000 3.6 90 09:36 20.09.2019
1640 Clear 19 1018 72 10000 3.6 90 09:36 20.09.2019
1641 Clear 18 1018 72 10000 2.6 80 09:18 20.09.2019
1642 Clear 18 1017 72 10000 3.1 90 08:41 20.09.2019
1643 Clear 18 1017 72 10000 3.1 90 08:23 20.09.2019
1644 Clear 18 1017 72 10000 1.5 60 07:47 20.09.2019
1645 Clear 18 1017 72 10000 2.1 80 07:26 20.09.2019
1646 Clouds 18 1017 77 10000 1.5 330 06:44 20.09.2019
1647 Clouds 18 1017 77 10000 1.5 330 06:44 20.09.2019
1648 Clouds 18 1017 77 10000 1.5 330 06:22 20.09.2019
1649 Clouds 19 1017 77 10000 1.5 350 05:44 20.09.2019
1650 Clouds 20 1017 77 10000 1.5 340 03:42 20.09.2019
1651 Clouds 20 1017 77 10000 1.5 340 03:19 20.09.2019
1652 Clouds 21 1017 64 10000 1 0 01:44 20.09.2019
1653 Clouds 21 1017 68 10000 1 0 00:52 20.09.2019
1654 Clouds 21 1018 68 10000 1 0 00:25 20.09.2019
1655 Clouds 21 1017 64 10000 2.1 330 23:42 19.09.2019
1656 Clouds 21 1017 64 10000 2.1 330 23:19 19.09.2019
1657 Clear 22 1017 50 10000 1 0 22:55 19.09.2019
1658 Clear 23 1017 47 10000 1.5 50 22:37 19.09.2019
1659 Clouds 23 1017 47 10000 1.5 150 22:18 19.09.2019
1660 Clouds 23 1017 47 10000 1.5 150 21:55 19.09.2019
1661 Clouds 23 1016 44 10000 2.6 150 21:36 19.09.2019
1662 Clouds 24 1016 41 10000 2.1 140 21:18 19.09.2019
1663 Clouds 25 1016 39 10000 2.1 140 20:43 19.09.2019
1664 Clouds 25 1016 39 10000 2.1 140 20:22 19.09.2019
1665 Clear 27 1016 34 10000 3.1 160 19:55 19.09.2019
1666 Clouds 27 1016 32 10000 3.6 180 19:37 19.09.2019
1667 Clouds 27 1016 32 10000 1.5 0 19:19 19.09.2019
1668 Clouds 27 1016 28 10000 3.1 150 18:42 19.09.2019
1669 Clouds 28 1016 28 10000 3.1 150 18:24 19.09.2019
1670 Clouds 28 1016 30 10000 2.6 150 17:54 19.09.2019
1671 Clouds 28 1016 28 10000 3.6 160 17:36 19.09.2019
1672 Clouds 28 1016 28 10000 3.6 160 17:18 19.09.2019
1673 Clouds 28 1017 37 10000 2.6 170 16:43 19.09.2019
1674 Clouds 28 1017 37 10000 2.6 170 16:43 19.09.2019
1675 Clouds 28 1017 37 10000 2.6 170 16:20 19.09.2019
1676 Clouds 28 1017 37 10000 2.6 0 15:56 19.09.2019
1677 Clouds 27 1018 39 10000 3.1 130 15:38 19.09.2019
1678 Clouds 27 1018 39 10000 3.1 130 15:18 19.09.2019
1679 Clear 26 1018 39 10000 1.5 0 14:41 19.09.2019
1680 Clear 26 1018 39 10000 1.5 0 14:22 19.09.2019
1681 Clear 26 1019 42 10000 1 100 13:58 19.09.2019
1682 Clouds 26 1019 44 10000 1 0 13:38 19.09.2019
1683 Clouds 26 1019 44 10000 1 0 13:38 19.09.2019
1684 Clouds 26 1019 44 10000 1 0 13:19 19.09.2019
1685 Clouds 24 1019 50 10000 1.5 0 12:38 19.09.2019
1686 Clouds 23 1019 50 10000 1.5 0 12:19 19.09.2019
1687 Clouds 23 1019 53 10000 2.1 110 11:56 19.09.2019
1688 Clear 22 1019 49 10000 1.5 50 11:38 19.09.2019
1689 Clear 22 1019 49 10000 1.5 50 11:19 19.09.2019
1690 Clear 21 1019 60 10000 1.5 60 10:40 19.09.2019
1691 Clear 20 1019 60 10000 1.5 60 10:21 19.09.2019
1692 Clear 19 1019 60 10000 1 0 09:58 19.09.2019
1693 Clear 18 1018 68 10000 1 0 09:40 19.09.2019
1694 Clear 17 1018 68 10000 1 0 09:20 19.09.2019
1695 Clear 16 1018 68 10000 1 0 08:51 19.09.2019
1696 Clear 16 1018 68 10000 1.5 60 08:27 19.09.2019
1697 Clear 16 1018 68 10000 0.5 0 07:45 19.09.2019
1698 Clear 16 1018 72 10000 0.5 0 07:24 19.09.2019
1699 Clear 16 1017 82 10000 1.5 360 06:59 19.09.2019
1700 Clear 16 1017 82 10000 1.5 360 06:59 19.09.2019
1701 Clear 16 1018 77 10000 1 350 06:40 19.09.2019
1702 Clear 16 1018 77 10000 1 350 06:21 19.09.2019
1703 Clear 16 1018 77 10000 1 350 06:21 19.09.2019
1704 Clear 16 1018 77 10000 1.5 350 05:49 19.09.2019
1705 Clear 17 1018 72 10000 2.6 340 04:23 19.09.2019
1706 Clear 17 1018 77 10000 2.1 350 03:20 19.09.2019
1707 Clear 19 1018 72 10000 0.79 315.103 01:40 19.09.2019
1708 Clear 20 1018 72 10000 0.79 315.103 01:19 19.09.2019
1709 Clear 20 1018 64 10000 2.6 350 00:43 19.09.2019
1710 Clear 20 1018 64 10000 2.6 350 00:43 19.09.2019
1711 Clear 21 1018 56 10000 1 60 00:20 19.09.2019
1712 Clear 21 1018 52 10000 0.5 0 23:38 18.09.2019
1713 Clear 22 1018 52 10000 0.5 0 23:19 18.09.2019
1714 Clear 22 1018 49 10000 2.1 330 22:42 18.09.2019
1715 Clear 22 1018 49 10000 2.1 330 22:20 18.09.2019
1716 Clear 23 1018 46 10000 1 0 21:58 18.09.2019
1717 Clear 23 1018 44 10000 2.1 0 21:40 18.09.2019
1718 Clear 24 1017 47 10000 2.1 140 21:18 18.09.2019
1719 Clear 24 1017 47 10000 2.1 140 20:57 18.09.2019
1720 Clear 25 1017 41 10000 2.6 140 20:39 18.09.2019
1721 Clear 25 1017 41 10000 2.6 140 20:21 18.09.2019
1722 Clear 26 1017 36 10000 2.1 160 19:57 18.09.2019
1723 Clear 26 1017 36 10000 2.1 160 19:57 18.09.2019
1724 Clear 26 1017 36 10000 3.1 160 19:38 18.09.2019
1725 Clear 26 1017 36 10000 3.1 160 19:19 18.09.2019
1726 Clear 26 1017 36 10000 3.1 160 19:19 18.09.2019
1727 Clear 27 1017 36 10000 3.1 170 18:55 18.09.2019
1728 Clear 27 1017 34 10000 3.1 170 18:37 18.09.2019
1729 Clear 27 1017 34 10000 3.1 170 18:18 18.09.2019
1730 Clear 27 1017 34 10000 3.1 170 18:18 18.09.2019
1731 Clear 27 1017 36 10000 3.1 130 17:56 18.09.2019
1732 Clear 27 1017 32 10000 1.5 0 17:38 18.09.2019
1733 Clear 27 1017 32 10000 1.5 0 17:18 18.09.2019
1734 Clear 27 1017 36 10000 2.1 160 16:43 18.09.2019
1735 Clear 27 1017 36 10000 2.1 160 16:23 18.09.2019
1736 Clear 27 1017 36 10000 2.1 160 16:23 18.09.2019
1737 Clear 26 1018 36 10000 2.6 150 15:59 18.09.2019
1738 Clear 26 1018 39 10000 2.1 0 15:41 18.09.2019
1739 Clear 26 1018 39 10000 2.1 0 15:21 18.09.2019
1740 Clear 25 1018 41 10000 1 110 14:59 18.09.2019
1741 Clear 25 1018 41 10000 1 110 14:40 18.09.2019
1742 Clear 25 1018 41 10000 1 0 14:22 18.09.2019
1743 Clear 24 1019 44 10000 1 240 13:59 18.09.2019
1744 Clear 24 1019 53 10000 2.4 190.134 13:40 18.09.2019
1745 Clear 24 1019 53 10000 2.45 178.249 13:18 18.09.2019
1746 Clear 23 1019 49 10000 1.5 90 12:53 18.09.2019
1747 Clear 22 1019 56 10000 2.1 100 12:30 18.09.2019
1748 Clear 21 1019 56 10000 1.5 40 11:55 18.09.2019
1749 Clear 20 1019 68 10000 1.5 0 11:37 18.09.2019
1750 Clear 20 1019 68 10000 1.5 0 11:19 18.09.2019
1751 Clear 18 1019 77 10000 1 0 10:40 18.09.2019
1752 Clear 18 1019 77 10000 1 0 10:21 18.09.2019
1753 Clear 16 1018 82 10000 1 0 09:58 18.09.2019
1754 Clear 16 1018 82 10000 1 140 09:38 18.09.2019
1755 Clear 16 1018 82 10000 1 140 09:20 18.09.2019
1756 Clear 16 1018 77 10000 0.5 120 08:42 18.09.2019
1757 Clear 16 1018 77 10000 0.5 120 08:24 18.09.2019
1758 Clear 16 1017 77 10000 1 0 07:57 18.09.2019
1759 Clouds 16 1017 77 10000 1.5 360 07:39 18.09.2019
1760 Clear 16 1017 82 10000 2.1 360 07:21 18.09.2019
1761 Clear 17 1017 82 10000 2.6 340 06:38 18.09.2019
1762 Clear 16 1017 77 10000 1.5 50 05:50 18.09.2019
1763 Clear 17 1017 77 10000 1.5 330 04:52 18.09.2019
1764 Clear 17 1018 82 10000 1 80 02:54 18.09.2019
1765 Clear 17 1018 77 10000 2.1 20 02:28 18.09.2019
1766 Clouds 18 1019 72 10000 0.5 200 01:21 18.09.2019
1767 Clouds 19 1018 72 10000 1 0 00:48 18.09.2019
1768 Clouds 18 1018 72 10000 1 0 00:20 18.09.2019
1769 Clouds 18 1017 64 10000 1 0 23:44 17.09.2019
1770 Clouds 19 1017 64 10000 1 0 23:22 17.09.2019
1771 Thunderstorm 20 1017 56 10000 2.1 330 22:43 17.09.2019
1772 Thunderstorm 20 1017 56 10000 2.1 330 22:24 17.09.2019
1773 Thunderstorm 21 1017 60 10000 4.1 290 21:55 17.09.2019
1774 Thunderstorm 21 1017 56 10000 4.6 230 21:37 17.09.2019
1775 Thunderstorm 22 1017 56 10000 4.6 230 21:37 17.09.2019
1776 Thunderstorm 22 1017 56 10000 4.6 230 21:19 17.09.2019
1777 Thunderstorm 22 1016 53 8000 8.2 150 20:58 17.09.2019
1778 Clouds 23 1017 64 10000 10.3 250 20:40 17.09.2019
1779 Clouds 24 1017 64 10000 10.3 250 20:22 17.09.2019
1780 Rain 25 1017 44 10000 2.1 160 19:58 17.09.2019
1781 Rain 26 1017 44 10000 3.6 150 19:39 17.09.2019
1782 Rain 26 1016 47 10000 3.1 110 19:19 17.09.2019
1783 Rain 27 1016 47 10000 3.1 110 18:57 17.09.2019
1784 Rain 27 1016 42 10000 3.1 150 18:38 17.09.2019
1785 Rain 27 1016 42 10000 3.1 150 18:20 17.09.2019
1786 Clear 28 1016 34 10000 2.1 110 17:46 17.09.2019
1787 Clear 28 1016 34 10000 2.1 110 17:46 17.09.2019
1788 Clear 28 1016 34 10000 2.1 110 17:20 17.09.2019
1789 Clear 28 1017 32 10000 1.5 0 16:58 17.09.2019
1790 Clear 28 1017 37 10000 1.5 0 16:39 17.09.2019
1791 Clear 28 1017 37 10000 1.5 0 16:21 17.09.2019
1792 Clear 27 1018 37 10000 2.1 100 15:40 17.09.2019
1793 Clear 27 1018 37 10000 2.1 100 15:21 17.09.2019
1794 Clear 27 1019 42 10000 1.5 0 14:57 17.09.2019
1795 Clear 26 1019 44 10000 1.5 60 14:39 17.09.2019
1796 Clear 26 1019 44 10000 1.5 60 14:19 17.09.2019
1797 Clear 25 1019 44 10000 1.5 0 13:57 17.09.2019
1798 Clear 25 1020 50 10000 2.6 0 13:38 17.09.2019
1799 Clear 24 1020 53 10000 1.5 0 13:20 17.09.2019
1800 Clear 24 1020 57 10000 2.1 90 12:42 17.09.2019
1801 Clear 23 1020 56 10000 2.1 40 12:19 17.09.2019
1802 Clear 22 1020 56 10000 2.1 40 11:46 17.09.2019
1803 Clear 22 1020 60 10000 1.5 50 11:26 17.09.2019
1804 Clear 21 1020 64 10000 1 0 10:59 17.09.2019
1805 Clear 19 1020 64 10000 1 0 10:41 17.09.2019
1806 Clear 19 1020 64 10000 1 0 10:21 17.09.2019
1807 Clear 18 1020 77 10000 1 350 09:55 17.09.2019
1808 Clear 17 1020 77 10000 0.5 0 09:37 17.09.2019
1809 Clear 17 1020 77 10000 0.5 0 09:19 17.09.2019
1810 Clear 16 1020 82 10000 1.25 145.369 08:43 17.09.2019
1811 Clear 15 1020 82 10000 1.25 145.369 08:25 17.09.2019
1812 Clear 16 1019 77 10000 1 0 07:44 17.09.2019
1813 Clear 16 1019 77 10000 1 0 07:26 17.09.2019
1814 Clear 16 1019 87 10000 1 0 06:54 17.09.2019
1815 Clear 16 1019 93 10000 0.5 0 06:35 17.09.2019
1816 Clear 16 1019 88 10000 2.1 360 05:53 17.09.2019
1817 Clear 16 1019 88 10000 2.6 350 04:56 17.09.2019
1818 Clear 16 1020 88 10000 1 340 03:42 17.09.2019
1819 Clear 16 1020 88 10000 1.5 350 02:39 17.09.2019
1820 Clear 17 1020 88 10000 2.1 350 01:50 17.09.2019
1821 Clouds 18 1020 82 10000 1 0 00:50 17.09.2019
1822 Clear 19 1021 82 10000 1.03 214.836 23:42 16.09.2019
1823 Clear 19 1021 82 10000 1.03 214.836 23:20 16.09.2019
1824 Clear 20 1020 77 10000 0.5 0 22:59 16.09.2019
1825 Clear 21 1020 77 10000 1 0 22:40 16.09.2019
1826 Clear 21 1020 77 10000 1 0 22:22 16.09.2019
1827 Clear 21 1020 77 10000 1 0 22:22 16.09.2019
1828 Clear 20 1020 77 10000 1.03 214.836 21:57 16.09.2019
1829 Clear 21 1020 73 10000 0.5 0 21:38 16.09.2019
1830 Clear 21 1020 73 10000 0.5 0 21:20 16.09.2019
1831 Clear 21 1020 73 10000 1 0 20:42 16.09.2019
1832 Clear 22 1020 73 10000 1.5 350 20:23 16.09.2019
1833 Clouds 22 1020 68 10000 2.1 360 19:58 16.09.2019
1834 Clouds 22 1020 68 10000 2.6 330 19:40 16.09.2019
1835 Clouds 23 1020 64 10000 4.6 320 19:20 16.09.2019
1836 Clouds 24 1020 64 10000 4.6 320 18:56 16.09.2019
1837 Clouds 24 1020 53 10000 3.1 190 18:37 16.09.2019
1838 Clouds 24 1019 50 10000 2.1 140 18:18 16.09.2019
1839 Clouds 25 1020 44 10000 2.1 130 17:42 16.09.2019
1840 Clouds 25 1020 44 10000 2.1 130 17:24 16.09.2019
1841 Clouds 25 1020 57 10000 2.6 130 16:58 16.09.2019
1842 Clouds 25 1020 50 10000 1.5 0 16:38 16.09.2019
1843 Clouds 25 1020 50 10000 1.5 0 16:20 16.09.2019
1844 Clouds 25 1020 53 10000 2.6 130 15:56 16.09.2019
1845 Clouds 24 1021 60 10000 1.5 0 15:37 16.09.2019
1846 Clouds 24 1021 57 10000 2.6 120 15:18 16.09.2019
1847 Clouds 24 1021 57 10000 2.6 120 14:44 16.09.2019
1848 Clouds 23 1021 64 10000 2.1 0 14:23 16.09.2019
1849 Clouds 23 1021 64 10000 1.5 0 13:59 16.09.2019
1850 Clouds 23 1022 60 10000 1 0 13:39 16.09.2019
1851 Clouds 23 1022 60 10000 1 0 13:39 16.09.2019
1852 Clouds 23 1022 60 10000 1 0 13:39 16.09.2019
1853 Clouds 22 1022 64 10000 1.5 70 13:21 16.09.2019
1854 Clouds 22 1022 64 10000 1.5 140 12:45 16.09.2019
1855 Clouds 21 1022 64 10000 1.5 140 12:27 16.09.2019
1856 Clouds 20 1022 73 10000 2.1 110 11:56 16.09.2019
1857 Clouds 20 1022 73 10000 2.1 110 11:56 16.09.2019
1858 Clouds 20 1022 73 10000 2.1 110 11:56 16.09.2019
1859 Clouds 20 1022 73 10000 1 0 11:37 16.09.2019
1860 Clouds 20 1022 73 10000 1 0 11:19 16.09.2019
1861 Clouds 19 1021 82 10000 1.5 30 10:39 16.09.2019
1862 Clouds 18 1021 82 10000 1.5 30 10:20 16.09.2019
1863 Clouds 17 1021 82 10000 0.5 0 09:58 16.09.2019
1864 Clouds 17 1021 93 10000 0.5 0 09:39 16.09.2019
1865 Clouds 17 1021 93 10000 0.5 0 09:19 16.09.2019
1866 Clouds 16 1021 93 10000 1 0 08:46 16.09.2019
1867 Clouds 16 1021 93 10000 1 0 08:26 16.09.2019
1868 Rain 16 1020 88 10000 1.5 40 07:56 16.09.2019
1869 Rain 16 1020 88 10000 1.5 40 07:56 16.09.2019
1870 Rain 16 1020 88 10000 1.5 30 07:37 16.09.2019
1871 Rain 16 1020 88 10000 1.5 30 07:19 16.09.2019
1872 Rain 16 1020 93 10000 1 0 06:45 16.09.2019
1873 Rain 16 1020 93 10000 1 0 06:26 16.09.2019
1874 Rain 17 1020 93 10000 1 0 05:51 16.09.2019
1875 Rain 17 1021 93 10000 1 0 05:29 16.09.2019
1876 Rain 17 1020 88 10000 1.5 340 04:38 16.09.2019
1877 Clouds 17 1021 88 10000 1.5 350 02:36 16.09.2019
1878 Clouds 17 1021 88 10000 1 0 00:44 16.09.2019
1879 Clouds 17 1021 88 10000 1 0 00:26 16.09.2019
1880 Rain 17 1021 88 10000 1 0 23:44 15.09.2019
1881 Clouds 18 1021 93 10000 1 0 23:21 15.09.2019
1882 Clouds 18 1021 93 10000 1 0 22:58 15.09.2019
1883 Clouds 18 1021 82 10000 2.1 10 22:37 15.09.2019
1884 Clouds 18 1021 82 10000 2.1 10 22:18 15.09.2019
1885 Clouds 18 1021 88 10000 1 0 21:55 15.09.2019
1886 Clouds 19 1021 82 10000 2.1 60 21:37 15.09.2019
1887 Clouds 19 1021 82 10000 2.1 60 21:18 15.09.2019
1888 Clouds 19 1020 72 10000 2.6 60 20:43 15.09.2019
1889 Clouds 20 1020 72 10000 2.6 60 20:25 15.09.2019
1890 Thunderstorm 20 1020 82 10000 3.6 80 19:47 15.09.2019
1891 Clouds 20 1020 77 10000 2.6 60 19:26 15.09.2019
1892 Thunderstorm 21 1020 77 10000 2.6 60 18:55 15.09.2019
1893 Thunderstorm 21 1020 73 10000 2.6 60 18:36 15.09.2019
1894 Clouds 21 1020 69 10000 1.5 0 18:18 15.09.2019
1895 Clouds 21 1020 69 10000 1.5 0 17:41 15.09.2019
1896 Clouds 21 1020 69 10000 1.5 0 17:21 15.09.2019
1897 Rain 20 1021 73 10000 2.6 10 16:56 15.09.2019
1898 Rain 20 1021 73 10000 2.6 350 16:38 15.09.2019
1899 Rain 20 1021 73 10000 2.6 350 16:20 15.09.2019
1900 Thunderstorm 19 1021 72 10000 3.1 330 15:41 15.09.2019
1901 Thunderstorm 19 1021 77 10000 3.1 360 15:41 15.09.2019
1902 Thunderstorm 18 1021 72 10000 3.1 330 15:21 15.09.2019
1903 Thunderstorm 18 1021 93 10000 2.6 350 14:59 15.09.2019
1904 Thunderstorm 18 1021 77 10000 3.6 350 14:40 15.09.2019
1905 Thunderstorm 18 1021 77 10000 3.6 350 14:22 15.09.2019
1906 Rain 19 1022 88 8000 2.1 340 13:47 15.09.2019
1907 Rain 19 1022 88 8000 2.1 340 13:25 15.09.2019
1908 Clouds 19 1022 88 10000 1 0 12:58 15.09.2019
1909 Clouds 19 1022 82 10000 1.5 40 12:40 15.09.2019
1910 Clouds 19 1022 77 10000 2.1 40 12:20 15.09.2019
1911 Clouds 19 1022 77 10000 2.1 40 12:20 15.09.2019
1912 Thunderstorm 18 1022 77 10000 2.1 60 11:43 15.09.2019
1913 Thunderstorm 18 1022 77 10000 2.1 60 11:23 15.09.2019
1914 Rain 17 1022 93 5000 3.1 20 10:59 15.09.2019
1915 Rain 17 1022 88 9000 2.1 30 10:40 15.09.2019
1916 Rain 17 1022 88 9000 2.1 30 10:21 15.09.2019
1917 Rain 16 1021 88 10000 1 0 09:43 15.09.2019
1918 Rain 16 1021 88 10000 1 0 09:21 15.09.2019
1919 Rain 16 1021 87 10000 1 0 08:59 15.09.2019
1920 Rain 16 1021 93 9000 3.1 0 08:40 15.09.2019
1921 Rain 16 1021 93 6000 2.6 50 08:19 15.09.2019
1922 Rain 16 1021 93 4500 2.1 50 07:46 15.09.2019
1923 Clouds 17 1021 82 10000 0.5 240 06:44 15.09.2019
1924 Thunderstorm 17 1021 88 10000 1 0 05:58 15.09.2019
1925 Clouds 17 1022 93 10000 1 0 03:19 15.09.2019
1926 Clouds 17 1022 93 10000 0.5 0 02:19 15.09.2019
1927 Clouds 17 1023 93 10000 1.5 360 01:36 15.09.2019
1928 Clouds 17 1023 93 10000 1.5 360 01:36 15.09.2019
1929 Clouds 17 1023 93 10000 1.5 360 00:57 15.09.2019
1930 Clouds 17 1023 93 10000 0.5 0 00:37 15.09.2019
1931 Clouds 16 1023 93 10000 0.5 0 00:19 15.09.2019
1932 Clouds 16 1023 93 10000 1 0 23:56 14.09.2019
1933 Clouds 16 1023 100 10000 2.93 65.414 23:38 14.09.2019
1934 Clouds 16 1023 100 10000 2.93 65.414 23:38 14.09.2019
1935 Clouds 16 1023 100 10000 2.93 65.414 23:19 14.09.2019
1936 Clouds 16 1023 93 10000 1 80 22:55 14.09.2019
1937 Clouds 16 1023 88 10000 1 0 22:37 14.09.2019
1938 Clouds 16 1023 93 10000 1 0 22:18 14.09.2019
1939 Clouds 16 1023 93 8000 1 0 21:40 14.09.2019
1940 Rain 17 1023 93 8000 2.1 10 21:21 14.09.2019
1941 Rain 17 1023 93 8000 2.1 10 20:58 14.09.2019
1942 Rain 16 1023 93 8000 2.6 360 20:39 14.09.2019
1943 Rain 17 1023 93 8000 2.6 360 20:21 14.09.2019
1944 Rain 17 1023 88 8000 2.6 10 19:47 14.09.2019
1945 Rain 17 1023 88 6000 3.1 10 19:23 14.09.2019
1946 Rain 16 1023 88 8000 2.1 350 18:58 14.09.2019
1947 Rain 16 1023 88 10000 3.1 60 18:38 14.09.2019
1948 Rain 17 1023 88 10000 3.1 60 18:20 14.09.2019
1949 Rain 16 1024 88 10000 3.1 80 17:45 14.09.2019
1950 Rain 17 1024 88 10000 3.1 80 17:24 14.09.2019
1951 Rain 17 1024 88 10000 2.6 70 16:56 14.09.2019
1952 Rain 17 1024 88 10000 4.1 90 16:38 14.09.2019
1953 Rain 17 1024 88 10000 4.1 90 16:18 14.09.2019
1954 Rain 18 1024 82 10000 2.1 50 15:42 14.09.2019
1955 Rain 18 1024 82 10000 2.1 50 15:22 14.09.2019
1956 Rain 17 1024 88 10000 1 0 14:55 14.09.2019
1957 Rain 17 1024 93 10000 2.6 30 14:36 14.09.2019
1958 Rain 17 1024 93 10000 2.6 30 14:18 14.09.2019
1959 Rain 18 1025 87 8000 4.1 80 13:46 14.09.2019
1960 Rain 19 1026 77 10000 6.2 160 13:21 14.09.2019
1961 Clear 21 1025 60 10000 2.6 70 12:46 14.09.2019
1962 Clouds 21 1026 52 10000 5.7 70 12:23 14.09.2019
1963 Clear 20 1025 60 10000 2.6 50 11:41 14.09.2019
1964 Clear 20 1025 60 10000 2.6 50 11:20 14.09.2019
1965 Clear 20 1025 60 10000 2.6 50 11:20 14.09.2019
1966 Clear 19 1025 68 10000 2.1 40 10:41 14.09.2019
1967 Clear 18 1025 68 10000 2.1 40 10:22 14.09.2019
1968 Clear 18 1025 68 10000 3.1 30 09:59 14.09.2019
1969 Clear 17 1025 68 10000 3.1 30 09:40 14.09.2019
1970 Clear 17 1024 72 10000 2.6 30 09:21 14.09.2019
1971 Clear 17 1024 72 10000 3.1 20 08:59 14.09.2019
1972 Clear 17 1025 72 10000 2.1 10 08:41 14.09.2019
1973 Clear 17 1025 72 10000 2.1 10 08:21 14.09.2019
1974 Clear 17 1024 72 10000 2.1 30 07:43 14.09.2019
1975 Clear 17 1024 72 10000 2.1 30 07:23 14.09.2019
1976 Clouds 17 1024 82 10000 4.54 71.09 06:35 14.09.2019
1977 Clouds 17 1024 82 10000 1 0 05:55 14.09.2019
1978 Clouds 17 1025 72 10000 3.1 350 04:34 14.09.2019
1979 Clouds 17 1025 77 10000 3.1 340 03:25 14.09.2019
1980 Clouds 18 1026 72 10000 2.1 80 02:48 14.09.2019
1981 Clouds 18 1026 72 10000 2.1 60 01:45 14.09.2019
1982 Clouds 18 1026 72 10000 2.1 60 01:19 14.09.2019
1983 Clouds 18 1026 72 10000 1.5 50 00:40 14.09.2019
1984 Clouds 18 1026 72 10000 1.5 50 00:22 14.09.2019
1985 Clouds 18 1026 72 10000 1.5 40 23:56 13.09.2019
1986 Clouds 18 1026 72 10000 1 360 23:37 13.09.2019
1987 Clouds 18 1026 72 10000 1 360 23:18 13.09.2019
1988 -273 0 0 0 0 0 22:55 13.09.2019
1989 Clouds 18 1026 72 10000 2.6 20 22:36 13.09.2019
1990 Clouds 18 1026 72 10000 2.6 20 22:18 13.09.2019
1991 Clouds 18 1025 77 10000 3.6 10 21:39 13.09.2019
1992 Clouds 18 1025 77 10000 3.6 10 21:19 13.09.2019
1993 Clouds 18 1025 77 10000 2.6 360 20:58 13.09.2019
1994 Clouds 18 1026 77 10000 2.6 20 20:37 13.09.2019
1995 Clouds 18 1026 77 10000 3.1 20 20:19 13.09.2019
1996 Clouds 18 1026 77 10000 3.1 20 19:54 13.09.2019
1997 Clouds 18 1026 77 10000 3.1 20 19:54 13.09.2019
1998 Clouds 18 1026 77 10000 3.6 40 19:36 13.09.2019
1999 Clouds 18 1026 77 10000 3.6 40 19:18 13.09.2019
2000 Drizzle 18 1026 68 10000 4.6 40 18:38 13.09.2019
2001 Clouds 18 1026 68 10000 4.6 40 18:20 13.09.2019
2002 Rain 18 1026 77 10000 3.6 0 17:55 13.09.2019
2003 Rain 18 1026 77 10000 3.6 0 17:55 13.09.2019
2004 Rain 18 1026 82 10000 3.6 10 17:36 13.09.2019
2005 Rain 17 1026 82 10000 3.6 10 17:18 13.09.2019
2006 Rain 16 1027 87 10000 4.6 360 16:40 13.09.2019
2007 Rain 16 1027 87 10000 4.6 360 16:20 13.09.2019
2008 Rain 15 1028 93 6000 3.1 50 15:45 13.09.2019
2009 Rain 16 1028 93 6000 3.1 50 15:27 13.09.2019
2010 Rain 17 1028 77 10000 3.1 60 14:57 13.09.2019
2011 Rain 17 1028 72 9000 3.6 60 14:38 13.09.2019
2012 Rain 18 1028 72 9000 3.6 60 14:19 13.09.2019
2013 Rain 20 1028 48 10000 9.8 80 13:44 13.09.2019
2014 Rain 21 1026 52 10000 3.1 50 13:22 13.09.2019
2015 Rain 21 1026 52 10000 3.1 50 12:54 13.09.2019
2016 Rain 21 1026 52 10000 3.6 20 12:36 13.09.2019
2017 Rain 21 1026 52 10000 3.6 20 12:18 13.09.2019
2018 Rain 21 1026 45 10000 4.6 40 11:54 13.09.2019
2019 Rain 21 1026 45 10000 4.6 40 11:18 13.09.2019
2020 Clear 21 1026 49 10000 4.6 30 10:37 13.09.2019
2021 Clouds 21 1027 42 10000 11.3 50 10:19 13.09.2019
2022 Clear 20 1026 49 10000 4.6 30 09:44 13.09.2019
2023 Clear 20 1026 49 10000 4.6 30 09:23 13.09.2019
2024 Clear 19 1026 49 10000 4.1 30 08:58 13.09.2019
2025 Clear 19 1026 45 10000 4.1 0 08:40 13.09.2019
2026 Clear 19 1026 45 10000 4.1 0 08:20 13.09.2019
2027 Clear 19 1026 45 10000 4.1 0 08:20 13.09.2019
2028 Clear 19 1026 52 10000 2.1 20 07:44 13.09.2019
2029 Clear 19 1026 52 10000 2.1 20 07:26 13.09.2019
2030 Clear 19 1026 48 10000 1 0 06:41 13.09.2019
2031 Clear 19 1026 52 10000 1 10 05:43 13.09.2019
2032 Clear 19 1027 55 10000 1.5 360 04:39 13.09.2019
2033 Clear 19 1027 52 10000 1.5 10 03:37 13.09.2019
2034 Clear 21 1028 46 10000 0.5 0 02:20 13.09.2019
2035 Clear 21 1028 46 10000 2.1 320 01:38 13.09.2019
2036 Clear 21 1028 46 10000 2.1 320 01:18 13.09.2019
2037 Clear 22 1027 49 10000 1 0 00:36 13.09.2019
2038 Clear 22 1027 49 10000 0.5 0 23:57 12.09.2019
2039 Clear 22 1027 46 10000 0.5 0 23:35 12.09.2019
2040 Clear 23 1027 43 10000 1.5 60 22:59 12.09.2019
2041 Clear 23 1027 43 10000 1.5 130 22:40 12.09.2019
2042 Clear 23 1027 43 10000 1.5 130 22:22 12.09.2019
2043 Clear 24 1027 43 10000 0.5 0 21:56 12.09.2019
2044 Clear 24 1026 41 10000 1 0 21:37 12.09.2019
2045 Clear 24 1026 41 10000 1 0 21:19 12.09.2019
2046 Clear 25 1026 38 10000 1 0 20:55 12.09.2019
2047 Clear 25 1026 38 10000 1 0 20:55 12.09.2019
2048 Clear 25 1026 38 10000 1 0 20:55 12.09.2019
2049 Clear 25 1026 41 10000 2.6 110 20:36 12.09.2019
2050 Clear 26 1027 36 10000 3.6 120 20:18 12.09.2019
2051 Clear 26 1027 36 10000 5.1 100 19:41 12.09.2019
2052 Clear 26 1027 36 10000 5.1 100 19:20 12.09.2019
2053 Clear 27 1026 32 10000 4.1 100 18:58 12.09.2019
2054 Clear 27 1027 36 10000 5.7 100 18:36 12.09.2019
2055 Clear 27 1027 36 10000 5.7 110 18:18 12.09.2019
2056 Clear 27 1027 36 10000 5.1 100 17:41 12.09.2019
2057 Clear 27 1027 36 10000 5.1 100 17:22 12.09.2019
2058 Clear 27 1027 34 10000 5.7 90 16:58 12.09.2019
2059 Clear 27 1027 34 10000 5.7 90 16:58 12.09.2019
2060 Clear 27 1027 32 10000 3.1 50 16:40 12.09.2019
2061 Clear 27 1027 32 10000 3.1 50 16:20 12.09.2019
2062 Clear 27 1027 36 10000 3.1 60 15:42 12.09.2019
2063 Clear 26 1027 36 10000 3.1 60 15:24 12.09.2019
2064 Clear 26 1027 34 10000 3.1 40 14:55 12.09.2019
2065 Clear 26 1028 36 10000 3.1 50 14:37 12.09.2019
2066 Clear 26 1028 36 10000 3.1 50 14:19 12.09.2019
2067 Clear 25 1028 38 10000 4.6 60 13:39 12.09.2019
2068 Clear 25 1028 38 10000 4.6 60 13:20 12.09.2019
2069 Clear 24 1029 43 10000 5.1 50 12:48 12.09.2019
2070 Clear 23 1029 43 10000 5.1 50 12:19 12.09.2019
2071 Clear 22 1028 43 10000 4.6 0 11:58 12.09.2019
2072 Clear 22 1028 46 10000 6.2 40 11:39 12.09.2019
2073 Clear 22 1028 46 10000 6.2 40 11:21 12.09.2019
2074 Clear 21 1028 46 10000 5.1 40 10:49 12.09.2019
2075 Clear 20 1028 49 10000 3.1 30 10:28 12.09.2019
2076 Clear 19 1027 48 10000 3.1 30 09:57 12.09.2019
2077 Clear 18 1027 48 10000 3.1 30 09:38 12.09.2019
2078 Clear 18 1027 48 10000 3.1 30 09:19 12.09.2019
2079 Clear 16 1027 51 10000 2.1 10 08:44 12.09.2019
2080 Clear 16 1027 51 10000 2.1 10 08:23 12.09.2019
2081 Clear 16 1027 51 10000 1.5 30 07:54 12.09.2019
2082 Clear 16 1027 55 10000 1.5 360 07:36 12.09.2019
2083 Clear 15 1027 55 10000 1.5 360 07:18 12.09.2019
2084 Clear 15 1026 55 10000 1.5 330 06:44 12.09.2019
2085 Clear 15 1026 55 10000 1.5 20 05:54 12.09.2019
2086 Clear 15 1026 51 10000 3.1 30 05:36 12.09.2019
2087 Clear 15 1027 55 10000 3.6 50 04:45 12.09.2019
2088 Clear 16 1026 51 10000 4.1 50 03:23 12.09.2019
2089 Clear 18 1026 45 10000 4.1 50 01:43 12.09.2019
2090 Clear 18 1026 45 10000 4.1 50 01:23 12.09.2019
2091 Clear 19 1026 42 10000 3.6 50 00:47 12.09.2019
2092 Clear 18 1026 42 10000 3.6 50 00:28 12.09.2019
2093 Clear 20 1025 37 10000 2.1 50 23:43 11.09.2019
2094 Clear 20 1025 37 10000 2.1 50 23:25 11.09.2019
2095 Clear 21 1025 35 10000 2.1 60 22:58 11.09.2019
2096 Clear 21 1025 35 10000 3.6 70 22:38 11.09.2019
2097 Clear 22 1025 35 10000 3.6 70 22:19 11.09.2019
2098 Clear 23 1025 31 10000 3.6 60 21:57 11.09.2019
2099 Clear 23 1024 33 10000 3.6 0 21:39 11.09.2019
2100 Clear 23 1024 33 10000 3.6 0 21:20 11.09.2019
2101 Clear 23 1023 31 10000 3.6 40 20:55 11.09.2019
2102 Clear 23 1023 31 10000 3.6 40 20:37 11.09.2019
2103 Clear 24 1023 31 10000 3.6 40 20:18 11.09.2019
2104 Clouds 24 1022 27 10000 3.1 60 19:55 11.09.2019
2105 Clear 24 1022 31 10000 5.1 50 19:37 11.09.2019
2106 Clear 24 1022 31 10000 5.1 50 19:37 11.09.2019
2107 Clear 25 1022 29 10000 4.6 0 19:18 11.09.2019
2108 Clear 25 1022 29 10000 5.1 60 18:42 11.09.2019
2109 Clear 25 1022 29 10000 5.1 60 18:23 11.09.2019
2110 Clear 25 1022 29 10000 4.6 50 17:58 11.09.2019
2111 Clear 25 1022 27 10000 6.2 60 17:40 11.09.2019
2112 Clear 25 1022 27 10000 6.2 60 17:21 11.09.2019
2113 Clear 25 1022 29 10000 6.2 50 16:54 11.09.2019
2114 Clear 25 1022 29 10000 6.2 20 16:36 11.09.2019
2115 Clear 25 1022 29 10000 6.2 20 16:18 11.09.2019
2116 Clear 25 1022 29 10000 4.6 50 15:45 11.09.2019
2117 Clear 24 1022 29 10000 4.6 50 15:22 11.09.2019
2118 Clear 24 1022 31 10000 4.6 0 14:57 11.09.2019
2119 Clear 24 1022 33 10000 5.7 0 14:38 11.09.2019
2120 Clear 23 1022 33 10000 5.7 0 14:19 11.09.2019
2121 Clear 23 1022 33 10000 5.1 10 13:55 11.09.2019
2122 Clear 23 1022 35 10000 5.1 0 13:36 11.09.2019
2123 Clear 23 1022 35 10000 5.1 0 13:18 11.09.2019
2124 Clear 21 1023 40 10000 4.6 20 12:41 11.09.2019
2125 Clear 20 1023 40 10000 4.6 20 12:21 11.09.2019
2126 Clear 20 1022 42 10000 4.1 0 11:55 11.09.2019
2127 Clear 20 1022 42 10000 4.1 0 11:55 11.09.2019
2128 Clear 20 1022 45 10000 5.7 10 11:36 11.09.2019
2129 Clear 20 1022 45 10000 5.7 10 11:36 11.09.2019
2130 Clear 19 1022 45 10000 5.7 10 11:18 11.09.2019
2131 -273 0 0 0 0 0 10:40 11.09.2019
2132 Clear 17 1022 45 10000 5.7 20 10:21 11.09.2019
2133 Clear 16 1021 58 10000 2.1 300 09:41 11.09.2019
2134 Clear 15 1021 58 10000 2.1 300 09:20 11.09.2019
2135 Clear 14 1021 62 10000 2.1 280 08:59 11.09.2019
2136 Clear 14 1021 62 10000 1.5 310 08:39 11.09.2019
2137 Clear 14 1021 62 10000 1.5 310 08:21 11.09.2019
2138 Clear 14 1021 58 10000 2.1 320 07:46 11.09.2019
2139 Clear 13 1020 66 10000 2.1 270 07:23 11.09.2019
2140 Clear 13 1020 58 10000 6.7 360 06:54 11.09.2019
2141 Clear 14 1020 54 10000 6.7 360 06:35 11.09.2019
2142 Clear 14 1020 54 10000 4.6 360 05:49 11.09.2019
2143 Clear 14 1019 54 10000 5.1 360 05:29 11.09.2019
2144 Clear 14 1019 54 10000 4.1 10 04:51 11.09.2019
2145 Clear 13 1020 58 10000 5.7 360 03:37 11.09.2019
2146 Clear 14 1020 58 10000 4.6 10 02:58 11.09.2019
2147 Clear 13 1020 58 10000 5.1 360 02:28 11.09.2019
2148 Clear 14 1020 54 10000 3.1 350 00:57 11.09.2019
2149 Clouds 14 1019 58 10000 5.1 350 00:31 11.09.2019
2150 Clouds 14 1019 58 10000 3.6 360 23:57 10.09.2019
2151 Clouds 14 1019 58 10000 5.1 360 23:39 10.09.2019
2152 Clouds 15 1019 58 10000 5.1 360 23:20 10.09.2019
2153 Clouds 15 1019 51 10000 7.7 360 22:41 10.09.2019
2154 Clouds 15 1019 51 10000 7.7 360 22:20 10.09.2019
2155 Clouds 15 1019 51 10000 3.1 330 21:57 10.09.2019
2156 Clouds 15 1019 51 10000 3.6 320 21:38 10.09.2019
2157 Clouds 15 1019 51 10000 3.6 320 21:20 10.09.2019
2158 Clouds 15 1018 48 10000 3.1 350 20:58 10.09.2019
2159 Clouds 15 1018 48 10000 4.1 350 20:40 10.09.2019
2160 Clouds 15 1018 48 10000 4.1 350 20:22 10.09.2019
2161 Clouds 16 1018 48 10000 5.1 350 19:57 10.09.2019
2162 Clouds 16 1017 45 10000 5.7 360 19:38 10.09.2019
2163 Clouds 16 1017 37 10000 10.3 10 19:19 10.09.2019
2164 Clouds 16 1017 37 10000 10.3 10 18:58 10.09.2019
2165 Clouds 16 1017 34 10000 6.2 320 18:39 10.09.2019
2166 Clouds 17 1017 34 10000 6.2 320 18:21 10.09.2019
2167 Clouds 18 1017 32 10000 6.2 330 17:54 10.09.2019
2168 Clouds 18 1017 32 10000 3.6 330 17:36 10.09.2019
2169 Clouds 19 1016 28 10000 5.1 310 17:18 10.09.2019
2170 Clouds 19 1016 28 10000 5.1 310 16:55 10.09.2019
2171 Clouds 19 1016 28 10000 5.1 310 16:55 10.09.2019
2172 Clouds 19 1016 28 10000 5.1 310 16:55 10.09.2019
2173 Clouds 19 1016 26 10000 5.7 340 16:36 10.09.2019
2174 Clouds 20 1016 26 10000 5.7 340 16:18 10.09.2019
2175 Clouds 20 1016 26 10000 5.7 340 16:18 10.09.2019
2176 Clouds 20 1016 24 10000 6.7 310 15:42 10.09.2019
2177 Clouds 20 1016 24 10000 6.7 310 15:21 10.09.2019
2178 Clouds 20 1017 27 10000 4.6 280 14:42 10.09.2019
2179 Clouds 20 1017 27 10000 4.6 280 14:24 10.09.2019
2180 Clouds 19 1017 31 10000 4.1 270 13:59 10.09.2019
2181 Clouds 19 1017 29 10000 3.1 0 13:40 10.09.2019
2182 Clouds 19 1017 29 10000 3.1 0 13:40 10.09.2019
2183 Clouds 18 1017 29 10000 3.1 0 13:22 10.09.2019
2184 Clouds 18 1017 34 10000 3.1 0 12:49 10.09.2019
2185 Clouds 17 1017 34 10000 3.1 0 12:27 10.09.2019
2186 Clouds 16 1017 39 10000 3.6 0 11:57 10.09.2019
2187 Clouds 16 1017 36 10000 8.7 30 11:39 10.09.2019
2188 Clouds 16 1017 36 10000 8.7 30 11:20 10.09.2019
2189 Clouds 15 1016 44 10000 3.1 0 10:42 10.09.2019
2190 Clouds 15 1016 44 10000 3.1 0 10:19 10.09.2019
2191 Clouds 15 1016 38 10000 5.1 310 09:56 10.09.2019
2192 Clouds 15 1016 38 10000 5.1 310 09:38 10.09.2019
2193 Clouds 15 1015 54 10000 2.6 330 09:19 10.09.2019
2194 Clouds 15 1015 54 10000 2.6 330 09:19 10.09.2019
2195 Clouds 14 1015 58 10000 3.1 330 08:45 10.09.2019
2196 Clouds 14 1015 58 10000 3.1 330 08:26 10.09.2019
2197 Clear 15 1014 58 10000 5.7 290 07:46 10.09.2019
2198 Clear 15 1014 58 10000 5.7 290 07:27 10.09.2019
2199 Clear 15 1013 51 10000 5.7 340 06:53 10.09.2019
2200 Clear 15 1013 51 10000 5.7 340 06:35 10.09.2019
2201 Clear 16 1013 45 10000 6.2 360 05:27 10.09.2019
2202 Clear 19 1013 37 10000 4.1 360 03:57 10.09.2019
2203 Clear 20 1014 27 10000 7.7 310 02:24 10.09.2019
2204 Clear 22 1014 27 10000 7.7 310 01:59 10.09.2019
2205 Clear 22 1014 22 10000 4.6 280 01:41 10.09.2019
2206 Clear 23 1014 23 10000 4.1 280 01:20 10.09.2019
2207 Clear 23 1014 20 10000 5.7 280 00:25 10.09.2019
2208 Clear 23 1014 20 10000 5.7 290 23:48 09.09.2019
2209 Clear 24 1014 18 10000 3.6 0 23:20 09.09.2019
2210 Clear 24 1014 18 10000 3.6 0 22:57 09.09.2019
2211 Clear 25 1014 20 10000 3.6 260 22:39 09.09.2019
2212 Clear 26 1014 18 10000 5.7 260 22:20 09.09.2019
2213 Clear 26 1014 18 10000 5.7 260 21:58 09.09.2019
2214 Clear 26 1014 17 10000 6.7 250 21:39 09.09.2019
2215 Clear 26 1014 15 10000 7.2 250 21:20 09.09.2019
2216 Clear 26 1014 15 10000 7.2 250 20:57 09.09.2019
2217 Clear 26 1014 15 10000 8.7 240 20:37 09.09.2019
2218 Clear 27 1014 12 10000 9.3 230 20:19 09.09.2019
2219 Clear 27 1014 12 10000 9.3 230 19:58 09.09.2019
2220 Clear 27 1014 14 10000 7.2 220 19:39 09.09.2019
2221 Clear 28 1014 15 10000 8.2 230 19:19 09.09.2019
2222 Clear 28 1014 15 10000 8.2 230 18:58 09.09.2019
2223 Clear 28 1013 15 10000 8.7 230 18:40 09.09.2019
2224 Clear 28 1013 15 10000 8.7 230 18:21 09.09.2019
2225 Clear 29 1014 14 10000 9.3 230 17:58 09.09.2019
2226 Clear 29 1014 13 10000 8.2 210 17:40 09.09.2019
2227 Clear 29 1014 15 10000 8.2 220 17:21 09.09.2019
2228 Clear 29 1014 15 10000 8.2 220 16:56 09.09.2019
2229 Clear 29 1015 15 10000 7.2 230 16:38 09.09.2019
2230 Clear 29 1015 14 10000 6.2 220 16:19 09.09.2019
2231 Clear 29 1015 14 10000 6.2 220 15:55 09.09.2019
2232 Clear 29 1015 14 10000 6.2 220 15:55 09.09.2019
2233 Clear 29 1015 14 10000 6.2 220 15:55 09.09.2019
2234 Clear 28 1016 14 10000 6.7 220 15:36 09.09.2019
2235 Clear 28 1016 15 10000 6.7 230 15:18 09.09.2019
2236 Clear 27 1017 18 10000 5.7 220 14:41 09.09.2019
2237 Clear 27 1017 22 10000 5.1 220 14:23 09.09.2019
2238 Clear 26 1017 22 10000 5.1 220 14:00 09.09.2019
2239 Clear 26 1017 29 10000 4.1 210 13:41 09.09.2019
2240 Clear 25 1018 31 10000 4.1 210 13:19 09.09.2019
2241 Clear 25 1018 31 10000 4.1 210 12:57 09.09.2019
2242 Clear 25 1018 33 10000 3.6 190 12:38 09.09.2019
2243 Clear 23 1018 38 10000 1.5 170 12:19 09.09.2019
2244 Clear 23 1019 40 10000 1.5 150 11:43 09.09.2019
2245 Clear 22 1019 40 10000 1.5 150 11:20 09.09.2019
2246 Clear 22 1018 43 10000 1 0 10:58 09.09.2019
2247 Clear 21 1018 46 10000 1 0 10:39 09.09.2019
2248 Clear 20 1018 45 10000 1 0 10:20 09.09.2019
2249 Clear 18 1018 45 10000 1 0 09:50 09.09.2019
2250 Clear 18 1018 45 10000 1 0 09:50 09.09.2019
2251 Clear 18 1018 45 10000 1 0 09:31 09.09.2019
2252 Clear 16 1018 48 10000 1 0 08:57 09.09.2019
2253 Clear 15 1018 55 10000 0.7 252.215 08:38 09.09.2019
2254 Clear 15 1017 58 10000 0.7 252.215 08:19 09.09.2019
2255 Clear 16 1017 58 10000 0.7 252.215 07:44 09.09.2019
2256 Clear 15 1017 51 10000 1.5 350 07:22 09.09.2019
2257 Clear 16 1017 51 10000 1.5 350 06:56 09.09.2019
2258 Clear 16 1017 51 10000 1.5 350 06:56 09.09.2019
2259 Clear 16 1017 55 10000 2.1 350 06:31 09.09.2019
2260 Clear 18 1017 48 10000 1 0 04:45 09.09.2019
2261 Clear 20 1018 40 10000 3.1 330 02:43 09.09.2019
2262 Clear 21 1017 35 10000 1.5 0 01:47 09.09.2019
2263 Clear 22 1017 40 10000 2.1 350 00:39 09.09.2019
2264 Clear 23 1017 40 10000 2.1 350 00:20 09.09.2019
2265 Clear 24 1017 34 10000 1.5 210 23:41 08.09.2019
2266 Clear 24 1017 34 10000 2.1 220 23:23 08.09.2019
2267 Clear 25 1017 36 10000 2.1 280 22:43 08.09.2019
2268 Clear 25 1017 34 10000 2.6 200 22:23 08.09.2019
2269 Clear 26 1017 34 10000 2.6 200 21:59 08.09.2019
2270 Clear 26 1017 34 10000 2.1 190 21:40 08.09.2019
2271 Clear 26 1017 34 10000 2.1 190 21:22 08.09.2019
2272 Clouds 26 1017 34 10000 2.6 180 20:57 08.09.2019
2273 Clouds 27 1016 30 10000 2.6 190 20:37 08.09.2019
2274 Clouds 27 1016 30 10000 2.6 190 20:19 08.09.2019
2275 Clouds 27 1016 32 10000 2.6 160 20:19 08.09.2019
2276 Clouds 28 1016 32 10000 2.6 160 19:56 08.09.2019
2277 Clouds 28 1016 30 10000 3.1 180 19:37 08.09.2019
2278 Clouds 29 1016 28 10000 2.6 190 19:18 08.09.2019
2279 Clouds 29 1016 28 10000 2.6 190 18:55 08.09.2019
2280 Clouds 28 1016 28 10000 2.6 190 18:37 08.09.2019
2281 Clouds 28 1016 26 10000 2.1 120 18:18 08.09.2019
2282 Clouds 28 1017 30 10000 3.1 240 17:38 08.09.2019
2283 Clouds 28 1017 28 10000 1 260 17:19 08.09.2019
2284 Clouds 28 1017 28 10000 1 260 16:58 08.09.2019
2285 Clouds 28 1017 30 10000 1 60 16:40 08.09.2019
2286 Clouds 28 1017 30 10000 1 60 16:20 08.09.2019
2287 Clouds 28 1017 30 10000 1 60 16:20 08.09.2019
2288 Clouds 27 1018 36 10000 2.1 0 15:57 08.09.2019
2289 Clear 27 1018 36 10000 2.6 160 15:39 08.09.2019
2290 Clear 26 1018 42 10000 1.5 0 15:20 08.09.2019
2291 Clear 26 1019 44 10000 2.6 120 14:41 08.09.2019
2292 Clear 26 1019 44 10000 2.6 120 14:22 08.09.2019
2293 Clear 26 1019 44 10000 2.6 120 14:22 08.09.2019
2294 Clear 25 1019 44 10000 2.1 0 13:58 08.09.2019
2295 Clear 25 1019 50 10000 2.1 90 13:40 08.09.2019
2296 Clear 25 1019 50 10000 2.1 90 13:40 08.09.2019
2297 Clear 24 1019 49 10000 2.6 90 13:22 08.09.2019
2298 Clear 23 1019 49 10000 2.6 90 12:58 08.09.2019
2299 Clear 24 1020 53 10000 2.6 0 12:40 08.09.2019
2300 Clear 22 1020 53 10000 2.1 70 12:22 08.09.2019
2301 Clear 22 1020 53 10000 2.1 70 11:57 08.09.2019
2302 Clear 22 1020 49 10000 2.1 60 11:38 08.09.2019
2303 Clouds 21 1020 46 10000 1.5 60 11:19 08.09.2019
2304 Clouds 20 1020 42 10000 1.5 50 10:43 08.09.2019
2305 Clouds 20 1020 42 10000 1.5 50 10:23 08.09.2019
2306 Clouds 18 1020 45 10000 1.5 50 09:58 08.09.2019
2307 Clouds 18 1020 45 10000 3.6 50 09:38 08.09.2019
2308 Clouds 17 1019 45 10000 1.5 30 09:19 08.09.2019
2309 Clouds 17 1019 48 10000 1.5 20 08:40 08.09.2019
2310 Clouds 17 1019 48 10000 2.1 30 08:19 08.09.2019
2311 Clouds 17 1019 48 10000 2.1 30 07:59 08.09.2019
2312 Clouds 17 1019 48 10000 2.6 40 07:37 08.09.2019
2313 Clouds 17 1019 48 10000 2.6 40 07:19 08.09.2019
2314 Clouds 16 1019 51 10000 1.5 50 06:44 08.09.2019
2315 Clouds 17 1019 45 10000 1.5 20 05:47 08.09.2019
2316 Clouds 18 1019 45 10000 1.5 20 05:29 08.09.2019
2317 Clouds 18 1020 39 10000 2.1 360 03:39 08.09.2019
2318 Clear 18 1019 39 10000 2.1 350 02:53 08.09.2019
2319 Clear 19 1019 34 10000 3.6 350 01:57 08.09.2019
2320 Clear 20 1019 30 10000 2.6 10 01:34 08.09.2019
2321 Clear 20 1019 30 10000 2.6 10 01:34 08.09.2019
2322 Clear 20 1019 28 10000 3.6 340 00:53 08.09.2019
2323 Clear 21 1019 28 10000 2.1 20 00:34 08.09.2019
2324 Clear 21 1018 24 10000 4.1 50 23:59 07.09.2019
2325 Clear 22 1018 23 10000 4.6 60 23:38 07.09.2019
2326 Clear 22 1018 22 10000 4.6 50 23:19 07.09.2019
2327 Clear 22 1018 22 10000 4.6 50 22:57 07.09.2019
2328 Clear 23 1018 35 10000 0.5 360 22:37 07.09.2019
2329 Clear 23 1018 35 10000 0.5 360 22:37 07.09.2019
2330 Clear 24 1017 33 10000 1 360 22:18 07.09.2019
2331 Clear 24 1017 33 10000 1 0 21:41 07.09.2019
2332 Clear 24 1017 33 10000 1 0 21:23 07.09.2019
2333 Clear 26 1017 24 10000 1 214.293 20:42 07.09.2019
2334 Clouds 26 1017 24 10000 1 0 20:22 07.09.2019
2335 Clouds 27 1017 24 10000 1 0 19:58 07.09.2019
2336 Clouds 27 1018 24 10000 1 0 19:39 07.09.2019
2337 Clouds 27 1018 23 10000 1 290 19:21 07.09.2019
2338 Clouds 27 1018 23 10000 1 290 18:59 07.09.2019
2339 Clouds 27 1018 25 10000 0.5 0 18:40 07.09.2019
2340 Clouds 27 1018 25 10000 0.5 0 18:22 07.09.2019
2341 Clouds 27 1018 26 10000 1.5 330 17:59 07.09.2019
2342 Clouds 27 1018 26 10000 1.5 330 17:59 07.09.2019
2343 Clouds 27 1018 28 10000 1.5 40 17:41 07.09.2019
2344 Clouds 27 1019 32 10000 2.1 0 17:19 07.09.2019
2345 Clouds 27 1019 32 10000 2.1 0 16:59 07.09.2019
2346 Clouds 27 1019 32 10000 1.5 0 16:40 07.09.2019
2347 Clouds 26 1019 36 10000 2.1 0 16:20 07.09.2019
2348 Clouds 26 1020 41 10000 2.1 0 15:47 07.09.2019
2349 Clouds 25 1020 44 10000 2.1 0 15:26 07.09.2019
2350 Clouds 25 1020 44 10000 2.1 0 14:57 07.09.2019
2351 Clouds 24 1020 50 10000 3.1 80 14:37 07.09.2019
2352 Clouds 24 1020 47 10000 2.1 50 14:19 07.09.2019
2353 Clouds 24 1020 47 10000 2.1 50 13:57 07.09.2019
2354 Clouds 23 1021 49 10000 3.1 70 13:39 07.09.2019
2355 Clouds 23 1021 49 10000 3.1 70 13:39 07.09.2019
2356 Clouds 23 1021 46 10000 3.1 50 13:21 07.09.2019
2357 Clouds 22 1021 40 10000 2.6 50 12:44 07.09.2019
2358 Clouds 21 1021 40 10000 2.6 50 12:25 07.09.2019
2359 Clouds 20 1021 42 10000 3.1 50 11:57 07.09.2019
2360 Clouds 20 1022 45 10000 3.6 30 11:39 07.09.2019
2361 Clouds 19 1022 42 10000 3.1 10 11:19 07.09.2019
2362 Clouds 17 1022 45 10000 3.6 10 10:40 07.09.2019
2363 Clouds 17 1022 45 10000 3.6 10 10:21 07.09.2019
2364 Clouds 16 1021 47 10000 3.1 0 09:45 07.09.2019
2365 Clouds 15 1021 47 10000 3.1 0 09:27 07.09.2019
2366 Clouds 15 1021 47 10000 3.1 20 08:59 07.09.2019
2367 Clouds 14 1021 47 10000 3.6 20 08:41 07.09.2019
2368 Clouds 15 1021 47 10000 3.6 20 08:41 07.09.2019
2369 Clouds 15 1021 47 10000 3.6 20 08:23 07.09.2019
2370 Clouds 14 1021 44 10000 3.1 10 07:45 07.09.2019
2371 Clouds 15 1021 44 10000 3.1 10 07:26 07.09.2019
2372 Clouds 14 1021 44 10000 4.1 10 06:47 07.09.2019
2373 Clouds 14 1021 44 10000 3.6 10 06:20 07.09.2019
2374 Clouds 14 1021 44 10000 2.6 10 04:48 07.09.2019
2375 Clear 15 1021 41 10000 3.1 10 04:20 07.09.2019
2376 Clear 15 1021 42 10000 1.5 30 02:48 07.09.2019
2377 Clear 17 1021 42 10000 3.1 20 01:53 07.09.2019
2378 Clear 18 1020 36 10000 2.6 360 01:21 07.09.2019
2379 Clear 19 1020 32 10000 4.1 350 00:40 07.09.2019
2380 Clear 19 1020 32 10000 4.1 350 00:19 07.09.2019
2381 Clear 20 1020 28 10000 4.1 50 23:40 06.09.2019
2382 Clear 21 1019 24 10000 3.6 60 23:22 06.09.2019
2383 Clear 21 1019 24 10000 3.6 60 22:58 06.09.2019
2384 Clear 21 1020 23 10000 2.6 30 22:38 06.09.2019
2385 Clear 22 1019 20 10000 1 0 22:19 06.09.2019
2386 Clear 22 1019 20 10000 1 0 22:19 06.09.2019
2387 Clear 23 1019 20 10000 1 0 21:57 06.09.2019
2388 Clear 23 1019 17 10000 1 0 21:39 06.09.2019
2389 Clear 23 1019 17 10000 1 0 21:20 06.09.2019
2390 Clear 24 1019 15 10000 1 0 20:57 06.09.2019
2391 Clear 24 1019 17 10000 1 0 20:38 06.09.2019
2392 Clear 25 1018 15 10000 2.1 30 20:19 06.09.2019
2393 Clear 26 1018 15 10000 2.1 30 19:55 06.09.2019
2394 Clear 26 1019 15 10000 3.1 10 19:37 06.09.2019
2395 Clear 25 1020 19 10000 2.6 80 19:18 06.09.2019
2396 Clear 26 1019 15 10000 2.1 0 18:41 06.09.2019
2397 Clear 26 1019 15 10000 2.1 0 18:23 06.09.2019
2398 Clear 26 1019 15 10000 1.5 0 17:58 06.09.2019
2399 Clear 26 1019 14 10000 1.5 0 17:38 06.09.2019
2400 Clear 25 1020 16 10000 1.5 0 17:19 06.09.2019
2401 Clear 25 1020 17 10000 2.1 0 16:41 06.09.2019
2402 Clear 25 1021 14 10000 1 60 16:19 06.09.2019
2403 Clear 25 1021 14 10000 1 60 16:19 06.09.2019
2404 Clear 25 1021 14 10000 1 60 15:44 06.09.2019
2405 Clear 24 1021 19 10000 1 60 15:26 06.09.2019
2406 Clear 23 1021 23 10000 2.6 0 14:57 06.09.2019
2407 Clear 23 1021 27 10000 3.1 30 14:39 06.09.2019
2408 Clear 22 1022 30 10000 2.6 0 14:18 06.09.2019
2409 Clear 22 1022 35 10000 3.1 0 13:42 06.09.2019
2410 Clear 20 1022 37 10000 4.1 40 13:20 06.09.2019
2411 Clear 20 1022 37 10000 3.6 30 12:38 06.09.2019
2412 Clear 18 1023 39 10000 5.1 20 12:20 06.09.2019
2413 Clear 17 1023 39 10000 5.1 20 11:55 06.09.2019
2414 Clear 17 1022 42 10000 4.1 40 11:37 06.09.2019
2415 Clear 16 1023 44 10000 4.1 30 11:18 06.09.2019
2416 Clear 15 1023 51 10000 4.1 40 10:41 06.09.2019
2417 Clear 15 1023 51 10000 4.1 40 10:22 06.09.2019
2418 Clear 13 1022 50 10000 4.1 30 09:58 06.09.2019
2419 Clear 13 1022 54 10000 3.6 0 09:37 06.09.2019
2420 Clear 13 1022 54 10000 3.6 0 09:18 06.09.2019
2421 Clear 11 1022 58 10000 3.6 30 08:44 06.09.2019
2422 Clear 11 1022 58 10000 3.6 30 08:26 06.09.2019
2423 Clear 11 1022 58 10000 3.6 30 08:26 06.09.2019
2424 Clear 11 1022 54 10000 3.1 30 07:50 06.09.2019
2425 Clear 11 1022 54 10000 3.1 30 07:28 06.09.2019
2426 Clear 11 1022 58 10000 3.1 350 06:58 06.09.2019
2427 Clear 11 1022 58 10000 3.1 350 06:31 06.09.2019
2428 Clear 12 1022 54 10000 1 0 05:44 06.09.2019
2429 Clear 13 1022 54 10000 2.1 360 04:54 06.09.2019
2430 Clear 13 1022 47 10000 2.1 30 04:19 06.09.2019
2431 Clear 14 1022 47 10000 2.1 60 02:40 06.09.2019
2432 Clear 17 1022 39 10000 5.1 60 00:51 06.09.2019
2433 Clear 18 1022 42 10000 5.1 60 23:58 05.09.2019
2434 Clear 18 1022 34 10000 5.1 60 23:40 05.09.2019
2435 Clear 19 1021 30 10000 3.1 60 23:21 05.09.2019
2436 Clear 20 1021 28 10000 4.1 50 22:45 05.09.2019
2437 Clear 21 1021 28 10000 4.1 50 22:25 05.09.2019
2438 Clear 23 1021 25 10000 4.6 60 21:57 05.09.2019
2439 Clear 23 1020 25 10000 3.6 40 21:38 05.09.2019
2440 Clear 24 1020 23 10000 3.1 40 21:20 05.09.2019
2441 Clear 24 1020 23 10000 3.1 40 20:58 05.09.2019
2442 Clear 24 1020 25 10000 3.6 50 20:38 05.09.2019
2443 Clear 25 1020 25 10000 3.6 50 20:20 05.09.2019
2444 Clear 25 1019 22 10000 3.6 0 19:56 05.09.2019
2445 Clear 26 1020 22 10000 3.6 60 19:37 05.09.2019
2446 Clear 26 1020 21 10000 3.6 60 19:19 05.09.2019
2447 Clear 27 1020 20 10000 3.1 40 18:41 05.09.2019
2448 Clear 27 1020 20 10000 3.1 40 18:22 05.09.2019
2449 Clear 27 1020 21 10000 4.6 20 17:57 05.09.2019
2450 Clear 27 1020 24 10000 4.1 30 17:39 05.09.2019
2451 Clear 27 1020 24 10000 4.1 30 17:20 05.09.2019
2452 Clear 27 1020 26 10000 3.6 0 16:42 05.09.2019
2453 Clear 27 1020 26 10000 3.6 0 16:21 05.09.2019
2454 Clear 27 1021 28 10000 2.6 0 15:58 05.09.2019
2455 Clear 26 1021 29 10000 4.1 60 15:39 05.09.2019
2456 Clear 26 1021 29 10000 4.1 60 15:19 05.09.2019
2457 Clear 26 1021 29 10000 4.1 60 15:19 05.09.2019
2458 Clear 26 1021 31 10000 3.1 50 14:56 05.09.2019
2459 Clear 25 1021 33 10000 4.1 30 14:38 05.09.2019
2460 Clear 25 1021 33 10000 4.1 30 14:38 05.09.2019
2461 Clear 25 1021 36 10000 4.1 50 14:18 05.09.2019
2462 Clear 25 1022 36 10000 3.6 0 13:42 05.09.2019
2463 Clear 23 1022 40 10000 5.1 10 13:19 05.09.2019
2464 Clear 23 1022 43 10000 3.6 0 12:43 05.09.2019
2465 -273 0 0 0 0 0 12:25 05.09.2019
2466 Clear 21 1022 46 10000 4.6 20 11:57 05.09.2019
2467 Clear 21 1022 46 10000 4.6 30 11:38 05.09.2019
2468 Clear 20 1022 52 10000 4.1 40 11:18 05.09.2019
2469 Clear 19 1022 52 10000 4.1 50 10:41 05.09.2019
2470 Clear 19 1022 52 10000 4.1 50 10:22 05.09.2019
2471 Clear 18 1022 52 10000 4.1 40 09:57 05.09.2019
2472 Clear 17 1022 45 10000 3.6 50 09:38 05.09.2019
2473 Clear 17 1022 45 10000 3.6 50 09:18 05.09.2019
2474 Clear 17 1022 45 10000 3.6 50 09:18 05.09.2019
2475 Clear 17 1021 48 10000 4.6 0 08:43 05.09.2019
2476 Clear 16 1021 48 10000 4.6 0 08:25 05.09.2019
2477 Clear 17 1021 45 10000 4.1 30 07:44 05.09.2019
2478 Clear 17 1021 45 10000 4.1 30 07:26 05.09.2019
2479 Clear 17 1020 48 10000 5.7 60 06:53 05.09.2019
2480 Clear 17 1020 48 10000 5.7 60 06:29 05.09.2019
2481 Clear 17 1019 55 10000 4.6 60 05:50 05.09.2019
2482 Clear 17 1019 55 10000 4.6 60 05:30 05.09.2019
2483 Clear 18 1019 52 10000 4.1 30 04:48 05.09.2019
2484 Clear 19 1019 49 10000 4.1 30 04:24 05.09.2019
2485 Clear 19 1019 49 10000 4.1 20 03:34 05.09.2019
2486 Clear 21 1019 43 10000 3.1 10 02:44 05.09.2019
2487 Clear 21 1019 43 10000 3.1 10 02:18 05.09.2019
2488 Clear 22 1019 40 10000 4.1 60 01:26 05.09.2019
2489 Clear 23 1019 36 10000 5.7 50 00:42 05.09.2019
2490 Clear 24 1018 31 10000 5.7 50 00:20 05.09.2019
2491 Clear 25 1018 26 10000 4.6 0 23:46 04.09.2019
2492 Clear 25 1018 26 10000 4.6 0 23:26 04.09.2019
2493 Clear 27 1018 24 10000 2.1 20 22:59 04.09.2019
2494 Clear 27 1018 30 10000 1 0 22:38 04.09.2019
2495 Clear 28 1017 26 10000 1 0 22:18 04.09.2019
2496 Clear 28 1017 23 10000 2.1 120 21:39 04.09.2019
2497 Clear 29 1017 22 10000 2.6 120 21:20 04.09.2019
2498 Clear 30 1017 22 10000 2.6 120 20:56 04.09.2019
2499 Clear 30 1017 20 10000 2.1 110 20:38 04.09.2019
2500 Clear 31 1017 21 10000 1.5 120 20:18 04.09.2019
2501 Clear 32 1017 21 10000 1.5 80 19:56 04.09.2019
2502 Clear 32 1017 21 10000 1.5 80 19:37 04.09.2019
2503 Clear 32 1017 21 10000 2.1 130 19:19 04.09.2019
2504 Clear 32 1018 21 10000 2.6 190 18:38 04.09.2019
2505 Clear 32 1018 21 10000 3.1 140 18:19 04.09.2019
2506 Clear 33 1018 21 10000 2.6 0 17:42 04.09.2019
2507 Clear 32 1018 21 10000 2.6 0 17:42 04.09.2019
2508 Clear 32 1018 21 10000 2.6 0 17:23 04.09.2019
2509 Clear 33 1018 21 10000 2.6 0 17:23 04.09.2019
2510 Clear 32 1018 21 10000 2.6 0 16:58 04.09.2019
2511 Clear 32 1019 21 10000 3.1 150 16:40 04.09.2019
2512 Clear 32 1019 21 10000 3.1 150 16:21 04.09.2019
2513 Clear 32 1019 24 10000 1.5 0 15:56 04.09.2019
2514 Clear 32 1019 24 10000 1.5 0 15:55 04.09.2019
2515 Clear 31 1020 23 10000 2.6 0 15:37 04.09.2019
2516 Clear 31 1020 25 10000 2.1 50 15:19 04.09.2019
2517 Clear 31 1020 25 10000 2.1 50 14:54 04.09.2019
2518 Clear 30 1020 27 10000 1.5 0 14:36 04.09.2019
2519 Clear 30 1021 28 10000 1.5 140 14:18 04.09.2019
2520 Clear 29 1021 42 10000 1.5 0 13:39 04.09.2019
2521 Clear 29 1021 42 10000 1.5 0 13:21 04.09.2019
2522 Clear 29 1021 42 10000 1.5 0 13:21 04.09.2019
2523 Clear 27 1022 47 10000 1 0 12:46 04.09.2019
2524 Clear 27 1022 47 10000 1 0 12:27 04.09.2019
2525 Clear 27 1022 47 10000 1 0 12:27 04.09.2019
2526 Clear 26 1022 47 10000 1 0 11:59 04.09.2019
2527 Clear 25 1022 50 10000 1.5 90 11:41 04.09.2019
2528 Clear 25 1022 53 10000 2.1 90 11:21 04.09.2019
2529 Clear 24 1022 53 10000 2.1 90 10:58 04.09.2019
2530 Clear 24 1022 43 10000 1.5 0 10:39 04.09.2019
2531 Clear 23 1022 43 10000 1.5 0 10:21 04.09.2019
2532 Clear 22 1021 40 10000 1.5 70 09:46 04.09.2019
2533 Clear 21 1021 40 10000 1.5 70 09:22 04.09.2019
2534 Clear 19 1021 40 10000 1 0 08:57 04.09.2019
2535 Clear 19 1021 40 10000 1 0 08:38 04.09.2019
2536 Clear 18 1021 40 10000 1 0 08:19 04.09.2019
2537 Clear 19 1021 37 10000 1 0 07:43 04.09.2019
2538 Clear 19 1021 37 10000 1 0 07:24 04.09.2019
2539 Clear 19 1020 42 10000 2.1 350 06:39 04.09.2019
2540 Clear 21 1020 45 10000 0.5 0 04:56 04.09.2019
2541 Clear 21 1020 42 10000 1.5 20 04:25 04.09.2019
2542 Clear 22 1021 37 10000 0.5 80 03:39 04.09.2019
2543 Clear 24 1020 29 10000 0.5 0 01:21 04.09.2019
2544 Clear 23 1021 29 10000 0.5 0 01:21 04.09.2019
2545 Clear 24 1021 26 10000 1.5 90 00:46 04.09.2019
2546 Clear 25 1021 26 10000 1.5 90 00:27 04.09.2019
2547 Clear 26 1020 26 10000 3.1 350 23:53 03.09.2019
2548 Clear 26 1020 26 10000 3.1 350 23:27 03.09.2019
2549 Clear 27 1021 26 10000 3.1 340 22:57 03.09.2019
2550 Clear 27 1021 26 10000 3.1 340 22:57 03.09.2019
2551 Clear 27 1021 23 10000 2.6 310 22:38 03.09.2019
2552 Clear 28 1020 21 10000 3.6 300 22:20 03.09.2019
2553 Clear 29 1020 21 10000 3.6 300 21:55 03.09.2019
2554 Clear 29 1020 23 10000 3.1 310 21:36 03.09.2019
2555 Clear 29 1020 23 10000 3.1 310 21:36 03.09.2019
2556 Clear 29 1020 23 10000 2.6 310 21:18 03.09.2019
2557 Clear 30 1020 21 10000 2.1 330 20:41 03.09.2019
2558 Clear 31 1020 21 10000 2.6 340 20:21 03.09.2019
2559 Clear 32 1020 22 10000 1.5 310 19:55 03.09.2019
2560 Clear 32 1020 22 10000 1.5 310 19:37 03.09.2019
2561 Clear 32 1020 33 10000 2.1 340 19:18 03.09.2019
2562 Clear 32 1020 27 10000 3.1 0 18:44 03.09.2019
2563 Clear 33 1020 27 10000 3.1 0 18:44 03.09.2019
2564 Clear 33 1020 27 10000 3.1 0 18:25 03.09.2019
2565 Clear 33 1020 27 10000 1.5 40 17:58 03.09.2019
2566 Clear 32 1020 29 10000 3.1 0 17:39 03.09.2019
2567 Clear 32 1020 27 10000 2.6 0 17:19 03.09.2019
2568 Clear 32 1021 33 10000 3.1 0 16:54 03.09.2019
2569 Clear 32 1021 33 10000 3.1 0 16:36 03.09.2019
2570 Clear 31 1021 31 10000 1.5 0 16:18 03.09.2019
2571 Clear 31 1021 40 10000 3.1 130 15:40 03.09.2019
2572 Clear 30 1021 40 10000 3.1 130 15:21 03.09.2019
2573 Clear 30 1022 40 10000 2.6 170 14:58 03.09.2019
2574 Clear 29 1022 45 10000 1 90 14:40 03.09.2019
2575 Clear 29 1023 45 10000 2.6 170 14:20 03.09.2019
2576 Clear 28 1023 45 10000 2.6 170 13:56 03.09.2019
2577 Clear 29 1023 45 10000 2.6 170 13:56 03.09.2019
2578 Clear 28 1023 47 10000 2.1 110 13:37 03.09.2019
2579 Clear 27 1023 47 10000 2.1 80 13:19 03.09.2019
2580 Clear 26 1023 50 10000 2.6 110 12:48 03.09.2019
2581 Clear 26 1023 50 10000 2.6 110 12:30 03.09.2019
2582 Clear 25 1023 50 10000 2.1 80 11:59 03.09.2019
2583 Clear 24 1023 53 10000 2.1 60 11:38 03.09.2019
2584 Clear 24 1023 53 10000 2.1 60 11:19 03.09.2019
2585 Clear 23 1023 50 10000 1.5 60 10:55 03.09.2019
2586 Clear 23 1023 49 10000 1.5 50 10:36 03.09.2019
2587 Clear 22 1023 49 10000 1 0 10:18 03.09.2019
2588 Clear 20 1023 49 10000 1 0 09:42 03.09.2019
2589 Clear 20 1023 49 10000 1 0 09:24 03.09.2019
2590 Clear 18 1022 52 10000 1 0 08:41 03.09.2019
2591 Clear 18 1022 52 10000 1.5 40 08:22 03.09.2019
2592 Clear 18 1022 52 10000 1.5 40 07:57 03.09.2019
2593 Clear 18 1022 52 10000 1.5 30 07:37 03.09.2019
2594 Clear 18 1021 55 10000 1 0 07:18 03.09.2019
2595 Clear 18 1021 52 10000 0.5 30 06:41 03.09.2019
2596 Clear 20 1021 46 10000 2.1 10 03:57 03.09.2019
2597 Clear 20 1021 46 10000 2.6 20 03:33 03.09.2019
2598 Clear 21 1021 43 10000 3.1 360 02:40 03.09.2019
2599 Clear 21 1021 40 10000 2.6 350 02:21 03.09.2019
2600 Clear 22 1020 40 10000 2.1 30 01:45 03.09.2019
2601 Clear 22 1020 40 10000 2.1 30 01:45 03.09.2019
2602 Clear 22 1020 40 10000 2.1 30 01:25 03.09.2019
2603 Clear 23 1020 41 10000 2.1 60 00:33 03.09.2019
2604 Clear 25 1020 39 10000 1.5 350 23:58 02.09.2019
2605 Clouds 25 1019 39 10000 1.5 40 23:37 02.09.2019
2606 Clouds 25 1019 39 10000 1.5 40 23:37 02.09.2019
2607 Clouds 26 1019 37 10000 2.1 50 23:19 02.09.2019
2608 Clouds 26 1019 37 10000 2.1 50 22:55 02.09.2019
2609 Clear 27 1019 42 10000 1.5 10 22:37 02.09.2019
2610 Clear 28 1019 44 10000 0.5 10 22:18 02.09.2019
2611 Clear 28 1019 39 10000 1 0 21:55 02.09.2019
2612 Clear 28 1019 39 10000 1 0 21:37 02.09.2019
2613 Clear 28 1019 39 10000 1 0 21:18 02.09.2019
2614 Clouds 29 1018 37 10000 1.5 340 20:42 02.09.2019
2615 Clouds 29 1018 37 10000 1.5 340 20:42 02.09.2019
2616 Clouds 29 1018 37 10000 1.5 340 20:23 02.09.2019
2617 Clouds 30 1018 31 10000 1 0 19:59 02.09.2019
2618 Clouds 30 1018 31 10000 1 0 19:41 02.09.2019
2619 Clouds 30 1018 33 10000 1.5 100 19:22 02.09.2019
2620 Clouds 30 1018 33 10000 1.5 100 18:57 02.09.2019
2621 Clouds 31 1018 33 10000 1.5 60 18:37 02.09.2019
2622 Clouds 31 1018 33 10000 1.5 60 18:37 02.09.2019
2623 Clouds 30 1018 31 10000 1 260 18:18 02.09.2019
2624 Clouds 30 1018 31 10000 1 260 17:54 02.09.2019
2625 Clouds 30 1018 31 10000 1 260 17:54 02.09.2019
2626 Clouds 30 1018 33 10000 2.1 120 17:36 02.09.2019
2627 Clear 30 1019 35 10000 2.1 80 17:18 02.09.2019
2628 Clear 30 1019 35 10000 2.1 80 17:18 02.09.2019
2629 Clear 30 1019 37 10000 1.5 0 16:40 02.09.2019
2630 Clear 30 1019 37 10000 1.5 0 16:20 02.09.2019
2631 Clouds 29 1019 39 10000 2.1 90 15:52 02.09.2019
2632 Clouds 29 1019 39 10000 2.1 90 15:31 02.09.2019
2633 Clouds 28 1020 42 10000 3.1 100 14:59 02.09.2019
2634 Clouds 28 1020 42 10000 2.1 0 14:41 02.09.2019
2635 Clouds 28 1020 42 10000 2.1 0 14:22 02.09.2019
2636 Clouds 27 1020 42 10000 2.1 0 13:59 02.09.2019
2637 Clouds 27 1020 44 10000 2.6 0 13:41 02.09.2019
2638 Clear 26 1020 50 10000 2.6 70 13:22 02.09.2019
2639 Clear 25 1020 50 10000 2.6 50 12:45 02.09.2019
2640 Clear 25 1020 50 10000 2.6 50 12:26 02.09.2019
2641 Clear 24 1021 49 10000 3.1 30 11:59 02.09.2019
2642 Clear 23 1021 49 10000 3.1 20 11:40 02.09.2019
2643 Clear 23 1020 53 10000 3.1 20 11:21 02.09.2019
2644 Clear 22 1020 53 10000 3.1 20 10:58 02.09.2019
2645 Clear 21 1020 56 10000 2.6 40 10:39 02.09.2019
2646 Clear 21 1020 60 10000 3.6 20 10:20 02.09.2019
2647 Clear 20 1020 60 10000 3.6 20 09:57 02.09.2019
2648 Clear 20 1020 63 10000 3.1 30 09:37 02.09.2019
2649 Clear 19 1020 63 10000 3.1 30 09:18 02.09.2019
2650 Clouds 18 1019 63 10000 3.1 30 08:39 02.09.2019
2651 Clouds 18 1019 63 10000 3.1 30 08:18 02.09.2019
2652 Clouds 18 1019 68 10000 3.1 20 07:41 02.09.2019
2653 Clouds 19 1019 68 10000 3.1 20 07:21 02.09.2019
2654 Clouds 19 1018 68 10000 3.6 10 06:48 02.09.2019
2655 Clouds 19 1018 68 10000 3.6 10 06:29 02.09.2019
2656 Clouds 19 1018 64 10000 3.1 10 05:49 02.09.2019
2657 Clear 19 1018 64 10000 6.2 360 05:19 02.09.2019
2658 Clear 19 1018 64 10000 4.1 350 04:21 02.09.2019
2659 Clear 21 1017 64 10000 4.6 50 01:48 02.09.2019
2660 Clear 22 1017 57 10000 5.1 0 00:49 02.09.2019
2661 Clear 23 1017 57 10000 5.1 0 00:31 02.09.2019
2662 Clouds 25 1016 47 10000 3.1 50 23:46 01.09.2019
2663 Clouds 25 1016 47 10000 3.1 50 23:23 01.09.2019
2664 Clouds 26 1016 44 10000 3.1 50 22:59 01.09.2019
2665 Clouds 26 1016 42 10000 1.5 20 22:40 01.09.2019
2666 Clouds 27 1015 37 10000 1 0 22:20 01.09.2019
2667 Clouds 27 1015 37 10000 1 0 21:57 01.09.2019
2668 Clouds 27 1015 39 10000 1 0 21:39 01.09.2019
2669 Clouds 27 1015 39 10000 1 0 21:21 01.09.2019
2670 Clouds 28 1015 37 10000 1.5 320 20:57 01.09.2019
2671 Clouds 28 1015 37 10000 1.5 340 20:38 01.09.2019
2672 Clouds 28 1014 37 10000 1.5 350 20:18 01.09.2019
2673 Clouds 28 1014 37 10000 1.5 350 19:58 01.09.2019
2674 Clouds 28 1014 37 10000 1.5 350 19:58 01.09.2019
2675 Clouds 29 1014 37 10000 1.5 20 19:38 01.09.2019
2676 Rain 29 1014 37 10000 1.5 10 19:19 01.09.2019
2677 Rain 29 1014 39 10000 2.6 360 18:43 01.09.2019
2678 -273 0 0 0 0 0 18:25 01.09.2019
2679 Rain 29 1014 39 10000 2.6 360 18:25 01.09.2019
2680 Clouds 30 1014 33 10000 4.6 350 17:57 01.09.2019
2681 Clouds 30 1014 33 10000 4.6 350 17:38 01.09.2019
2682 Clouds 31 1015 24 10000 5.7 250 17:19 01.09.2019
2683 Clouds 31 1015 22 10000 5.1 210 16:41 01.09.2019
2684 Clouds 31 1015 22 10000 5.1 210 16:41 01.09.2019
2685 Clouds 31 1015 22 10000 5.1 210 16:20 01.09.2019
2686 Clouds 31 1015 21 10000 3.1 200 15:55 01.09.2019
2687 Clouds 31 1015 27 10000 3.6 0 15:37 01.09.2019
2688 Clouds 31 1015 27 10000 3.6 0 15:37 01.09.2019
2689 Clouds 31 1016 27 10000 3.1 160 15:19 01.09.2019
2690 Clear 31 1016 31 10000 2.1 0 14:41 01.09.2019
2691 Clear 31 1016 31 10000 2.1 0 14:21 01.09.2019
2692 Clear 31 1016 31 10000 1.5 0 13:58 01.09.2019
2693 Clear 30 1017 33 10000 1 0 13:39 01.09.2019
2694 Clear 29 1017 32 10000 1 90 13:20 01.09.2019
2695 Clear 28 1017 35 10000 3.19 195.02 12:43 01.09.2019
2696 Clear 27 1017 36 10000 1 0 12:25 01.09.2019
2697 Clear 27 1017 36 10000 1 0 11:55 01.09.2019
2698 Clear 26 1017 39 10000 1 0 11:37 01.09.2019
2699 Clear 26 1017 44 10000 2.1 110 11:18 01.09.2019
2700 Clear 25 1017 44 10000 1 0 10:43 01.09.2019
2701 Clear 24 1017 44 10000 1 0 10:23 01.09.2019
2702 Clear 22 1017 53 10000 2.21 104.049 09:47 01.09.2019
2703 Clear 22 1017 53 10000 0.91 32.385 09:26 01.09.2019
2704 Clear 21 1016 53 10000 1.5 60 08:56 01.09.2019
2705 Clear 20 1016 64 10000 0.91 32.385 08:37 01.09.2019
2706 Clear 20 1016 64 10000 0.91 32.385 08:19 01.09.2019
2707 Clear 20 1016 60 10000 1.5 10 07:41 01.09.2019
2708 Clear 19 1016 68 10000 1 340 07:19 01.09.2019
2709 Clear 19 1016 68 10000 2.1 360 06:38 01.09.2019
2710 Clear 20 1016 64 10000 1.5 350 05:58 01.09.2019
2711 Clear 20 1016 64 10000 0.5 0 04:36 01.09.2019
2712 Clear 22 1016 60 10000 1.5 350 03:44 01.09.2019
2713 Clear 23 1016 60 10000 1.5 10 03:19 01.09.2019
2714 Clear 23 1016 56 10000 1.5 360 02:30 01.09.2019
2715 Clear 23 1016 56 10000 1.5 350 01:58 01.09.2019
2716 Clear 23 1016 53 10000 1.5 340 01:26 01.09.2019
2717 Clear 24 1016 44 10000 1.5 10 00:47 01.09.2019
2718 Clear 24 1016 44 10000 1 360 00:23 01.09.2019
2719 Clear 24 1016 44 10000 1 360 00:23 01.09.2019
2720 Clear 25 1016 44 10000 1 30 23:56 31.08.2019
2721 Clear 25 1016 44 10000 1 30 23:38 31.08.2019
2722 Clear 26 1017 41 10000 0.5 300 23:19 31.08.2019
2723 Clear 26 1017 41 10000 0.5 300 22:54 31.08.2019
2724 Clear 27 1017 39 10000 0.5 0 22:36 31.08.2019
2725 Clear 27 1017 37 10000 0.5 0 22:18 31.08.2019
2726 Clear 28 1017 35 10000 0.5 320 21:41 31.08.2019
2727 Clear 28 1017 32 10000 2.1 300 21:21 31.08.2019
2728 Clear 29 1016 27 10000 1 0 20:50 31.08.2019
2729 Clear 29 1016 27 10000 1 0 20:31 31.08.2019
2730 Clouds 30 1016 25 10000 1 0 19:59 31.08.2019
2731 Clouds 31 1016 24 10000 1 0 19:41 31.08.2019
2732 Clouds 31 1016 24 10000 1 0 19:22 31.08.2019
2733 Clouds 32 1016 22 10000 2.1 160 18:41 31.08.2019
2734 Clouds 31 1017 25 10000 2.1 120 18:23 31.08.2019
2735 Clouds 32 1017 25 10000 2.1 120 17:58 31.08.2019
2736 Clouds 31 1017 25 10000 1.5 120 17:37 31.08.2019
2737 Clouds 32 1017 24 10000 2.1 170 17:19 31.08.2019
2738 Clouds 31 1017 24 10000 2.1 170 16:59 31.08.2019
2739 Clouds 32 1018 27 10000 2.6 180 16:41 31.08.2019
2740 Clouds 31 1018 27 10000 2.6 0 16:21 31.08.2019
2741 Clouds 31 1018 27 10000 2.6 0 15:59 31.08.2019
2742 Clouds 31 1019 31 10000 1.5 170 15:38 31.08.2019
2743 Clouds 30 1019 30 10000 1.5 0 15:18 31.08.2019
2744 Clouds 30 1019 35 10000 2.1 0 14:42 31.08.2019
2745 Clouds 30 1019 35 10000 2.1 0 14:23 31.08.2019
2746 Clear 29 1020 35 10000 1.5 220 13:56 31.08.2019
2747 Clear 29 1020 37 10000 0.5 270 13:36 31.08.2019
2748 Clear 28 1020 39 10000 0.5 170 13:18 31.08.2019
2749 Clear 27 1020 42 10000 1 190 12:41 31.08.2019
2750 Clear 26 1020 44 10000 0.5 270 12:21 31.08.2019
2751 Clear 26 1020 44 10000 0.5 270 11:59 31.08.2019
2752 Clear 26 1020 44 10000 0.5 0 11:40 31.08.2019
2753 Clear 25 1020 44 10000 0.5 0 11:22 31.08.2019
2754 Clear 24 1020 50 10000 1 0 10:54 31.08.2019
2755 Clear 24 1020 53 10000 1 0 10:36 31.08.2019
2756 Clear 22 1020 60 10000 1.5 70 10:18 31.08.2019
2757 Clear 22 1020 60 10000 1.5 70 10:18 31.08.2019
2758 Clear 20 1020 68 10000 1 0 09:40 31.08.2019
2759 Clear 20 1020 72 10000 0.5 0 09:21 31.08.2019
2760 Clear 18 1020 72 10000 0.5 0 08:45 31.08.2019
2761 Clear 18 1019 82 10000 0.5 0 08:27 31.08.2019
2762 Clear 18 1019 72 10000 0.5 0 07:43 31.08.2019
2763 Clear 18 1019 72 10000 0.5 0 07:23 31.08.2019
2764 Clear 18 1019 72 10000 1 360 06:59 31.08.2019
2765 Clear 18 1019 72 10000 1.5 350 06:26 31.08.2019
2766 Clear 19 1019 68 10000 1.5 360 05:49 31.08.2019
2767 Clear 19 1019 68 10000 1.5 360 05:27 31.08.2019
2768 Clear 20 1020 68 10000 1 30 04:28 31.08.2019
2769 Clear 20 1020 60 10000 1.5 20 03:42 31.08.2019
2770 Clear 21 1020 56 10000 1.5 10 02:22 31.08.2019
2771 Clear 22 1020 53 10000 2.6 330 01:47 31.08.2019
2772 Clear 22 1020 53 10000 2.6 330 01:28 31.08.2019
2773 Clear 22 1020 53 10000 0.5 130 00:45 31.08.2019
2774 Clear 23 1021 50 10000 0.5 0 00:27 31.08.2019
2775 Clear 22 1020 53 10000 0.5 130 00:27 31.08.2019
2776 Clear 23 1021 50 10000 0.5 0 23:49 30.08.2019
2777 Clear 23 1020 53 10000 2.1 110 23:19 30.08.2019
2778 Clear 23 1020 53 10000 2.1 110 23:19 30.08.2019
2779 Clear 23 1020 53 10000 2.1 110 22:58 30.08.2019
2780 Rain 24 1021 68 10000 2.1 110 22:38 30.08.2019
2781 Rain 24 1021 73 10000 4.6 140 22:19 30.08.2019
2782 Thunderstorm 24 1022 73 10000 4.1 190 21:56 30.08.2019
2783 Thunderstorm 24 1022 73 10000 4.1 190 21:36 30.08.2019
2784 Thunderstorm 25 1021 39 10000 5.1 190 21:18 30.08.2019
2785 Thunderstorm 25 1021 39 10000 5.1 190 20:55 30.08.2019
2786 Thunderstorm 26 1021 37 10000 5.1 250 20:37 30.08.2019
2787 Thunderstorm 26 1022 42 10000 2.6 240 20:18 30.08.2019
2788 Thunderstorm 27 1021 39 10000 6.7 90 19:41 30.08.2019
2789 Thunderstorm 28 1019 35 10000 3.6 90 19:22 30.08.2019
2790 Thunderstorm 29 1019 35 10000 3.6 90 18:59 30.08.2019
2791 Clouds 30 1019 20 10000 1.5 200 18:41 30.08.2019
2792 Rain 31 1019 21 10000 2.1 240 18:23 30.08.2019
2793 Rain 31 1019 21 10000 2.1 240 17:56 30.08.2019
2794 Clouds 32 1019 24 10000 1.5 0 17:38 30.08.2019
2795 Clouds 32 1019 26 10000 1.5 80 17:18 30.08.2019
2796 Thunderstorm 33 1020 26 10000 3.1 150 16:46 30.08.2019
2797 Thunderstorm 33 1020 26 10000 3.1 150 16:27 30.08.2019
2798 Clouds 33 1021 26 10000 2.6 0 15:57 30.08.2019
2799 Clouds 32 1021 29 10000 2.1 150 15:38 30.08.2019
2800 Clouds 32 1021 29 10000 2.1 150 15:38 30.08.2019
2801 Clouds 32 1021 31 10000 2.6 110 15:19 30.08.2019
2802 Clear 31 1022 35 10000 2.6 130 14:43 30.08.2019
2803 -273 0 0 0 0 0 14:25 30.08.2019
2804 Clear 30 1023 39 10000 2.1 60 13:56 30.08.2019
2805 Clear 30 1023 39 10000 2.1 60 13:56 30.08.2019
2806 Clear 30 1023 39 10000 2.1 60 13:37 30.08.2019
2807 Clear 29 1023 39 10000 2.1 90 13:19 30.08.2019
2808 Clear 29 1023 42 10000 2.1 110 12:42 30.08.2019
2809 Clear 28 1023 45 10000 1.5 0 12:23 30.08.2019
2810 Clear 27 1023 44 10000 1 0 11:43 30.08.2019
2811 Clear 27 1023 44 10000 1 0 11:25 30.08.2019
2812 Clear 26 1023 47 10000 1.5 70 10:59 30.08.2019
2813 Clear 25 1023 50 10000 1 0 10:37 30.08.2019
2814 Clear 25 1022 53 10000 1 0 10:18 30.08.2019
2815 Clear 23 1023 49 10000 1.5 70 09:42 30.08.2019
2816 Clear 22 1023 49 10000 1 0 09:20 30.08.2019
2817 Clear 21 1023 49 10000 1 0 08:59 30.08.2019
2818 Clear 21 1022 53 10000 0.5 0 08:40 30.08.2019
2819 Clear 21 1022 53 10000 0.5 0 08:21 30.08.2019
2820 Clear 21 1022 53 10000 1.5 30 07:44 30.08.2019
2821 Clear 21 1022 53 10000 1.5 30 07:23 30.08.2019
2822 Clear 21 1021 64 10000 0.5 0 06:49 30.08.2019
2823 Clear 20 1021 64 10000 1 10 06:30 30.08.2019
2824 Clear 21 1021 64 10000 1.5 350 05:55 30.08.2019
2825 Clear 22 1021 60 10000 2.1 350 04:53 30.08.2019
2826 Clear 23 1021 60 10000 1.5 350 03:55 30.08.2019
2827 Clear 23 1021 60 10000 1.5 350 03:55 30.08.2019
2828 Clear 23 1021 53 10000 2.6 360 03:33 30.08.2019
2829 Clear 24 1021 44 10000 1 0 02:34 30.08.2019
2830 Clear 25 1021 41 10000 2.1 360 01:38 30.08.2019
2831 Clear 25 1021 44 10000 3.1 360 00:46 30.08.2019
2832 Clouds 26 1021 36 10000 1.5 140 00:18 30.08.2019
2833 Clouds 26 1021 39 10000 2.1 130 23:41 29.08.2019
2834 Clouds 27 1021 39 10000 2.1 130 23:21 29.08.2019
2835 Clouds 27 1020 34 10000 1.5 90 22:45 29.08.2019
2836 Clouds 27 1020 34 10000 1.5 90 22:45 29.08.2019
2837 Clouds 27 1020 34 10000 1.5 90 22:26 29.08.2019
2838 Clouds 28 1020 34 10000 2.1 110 21:58 29.08.2019
2839 Clouds 29 1020 30 10000 1.5 100 21:39 29.08.2019
2840 Clouds 29 1020 30 10000 1.5 100 21:21 29.08.2019
2841 Clouds 29 1020 30 10000 1.5 100 21:21 29.08.2019
2842 Clouds 30 1020 32 10000 1.5 140 20:57 29.08.2019
2843 Clouds 30 1020 27 10000 2.1 130 20:38 29.08.2019
2844 Clouds 31 1020 24 10000 1 250 20:18 29.08.2019
2845 Clouds 31 1020 25 10000 2.1 150 19:46 29.08.2019
2846 Clouds 32 1020 24 10000 2.1 0 19:26 29.08.2019
2847 Clouds 32 1020 23 10000 1 90 18:57 29.08.2019
2848 Clouds 32 1020 23 10000 1 90 18:38 29.08.2019
2849 Clouds 32 1020 22 10000 2.1 0 18:18 29.08.2019
2850 Clouds 32 1020 24 10000 2.6 180 17:54 29.08.2019
2851 Clouds 32 1020 24 10000 2.6 180 17:36 29.08.2019
2852 Clouds 32 1020 24 10000 1.5 260 17:18 29.08.2019
2853 Clouds 32 1020 24 10000 1.5 260 17:18 29.08.2019
2854 Clouds 32 1021 27 10000 2.1 0 16:41 29.08.2019
2855 Clouds 32 1021 29 10000 3.1 170 16:22 29.08.2019
2856 Clear 31 1021 29 10000 2.6 90 15:41 29.08.2019
2857 Clear 31 1021 29 10000 2.6 90 15:21 29.08.2019
2858 Clear 31 1021 31 10000 2.1 0 14:58 29.08.2019
2859 Clear 30 1022 35 10000 2.6 110 14:39 29.08.2019
2860 Clear 30 1022 37 10000 2.6 120 14:20 29.08.2019
2861 Clear 30 1022 37 10000 2.6 120 13:56 29.08.2019
2862 Clear 29 1022 39 10000 2.6 100 13:37 29.08.2019
2863 Clear 29 1022 39 10000 2.6 100 13:18 29.08.2019
2864 Clear 28 1022 44 10000 2.1 0 12:56 29.08.2019
2865 Clear 27 1022 42 10000 1.5 60 12:37 29.08.2019
2866 Clear 26 1022 47 10000 1.5 0 12:19 29.08.2019
2867 Clear 25 1022 47 10000 2.1 50 11:42 29.08.2019
2868 Clear 24 1022 50 10000 1.5 30 11:21 29.08.2019
2869 Clear 24 1022 50 10000 1.5 30 10:57 29.08.2019
2870 Clear 23 1022 56 10000 1.5 60 10:38 29.08.2019
2871 Clear 22 1022 56 10000 1 0 10:19 29.08.2019
2872 Clear 21 1021 53 10000 1 0 09:41 29.08.2019
2873 Clear 21 1021 53 10000 1 0 09:19 29.08.2019
2874 Clear 20 1021 60 10000 1 0 08:49 29.08.2019
2875 Clear 20 1021 68 10000 1.5 360 08:31 29.08.2019
2876 Clear 19 1021 64 10000 2.6 360 07:59 29.08.2019
2877 Clear 19 1020 64 10000 1 0 07:41 29.08.2019
2878 Clear 19 1020 64 10000 1 0 07:23 29.08.2019
2879 Clear 19 1020 72 10000 1 0 06:40 29.08.2019
2880 Clear 19 1020 72 10000 0.5 0 05:52 29.08.2019
2881 Clear 20 1020 72 10000 0.5 0 05:32 29.08.2019
2882 Clear 20 1020 68 10000 1 360 04:49 29.08.2019
2883 Clear 20 1020 68 10000 1 360 04:28 29.08.2019
2884 Clear 22 1019 64 10000 2.1 360 02:18 29.08.2019
2885 Clear 23 1019 64 10000 2.1 340 01:40 29.08.2019
2886 Clear 24 1019 53 10000 2.1 20 00:48 29.08.2019
2887 Clear 24 1019 53 10000 2.1 20 00:24 29.08.2019
2888 Clear 24 1019 44 10000 1.41 233.889 23:59 28.08.2019
2889 Clear 25 1018 41 10000 1.41 233.889 23:40 28.08.2019
2890 Clear 25 1018 41 10000 1.41 233.889 23:22 28.08.2019
2891 Clear 25 1018 41 10000 1.41 233.889 23:22 28.08.2019
2892 Clear 25 1018 38 10000 0.5 0 22:56 28.08.2019
2893 Clear 26 1019 39 10000 2.1 110 22:38 28.08.2019
2894 Clear 26 1019 39 10000 2.1 110 22:18 28.08.2019
2895 Clear 26 1019 39 10000 2.1 110 22:18 28.08.2019
2896 Clear 27 1018 34 10000 2.6 110 21:46 28.08.2019
2897 Clear 27 1018 34 10000 2.6 110 21:26 28.08.2019
2898 Clear 28 1018 32 10000 3.1 110 20:59 28.08.2019
2899 Clear 28 1018 30 10000 3.1 100 20:40 28.08.2019
2900 Clear 29 1018 27 10000 2.1 0 20:22 28.08.2019
2901 Clear 30 1018 28 10000 1.5 0 19:44 28.08.2019
2902 Clear 30 1018 28 10000 1.5 0 19:22 28.08.2019
2903 Clear 30 1018 27 10000 1.5 0 18:59 28.08.2019
2904 Clear 30 1018 27 10000 1 280 18:40 28.08.2019
2905 Clear 30 1018 27 10000 1.5 0 18:21 28.08.2019
2906 Clear 30 1018 28 10000 2.1 0 17:39 28.08.2019
2907 Clear 30 1019 27 10000 2.1 190 17:19 28.08.2019
2908 Clear 29 1019 27 10000 2.1 190 16:55 28.08.2019
2909 Clear 29 1019 27 10000 2.1 0 16:37 28.08.2019
2910 Clear 29 1019 28 10000 1 0 16:18 28.08.2019
2911 Clouds 29 1019 35 10000 1.5 0 15:38 28.08.2019
2912 Clouds 28 1020 32 10000 1.5 120 15:20 28.08.2019
2913 Clouds 28 1020 32 10000 1.5 120 14:58 28.08.2019
2914 Clear 28 1020 36 10000 2.1 0 14:39 28.08.2019
2915 Clear 27 1020 39 10000 2.1 120 14:20 28.08.2019
2916 Clear 27 1020 39 10000 2.1 120 13:58 28.08.2019
2917 Clear 27 1020 39 10000 2.6 140 13:39 28.08.2019
2918 Clear 27 1020 39 10000 2.6 140 13:20 28.08.2019
2919 Clear 26 1020 44 10000 2.6 90 12:42 28.08.2019
2920 Clear 25 1020 47 10000 2.1 90 12:24 28.08.2019
2921 Clear 25 1020 47 10000 2.1 90 11:57 28.08.2019
2922 Clear 24 1020 50 10000 1.5 100 11:39 28.08.2019
2923 Clear 23 1020 53 10000 1.5 90 11:20 28.08.2019
2924 Clear 23 1020 53 10000 1.5 90 10:55 28.08.2019
2925 Clear 22 1020 60 10000 1.5 60 10:37 28.08.2019
2926 Clear 22 1020 60 10000 1.5 60 10:19 28.08.2019
2927 Clear 20 1020 68 10000 1.5 360 09:41 28.08.2019
2928 Clear 20 1020 68 10000 1.5 360 09:21 28.08.2019
2929 Clear 17 1019 77 10000 1 0 08:40 28.08.2019
2930 Clear 17 1020 77 10000 1 0 08:21 28.08.2019
2931 Clear 17 1020 77 10000 1 0 07:59 28.08.2019
2932 Clear 17 1019 82 10000 0.5 0 07:37 28.08.2019
2933 Clear 17 1019 88 10000 0.5 0 07:18 28.08.2019
2934 Clear 17 1018 88 10000 1 10 06:44 28.08.2019
2935 Clear 17 1018 88 10000 1.5 350 05:52 28.08.2019
2936 Clear 18 1018 77 10000 1.5 10 04:28 28.08.2019
2937 Clear 21 1018 68 10000 1 0 01:57 28.08.2019
2938 Clear 21 1018 68 10000 1 0 01:30 28.08.2019
2939 Clear 22 1018 60 10000 0.5 0 00:43 28.08.2019
2940 Clear 22 1018 56 10000 1 0 00:22 28.08.2019
2941 Clear 23 1018 47 10000 1.5 180 23:43 27.08.2019
2942 Clear 23 1018 47 10000 1.5 180 23:22 27.08.2019
2943 Clear 23 1018 53 10000 1 0 22:59 27.08.2019
2944 Clear 24 1018 53 10000 1 140 22:39 27.08.2019
2945 Clear 24 1018 53 10000 1 140 22:39 27.08.2019
2946 Clear 24 1018 53 10000 1 140 22:20 27.08.2019
2947 Clear 24 1018 50 10000 1.5 110 21:56 27.08.2019
2948 Clear 25 1018 47 10000 1.5 140 21:37 27.08.2019
2949 Clear 25 1017 44 10000 0.5 0 21:18 27.08.2019
2950 Clear 26 1017 44 10000 0.5 0 20:55 27.08.2019
2951 Clouds 26 1017 41 10000 1 0 20:37 27.08.2019
2952 Clouds 26 1017 41 10000 1 0 20:18 27.08.2019
2953 Clouds 27 1017 37 10000 1 10 19:42 27.08.2019
2954 Clouds 26 1017 37 10000 1 10 19:24 27.08.2019
2955 Clouds 26 1017 39 10000 2.1 340 18:55 27.08.2019
2956 Clouds 27 1017 39 10000 1.5 0 18:36 27.08.2019
2957 Clouds 27 1017 42 10000 4.1 260 18:18 27.08.2019
2958 Clouds 26 1017 37 10000 1 0 17:42 27.08.2019
2959 Clouds 26 1017 41 10000 1.5 330 17:23 27.08.2019
2960 Clouds 26 1018 44 10000 1.5 160 16:48 27.08.2019
2961 Clouds 25 1018 44 10000 1.5 160 16:28 27.08.2019
2962 Clouds 25 1018 44 10000 2.6 0 15:59 27.08.2019
2963 Clouds 25 1018 44 10000 2.6 110 15:40 27.08.2019
2964 Clouds 25 1018 44 10000 2.6 110 15:22 27.08.2019
2965 Clouds 25 1018 47 10000 2.1 0 14:59 27.08.2019
2966 Clouds 25 1018 50 10000 1.5 230 14:41 27.08.2019
2967 Clouds 25 1018 50 10000 1.5 230 14:22 27.08.2019
2968 Clouds 24 1018 49 10000 1.5 0 13:43 27.08.2019
2969 Clouds 24 1018 49 10000 1.5 0 13:43 27.08.2019
2970 Clouds 23 1018 49 10000 1.5 0 13:24 27.08.2019
2971 Clouds 22 1018 53 10000 1 0 12:55 27.08.2019
2972 Clouds 22 1019 53 10000 0.5 120 12:37 27.08.2019
2973 Clouds 21 1019 56 10000 1.5 140 12:18 27.08.2019
2974 Clear 20 1019 68 10000 1.5 130 11:43 27.08.2019
2975 Clear 20 1019 68 10000 1.5 130 11:25 27.08.2019
2976 Clear 19 1018 68 10000 1 0 10:44 27.08.2019
2977 Clear 18 1018 72 10000 1 0 10:21 27.08.2019
2978 Clear 18 1018 72 10000 1 0 09:58 27.08.2019
2979 Clear 17 1018 77 10000 1.79 216.35 09:39 27.08.2019
2980 Clear 17 1018 82 10000 1 0 09:20 27.08.2019
2981 Clear 16 1018 82 10000 1 0 08:54 27.08.2019
2982 Clear 16 1017 87 10000 0.5 0 08:36 27.08.2019
2983 Clear 16 1017 87 10000 1.5 350 08:18 27.08.2019
2984 Clear 16 1017 87 10000 1.5 350 07:39 27.08.2019
2985 Rain 16 1017 93 10000 1.5 360 07:19 27.08.2019
2986 Rain 16 1017 93 10000 2.6 340 06:51 27.08.2019
2987 Clouds 16 1017 88 10000 1.5 350 06:23 27.08.2019
2988 Clouds 16 1017 82 10000 3.1 340 05:42 27.08.2019
2989 Clouds 16 1017 88 10000 2.1 10 04:37 27.08.2019
2990 Clouds 15 1017 88 10000 2.1 340 03:34 27.08.2019
2991 Clouds 16 1017 88 10000 1.5 130 02:23 27.08.2019
2992 Rain 16 1018 88 10000 2.6 140 01:40 27.08.2019
2993 Rain 16 1018 88 10000 2.6 140 01:21 27.08.2019
2994 Rain 16 1018 88 10000 2.6 150 00:41 27.08.2019
2995 Rain 16 1017 93 10000 6.2 50 00:22 27.08.2019
2996 Rain 17 1018 88 10000 3.1 220 23:38 26.08.2019
2997 Rain 17 1017 100 10000 6.7 20 23:19 26.08.2019
2998 Rain 17 1018 88 10000 3.1 290 22:39 26.08.2019
2999 Thunderstorm 17 1016 88 10000 3.6 300 22:19 26.08.2019
3000 Rain 17 1015 100 10000 6.2 310 21:58 26.08.2019
3001 Rain 18 1015 100 10000 6.2 310 21:38 26.08.2019
3002 Thunderstorm 19 1015 77 10000 11.8 230 21:19 26.08.2019
3003 Thunderstorm 20 1015 77 600 4.6 0 20:56 26.08.2019
3004 Thunderstorm 21 1015 63 1500 6.7 240 20:37 26.08.2019
3005 Thunderstorm 21 1015 63 1500 6.7 240 20:37 26.08.2019
3006 Thunderstorm 21 1015 63 1500 6.7 240 20:37 26.08.2019
3007 Thunderstorm 21 1015 72 5000 3.1 100 20:18 26.08.2019
3008 Rain 20 1013 82 10000 5.7 40 19:42 26.08.2019
3009 Rain 21 1014 68 10000 5.1 90 19:19 26.08.2019
3010 Rain 21 1015 72 9000 8.2 80 18:58 26.08.2019
3011 Rain 22 1015 72 9000 8.2 80 18:38 26.08.2019
3012 Thunderstorm 25 1014 73 10000 2.6 310 18:19 26.08.2019
3013 Rain 25 1014 88 7000 5.1 180 17:44 26.08.2019
3014 Rain 24 1014 88 10000 1.5 50 17:20 26.08.2019
3015 Rain 26 1014 77 9000 5.1 20 16:57 26.08.2019
3016 Rain 26 1014 77 9000 5.1 20 16:57 26.08.2019
3017 Thunderstorm 26 1015 77 600 14.4 160 16:39 26.08.2019
3018 Rain 27 1015 42 10000 2.1 50 16:19 26.08.2019
3019 Clouds 28 1016 39 10000 1 0 15:55 26.08.2019
3020 Clouds 28 1016 39 10000 1 0 15:55 26.08.2019
3021 Clouds 28 1016 39 10000 1 0 15:37 26.08.2019
3022 Clouds 27 1016 50 10000 1 0 15:18 26.08.2019
3023 Clouds 27 1016 44 10000 2.1 150 14:43 26.08.2019
3024 Clouds 27 1017 50 10000 2.6 70 14:23 26.08.2019
3025 Clouds 26 1017 53 10000 2.6 0 13:56 26.08.2019
3026 Clouds 26 1017 53 10000 2.6 0 13:37 26.08.2019
3027 Clouds 26 1017 53 10000 3.1 80 13:18 26.08.2019
3028 Clouds 24 1017 60 10000 3.1 90 12:43 26.08.2019
3029 Clouds 24 1017 60 10000 4.1 80 12:22 26.08.2019
3030 Clouds 24 1017 60 10000 4.1 0 11:44 26.08.2019
3031 Clouds 23 1017 64 10000 2.6 80 11:26 26.08.2019
3032 Clouds 23 1017 60 10000 1.5 20 10:59 26.08.2019
3033 Clouds 22 1017 60 10000 1.5 20 10:40 26.08.2019
3034 Clouds 22 1017 68 10000 1.5 10 10:19 26.08.2019
3035 Clouds 23 1017 68 10000 1.5 10 10:19 26.08.2019
3036 Thunderstorm 21 1017 72 10000 2.6 10 09:47 26.08.2019
3037 Thunderstorm 19 1017 72 10000 2.6 10 09:26 26.08.2019
3038 Rain 19 1019 63 10000 2.1 30 08:59 26.08.2019
3039 Rain 20 1019 63 10000 2.1 30 08:41 26.08.2019
3040 Rain 21 1016 88 10000 2.6 50 08:22 26.08.2019
3041 Thunderstorm 21 1016 60 10000 4.6 100 07:46 26.08.2019
3042 Rain 21 1016 46 10000 4.1 80 07:25 26.08.2019
3043 Rain 22 1016 46 10000 2.6 90 06:59 26.08.2019
3044 Rain 22 1016 46 10000 2.6 90 06:39 26.08.2019
3045 Clear 22 1016 43 10000 2.6 60 06:20 26.08.2019
3046 Clear 22 1016 43 10000 2.1 70 05:48 26.08.2019
3047 Clear 23 1017 44 10000 1.5 20 04:24 26.08.2019
3048 Clear 24 1017 41 10000 1.5 120 02:48 26.08.2019
3049 Clear 25 1016 36 10000 5.1 130 01:25 26.08.2019
3050 Clear 25 1016 34 10000 5.7 140 00:45 26.08.2019
3051 Clear 26 1016 28 10000 4.1 110 00:27 26.08.2019
3052 Clear 26 1016 24 10000 4.1 110 23:55 25.08.2019
3053 Clear 27 1016 24 10000 4.1 110 23:36 25.08.2019
3054 Clear 27 1016 21 10000 3.1 110 23:18 25.08.2019
3055 Clear 28 1015 18 10000 3.1 110 22:41 25.08.2019
3056 Clear 28 1015 20 10000 3.6 110 22:21 25.08.2019
3057 Clear 28 1015 20 10000 3.6 110 21:59 25.08.2019
3058 Clear 28 1015 18 10000 4.6 120 21:41 25.08.2019
3059 Clear 29 1015 20 10000 5.1 110 21:19 25.08.2019
3060 Clear 29 1015 20 10000 5.1 110 20:59 25.08.2019
3061 Clear 30 1015 19 10000 4.6 120 20:39 25.08.2019
3062 Clear 30 1015 20 10000 4.1 120 20:19 25.08.2019
3063 Clouds 31 1015 22 10000 4.1 120 19:55 25.08.2019
3064 Clouds 31 1015 22 10000 4.1 120 19:36 25.08.2019
3065 Clouds 31 1015 22 10000 5.1 120 19:18 25.08.2019
3066 Clouds 31 1015 22 10000 5.1 120 18:55 25.08.2019
3067 Clouds 31 1015 22 10000 5.1 120 18:55 25.08.2019
3068 Clouds 31 1015 22 10000 5.1 120 18:37 25.08.2019
3069 Clouds 31 1015 22 10000 5.1 120 18:18 25.08.2019
3070 Clear 32 1016 24 10000 4.1 120 17:40 25.08.2019
3071 Clear 32 1016 24 10000 4.1 120 17:40 25.08.2019
3072 Clear 32 1016 22 10000 3.6 90 17:21 25.08.2019
3073 Clear 32 1016 21 10000 4.1 100 16:41 25.08.2019
3074 Clear 32 1017 24 10000 3.1 0 16:23 25.08.2019
3075 Clear 32 1017 27 10000 3.6 120 15:57 25.08.2019
3076 Clear 31 1017 27 10000 3.6 120 15:39 25.08.2019
3077 Clear 31 1017 29 10000 3.6 110 15:20 25.08.2019
3078 Clear 30 1018 33 10000 4.1 80 14:40 25.08.2019
3079 Clear 30 1018 32 10000 4.1 110 14:22 25.08.2019
3080 Clear 29 1018 35 10000 2.6 100 13:46 25.08.2019
3081 Clear 29 1019 39 10000 3.6 80 13:22 25.08.2019
3082 Clear 28 1019 39 10000 3.6 80 12:57 25.08.2019
3083 Clear 28 1019 36 10000 3.6 100 12:39 25.08.2019
3084 Clear 27 1019 41 10000 3.1 80 12:20 25.08.2019
3085 Clear 26 1020 41 10000 3.6 70 11:57 25.08.2019
3086 Clear 26 1020 41 10000 3.6 70 11:37 25.08.2019
3087 Clear 26 1020 44 10000 3.6 70 11:18 25.08.2019
3088 Clear 25 1020 41 10000 3.1 70 10:55 25.08.2019
3089 Clear 25 1020 41 10000 3.1 70 10:36 25.08.2019
3090 Clear 24 1019 41 10000 3.6 80 10:18 25.08.2019
3091 Clear 23 1019 49 10000 3.1 70 09:42 25.08.2019
3092 Clear 22 1019 56 10000 3.1 70 09:23 25.08.2019
3093 Clear 21 1019 56 10000 3.1 80 08:44 25.08.2019
3094 Clear 21 1019 56 10000 2.6 70 08:23 25.08.2019
3095 Clear 21 1019 56 10000 3.1 60 07:46 25.08.2019
3096 Clear 21 1019 53 10000 1 0 07:23 25.08.2019
3097 Clear 21 1019 56 10000 1.5 40 06:37 25.08.2019
3098 Clear 22 1019 53 10000 1.5 60 05:27 25.08.2019
3099 Clear 23 1018 47 10000 4.6 150 03:43 25.08.2019
3100 Clear 23 1018 36 10000 2.1 120 02:42 25.08.2019
3101 Clear 24 1017 43 10000 1.5 30 01:49 25.08.2019
3102 Clear 24 1017 36 10000 1 0 00:44 25.08.2019
3103 Clear 25 1017 34 10000 2.1 10 00:22 25.08.2019
3104 Clear 25 1017 28 10000 0.5 310 23:57 24.08.2019
3105 Clear 25 1017 28 10000 0.5 310 23:57 24.08.2019
3106 Clear 26 1017 28 10000 0.5 310 23:39 24.08.2019
3107 Clear 27 1017 24 10000 0.5 0 23:21 24.08.2019
3108 Clear 27 1018 26 10000 0.5 0 22:40 24.08.2019
3109 Clear 28 1018 21 10000 0.5 0 22:19 24.08.2019
3110 Clear 29 1018 21 10000 0.5 0 21:58 24.08.2019
3111 Clear 30 1017 20 10000 1.5 140 21:39 24.08.2019
3112 Clear 30 1017 18 10000 1.5 110 21:21 24.08.2019
3113 Clear 31 1018 17 10000 2.6 140 20:57 24.08.2019
3114 Clear 32 1018 17 10000 2.6 140 20:39 24.08.2019
3115 Clear 32 1018 17 10000 2.1 130 20:19 24.08.2019
3116 Clear 32 1017 16 10000 1.5 140 19:57 24.08.2019
3117 Clear 33 1018 16 10000 2.6 180 19:38 24.08.2019
3118 Clear 33 1018 16 10000 2.6 180 19:38 24.08.2019
3119 Clear 33 1018 17 10000 2.1 0 19:20 24.08.2019
3120 Clear 33 1018 16 10000 1.5 110 18:46 24.08.2019
3121 Clear 33 1019 16 10000 1 0 18:24 24.08.2019
3122 Clear 33 1019 16 10000 2.1 0 17:46 24.08.2019
3123 Clear 33 1019 16 10000 2.1 0 17:46 24.08.2019
3124 Clear 33 1019 16 10000 2.1 0 17:28 24.08.2019
3125 Clear 33 1019 17 10000 2.6 0 16:57 24.08.2019
3126 Clear 33 1019 17 10000 2.6 0 16:38 24.08.2019
3127 Clear 32 1020 18 10000 2.6 0 16:19 24.08.2019
3128 Clear 32 1020 19 10000 2.1 0 15:44 24.08.2019
3129 Clear 31 1020 19 10000 1.5 0 15:26 24.08.2019
3130 Clear 31 1020 19 10000 1.5 0 14:59 24.08.2019
3131 Clear 30 1021 22 10000 3.1 130 14:40 24.08.2019
3132 Clear 30 1021 22 10000 2.1 150 14:18 24.08.2019
3133 Clear 29 1021 26 10000 2.1 0 13:54 24.08.2019
3134 Clear 29 1021 26 10000 2.1 0 13:36 24.08.2019
3135 Clear 29 1022 28 10000 2.1 0 13:18 24.08.2019
3136 Clear 27 1022 31 10000 2.6 90 12:41 24.08.2019
3137 Clear 27 1022 34 10000 3.1 0 12:22 24.08.2019
3138 Clear 26 1022 36 10000 2.6 100 11:52 24.08.2019
3139 Clear 25 1022 36 10000 2.6 90 11:32 24.08.2019
3140 Clear 24 1022 38 10000 2.6 60 10:59 24.08.2019
3141 Clear 23 1022 38 10000 2.6 60 10:40 24.08.2019
3142 Clear 23 1022 38 10000 1.5 50 10:21 24.08.2019
3143 Clear 22 1021 43 10000 1 0 09:42 24.08.2019
3144 Clear 20 1021 43 10000 1 0 09:19 24.08.2019
3145 Clear 19 1021 49 10000 1.5 30 08:43 24.08.2019
3146 Clear 19 1021 45 10000 1.5 10 08:25 24.08.2019
3147 Clear 18 1021 45 10000 1 0 07:53 24.08.2019
3148 Clear 18 1021 45 10000 1 0 07:30 24.08.2019
3149 Clear 18 1021 52 10000 1.5 330 06:52 24.08.2019
3150 Clear 20 1021 52 10000 1.5 10 06:21 24.08.2019
3151 Clear 20 1020 52 10000 1.5 360 05:36 24.08.2019
3152 Clear 22 1020 43 10000 1 170 03:50 24.08.2019
3153 Clear 22 1020 43 10000 1 170 03:31 24.08.2019
3154 Clear 22 1019 49 10000 1.5 150 02:19 24.08.2019
3155 Clear 23 1019 40 10000 1.16 134.511 01:29 24.08.2019
3156 Clear 23 1019 38 10000 1.5 10 00:48 24.08.2019
3157 Clear 24 1019 36 10000 1.5 20 00:24 24.08.2019
3158 Clear 25 1018 36 10000 0.5 0 23:47 23.08.2019
3159 Clear 26 1018 29 10000 1 210 23:23 23.08.2019
3160 Clear 26 1019 26 10000 2.21 197.247 22:58 23.08.2019
3161 Clear 26 1019 26 10000 2.21 197.247 22:40 23.08.2019
3162 Clear 27 1019 24 10000 1 0 22:20 23.08.2019
3163 Clear 29 1019 21 10000 2.1 150 21:38 23.08.2019
3164 Clear 29 1019 22 10000 2.6 160 21:19 23.08.2019
3165 Clear 30 1019 19 10000 1.5 110 20:53 23.08.2019
3166 Clear 30 1019 19 10000 1.5 110 20:35 23.08.2019
3167 Clear 31 1019 19 10000 1 0 19:58 23.08.2019
3168 Clear 32 1019 18 10000 2.1 140 19:40 23.08.2019
3169 Clear 31 1019 21 10000 2.6 150 19:18 23.08.2019
3170 Clear 32 1020 17 10000 1 0 18:43 23.08.2019
3171 Clear 31 1020 19 10000 1 100 18:24 23.08.2019
3172 Clear 31 1020 19 10000 2.1 0 17:46 23.08.2019
3173 Clear 31 1020 19 10000 2.1 0 17:28 23.08.2019
3174 Clear 31 1020 21 10000 2.6 0 16:59 23.08.2019
3175 Clear 31 1020 21 10000 2.6 0 16:40 23.08.2019
3176 Clear 31 1021 22 10000 1.5 170 16:22 23.08.2019
3177 Clear 30 1021 25 10000 2.1 0 15:41 23.08.2019
3178 Clear 30 1021 25 10000 1.5 180 15:22 23.08.2019
3179 Clear 29 1022 28 10000 2.1 0 14:59 23.08.2019
3180 Clear 29 1022 28 10000 2.1 0 14:40 23.08.2019
3181 Clear 29 1022 30 10000 2.6 110 14:20 23.08.2019
3182 Clear 28 1022 30 10000 2.1 0 13:56 23.08.2019
3183 Clear 28 1022 30 10000 2.1 0 13:38 23.08.2019
3184 Clear 27 1023 32 10000 2.1 0 13:19 23.08.2019
3185 Clear 27 1023 34 10000 2.1 110 12:54 23.08.2019
3186 Clear 26 1023 34 10000 2.1 110 12:36 23.08.2019
3187 Clear 25 1023 36 10000 3.6 90 12:18 23.08.2019
3188 Clear 25 1023 38 10000 2.6 60 11:54 23.08.2019
3189 Clear 25 1023 38 10000 2.6 60 11:36 23.08.2019
3190 Clear 24 1023 36 10000 1.5 0 11:18 23.08.2019
3191 Clear 23 1023 36 10000 1.5 40 10:42 23.08.2019
3192 Clear 22 1023 43 10000 1.5 30 10:21 23.08.2019
3193 Clear 21 1023 40 10000 1 0 09:48 23.08.2019
3194 Clear 20 1023 46 10000 1.5 50 09:30 23.08.2019
3195 Clear 19 1023 46 10000 1.5 50 08:59 23.08.2019
3196 Clear 19 1023 52 10000 1.5 40 08:39 23.08.2019
3197 Clear 19 1022 49 10000 1.5 10 08:19 23.08.2019
3198 Clear 18 1022 48 10000 1.5 360 07:42 23.08.2019
3199 Clear 18 1022 51 10000 1 0 07:24 23.08.2019
3200 Clear 18 1022 48 10000 2.6 350 06:57 23.08.2019
3201 Clear 18 1022 48 10000 2.6 350 06:37 23.08.2019
3202 Clear 19 1022 45 10000 2.1 340 06:19 23.08.2019
3203 Clear 20 1022 52 10000 1.5 340 05:33 23.08.2019
3204 Clear 21 1021 49 10000 1.5 350 04:20 23.08.2019
3205 Clear 22 1021 35 10000 1 0 02:58 23.08.2019
3206 Clear 22 1020 46 10000 1.5 360 02:23 23.08.2019
3207 Clear 22 1020 49 10000 2.6 320 01:40 23.08.2019
3208 Clear 22 1020 43 10000 1.5 350 00:45 23.08.2019
3209 Clear 23 1020 27 10000 1.67 100.345 00:19 23.08.2019
3210 Clear 24 1020 23 10000 1.67 100.345 23:47 22.08.2019
3211 Clear 24 1020 23 10000 1.67 100.345 23:25 22.08.2019
3212 Clear 25 1020 21 10000 1 110 22:56 22.08.2019
3213 Clear 25 1020 21 10000 1 110 22:38 22.08.2019
3214 Clear 27 1020 18 10000 1.5 100 22:19 22.08.2019
3215 Clear 27 1020 20 10000 2.1 120 21:55 22.08.2019
3216 Clear 28 1020 20 10000 2.1 120 21:37 22.08.2019
3217 Clear 28 1020 15 10000 2.6 110 21:18 22.08.2019
3218 Clear 29 1020 16 10000 2.1 110 20:55 22.08.2019
3219 Clear 30 1020 16 10000 2.1 110 20:37 22.08.2019
3220 Clear 30 1020 15 10000 3.1 110 20:18 22.08.2019
3221 Clear 31 1020 15 10000 2.6 0 19:40 22.08.2019
3222 Clear 31 1020 15 10000 3.1 70 19:22 22.08.2019
3223 Clear 31 1020 15 10000 3.6 100 18:59 22.08.2019
3224 Clear 31 1020 15 10000 3.6 100 18:41 22.08.2019
3225 Clear 31 1020 18 10000 3.6 110 18:20 22.08.2019
3226 Clear 31 1020 18 10000 3.1 0 17:58 22.08.2019
3227 Clear 31 1020 18 10000 3.1 0 17:58 22.08.2019
3228 Clear 31 1020 18 10000 3.1 0 17:39 22.08.2019
3229 Clear 31 1020 18 10000 3.1 0 17:20 22.08.2019
3230 Clear 31 1021 20 10000 2.6 100 16:56 22.08.2019
3231 Clear 30 1021 20 10000 2.6 100 16:38 22.08.2019
3232 Clear 30 1021 22 10000 3.1 0 16:20 22.08.2019
3233 Clear 30 1021 22 10000 3.1 0 16:19 22.08.2019
3234 Clear 30 1021 22 10000 3.1 0 16:19 22.08.2019
3235 Clear 30 1021 23 10000 2.6 0 15:54 22.08.2019
3236 Clear 30 1021 23 10000 2.6 0 15:54 22.08.2019
3237 Clear 29 1021 23 10000 2.6 0 15:36 22.08.2019
3238 Clear 29 1022 28 10000 2.6 0 15:18 22.08.2019
3239 Clear 28 1022 37 10000 3.6 90 14:41 22.08.2019
3240 Clear 27 1022 37 10000 2.6 90 14:22 22.08.2019
3241 Clear 27 1022 37 10000 2.6 90 13:59 22.08.2019
3242 Clear 27 1023 41 10000 2.6 100 13:40 22.08.2019
3243 Clear 26 1023 44 10000 3.1 70 13:20 22.08.2019
3244 Clear 26 1023 47 10000 2.6 0 12:56 22.08.2019
3245 Clear 26 1023 47 10000 2.6 0 12:38 22.08.2019
3246 Clear 24 1023 53 10000 2.6 70 12:19 22.08.2019
3247 Clear 23 1023 53 10000 2.1 50 11:42 22.08.2019
3248 Clear 22 1023 53 10000 2.1 0 11:21 22.08.2019
3249 Clear 22 1023 60 10000 2.6 40 10:58 22.08.2019
3250 Clear 21 1023 60 10000 2.6 40 10:40 22.08.2019
3251 Clear 21 1023 56 10000 1.5 20 10:22 22.08.2019
3252 Clear 20 1023 64 10000 2.1 30 09:57 22.08.2019
3253 Clear 19 1023 64 10000 2.1 30 09:39 22.08.2019
3254 Clear 18 1023 64 10000 1 0 09:20 22.08.2019
3255 Clear 18 1023 64 10000 1 0 08:54 22.08.2019
3256 Clear 17 1022 72 10000 1.5 360 08:36 22.08.2019
3257 Clear 17 1022 72 10000 1.5 360 08:18 22.08.2019
3258 Clear 16 1022 88 10000 3.1 360 07:39 22.08.2019
3259 Clear 16 1022 88 10000 3.1 360 07:19 22.08.2019
3260 Clear 16 1022 93 10000 1.5 360 06:48 22.08.2019
3261 Clear 16 1022 93 10000 1 0 06:23 22.08.2019
3262 Clear 17 1022 93 10000 1.5 360 05:36 22.08.2019
3263 Clear 17 1022 93 10000 0.5 90 04:20 22.08.2019
3264 Clear 19 1022 88 10000 1 350 02:38 22.08.2019
3265 Clear 19 1022 93 10000 1.5 10 01:45 22.08.2019
3266 Clouds 19 1022 88 10000 2.6 360 01:21 22.08.2019
3267 Thunderstorm 20 1022 88 10000 3.1 350 00:41 22.08.2019
3268 Rain 19 1022 72 10000 5.1 120 00:22 22.08.2019
3269 Rain 20 1021 77 10000 5.7 160 23:48 21.08.2019
3270 Rain 20 1021 77 10000 5.7 160 23:29 21.08.2019
3271 Rain 21 1022 82 10000 2.6 130 22:59 21.08.2019
3272 Thunderstorm 21 1021 88 4000 2.6 0 22:41 21.08.2019
3273 Thunderstorm 22 1021 73 7000 8.2 90 22:21 21.08.2019
3274 Thunderstorm 24 1021 73 7000 8.2 90 21:58 21.08.2019
3275 Thunderstorm 25 1020 57 10000 6.2 150 21:38 21.08.2019
3276 Clouds 26 1019 45 10000 2.1 0 21:20 21.08.2019
3277 Clouds 27 1019 48 10000 7.2 160 20:58 21.08.2019
3278 Clouds 27 1019 48 10000 7.2 160 20:39 21.08.2019
3279 Clouds 28 1019 37 10000 1 300 20:20 21.08.2019
3280 Clouds 28 1019 35 10000 1.5 320 19:44 21.08.2019
3281 Clouds 29 1019 35 10000 1.5 350 19:25 21.08.2019
3282 Clouds 29 1019 35 10000 1.5 350 18:59 21.08.2019
3283 Clouds 29 1019 35 10000 1.5 350 18:59 21.08.2019
3284 Clouds 29 1019 33 10000 1.5 320 18:40 21.08.2019
3285 Clouds 29 1019 35 10000 1 0 18:22 21.08.2019
3286 Clouds 29 1019 35 10000 1.5 0 17:45 21.08.2019
3287 Clouds 29 1019 42 10000 1 0 17:25 21.08.2019
3288 Clouds 29 1020 42 10000 2.6 200 16:59 21.08.2019
3289 Clouds 29 1020 42 10000 2.6 200 16:40 21.08.2019
3290 Clouds 29 1020 42 10000 1 120 16:21 21.08.2019
3291 Clouds 29 1020 42 10000 1 120 15:58 21.08.2019
3292 Clouds 28 1020 45 10000 2.1 0 15:39 21.08.2019
3293 Clouds 27 1020 47 10000 1 100 15:20 21.08.2019
3294 Clouds 27 1021 50 10000 2.1 0 14:57 21.08.2019
3295 Clouds 26 1021 50 10000 2.1 0 14:38 21.08.2019
3296 Clouds 25 1021 50 10000 2.6 0 14:20 21.08.2019
3297 Clouds 26 1021 50 10000 2.6 0 14:20 21.08.2019
3298 Clouds 25 1021 53 10000 2.1 0 13:45 21.08.2019
3299 Clouds 25 1022 57 10000 2.1 50 13:22 21.08.2019
3300 Clouds 24 1022 60 10000 1.5 60 12:59 21.08.2019
3301 Clouds 24 1022 60 10000 1.5 60 12:40 21.08.2019
3302 Clouds 23 1022 64 10000 2.1 70 12:21 21.08.2019
3303 Clouds 22 1022 64 10000 2.6 60 11:58 21.08.2019
3304 Clouds 22 1022 64 10000 2.6 60 11:39 21.08.2019
3305 Clouds 22 1022 60 10000 2.6 60 11:21 21.08.2019
3306 Clouds 22 1022 60 10000 2.1 50 10:56 21.08.2019
3307 Clouds 21 1022 60 10000 2.1 50 10:37 21.08.2019
3308 Clouds 21 1022 64 10000 1.5 50 10:19 21.08.2019
3309 Clouds 21 1022 64 10000 1.5 50 09:43 21.08.2019
3310 Clouds 21 1022 64 10000 2.1 40 09:24 21.08.2019
3311 Clouds 20 1022 64 10000 2.1 40 08:59 21.08.2019
3312 Clouds 20 1022 64 10000 1.5 40 08:41 21.08.2019
3313 Clouds 21 1021 60 10000 2.6 40 08:23 21.08.2019
3314 Clouds 20 1021 60 10000 2.6 30 07:41 21.08.2019
3315 Clouds 20 1021 60 10000 2.1 60 07:22 21.08.2019
3316 Clouds 20 1021 56 10000 2.6 50 06:49 21.08.2019
3317 Clouds 20 1021 60 10000 2.1 60 06:22 21.08.2019
3318 Clouds 20 1021 56 10000 2.6 40 05:42 21.08.2019
3319 Clouds 20 1021 56 10000 2.1 40 05:23 21.08.2019
3320 Clouds 20 1022 56 10000 2.1 50 03:39 21.08.2019
3321 Clouds 21 1021 56 10000 2.6 50 01:50 21.08.2019
3322 Clear 22 1021 53 10000 3.6 50 00:46 21.08.2019
3323 Clear 22 1021 53 10000 3.6 40 00:24 21.08.2019
3324 Clear 23 1020 50 10000 4.1 50 23:59 20.08.2019
3325 Clear 23 1020 50 10000 4.1 50 23:41 20.08.2019
3326 Clear 23 1020 47 10000 4.1 40 23:19 20.08.2019
3327 Clear 24 1019 47 10000 4.1 0 22:56 20.08.2019
3328 Clear 24 1019 47 10000 4.1 0 22:38 20.08.2019
3329 Clear 25 1019 41 10000 3.6 0 22:20 20.08.2019
3330 Clouds 26 1019 36 10000 3.6 50 21:57 20.08.2019
3331 Clouds 26 1019 36 10000 3.6 50 21:38 20.08.2019
3332 Clouds 26 1019 32 10000 3.1 30 21:19 20.08.2019
3333 Clouds 27 1018 30 10000 3.6 0 20:43 20.08.2019
3334 Clouds 27 1018 30 10000 3.6 0 20:43 20.08.2019
3335 Clouds 28 1018 28 10000 2.6 0 20:24 20.08.2019
3336 Clouds 29 1018 25 10000 3.1 50 19:59 20.08.2019
3337 Clouds 29 1018 25 10000 3.1 50 19:39 20.08.2019
3338 Clouds 29 1018 25 10000 2.6 30 19:20 20.08.2019
3339 Clouds 29 1018 27 10000 2.6 40 18:55 20.08.2019
3340 Clouds 29 1018 27 10000 2.6 40 18:37 20.08.2019
3341 Clouds 29 1018 28 10000 3.1 0 18:18 20.08.2019
3342 Clouds 29 1018 28 10000 3.1 0 17:54 20.08.2019
3343 Clouds 29 1018 28 10000 2.1 0 17:36 20.08.2019
3344 Clouds 29 1019 32 10000 2.6 0 17:18 20.08.2019
3345 Clouds 29 1019 30 10000 3.1 360 16:41 20.08.2019
3346 Clouds 28 1019 30 10000 3.1 360 16:23 20.08.2019
3347 Clouds 28 1019 35 10000 3.1 0 15:42 20.08.2019
3348 Clouds 28 1019 35 10000 3.1 0 15:19 20.08.2019
3349 Clouds 27 1019 42 10000 5.1 10 14:56 20.08.2019
3350 Clouds 27 1019 44 10000 4.6 70 14:38 20.08.2019
3351 Clouds 27 1020 42 10000 3.1 0 14:20 20.08.2019
3352 Clouds 27 1020 42 10000 3.1 0 13:55 20.08.2019
3353 Clouds 26 1020 50 10000 4.1 60 13:37 20.08.2019
3354 Clouds 26 1019 47 10000 3.1 0 13:18 20.08.2019
3355 Clouds 26 1019 47 10000 3.1 0 12:48 20.08.2019
3356 Clouds 24 1019 53 10000 3.6 20 12:24 20.08.2019
3357 Clouds 24 1019 57 10000 3.1 10 11:56 20.08.2019
3358 Clouds 23 1019 53 10000 3.1 30 11:38 20.08.2019
3359 Clouds 23 1019 53 10000 3.1 30 11:18 20.08.2019
3360 Clouds 22 1019 53 10000 2.6 30 10:56 20.08.2019
3361 Clouds 22 1018 56 10000 2.6 10 10:37 20.08.2019
3362 Clouds 21 1018 64 10000 2.6 350 10:18 20.08.2019
3363 Clouds 21 1018 64 10000 2.6 350 09:41 20.08.2019
3364 Clouds 20 1018 68 10000 2.6 350 09:22 20.08.2019
3365 Clouds 20 1018 68 10000 2.6 360 08:43 20.08.2019
3366 Clouds 20 1018 68 10000 2.6 360 08:25 20.08.2019
3367 Clouds 20 1017 60 10000 3.1 360 07:59 20.08.2019
3368 Clear 20 1017 60 10000 2.6 30 07:41 20.08.2019
3369 Clear 20 1016 68 10000 3.1 350 07:22 20.08.2019
3370 Clear 20 1016 68 10000 3.1 350 06:56 20.08.2019
3371 Clouds 20 1016 68 10000 4.1 350 06:24 20.08.2019
3372 Clouds 20 1016 64 10000 2.6 350 05:49 20.08.2019
3373 Clouds 20 1016 68 10000 2.6 30 04:56 20.08.2019
3374 Rain 21 1017 64 10000 0.5 70 03:37 20.08.2019
3375 Drizzle 22 1017 53 10000 4.1 30 02:34 20.08.2019
3376 Clouds 23 1016 44 10000 2.6 50 01:24 20.08.2019
3377 Clear 24 1016 39 10000 3.6 40 00:50 20.08.2019
3378 Clear 24 1016 39 10000 3.6 40 00:31 20.08.2019
3379 Clear 26 1015 32 10000 1.5 350 23:56 19.08.2019
3380 Clear 26 1015 32 10000 2.6 290 23:36 19.08.2019
3381 Clear 27 1015 32 10000 2.1 280 23:18 19.08.2019
3382 Clear 27 1015 30 10000 2.1 290 22:41 19.08.2019
3383 Clear 28 1015 30 10000 2.1 300 22:21 19.08.2019
3384 Clear 28 1015 30 10000 2.1 300 21:58 19.08.2019
3385 Clear 29 1015 25 10000 3.1 280 21:39 19.08.2019
3386 Clear 29 1015 25 10000 3.1 280 21:20 19.08.2019
3387 Clear 30 1015 18 10000 4.6 260 20:58 19.08.2019
3388 Clear 30 1014 23 10000 5.7 250 20:38 19.08.2019
3389 Clear 30 1014 27 10000 6.2 230 20:19 19.08.2019
3390 Rain 30 1015 27 10000 5.7 240 19:55 19.08.2019
3391 Rain 30 1014 27 10000 6.2 230 19:55 19.08.2019
3392 Rain 31 1015 27 10000 5.7 240 19:37 19.08.2019
3393 Rain 31 1015 25 10000 6.2 230 19:18 19.08.2019
3394 Rain 31 1015 25 10000 6.2 230 19:18 19.08.2019
3395 Clear 31 1015 24 10000 6.2 240 18:44 19.08.2019
3396 Clear 31 1015 24 10000 6.2 240 18:26 19.08.2019
3397 Clear 31 1015 25 10000 6.7 240 17:58 19.08.2019
3398 Clear 31 1015 24 10000 5.1 220 17:40 19.08.2019
3399 Clear 32 1015 27 10000 5.7 240 17:19 19.08.2019
3400 Clear 31 1015 27 10000 5.7 240 16:58 19.08.2019
3401 Clear 31 1016 22 10000 6.7 230 16:37 19.08.2019
3402 Clear 32 1016 23 10000 6.2 200 16:18 19.08.2019
3403 Clear 31 1016 27 10000 5.7 230 15:45 19.08.2019
3404 Clear 31 1016 27 10000 5.7 210 15:20 19.08.2019
3405 Clear 30 1016 23 10000 5.1 210 14:58 19.08.2019
3406 Clear 30 1016 23 10000 5.1 210 14:38 19.08.2019
3407 Clear 29 1016 27 10000 4.6 220 14:20 19.08.2019
3408 Clear 29 1016 30 10000 2.6 200 13:57 19.08.2019
3409 Clear 29 1016 30 10000 2.6 200 13:57 19.08.2019
3410 Clear 29 1016 30 10000 2.6 200 13:37 19.08.2019
3411 Clear 29 1016 28 10000 3.6 220 13:19 19.08.2019
3412 Clear 28 1016 37 10000 2.1 200 12:44 19.08.2019
3413 Clear 27 1017 39 10000 2.6 180 12:24 19.08.2019
3414 Clear 27 1016 42 10000 1.5 160 11:59 19.08.2019
3415 Clear 26 1016 42 10000 1.5 160 11:37 19.08.2019
3416 Clear 26 1016 39 10000 1 0 11:19 19.08.2019
3417 Clear 25 1016 41 10000 1 0 10:55 19.08.2019
3418 Clear 25 1016 47 10000 1.5 270 10:36 19.08.2019
3419 Clear 24 1016 47 10000 1.5 270 10:18 19.08.2019
3420 Clear 23 1016 49 10000 2.1 270 09:41 19.08.2019
3421 Clear 22 1016 49 10000 1.5 280 09:22 19.08.2019
3422 Clear 22 1016 60 10000 1.5 260 08:55 19.08.2019
3423 Clear 21 1016 60 10000 1.5 260 08:37 19.08.2019
3424 Clear 21 1016 60 10000 0.5 0 08:18 19.08.2019
3425 Clear 21 1016 56 10000 1.88 113.303 07:42 19.08.2019
3426 Clear 21 1015 46 10000 1.5 30 07:24 19.08.2019
3427 Clear 22 1015 40 10000 1.5 70 06:43 19.08.2019
3428 Clear 22 1015 40 10000 1 0 06:24 19.08.2019
3429 Clear 23 1015 36 10000 1.5 70 04:54 19.08.2019
3430 Clear 23 1015 38 10000 1 0 04:22 19.08.2019
3431 Clear 23 1015 38 10000 0.5 0 03:20 19.08.2019
3432 Clear 24 1015 31 10000 1.5 50 01:48 19.08.2019
3433 Clear 25 1015 32 10000 3.04 325.776 01:21 19.08.2019
3434 Clear 26 1014 26 10000 2.6 270 00:43 19.08.2019
3435 Clear 26 1014 25 10000 2.6 260 00:20 19.08.2019
3436 Clear 27 1014 25 10000 2.6 260 23:41 18.08.2019
3437 Clear 27 1014 22 10000 4.6 240 23:21 18.08.2019
3438 Clear 28 1014 22 10000 4.1 260 22:40 18.08.2019
3439 Clear 29 1014 20 10000 6.2 240 22:22 18.08.2019
3440 Clear 32 1014 17 10000 7.2 240 21:59 18.08.2019
3441 Clear 32 1014 17 10000 7.2 240 21:41 18.08.2019
3442 Clear 32 1014 14 10000 8.2 240 21:22 18.08.2019
3443 Clear 33 1013 12 10000 7.7 220 20:59 18.08.2019
3444 Clear 33 1013 12 10000 7.7 220 20:41 18.08.2019
3445 Clear 33 1013 12 10000 7.7 220 20:23 18.08.2019
3446 Clear 34 1013 9 10000 7.2 220 19:54 18.08.2019
3447 Clear 34 1013 9 10000 7.2 220 19:36 18.08.2019
3448 Clear 35 1013 9 10000 9.3 220 19:18 18.08.2019
3449 Clear 35 1013 9 10000 9.3 230 18:41 18.08.2019
3450 Clear 35 1014 8 10000 9.8 220 18:23 18.08.2019
3451 Clear 34 1014 9 10000 8.7 220 17:56 18.08.2019
3452 Clear 34 1014 9 10000 8.7 220 17:38 18.08.2019
3453 Clear 34 1014 9 10000 8.2 210 17:19 18.08.2019
3454 Clear 34 1014 9 10000 8.2 210 16:56 18.08.2019
3455 Clear 34 1014 11 10000 8.2 210 16:37 18.08.2019
3456 Clear 34 1014 9 10000 8.7 210 16:18 18.08.2019
3457 Clear 34 1014 9 10000 8.2 210 15:54 18.08.2019
3458 Clear 33 1014 9 10000 8.2 210 15:36 18.08.2019
3459 Clear 33 1015 10 10000 8.7 210 15:18 18.08.2019
3460 Clear 33 1015 15 10000 7.2 210 14:40 18.08.2019
3461 Clear 33 1015 17 10000 6.2 220 14:20 18.08.2019
3462 Clear 33 1015 17 10000 6.2 220 13:58 18.08.2019
3463 Clear 32 1015 18 10000 6.2 220 13:40 18.08.2019
3464 Clear 31 1016 19 10000 5.1 210 13:21 18.08.2019
3465 Clear 30 1016 23 10000 5.1 210 12:54 18.08.2019
3466 Clear 30 1016 23 10000 5.1 210 12:36 18.08.2019
3467 Clear 29 1016 23 10000 4.6 220 12:18 18.08.2019
3468 Clear 28 1016 23 10000 4.6 230 11:41 18.08.2019
3469 Clear 26 1015 23 10000 2.6 220 11:22 18.08.2019
3470 Clear 26 1015 26 10000 2.1 220 10:56 18.08.2019
3471 Clear 26 1015 26 10000 2.1 220 10:38 18.08.2019
3472 Clear 23 1015 27 10000 1 0 10:18 18.08.2019
3473 Clear 23 1015 23 10000 1 0 09:42 18.08.2019
3474 Clear 19 1014 27 10000 1.5 150 09:19 18.08.2019
3475 Clear 18 1014 26 10000 0.21 267.234 08:43 18.08.2019
3476 Clear 19 1014 28 10000 1.5 250 08:25 18.08.2019
3477 Clear 19 1014 26 10000 1 0 07:53 18.08.2019
3478 Clear 19 1014 26 10000 1 0 07:29 18.08.2019
3479 Clear 19 1013 32 10000 1.5 330 06:19 18.08.2019
3480 Clear 19 1013 32 10000 1 0 05:41 18.08.2019
3481 Clear 21 1013 28 10000 1.5 10 03:51 18.08.2019
3482 Clear 23 1014 22 10000 1 130 02:52 18.08.2019
3483 Clear 23 1014 22 10000 1 130 02:32 18.08.2019
3484 Clear 28 1014 18 10000 2.1 90 01:53 18.08.2019
3485 Clear 28 1014 18 10000 2.1 90 01:26 18.08.2019
3486 Clear 29 1013 14 10000 4.6 270 00:41 18.08.2019
3487 Clear 29 1013 15 10000 4.6 260 00:19 18.08.2019
3488 Clear 30 1013 16 10000 4.6 260 23:57 17.08.2019
3489 Clear 30 1013 16 10000 4.6 260 23:37 17.08.2019
3490 Clear 32 1013 16 10000 4.6 250 23:19 17.08.2019
3491 Clear 32 1014 19 10000 4.1 230 22:57 17.08.2019
3492 Clear 32 1014 19 10000 4.1 230 22:38 17.08.2019
3493 Clear 34 1014 19 10000 4.1 230 22:20 17.08.2019
3494 Clear 34 1014 18 10000 4.6 220 21:43 17.08.2019
3495 Clear 34 1014 18 10000 4.6 220 21:43 17.08.2019
3496 Clear 35 1014 16 10000 5.1 220 21:25 17.08.2019
3497 Clear 35 1014 14 10000 5.1 220 20:59 17.08.2019
3498 Clear 36 1014 14 10000 5.1 220 20:37 17.08.2019
3499 Clear 36 1014 16 10000 6.2 230 20:19 17.08.2019
3500 Clear 36 1014 14 10000 5.1 210 19:43 17.08.2019
3501 Clear 36 1014 15 10000 7.2 240 19:24 17.08.2019
3502 Clear 36 1014 15 10000 7.2 240 18:58 17.08.2019
3503 Clear 36 1015 14 10000 6.2 230 18:38 17.08.2019
3504 Clear 36 1015 14 10000 6.7 230 18:18 17.08.2019
3505 Clear 36 1015 15 10000 5.7 220 17:43 17.08.2019
3506 Clear 36 1015 16 10000 6.7 250 17:22 17.08.2019
3507 Clear 36 1016 15 10000 5.7 240 16:57 17.08.2019
3508 Clear 36 1016 15 10000 5.7 240 16:38 17.08.2019
3509 Clear 35 1016 15 10000 6.2 220 16:20 17.08.2019
3510 Clear 35 1017 17 10000 5.7 240 15:54 17.08.2019
3511 Clear 35 1017 17 10000 5.7 240 15:54 17.08.2019
3512 Clear 35 1017 17 10000 5.7 240 15:36 17.08.2019
3513 Clear 34 1017 17 10000 5.1 230 15:18 17.08.2019
3514 Clear 34 1017 18 10000 4.6 220 14:40 17.08.2019
3515 Clear 33 1018 20 10000 3.1 0 14:21 17.08.2019
3516 Clear 33 1018 21 10000 2.6 0 13:45 17.08.2019
3517 Clear 32 1018 22 10000 1 120 13:21 17.08.2019
3518 Clear 31 1018 22 10000 1 0 12:46 17.08.2019
3519 Clear 31 1018 22 10000 1 0 12:46 17.08.2019
3520 Clear 30 1018 28 10000 2.1 130 12:21 17.08.2019
3521 Clear 29 1018 28 10000 2.1 130 11:59 17.08.2019
3522 Clear 28 1018 28 10000 2.1 110 11:39 17.08.2019
3523 Clear 28 1018 30 10000 2.1 70 11:20 17.08.2019
3524 Clear 27 1018 34 10000 3.1 90 10:44 17.08.2019
3525 Clear 26 1018 31 10000 2.1 70 10:25 17.08.2019
3526 Clear 26 1018 31 10000 2.1 70 10:25 17.08.2019
3527 Clear 25 1018 34 10000 2.05 102.087 09:59 17.08.2019
3528 Clear 25 1018 34 10000 2.05 102.087 09:41 17.08.2019
3529 Clear 25 1018 34 10000 2.05 102.087 09:41 17.08.2019
3530 Clear 23 1018 36 10000 0.87 45.837 09:23 17.08.2019
3531 Clear 22 1017 40 10000 0.87 45.837 08:52 17.08.2019
3532 Clear 22 1017 40 10000 1.5 360 08:23 17.08.2019
3533 Clear 22 1017 35 10000 1.5 10 07:44 17.08.2019
3534 Clear 22 1017 43 10000 2.1 10 07:20 17.08.2019
3535 Clear 21 1017 43 10000 1.5 40 06:34 17.08.2019
3536 Clear 24 1016 36 10000 1.5 110 04:48 17.08.2019
3537 Clear 24 1016 36 10000 1.5 80 04:23 17.08.2019
3538 Clear 26 1016 31 10000 1 0 02:45 17.08.2019
3539 Clear 27 1016 30 10000 1 0 01:40 17.08.2019
3540 Clear 27 1016 26 10000 1.5 70 01:21 17.08.2019
3541 Clear 28 1016 25 10000 2.6 310 00:48 17.08.2019
3542 Clear 28 1016 23 10000 3.6 310 00:26 17.08.2019
3543 Clear 30 1016 22 10000 4.1 280 23:47 16.08.2019
3544 Clear 30 1016 19 10000 4.1 250 23:25 16.08.2019
3545 Clear 31 1016 19 10000 3.6 230 22:44 16.08.2019
3546 Clear 32 1016 22 10000 4.1 220 22:20 16.08.2019
3547 Clear 32 1016 22 10000 4.1 220 21:59 16.08.2019
3548 Clear 33 1016 19 10000 4.1 220 21:39 16.08.2019
3549 Clear 33 1016 18 10000 4.1 230 21:19 16.08.2019
3550 Clear 34 1016 19 10000 4.6 220 20:43 16.08.2019
3551 Clear 34 1016 19 10000 4.6 220 20:43 16.08.2019
3552 Clear 34 1016 17 10000 4.1 210 20:22 16.08.2019
3553 Clear 35 1016 19 10000 5.1 210 19:59 16.08.2019
3554 Clear 35 1016 19 10000 5.1 210 19:40 16.08.2019
3555 Clear 35 1016 19 10000 5.7 230 19:22 16.08.2019
3556 Clear 35 1016 16 10000 2.6 0 18:42 16.08.2019
3557 Clear 35 1016 17 10000 4.1 210 18:23 16.08.2019
3558 Clear 35 1017 20 10000 3.6 200 17:49 16.08.2019
3559 Clear 35 1017 20 10000 3.6 200 17:31 16.08.2019
3560 Clear 35 1017 19 10000 2.1 0 16:59 16.08.2019
3561 Clear 34 1018 19 10000 4.6 220 16:41 16.08.2019
3562 Clear 34 1018 21 10000 3.1 210 16:21 16.08.2019
3563 Clear 34 1018 26 10000 2.1 0 15:56 16.08.2019
3564 Clear 33 1018 26 10000 2.1 0 15:38 16.08.2019
3565 Clear 33 1019 26 10000 2.6 0 15:20 16.08.2019
3566 Clear 32 1019 29 10000 2.6 110 14:57 16.08.2019
3567 Clear 32 1019 29 10000 2.6 110 14:38 16.08.2019
3568 Clear 31 1019 33 10000 3.1 100 14:18 16.08.2019
3569 Clear 31 1019 33 10000 1.5 0 13:41 16.08.2019
3570 Clear 30 1020 35 10000 2.6 120 13:22 16.08.2019
3571 Clear 29 1020 37 10000 2.1 0 12:55 16.08.2019
3572 Clear 29 1020 37 10000 2.1 0 12:37 16.08.2019
3573 Clear 28 1020 39 10000 2.1 120 12:18 16.08.2019
3574 Clear 27 1020 44 10000 2.1 90 11:41 16.08.2019
3575 Clear 26 1020 44 10000 2.1 100 11:23 16.08.2019
3576 Clear 26 1020 44 10000 2.1 90 10:43 16.08.2019
3577 Clear 25 1020 44 10000 2.1 70 10:22 16.08.2019
3578 Clear 24 1020 47 10000 2.6 60 09:55 16.08.2019
3579 Clear 23 1020 47 10000 2.6 60 09:37 16.08.2019
3580 Clear 22 1020 49 10000 1 0 09:18 16.08.2019
3581 Clear 21 1020 49 10000 1 0 08:40 16.08.2019
3582 Clear 21 1019 52 10000 1 0 08:20 16.08.2019
3583 Clear 21 1019 52 10000 1.5 360 07:52 16.08.2019
3584 Clear 21 1019 52 10000 1.5 360 07:30 16.08.2019
3585 Clear 22 1019 49 10000 1.5 350 06:56 16.08.2019
3586 Clear 22 1019 49 10000 3.1 360 06:21 16.08.2019
3587 Clear 22 1019 46 10000 2.1 360 05:36 16.08.2019
3588 Clear 23 1019 44 10000 3.1 350 04:27 16.08.2019
3589 Clear 24 1019 41 10000 4.1 50 02:28 16.08.2019
3590 Clear 25 1019 36 10000 5.1 50 01:30 16.08.2019
3591 Clear 25 1019 36 10000 5.1 50 00:57 16.08.2019
3592 Clear 26 1018 34 10000 5.7 50 00:39 16.08.2019
3593 Clear 27 1018 34 10000 8.2 50 00:20 16.08.2019
3594 Clear 29 1018 23 10000 3.6 10 23:42 15.08.2019
3595 Clear 30 1018 23 10000 3.1 10 23:21 15.08.2019
3596 Clear 30 1018 22 10000 2.1 300 22:57 15.08.2019
3597 Clear 30 1018 22 10000 2.1 300 22:39 15.08.2019
3598 Clear 31 1018 19 10000 2.1 300 22:20 15.08.2019
3599 Clouds 32 1017 16 10000 2.6 310 21:40 15.08.2019
3600 Clouds 32 1017 17 10000 3.1 300 21:20 15.08.2019
3601 Clouds 33 1017 17 10000 3.1 300 20:59 15.08.2019
3602 Clouds 34 1017 19 10000 2.6 0 20:41 15.08.2019
3603 Clouds 34 1017 20 10000 3.6 190 20:21 15.08.2019
3604 Clouds 34 1017 19 10000 3.1 0 19:57 15.08.2019
3605 Clouds 34 1017 19 10000 3.1 0 19:38 15.08.2019
3606 Clouds 34 1017 21 10000 3.1 230 19:19 15.08.2019
3607 Clouds 34 1017 20 10000 2.6 210 18:46 15.08.2019
3608 Clouds 34 1018 21 10000 3.1 220 18:22 15.08.2019
3609 Clouds 34 1018 21 10000 2.1 0 17:57 15.08.2019
3610 Clouds 34 1018 21 10000 2.1 0 17:37 15.08.2019
3611 Clouds 34 1018 21 10000 2.6 0 17:19 15.08.2019
3612 Clouds 34 1019 20 10000 2.6 0 16:48 15.08.2019
3613 Clouds 34 1019 21 10000 1.5 0 16:27 15.08.2019
3614 Clouds 33 1019 21 10000 3.1 180 15:59 15.08.2019
3615 Clouds 33 1019 21 10000 3.1 180 15:38 15.08.2019
3616 Clouds 33 1020 20 10000 3.1 0 15:19 15.08.2019
3617 Clear 32 1020 22 10000 2.6 130 14:42 15.08.2019
3618 Clear 32 1020 19 10000 2.6 110 14:23 15.08.2019
3619 Clear 32 1020 19 10000 1.5 0 13:58 15.08.2019
3620 Clear 32 1020 19 10000 1.5 0 13:40 15.08.2019
3621 Clear 31 1021 22 10000 1.5 0 13:21 15.08.2019
3622 Clear 30 1021 25 10000 2.1 90 12:57 15.08.2019
3623 Clear 30 1021 25 10000 2.1 90 12:39 15.08.2019
3624 Clear 28 1021 23 10000 1 0 12:19 15.08.2019
3625 Clear 28 1021 24 10000 1 0 11:57 15.08.2019
3626 Clear 28 1021 24 10000 1 0 11:36 15.08.2019
3627 Clear 27 1021 29 10000 1.5 60 11:18 15.08.2019
3628 Clear 26 1021 29 10000 1.5 70 10:54 15.08.2019
3629 Clear 26 1021 29 10000 1.5 70 10:36 15.08.2019
3630 Clear 24 1021 29 10000 1 0 10:18 15.08.2019
3631 Clear 23 1021 33 10000 2.42 86.567 09:41 15.08.2019
3632 Clear 22 1021 31 10000 1.23 62.354 09:21 15.08.2019
3633 Clear 20 1021 35 10000 1 0 08:38 15.08.2019
3634 Clear 20 1020 35 10000 1.5 350 08:19 15.08.2019
3635 Clear 20 1020 32 10000 1.5 360 07:50 15.08.2019
3636 Clear 19 1020 32 10000 1.5 360 07:32 15.08.2019
3637 Clear 20 1019 39 10000 1.5 350 06:57 15.08.2019
3638 Clear 19 1019 39 10000 1 360 06:39 15.08.2019
3639 Clear 21 1019 37 10000 1 10 06:21 15.08.2019
3640 Clear 20 1019 37 10000 2.1 20 05:29 15.08.2019
3641 Clear 21 1019 34 10000 1.5 50 04:51 15.08.2019
3642 Clear 22 1019 32 10000 1 0 03:49 15.08.2019
3643 Clear 23 1019 30 10000 0.5 0 02:52 15.08.2019
3644 Clear 24 1019 27 10000 2.1 340 02:24 15.08.2019
3645 Clear 24 1019 27 10000 2.1 30 01:39 15.08.2019
3646 Clear 25 1019 25 10000 2.1 20 00:54 15.08.2019
3647 Clear 25 1019 24 10000 1 10 00:36 15.08.2019
3648 Clear 26 1019 18 10000 2.1 220 00:18 15.08.2019
3649 Clear 27 1019 17 10000 2.6 220 23:40 14.08.2019
3650 Clear 27 1019 17 10000 2.1 200 23:20 14.08.2019
3651 Clear 27 1019 21 10000 1.5 210 22:59 14.08.2019
3652 Clear 28 1019 21 10000 1.5 210 22:40 14.08.2019
3653 Clear 28 1019 18 10000 1.5 210 22:22 14.08.2019
3654 Clear 30 1019 18 10000 2.6 180 21:57 14.08.2019
3655 Clear 31 1019 18 10000 2.6 180 21:38 14.08.2019
3656 Clear 31 1019 17 10000 2.1 180 21:20 14.08.2019
3657 Clear 31 1018 15 10000 2.6 180 20:54 14.08.2019
3658 Clear 32 1018 15 10000 2.6 180 20:36 14.08.2019
3659 Clear 32 1019 16 10000 2.6 190 20:18 14.08.2019
3660 Clear 33 1019 15 10000 2.6 230 19:40 14.08.2019
3661 Clear 33 1019 16 10000 2.6 0 19:22 14.08.2019
3662 Clear 33 1019 16 10000 2.1 0 18:57 14.08.2019
3663 Clear 33 1019 16 10000 2.1 0 18:57 14.08.2019
3664 Clear 33 1019 16 10000 2.1 0 18:39 14.08.2019
3665 Clear 33 1019 16 10000 2.1 0 18:20 14.08.2019
3666 Clear 33 1019 16 10000 2.1 0 17:59 14.08.2019
3667 Clear 33 1019 15 10000 2.1 0 17:38 14.08.2019
3668 Clear 32 1020 15 10000 2.1 0 17:20 14.08.2019
3669 Clear 32 1020 15 10000 2.1 0 16:55 14.08.2019
3670 Clear 32 1020 15 10000 2.1 0 16:37 14.08.2019
3671 Clear 31 1020 16 10000 2.6 0 16:18 14.08.2019
3672 Clear 31 1021 19 10000 2.6 0 15:42 14.08.2019
3673 Clear 30 1021 19 10000 2.6 0 15:18 14.08.2019
3674 Clear 29 1021 20 10000 2.1 0 14:55 14.08.2019
3675 Clear 29 1021 20 10000 2.1 0 14:36 14.08.2019
3676 Clear 28 1022 20 10000 1 0 14:18 14.08.2019
3677 Clear 28 1022 26 10000 2.1 110 13:43 14.08.2019
3678 Clear 26 1022 30 10000 1 0 13:24 14.08.2019
3679 Clear 26 1022 30 10000 1 0 13:24 14.08.2019
3680 Clear 26 1022 30 10000 1 0 12:57 14.08.2019
3681 Clear 26 1022 34 10000 1.5 40 12:38 14.08.2019
3682 Clear 24 1022 38 10000 1.5 0 12:20 14.08.2019
3683 Clear 24 1022 41 10000 1.5 0 11:55 14.08.2019
3684 Clear 24 1022 41 10000 1.5 0 11:37 14.08.2019
3685 Clear 22 1022 40 10000 1.5 0 11:18 14.08.2019
3686 Clear 22 1022 33 10000 1.5 60 10:42 14.08.2019
3687 Clear 20 1022 32 10000 1.5 60 10:23 14.08.2019
3688 Clear 19 1022 35 10000 1 0 09:55 14.08.2019
3689 Clear 19 1022 35 10000 1 0 09:36 14.08.2019
3690 Clear 17 1022 37 10000 1 0 09:18 14.08.2019
3691 Clear 16 1021 39 10000 1.5 10 08:36 14.08.2019
3692 Clear 16 1021 42 10000 2.1 360 08:18 14.08.2019
3693 Clear 16 1021 42 10000 1.5 10 07:45 14.08.2019
3694 Clear 16 1021 42 10000 1.5 10 07:27 14.08.2019
3695 Clear 16 1021 42 10000 1.5 360 06:45 14.08.2019
3696 Clear 16 1021 39 10000 1.5 10 05:48 14.08.2019
3697 Clear 18 1021 37 10000 2.1 340 04:45 14.08.2019
3698 Clear 19 1021 30 10000 2.1 330 03:37 14.08.2019
3699 Clear 21 1020 23 10000 2.6 50 02:32 14.08.2019
3700 Clear 23 1020 21 10000 1.5 60 01:38 14.08.2019
3701 Clear 23 1020 20 10000 0.5 70 00:54 14.08.2019
3702 Clear 25 1020 22 10000 1 0 23:50 13.08.2019
3703 Clear 25 1020 17 10000 2.1 340 23:25 13.08.2019
3704 Clear 25 1019 17 10000 2.6 300 22:58 13.08.2019
3705 Clear 25 1019 17 10000 2.6 300 22:39 13.08.2019
3706 Clear 25 1019 17 10000 2.6 300 22:39 13.08.2019
3707 Clear 26 1019 16 10000 2.1 300 22:21 13.08.2019
3708 Clear 27 1019 17 10000 2.6 300 21:58 13.08.2019
3709 Clear 27 1019 17 10000 2.6 300 21:37 13.08.2019
3710 Clear 27 1019 19 10000 3.1 310 21:19 13.08.2019
3711 Clear 28 1019 12 10000 3.1 270 20:46 13.08.2019
3712 Clear 29 1018 19 10000 1.5 0 20:20 13.08.2019
3713 Clear 29 1018 19 10000 1.5 0 19:59 13.08.2019
3714 Clear 29 1018 19 10000 1.5 0 19:59 13.08.2019
3715 Clear 29 1019 19 10000 2.6 180 19:40 13.08.2019
3716 Clear 29 1018 19 10000 1.5 0 19:21 13.08.2019
3717 Clear 29 1019 17 10000 2.6 250 18:42 13.08.2019
3718 Clear 29 1019 19 10000 2.1 0 18:23 13.08.2019
3719 Clear 29 1019 20 10000 1 240 17:58 13.08.2019
3720 Clear 29 1019 20 10000 1 240 17:40 13.08.2019
3721 Clear 28 1020 20 10000 2.6 0 17:21 13.08.2019
3722 Clear 28 1020 20 10000 1.5 0 16:56 13.08.2019
3723 Clear 28 1020 20 10000 1.5 0 16:38 13.08.2019
3724 Clear 28 1020 20 10000 1.5 0 16:38 13.08.2019
3725 Clouds 28 1020 24 10000 2.1 0 16:19 13.08.2019
3726 Clouds 28 1020 24 10000 2.1 0 16:19 13.08.2019
3727 Clouds 28 1020 24 10000 1.5 0 15:39 13.08.2019
3728 Clouds 28 1020 24 10000 1.5 0 15:39 13.08.2019
3729 Clouds 27 1021 27 10000 2.1 0 15:20 13.08.2019
3730 Clouds 26 1021 31 10000 2.1 90 14:58 13.08.2019
3731 Clouds 26 1021 31 10000 2.1 90 14:38 13.08.2019
3732 Clouds 26 1021 34 10000 2.1 0 14:19 13.08.2019
3733 Clouds 25 1021 38 10000 1.5 80 13:42 13.08.2019
3734 Clouds 24 1022 38 10000 1.5 0 13:21 13.08.2019
3735 Clouds 24 1022 36 10000 2.1 0 12:59 13.08.2019
3736 Clouds 23 1022 36 10000 2.1 0 12:41 13.08.2019
3737 Clouds 22 1022 35 10000 2.6 20 12:22 13.08.2019
3738 Clouds 22 1022 37 10000 3.1 30 11:58 13.08.2019
3739 Clouds 21 1022 37 10000 3.1 30 11:38 13.08.2019
3740 Clouds 21 1022 40 10000 3.1 360 11:20 13.08.2019
3741 Clouds 20 1022 42 10000 3.6 10 10:56 13.08.2019
3742 Clouds 20 1022 42 10000 3.6 10 10:37 13.08.2019
3743 Clouds 18 1022 42 10000 2.6 10 10:18 13.08.2019
3744 Clouds 18 1022 45 10000 2.1 10 09:43 13.08.2019
3745 Clouds 16 1021 51 10000 2.6 10 09:23 13.08.2019
3746 Clouds 15 1021 51 10000 3.1 10 08:44 13.08.2019
3747 Clouds 15 1021 51 10000 2.6 20 08:23 13.08.2019
3748 Clouds 15 1021 51 10000 2.6 20 08:23 13.08.2019
3749 Clear 15 1021 51 10000 2.6 10 07:58 13.08.2019
3750 Clear 15 1021 51 10000 2.6 10 07:37 13.08.2019
3751 Clouds 15 1021 51 10000 2.1 360 07:00 13.08.2019
3752 Clear 15 1021 51 10000 3.6 360 06:40 13.08.2019
3753 Clear 16 1021 48 10000 3.6 360 05:37 13.08.2019
3754 Clear 17 1021 45 10000 5.1 40 03:36 13.08.2019
3755 Clear 18 1021 42 10000 3.6 50 02:20 13.08.2019
3756 Clear 20 1021 35 10000 4.1 40 01:19 13.08.2019
3757 Clear 20 1020 30 10000 4.6 30 00:47 13.08.2019
3758 Clear 21 1019 23 10000 5.1 360 23:58 12.08.2019
3759 Clear 22 1019 23 10000 5.1 360 23:40 12.08.2019
3760 Clear 22 1019 22 10000 5.7 360 23:19 12.08.2019
3761 Clear 24 1019 23 10000 3.6 10 22:40 12.08.2019
3762 Clear 24 1019 20 10000 2.1 360 22:20 12.08.2019
3763 Clear 25 1019 19 10000 2.6 360 21:56 12.08.2019
3764 Clear 25 1019 19 10000 2.6 360 21:38 12.08.2019
3765 Clear 25 1018 16 10000 1.5 40 21:19 12.08.2019
3766 Clear 26 1018 18 10000 2.1 350 20:57 12.08.2019
3767 Clear 26 1018 18 10000 2.1 350 20:38 12.08.2019
3768 Clear 26 1018 16 10000 2.1 0 20:20 12.08.2019
3769 -273 0 0 0 0 0 19:56 12.08.2019
3770 Clear 27 1018 16 10000 1.5 40 19:56 12.08.2019
3771 Clear 27 1018 16 10000 1.5 40 19:37 12.08.2019
3772 Clear 27 1018 16 10000 2.1 0 19:19 12.08.2019
3773 Clear 27 1018 18 10000 2.6 60 18:55 12.08.2019
3774 Clear 27 1018 18 10000 2.6 60 18:37 12.08.2019
3775 Clear 27 1018 18 10000 2.6 60 18:37 12.08.2019
3776 Clear 27 1019 16 10000 4.6 60 18:19 12.08.2019
3777 Clear 27 1019 17 10000 2.1 50 17:46 12.08.2019
3778 Clear 26 1019 15 10000 1.5 0 17:28 12.08.2019
3779 Clear 27 1019 14 10000 3.1 0 16:57 12.08.2019
3780 Clear 27 1019 14 10000 3.1 0 16:39 12.08.2019
3781 Clear 26 1019 18 10000 5.1 360 16:20 12.08.2019
3782 Clear 26 1019 18 10000 5.1 360 16:20 12.08.2019
3783 Clear 26 1019 18 10000 2.1 60 15:58 12.08.2019
3784 Clear 26 1019 18 10000 2.1 60 15:39 12.08.2019
3785 Clear 25 1020 20 10000 2.6 0 15:21 12.08.2019
3786 Clear 25 1020 20 10000 2.6 0 14:55 12.08.2019
3787 Clear 25 1020 20 10000 2.6 0 14:37 12.08.2019
3788 Clear 25 1020 20 10000 2.1 0 14:18 12.08.2019
3789 Clear 24 1021 20 10000 3.1 0 13:42 12.08.2019
3790 Clear 23 1021 27 10000 2.1 0 13:23 12.08.2019
3791 Clear 23 1021 28 10000 1.5 0 12:44 12.08.2019
3792 Clear 22 1021 30 10000 2.6 40 12:23 12.08.2019
3793 Clear 22 1021 30 10000 2.6 40 11:58 12.08.2019
3794 Clear 22 1021 35 10000 2.1 280 11:40 12.08.2019
3795 Clear 22 1021 35 10000 2.1 280 11:40 12.08.2019
3796 Clear 21 1021 40 10000 2.1 0 11:21 12.08.2019
3797 -273 0 0 0 0 0 10:42 12.08.2019
3798 Clear 19 1020 42 10000 1 0 10:23 12.08.2019
3799 Clear 19 1020 42 10000 1 0 09:56 12.08.2019
3800 Clear 18 1020 45 10000 1.5 210 09:38 12.08.2019
3801 Clear 17 1019 45 10000 1 0 09:19 12.08.2019
3802 Clear 17 1019 54 10000 1 260 08:55 12.08.2019
3803 Clear 16 1019 54 10000 1 260 08:37 12.08.2019
3804 Clear 16 1019 51 10000 1.5 0 08:19 12.08.2019
3805 Clear 16 1019 54 10000 1.5 300 07:42 12.08.2019
3806 Clear 15 1018 47 10000 0.5 0 07:20 12.08.2019
3807 Clear 15 1018 44 10000 2.29 321.446 06:44 12.08.2019
3808 Clear 17 1018 41 10000 0.5 0 05:37 12.08.2019
3809 Clear 19 1018 32 10000 1.5 120 02:44 12.08.2019
3810 Clear 21 1018 32 10000 1 10 01:53 12.08.2019
3811 Clear 21 1018 30 10000 1 0 01:20 12.08.2019
3812 Clear 22 1017 27 10000 2.1 0 00:57 12.08.2019
3813 Clear 22 1017 27 10000 2.1 0 00:38 12.08.2019
3814 Clear 23 1017 27 10000 3.1 310 00:19 12.08.2019
3815 Clouds 23 1017 27 10000 4.1 330 23:42 11.08.2019
3816 Clear 24 1017 25 10000 4.1 290 23:20 11.08.2019
3817 Clear 24 1017 28 10000 4.6 310 22:58 11.08.2019
3818 Clear 24 1017 28 10000 4.6 310 22:39 11.08.2019
3819 Clear 25 1017 27 10000 4.6 300 22:19 11.08.2019
3820 Clear 25 1016 27 10000 5.1 320 21:58 11.08.2019
3821 Clear 25 1016 27 10000 5.1 320 21:39 11.08.2019
3822 Clear 25 1016 27 10000 4.6 260 21:20 11.08.2019
3823 Clear 26 1016 28 10000 6.2 240 20:56 11.08.2019
3824 Clear 26 1016 28 10000 6.2 240 20:38 11.08.2019
3825 Clear 27 1016 28 10000 6.7 220 20:19 11.08.2019
3826 Clear 28 1016 24 10000 6.7 230 19:42 11.08.2019
3827 Clear 28 1016 16 10000 7.2 220 19:18 11.08.2019
3828 Clear 28 1016 20 10000 7.2 220 18:41 11.08.2019
3829 Clear 29 1016 26 10000 7.2 220 18:22 11.08.2019
3830 Clear 28 1016 20 10000 6.7 220 17:58 11.08.2019
3831 Clear 29 1016 20 10000 6.7 220 17:40 11.08.2019
3832 Clear 29 1016 16 10000 8.2 230 17:20 11.08.2019
3833 Clear 29 1016 16 10000 7.2 220 16:56 11.08.2019
3834 Clear 29 1016 16 10000 7.2 220 16:38 11.08.2019
3835 Clear 28 1017 17 10000 7.2 230 16:18 11.08.2019
3836 Clear 28 1017 24 10000 6.2 230 15:43 11.08.2019
3837 Clear 28 1017 26 10000 6.7 210 15:24 11.08.2019
3838 Clear 28 1017 27 10000 7.2 230 14:59 11.08.2019
3839 Clear 28 1017 27 10000 7.2 230 14:39 11.08.2019
3840 Clear 27 1017 26 10000 6.2 220 14:20 11.08.2019
3841 Clear 28 1018 31 10000 4.6 190 13:44 11.08.2019
3842 Clear 27 1018 30 10000 4.6 210 13:25 11.08.2019
3843 Clear 27 1018 34 10000 4.6 200 12:56 11.08.2019
3844 Clear 26 1018 34 10000 4.6 200 12:36 11.08.2019
3845 Clear 26 1018 33 10000 4.1 220 12:18 11.08.2019
3846 Clear 25 1018 33 10000 4.1 250 11:39 11.08.2019
3847 Clear 24 1018 33 10000 4.1 240 11:20 11.08.2019
3848 Clear 24 1018 35 10000 2.6 240 10:55 11.08.2019
3849 Clear 24 1018 35 10000 2.6 240 10:37 11.08.2019
3850 Clear 23 1017 38 10000 2.6 250 10:18 11.08.2019
3851 Clear 22 1017 43 10000 2.6 250 09:40 11.08.2019
3852 Clear 21 1017 43 10000 1.5 240 09:22 11.08.2019
3853 Clear 20 1017 45 10000 1.5 240 08:49 11.08.2019
3854 Rain 20 1016 45 10000 1 0 08:29 11.08.2019
3855 Rain 20 1016 43 10000 2.6 300 07:57 11.08.2019
3856 Rain 20 1016 43 10000 2.6 300 07:30 11.08.2019
3857 Clouds 19 1016 39 10000 1.5 50 06:46 11.08.2019
3858 Clouds 19 1016 42 10000 1 360 06:26 11.08.2019
3859 Clear 20 1015 34 10000 3.87 294.789 04:38 11.08.2019
3860 Clear 22 1016 29 10000 1.5 60 02:50 11.08.2019
3861 Clear 23 1016 24 10000 2.6 200 01:53 11.08.2019
3862 Clear 23 1016 22 10000 2.1 250 01:28 11.08.2019
3863 Clear 24 1016 23 10000 2.6 270 00:54 11.08.2019
3864 Clear 24 1016 23 10000 2.6 270 00:34 11.08.2019
3865 Clear 26 1017 20 10000 3.6 270 23:49 10.08.2019
3866 Clear 26 1017 20 10000 3.6 270 23:29 10.08.2019
3867 Clear 26 1017 23 10000 3.6 250 22:48 10.08.2019
3868 Clear 28 1017 22 10000 4.1 250 22:27 10.08.2019
3869 Clear 28 1017 23 10000 4.1 250 21:59 10.08.2019
3870 Clear 28 1017 23 10000 4.1 250 21:40 10.08.2019
3871 Clear 29 1017 20 10000 5.1 250 21:21 10.08.2019
3872 Clear 29 1017 22 10000 5.1 250 20:57 10.08.2019
3873 Clear 29 1017 22 10000 5.1 250 20:39 10.08.2019
3874 Clear 30 1017 23 10000 4.6 250 20:19 10.08.2019
3875 Clear 30 1017 22 10000 4.1 230 19:43 10.08.2019
3876 Clear 31 1017 22 10000 3.1 260 19:24 10.08.2019
3877 Clear 30 1018 20 10000 4.1 240 18:42 10.08.2019
3878 Clear 30 1018 20 10000 5.1 240 18:24 10.08.2019
3879 Clear 30 1019 19 10000 5.7 210 17:56 10.08.2019
3880 Clear 30 1019 19 10000 5.7 210 17:38 10.08.2019
3881 Clear 30 1019 20 10000 4.6 200 17:19 10.08.2019
3882 Clear 30 1019 20 10000 4.6 180 16:42 10.08.2019
3883 Clear 30 1020 22 10000 4.6 190 16:22 10.08.2019
3884 Clear 29 1020 23 10000 4.1 230 15:45 10.08.2019
3885 Clear 29 1020 21 10000 4.1 220 15:22 10.08.2019
3886 Clear 28 1020 25 10000 3.6 0 14:44 10.08.2019
3887 Clear 28 1020 26 10000 2.6 240 14:19 10.08.2019
3888 Clear 27 1021 32 10000 2.6 0 13:41 10.08.2019
3889 Clear 26 1021 32 10000 1.5 0 13:20 10.08.2019
3890 Clear 26 1021 34 10000 2.1 240 12:54 10.08.2019
3891 Clear 26 1021 34 10000 2.1 240 12:36 10.08.2019
3892 Clear 25 1021 38 10000 1.5 0 12:18 10.08.2019
3893 Clear 24 1021 41 10000 1.5 280 11:41 10.08.2019
3894 Clear 24 1021 41 10000 1.5 280 11:41 10.08.2019
3895 Clear 23 1021 49 10000 1.5 290 11:22 10.08.2019
3896 Clear 22 1021 53 10000 1.5 250 10:55 10.08.2019
3897 Clear 22 1021 53 10000 1.5 250 10:37 10.08.2019
3898 Clear 22 1021 52 10000 3.1 260 10:18 10.08.2019
3899 Clear 21 1021 60 10000 1.5 200 09:41 10.08.2019
3900 Clear 21 1021 60 10000 1.5 200 09:41 10.08.2019
3901 Clear 20 1020 60 10000 1 0 09:23 10.08.2019
3902 Clear 19 1020 68 10000 1 250 08:42 10.08.2019
3903 Clear 18 1020 77 10000 2.1 250 08:20 10.08.2019
3904 Clear 18 1020 72 10000 2.6 260 07:54 10.08.2019
3905 Clouds 19 1019 56 10000 2.1 180 07:29 10.08.2019
3906 Clear 18 1019 60 10000 1.5 240 06:49 10.08.2019
3907 Clear 19 1019 56 10000 3.1 250 06:28 10.08.2019
3908 Clear 19 1018 68 10000 3.1 150 05:26 10.08.2019
3909 Clear 20 1018 73 10000 2.1 130 04:35 10.08.2019
3910 Clear 21 1018 64 10000 3.1 240 02:58 10.08.2019
3911 Clear 21 1018 64 10000 3.1 240 02:27 10.08.2019
3912 Clear 23 1018 61 10000 3.1 250 01:42 10.08.2019
3913 Clouds 23 1018 61 10000 4.1 260 01:22 10.08.2019
3914 Clouds 23 1018 61 10000 5.7 250 00:49 10.08.2019
3915 Clouds 24 1018 57 10000 4.1 260 00:25 10.08.2019
3916 Clouds 25 1018 54 10000 4.6 250 23:45 09.08.2019
3917 Clear 24 1018 54 10000 6.2 250 23:24 09.08.2019
3918 Clear 25 1018 54 10000 6.2 250 22:58 09.08.2019
3919 Clear 25 1018 60 10000 7.7 250 22:39 09.08.2019
3920 Clear 25 1018 61 10000 6.7 250 22:21 09.08.2019
3921 Clear 26 1018 61 10000 8.2 250 21:56 09.08.2019
3922 Clear 26 1018 61 10000 8.2 250 21:38 09.08.2019
3923 Clouds 28 1017 54 10000 9.8 250 21:20 09.08.2019
3924 Clouds 28 1017 48 10000 8.7 230 20:55 09.08.2019
3925 Clouds 28 1017 48 10000 8.7 230 20:37 09.08.2019
3926 Clouds 30 1017 42 10000 8.7 230 20:18 09.08.2019
3927 Clouds 30 1017 42 10000 9.8 220 19:41 09.08.2019
3928 Clouds 30 1016 40 10000 9.8 220 19:20 09.08.2019
3929 Clouds 30 1017 40 10000 9.3 230 18:42 09.08.2019
3930 Clouds 31 1017 38 10000 9.8 230 18:22 09.08.2019
3931 Clouds 30 1017 40 10000 9.3 220 17:59 09.08.2019
3932 Clouds 30 1017 40 10000 9.3 220 17:41 09.08.2019
3933 Clouds 31 1017 42 10000 9.8 230 17:22 09.08.2019
3934 Clouds 31 1017 42 10000 9.8 220 16:42 09.08.2019
3935 Clouds 31 1017 42 10000 9.8 220 16:42 09.08.2019
3936 Clouds 30 1017 42 10000 9.8 220 16:23 09.08.2019
3937 Clouds 30 1017 45 10000 8.7 210 15:58 09.08.2019
3938 Clouds 30 1017 45 10000 8.7 210 15:39 09.08.2019
3939 Clouds 30 1018 48 10000 8.7 210 15:20 09.08.2019
3940 Clouds 29 1018 48 10000 9.3 230 14:56 09.08.2019
3941 Clouds 30 1018 48 10000 9.3 230 14:56 09.08.2019
3942 Clouds 29 1018 48 10000 9.3 230 14:37 09.08.2019
3943 Clouds 29 1018 51 10000 8.7 220 14:19 09.08.2019
3944 Clouds 29 1018 48 10000 8.2 220 13:44 09.08.2019
3945 Clouds 28 1018 54 10000 7.2 230 13:20 09.08.2019
3946 Clouds 28 1018 54 10000 7.2 210 12:47 09.08.2019
3947 Clouds 26 1018 57 10000 7.7 210 12:25 09.08.2019
3948 Clouds 26 1018 57 10000 5.1 210 11:59 09.08.2019
3949 Clouds 26 1018 57 10000 5.1 210 11:38 09.08.2019
3950 Clouds 25 1018 61 10000 5.7 210 11:19 09.08.2019
3951 Clear 25 1017 64 10000 4.1 220 10:41 09.08.2019
3952 Clear 24 1017 69 10000 5.7 210 10:22 09.08.2019
3953 Clear 24 1017 69 10000 5.7 210 09:57 09.08.2019
3954 Clear 23 1017 69 10000 5.1 220 09:37 09.08.2019
3955 Clear 22 1017 68 10000 6.2 220 09:18 09.08.2019
3956 Clear 22 1016 68 10000 5.1 220 08:44 09.08.2019
3957 Clear 22 1016 68 10000 5.7 230 08:24 09.08.2019
3958 Clear 22 1016 68 10000 6.2 230 07:55 09.08.2019
3959 Clear 22 1015 53 10000 3.6 230 07:24 09.08.2019
3960 Clear 22 1015 53 10000 4.1 230 06:57 09.08.2019
3961 Clear 22 1015 53 10000 4.1 230 06:36 09.08.2019
3962 Clear 22 1015 53 10000 3.6 220 06:18 09.08.2019
3963 Clear 24 1015 47 10000 4.1 200 04:37 09.08.2019
3964 Clear 25 1015 37 10000 2.6 250 02:26 09.08.2019
3965 Clear 27 1015 35 10000 3.6 260 00:58 09.08.2019
3966 Clear 27 1015 33 10000 4.1 250 00:40 09.08.2019
3967 Clear 27 1014 31 10000 4.1 250 00:22 09.08.2019
3968 Clear 28 1014 31 10000 4.6 250 23:55 08.08.2019
3969 Clear 28 1014 31 10000 4.6 250 23:36 08.08.2019
3970 Clear 29 1014 31 10000 4.1 250 23:18 08.08.2019
3971 Clear 30 1015 35 10000 4.6 240 22:38 08.08.2019
3972 Clear 30 1014 35 10000 4.6 250 22:19 08.08.2019
3973 Clear 30 1014 35 10000 4.6 250 21:59 08.08.2019
3974 Clear 31 1014 33 10000 5.1 250 21:41 08.08.2019
3975 Clear 31 1014 29 10000 6.2 230 21:22 08.08.2019
3976 Clear 31 1014 29 10000 6.2 230 20:57 08.08.2019
3977 Clear 32 1014 29 10000 6.2 230 20:39 08.08.2019
3978 Clear 32 1014 27 10000 4.1 210 20:19 08.08.2019
3979 Clouds 33 1014 26 10000 6.2 210 19:45 08.08.2019
3980 Clouds 33 1014 26 10000 5.7 210 19:24 08.08.2019
3981 Clouds 33 1014 27 10000 6.2 210 18:45 08.08.2019
3982 Clouds 33 1014 26 10000 8.2 210 18:25 08.08.2019
3983 Clouds 33 1015 26 10000 7.2 230 17:59 08.08.2019
3984 Clouds 33 1015 26 10000 7.2 230 17:41 08.08.2019
3985 Clouds 32 1015 27 10000 7.2 220 17:22 08.08.2019
3986 Clouds 32 1015 29 10000 7.2 200 16:56 08.08.2019
3987 Clouds 32 1015 29 10000 7.2 200 16:37 08.08.2019
3988 Clouds 32 1016 29 10000 6.2 220 16:19 08.08.2019
3989 Clouds 31 1016 35 10000 6.7 210 15:56 08.08.2019
3990 Clouds 31 1016 35 10000 6.7 210 15:36 08.08.2019
3991 Clear 30 1016 35 10000 4.6 220 15:18 08.08.2019
3992 Clear 30 1016 37 10000 4.6 200 14:37 08.08.2019
3993 Clear 29 1017 37 10000 4.1 200 14:18 08.08.2019
3994 Clear 29 1017 42 10000 4.6 210 13:41 08.08.2019
3995 Clear 28 1017 42 10000 4.1 210 13:23 08.08.2019
3996 Clear 27 1017 44 10000 2.6 210 12:57 08.08.2019
3997 Clear 27 1017 44 10000 2.6 210 12:37 08.08.2019
3998 Clear 27 1017 44 10000 2.6 210 12:37 08.08.2019
3999 Clear 26 1017 47 10000 3.1 190 12:18 08.08.2019
4000 Clear 26 1017 47 10000 3.1 250 11:41 08.08.2019
4001 Clear 24 1017 47 10000 1 200 11:23 08.08.2019
4002 Clear 24 1017 50 10000 1 0 10:41 08.08.2019
4003 -273 0 0 0 0 0 10:22 08.08.2019
4004 Clear 22 1017 60 10000 1 0 09:54 08.08.2019
4005 Clear 22 1017 60 10000 1 0 09:33 08.08.2019
4006 Clear 20 1017 64 10000 1 0 09:00 08.08.2019
4007 Clear 19 1017 64 10000 1 0 08:40 08.08.2019
4008 Clear 19 1017 68 10000 1.5 170 08:20 08.08.2019
4009 Clear 18 1016 72 10000 1.2 194.476 07:42 08.08.2019
4010 Clear 19 1016 64 10000 0.5 360 07:20 08.08.2019
4011 Clear 19 1015 64 10000 1.5 140 06:56 08.08.2019
4012 Clear 19 1015 64 10000 1.5 140 06:38 08.08.2019
4013 Clear 20 1016 56 10000 2.6 230 05:54 08.08.2019
4014 Clear 20 1016 53 10000 2.6 250 05:20 08.08.2019
4015 Clear 21 1016 50 10000 5.1 240 03:54 08.08.2019
4016 Clear 21 1016 47 10000 4.6 230 02:58 08.08.2019
4017 Clear 22 1016 47 10000 4.6 230 01:38 08.08.2019
4018 Clear 22 1016 44 10000 5.1 230 00:45 08.08.2019
4019 Clear 22 1016 44 10000 4.6 230 00:18 08.08.2019
4020 Clear 23 1015 44 10000 4.1 210 23:22 07.08.2019
4021 Clear 24 1016 47 10000 3.6 220 22:59 07.08.2019
4022 Clear 24 1016 47 10000 3.6 220 22:41 07.08.2019
4023 Clear 25 1016 47 10000 5.1 220 22:20 07.08.2019
4024 Clear 25 1015 44 10000 4.6 210 21:56 07.08.2019
4025 Clear 25 1015 44 10000 4.6 210 21:38 07.08.2019
4026 Clear 25 1015 41 10000 5.1 240 21:19 07.08.2019
4027 Clear 26 1015 41 10000 6.7 230 20:56 07.08.2019
4028 Clear 26 1015 41 10000 6.7 230 20:37 07.08.2019
4029 Clear 26 1015 41 10000 6.7 240 20:19 07.08.2019
4030 Clear 26 1016 39 10000 6.2 230 19:40 07.08.2019
4031 Clear 27 1016 39 10000 6.2 250 19:22 07.08.2019
4032 Clear 27 1016 39 10000 5.1 220 18:59 07.08.2019
4033 Clear 27 1016 39 10000 5.1 220 18:39 07.08.2019
4034 Clouds 27 1016 42 10000 4.6 210 18:19 07.08.2019
4035 Clouds 27 1016 39 10000 3.1 210 17:54 07.08.2019
4036 Clouds 27 1016 39 10000 3.1 210 17:36 07.08.2019
4037 Clear 27 1016 44 10000 3.6 230 17:18 07.08.2019
4038 Clear 27 1016 44 10000 3.6 230 17:18 07.08.2019
4039 Clouds 27 1016 47 10000 3.1 260 16:55 07.08.2019
4040 Clouds 27 1016 47 10000 3.1 260 16:37 07.08.2019
4041 Rain 27 1016 53 10000 6.2 250 16:18 07.08.2019
4042 Clouds 27 1016 47 10000 6.2 240 15:42 07.08.2019
4043 Clear 26 1016 44 10000 6.2 230 15:20 07.08.2019
4044 Clear 27 1016 44 10000 5.1 230 14:49 07.08.2019
4045 Clear 26 1016 44 10000 5.7 230 14:30 07.08.2019
4046 Clear 26 1015 44 10000 5.1 220 13:58 07.08.2019
4047 Clear 27 1015 44 10000 5.1 220 13:39 07.08.2019
4048 Clear 27 1015 44 10000 3.6 220 13:19 07.08.2019
4049 Clear 26 1015 44 10000 3.6 230 12:57 07.08.2019
4050 Clear 26 1015 44 10000 3.6 230 12:38 07.08.2019
4051 Clear 26 1015 47 10000 4.1 230 12:19 07.08.2019
4052 Clear 25 1015 47 10000 4.6 220 11:55 07.08.2019
4053 Clear 25 1015 47 10000 4.6 220 11:37 07.08.2019
4054 Clear 25 1014 50 10000 3.6 240 11:18 07.08.2019
4055 Clear 25 1014 50 10000 3.6 250 10:40 07.08.2019
4056 Clear 25 1014 50 10000 4.1 220 10:19 07.08.2019
4057 Clear 24 1013 50 10000 3.1 230 09:48 07.08.2019
4058 Clouds 24 1015 40 10000 1.5 280 09:24 07.08.2019
4059 Clear 24 1013 49 10000 4.1 220 08:59 07.08.2019
4060 Clear 23 1013 49 10000 4.1 220 08:41 07.08.2019
4061 Clear 23 1013 49 10000 3.1 240 08:23 07.08.2019
4062 Clear 23 1013 49 10000 3.6 240 07:50 07.08.2019
4063 Clear 23 1012 36 10000 3.6 220 07:29 07.08.2019
4064 Clear 23 1011 36 10000 2.1 170 06:43 07.08.2019
4065 Clear 24 1012 34 10000 3.6 260 06:21 07.08.2019
4066 Clear 24 1012 32 10000 3.6 260 05:41 07.08.2019
4067 Clear 25 1012 28 10000 3.6 240 04:29 07.08.2019
4068 Clear 26 1012 26 10000 3.1 240 02:54 07.08.2019
4069 Clear 26 1012 26 10000 3.1 240 02:36 07.08.2019
4070 Clear 27 1012 22 10000 3.1 250 01:50 07.08.2019
4071 Clear 28 1012 20 10000 5.7 240 00:54 07.08.2019
4072 Clear 28 1012 22 10000 6.7 240 00:24 07.08.2019
4073 Clear 29 1013 28 10000 5.7 240 23:57 06.08.2019
4074 Clear 30 1013 28 10000 5.7 240 23:36 06.08.2019
4075 Clear 30 1013 26 10000 6.2 240 23:18 06.08.2019
4076 Clear 31 1012 25 10000 5.7 240 22:40 06.08.2019
4077 Clear 31 1012 22 10000 6.2 230 22:21 06.08.2019
4078 Clear 31 1012 23 10000 5.7 230 21:57 06.08.2019
4079 Clear 31 1012 23 10000 5.7 230 21:38 06.08.2019
4080 Clear 32 1012 19 10000 7.2 240 21:19 06.08.2019
4081 Clear 32 1012 18 10000 6.2 220 20:43 06.08.2019
4082 Clear 33 1012 16 10000 5.7 220 20:24 06.08.2019
4083 Clear 33 1012 15 10000 5.7 200 19:49 06.08.2019
4084 Clear 33 1012 15 10000 5.7 200 19:29 06.08.2019
4085 Clear 34 1012 14 10000 6.7 220 18:57 06.08.2019
4086 Clear 34 1012 14 10000 6.2 220 18:57 06.08.2019
4087 Clear 34 1012 14 10000 6.2 220 18:38 06.08.2019
4088 Clear 34 1013 13 10000 5.7 210 18:20 06.08.2019
4089 Clear 34 1013 13 10000 5.7 210 17:57 06.08.2019
4090 Clear 34 1013 14 10000 7.7 230 17:37 06.08.2019
4091 Clear 34 1013 11 10000 7.2 220 17:19 06.08.2019
4092 Clear 34 1014 12 10000 6.2 220 16:43 06.08.2019
4093 Clear 34 1014 12 10000 6.2 220 16:25 06.08.2019
4094 Clear 34 1014 12 10000 6.2 220 16:25 06.08.2019
4095 Clear 34 1014 12 10000 5.7 220 15:58 06.08.2019
4096 Clear 34 1014 12 10000 5.7 220 15:40 06.08.2019
4097 Clear 33 1015 16 10000 4.1 220 15:21 06.08.2019
4098 Clear 32 1015 15 10000 5.1 220 14:54 06.08.2019
4099 Clear 32 1015 15 10000 5.1 220 14:36 06.08.2019
4100 Clear 32 1015 17 10000 4.6 210 14:18 06.08.2019
4101 Clear 32 1015 19 10000 4.6 210 13:45 06.08.2019
4102 Clear 31 1016 20 10000 4.1 220 13:26 06.08.2019
4103 Clear 31 1016 22 10000 3.6 210 12:59 06.08.2019
4104 Clear 31 1016 22 10000 3.6 210 12:39 06.08.2019
4105 Clear 30 1016 23 10000 4.1 210 12:21 06.08.2019
4106 Clear 30 1016 23 10000 4.1 210 12:21 06.08.2019
4107 Clear 29 1016 23 10000 2.6 190 11:45 06.08.2019
4108 Clear 27 1016 24 10000 2.1 160 11:20 06.08.2019
4109 Clear 27 1016 24 10000 0.5 0 10:56 06.08.2019
4110 Clear 27 1016 24 10000 0.5 0 10:38 06.08.2019
4111 Clear 25 1016 26 10000 0.5 0 10:20 06.08.2019
4112 Clear 24 1016 24 10000 2.89 201.514 09:41 06.08.2019
4113 -273 0 0 0 0 0 09:21 06.08.2019
4114 Clear 22 1016 31 10000 1 0 09:21 06.08.2019
4115 Clear 22 1015 29 10000 1 0 08:49 06.08.2019
4116 Clear 20 1015 30 10000 0.5 250 08:28 06.08.2019
4117 Clear 20 1015 30 10000 0.5 250 07:59 06.08.2019
4118 Clear 20 1014 34 10000 0.5 0 07:29 06.08.2019
4119 Clear 20 1014 32 10000 1 90 06:44 06.08.2019
4120 Clear 20 1014 34 10000 0.5 0 06:22 06.08.2019
4121 Clear 22 1014 32 10000 2.6 20 05:23 06.08.2019
4122 Clear 24 1014 23 10000 1 0 02:48 06.08.2019
4123 Clear 27 1013 16 10000 3.6 240 01:25 06.08.2019
4124 Clear 27 1014 15 10000 3.6 250 00:51 06.08.2019
4125 Clear 28 1015 20 10000 4.1 250 23:59 05.08.2019
4126 Clear 29 1014 23 10000 4.1 250 23:20 05.08.2019
4127 Clear 31 1014 21 10000 3.6 260 22:42 05.08.2019
4128 Clear 32 1014 15 10000 4.6 250 22:23 05.08.2019
4129 Clear 33 1013 15 10000 5.1 250 21:58 05.08.2019
4130 Clear 33 1013 15 10000 5.1 250 21:40 05.08.2019
4131 Clear 33 1013 15 10000 4.6 240 21:20 05.08.2019
4132 Clear 34 1013 15 10000 4.6 240 20:57 05.08.2019
4133 Clear 34 1013 15 10000 4.6 240 20:38 05.08.2019
4134 Clear 34 1013 14 10000 2.6 0 20:20 05.08.2019
4135 Clear 34 1012 13 10000 2.1 270 19:43 05.08.2019
4136 Clear 35 1012 13 10000 2.1 270 19:25 05.08.2019
4137 Clear 35 1014 15 10000 5.1 230 18:59 05.08.2019
4138 Clear 35 1014 14 10000 4.1 230 18:40 05.08.2019
4139 Clear 35 1014 16 10000 4.1 230 18:19 05.08.2019
4140 Clear 35 1014 16 10000 4.1 230 18:19 05.08.2019
4141 Clear 35 1014 15 10000 4.6 220 17:46 05.08.2019
4142 Clear 35 1015 14 10000 5.1 240 17:27 05.08.2019
4143 Clear 35 1014 11 10000 4.6 250 16:47 05.08.2019
4144 Clear 34 1015 14 10000 6.2 200 16:27 05.08.2019
4145 Clear 34 1016 17 10000 6.2 230 15:58 05.08.2019
4146 Clear 34 1016 17 10000 6.2 230 15:40 05.08.2019
4147 Clear 33 1016 15 10000 4.6 220 15:20 05.08.2019
4148 Clear 33 1016 18 10000 6.7 210 14:39 05.08.2019
4149 Clear 33 1016 17 10000 3.6 190 14:21 05.08.2019
4150 Clear 32 1017 19 10000 3.6 190 13:48 05.08.2019
4151 Clear 32 1017 22 10000 2.6 0 13:23 05.08.2019
4152 Clear 31 1017 23 10000 2.1 0 12:50 05.08.2019
4153 -273 0 0 0 0 0 12:22 05.08.2019
4154 Clear 29 1017 25 10000 2.06 144.479 11:55 05.08.2019
4155 Clear 29 1017 25 10000 2.06 144.479 11:37 05.08.2019
4156 Clear 28 1017 28 10000 2.06 144.479 11:18 05.08.2019
4157 Clear 27 1017 32 10000 2.06 144.479 10:43 05.08.2019
4158 Clear 25 1017 28 10000 2.06 144.479 10:25 05.08.2019
4159 Clear 25 1017 28 10000 2.06 144.479 09:54 05.08.2019
4160 Clear 24 1017 34 10000 2.06 144.479 09:36 05.08.2019
4161 Clear 23 1017 38 10000 1 0 09:18 05.08.2019
4162 Clear 22 1017 40 10000 0.31 226.422 08:41 05.08.2019
4163 Clear 21 1017 43 10000 0.31 226.422 08:20 05.08.2019
4164 Clear 20 1016 42 10000 2.1 260 07:45 05.08.2019
4165 Clear 20 1016 34 10000 1.5 360 07:27 05.08.2019
4166 Clear 20 1015 34 10000 1 330 06:41 05.08.2019
4167 Clear 21 1015 32 10000 1 320 05:53 05.08.2019
4168 Clear 22 1015 35 10000 2.1 10 05:22 05.08.2019
4169 Clear 22 1015 30 10000 2.03 332.324 04:32 05.08.2019
4170 Clear 23 1015 28 10000 1.5 360 03:42 05.08.2019
4171 Clear 25 1015 29 10000 1 0 02:37 05.08.2019
4172 Clear 26 1015 26 10000 1.5 90 01:36 05.08.2019
4173 Clear 27 1015 22 10000 4.1 240 00:54 05.08.2019
4174 Clear 27 1015 22 10000 4.1 240 00:36 05.08.2019
4175 Clear 28 1015 21 10000 4.1 240 00:18 05.08.2019
4176 Clear 29 1015 19 10000 3.6 240 23:41 04.08.2019
4177 Clear 30 1015 17 10000 3.1 240 23:20 04.08.2019
4178 Clear 31 1015 17 10000 3.1 240 22:56 04.08.2019
4179 Clear 31 1015 22 10000 4.1 220 22:37 04.08.2019
4180 Clear 32 1015 20 10000 4.1 220 22:19 04.08.2019
4181 Clear 32 1015 18 10000 3.6 210 21:44 04.08.2019
4182 Clear 32 1014 15 10000 4.1 230 21:22 04.08.2019
4183 Clear 33 1014 14 10000 4.6 230 20:55 04.08.2019
4184 Clear 34 1014 14 10000 4.6 230 20:37 04.08.2019
4185 Clear 34 1014 13 10000 5.1 220 20:18 04.08.2019
4186 Clear 34 1014 15 10000 5.1 210 19:42 04.08.2019
4187 Clear 34 1014 13 10000 4.6 220 19:24 04.08.2019
4188 Clear 34 1015 13 10000 4.1 220 18:42 04.08.2019
4189 Clear 35 1015 14 10000 5.7 220 18:21 04.08.2019
4190 Clear 34 1015 15 10000 6.2 230 17:54 04.08.2019
4191 Clear 34 1015 15 10000 6.2 230 17:36 04.08.2019
4192 Clear 35 1015 17 10000 6.7 230 17:18 04.08.2019
4193 Clear 34 1015 15 10000 3.6 200 16:41 04.08.2019
4194 Clear 34 1015 15 10000 3.6 200 16:41 04.08.2019
4195 Clear 34 1016 14 10000 5.7 220 16:22 04.08.2019
4196 Clear 34 1015 13 10000 7.7 220 15:45 04.08.2019
4197 Clear 34 1016 14 10000 6.2 210 15:23 04.08.2019
4198 Clear 33 1016 17 10000 3.1 240 14:46 04.08.2019
4199 Clear 33 1017 16 10000 4.6 210 14:27 04.08.2019
4200 Clear 33 1017 19 10000 4.6 230 13:59 04.08.2019
4201 Clear 32 1017 19 10000 4.6 230 13:41 04.08.2019
4202 Clear 32 1017 21 10000 5.1 220 13:22 04.08.2019
4203 Clear 31 1017 25 10000 4.1 230 12:44 04.08.2019
4204 Clear 29 1017 25 10000 3.1 230 12:25 04.08.2019
4205 Clear 29 1017 25 10000 3.1 230 11:57 04.08.2019
4206 Clear 29 1017 25 10000 2.6 0 11:37 04.08.2019
4207 Clear 28 1017 26 10000 2.1 260 11:19 04.08.2019
4208 Clear 27 1017 30 10000 2.1 260 10:41 04.08.2019
4209 Clear 25 1017 30 10000 2.05 171.428 10:20 04.08.2019
4210 Clear 24 1016 31 10000 0.5 0 09:45 04.08.2019
4211 Clear 23 1016 36 10000 0.5 0 09:22 04.08.2019
4212 Clear 22 1016 38 10000 1 0 08:47 04.08.2019
4213 Clear 22 1016 38 10000 1 0 08:26 04.08.2019
4214 Clear 21 1016 40 10000 1 230 07:52 04.08.2019
4215 Clear 20 1015 34 10000 1.5 10 06:57 04.08.2019
4216 Clear 21 1015 32 10000 1 360 06:28 04.08.2019
4217 Clear 22 1014 25 10000 1 350 04:26 04.08.2019
4218 Clear 25 1014 25 10000 0.5 0 02:43 04.08.2019
4219 Clear 26 1014 21 10000 0.5 70 01:39 04.08.2019
4220 Clear 27 1014 19 10000 3.1 230 01:18 04.08.2019
4221 Clear 27 1014 16 10000 4.1 250 00:41 04.08.2019
4222 Clear 27 1014 18 10000 2.6 260 00:19 04.08.2019
4223 Clear 28 1014 15 10000 2.6 260 23:41 03.08.2019
4224 Clear 29 1013 13 10000 3.1 250 23:18 03.08.2019
4225 Clear 30 1014 17 10000 3.6 250 22:45 03.08.2019
4226 Clear 32 1014 14 10000 4.1 240 22:22 03.08.2019
4227 Clear 32 1014 14 10000 4.1 240 21:59 03.08.2019
4228 Clear 32 1013 14 10000 4.1 250 21:37 03.08.2019
4229 Clear 33 1013 12 10000 4.1 250 21:19 03.08.2019
4230 Clear 34 1013 11 10000 5.1 230 20:42 03.08.2019
4231 Clear 34 1013 11 10000 6.2 220 20:22 03.08.2019
4232 Clear 35 1014 12 10000 4.1 210 19:42 03.08.2019
4233 Clear 35 1014 12 10000 4.1 230 19:24 03.08.2019
4234 Clear 35 1014 12 10000 4.1 230 19:24 03.08.2019
4235 Clear 35 1014 11 10000 5.7 220 18:56 03.08.2019
4236 Clear 35 1014 9 10000 5.1 190 18:27 03.08.2019
4237 Clear 35 1015 10 10000 3.6 190 17:50 03.08.2019
4238 Clear 35 1015 11 10000 4.6 200 17:22 03.08.2019
4239 Clear 35 1015 9 10000 6.7 220 16:57 03.08.2019
4240 Clear 35 1015 9 10000 6.7 220 16:37 03.08.2019
4241 Clear 34 1015 12 10000 3.6 220 16:19 03.08.2019
4242 Clear 34 1016 11 10000 3.6 210 15:43 03.08.2019
4243 Clear 34 1016 15 10000 3.6 180 15:23 03.08.2019
4244 Clear 33 1016 17 10000 2.6 0 14:42 03.08.2019
4245 Clear 33 1017 25 10000 1.5 210 14:21 03.08.2019
4246 Clear 32 1017 25 10000 2.1 0 13:52 03.08.2019
4247 Clear 30 1017 28 10000 2.1 0 13:25 03.08.2019
4248 Clear 30 1017 28 10000 2.1 0 12:58 03.08.2019
4249 Clear 29 1017 30 10000 1 110 12:39 03.08.2019
4250 Clear 28 1017 39 10000 2.1 100 12:21 03.08.2019
4251 Clear 28 1017 42 10000 1.5 0 11:49 03.08.2019
4252 Clear 27 1017 42 10000 2.1 0 11:27 03.08.2019
4253 Clear 26 1017 41 10000 1.5 50 10:42 03.08.2019
4254 Clear 25 1017 44 10000 2.1 70 10:24 03.08.2019
4255 Clear 25 1017 50 10000 2.6 80 09:44 03.08.2019
4256 Clear 24 1017 47 10000 1 0 09:23 03.08.2019
4257 Clear 23 1017 46 10000 2.84 66.374 08:54 03.08.2019
4258 Clear 21 1016 46 10000 1.5 10 07:56 03.08.2019
4259 Clear 20 1016 46 10000 1.5 10 07:36 03.08.2019
4260 Clear 21 1015 43 10000 1.5 330 06:39 03.08.2019
4261 Clouds 23 1015 37 10000 1 0 04:56 03.08.2019
4262 Clear 24 1015 25 10000 2.1 310 02:40 03.08.2019
4263 Clear 25 1015 22 10000 1.42 72.346 01:50 03.08.2019
4264 Clear 27 1015 17 10000 0.5 0 00:51 03.08.2019
4265 Clear 27 1015 17 10000 0.5 0 00:28 03.08.2019
4266 Clear 28 1014 13 10000 2.1 260 23:41 02.08.2019
4267 Clear 29 1014 13 10000 2.1 240 23:19 02.08.2019
4268 Clear 29 1015 15 10000 1.5 240 22:57 02.08.2019
4269 Clear 30 1015 15 10000 1.5 240 22:39 02.08.2019
4270 Clear 31 1015 14 10000 2.6 220 22:20 02.08.2019
4271 Clear 33 1015 14 10000 2.6 210 21:55 02.08.2019
4272 Clear 32 1015 14 10000 2.6 210 21:36 02.08.2019
4273 Clear 33 1015 10 10000 2.6 180 21:18 02.08.2019
4274 Clear 34 1015 9 10000 2.6 180 20:41 02.08.2019
4275 Clear 34 1015 11 10000 3.6 220 20:21 02.08.2019
4276 Clear 34 1015 11 10000 2.6 250 19:49 02.08.2019
4277 Clear 34 1015 13 10000 4.1 190 19:28 02.08.2019
4278 Clear 35 1015 12 10000 3.1 200 18:45 02.08.2019
4279 Clear 35 1015 13 10000 3.6 210 18:27 02.08.2019
4280 Clear 34 1016 16 10000 2.6 0 17:48 02.08.2019
4281 Clouds 34 1017 15 10000 2.1 0 17:26 02.08.2019
4282 Clear 34 1016 14 10000 3.1 0 16:59 02.08.2019
4283 Clear 34 1016 14 10000 3.1 0 16:39 02.08.2019
4284 Clear 34 1016 17 10000 3.6 190 16:19 02.08.2019
4285 Clear 34 1016 19 10000 3.1 0 15:44 02.08.2019
4286 Clear 33 1017 21 10000 2.6 280 15:20 02.08.2019
4287 Clear 32 1017 20 10000 1.5 0 14:47 02.08.2019
4288 Clear 32 1017 24 10000 2.6 0 14:19 02.08.2019
4289 Clear 32 1017 27 10000 1.5 130 13:50 02.08.2019
4290 Clear 32 1017 27 10000 1.5 130 13:29 02.08.2019
4291 Clear 30 1017 35 10000 2.1 0 12:47 02.08.2019
4292 Clear 29 1017 39 10000 2.6 90 12:25 02.08.2019
4293 Clear 28 1017 42 10000 1.5 0 11:59 02.08.2019
4294 Clear 28 1017 42 10000 1.5 0 11:40 02.08.2019
4295 Clear 27 1017 44 10000 2.1 60 11:22 02.08.2019
4296 Clear 26 1017 47 10000 2.6 70 10:44 02.08.2019
4297 Clear 25 1017 50 10000 2.1 40 10:24 02.08.2019
4298 Clear 24 1017 50 10000 1.5 50 09:53 02.08.2019
4299 Clear 24 1017 47 10000 1 0 09:29 02.08.2019
4300 Clear 22 1016 49 10000 2.1 360 08:54 02.08.2019
4301 Clear 21 1016 52 10000 1.5 360 08:25 02.08.2019
4302 Clear 21 1016 53 10000 1.5 340 07:54 02.08.2019
4303 Clear 20 1016 53 10000 1.5 340 07:35 02.08.2019
4304 Clear 21 1015 46 10000 2.6 330 06:58 02.08.2019
4305 Clear 21 1015 46 10000 1.5 340 06:27 02.08.2019
4306 Clear 21 1015 40 10000 1.5 340 05:41 02.08.2019
4307 Clear 23 1015 41 10000 2.1 340 03:32 02.08.2019
4308 Clear 24 1015 27 10000 1 0 02:37 02.08.2019
4309 Clear 25 1015 24 10000 1 0 01:30 02.08.2019
4310 Clear 27 1014 21 10000 3.1 350 00:31 02.08.2019
4311 Clear 28 1014 19 10000 4.6 220 23:44 01.08.2019
4312 Clear 29 1014 20 10000 4.6 260 23:24 01.08.2019
4313 Clear 30 1014 18 10000 4.1 230 22:42 01.08.2019
4314 Clear 30 1014 18 10000 5.7 220 22:22 01.08.2019
4315 Clear 31 1013 18 10000 6.2 220 21:55 01.08.2019
4316 Clear 31 1013 18 10000 6.2 220 21:37 01.08.2019
4317 Clear 31 1013 14 10000 5.7 220 21:19 01.08.2019
4318 Clear 32 1013 15 10000 5.1 220 20:44 01.08.2019
4319 Clear 33 1013 15 10000 4.6 200 20:23 01.08.2019
4320 Clear 33 1013 12 10000 4.6 210 19:45 01.08.2019
4321 Clear 33 1013 14 10000 6.2 230 19:23 01.08.2019
4322 Clear 33 1013 14 10000 6.2 230 18:58 01.08.2019
4323 Clear 33 1013 12 10000 5.7 210 18:40 01.08.2019
4324 Clear 33 1013 15 10000 5.7 210 18:21 01.08.2019
4325 Clear 33 1013 16 10000 6.2 220 17:45 01.08.2019
4326 Clear 33 1013 19 10000 5.7 230 17:26 01.08.2019
4327 Clear 33 1014 21 10000 5.1 190 16:44 01.08.2019
4328 Clear 32 1014 21 10000 4.6 220 16:22 01.08.2019
4329 Clear 32 1014 22 10000 4.1 220 15:46 01.08.2019
4330 Clear 31 1014 23 10000 4.6 220 15:20 01.08.2019
4331 Clear 31 1015 27 10000 2.6 0 14:55 01.08.2019
4332 Clear 31 1015 27 10000 2.6 0 14:37 01.08.2019
4333 Clear 30 1015 33 10000 2.6 0 14:18 01.08.2019
4334 Clear 29 1015 37 10000 2.1 0 13:41 01.08.2019
4335 Clear 28 1015 44 10000 2.1 0 13:22 01.08.2019
4336 Clear 28 1015 44 10000 2.1 0 12:58 01.08.2019
4337 Clear 27 1015 44 10000 1.5 0 12:40 01.08.2019
4338 Clear 26 1015 47 10000 1.5 0 12:21 01.08.2019
4339 Clear 25 1015 50 10000 2.1 50 11:41 01.08.2019
4340 Clear 24 1015 50 10000 2.1 90 11:22 01.08.2019
4341 Clear 24 1015 50 10000 2.1 90 11:22 01.08.2019
4342 Clear 24 1015 56 10000 2.6 110 10:45 01.08.2019
4343 Clear 23 1015 56 10000 2.1 80 10:27 01.08.2019
4344 Clear 23 1015 56 10000 2.1 80 09:56 01.08.2019
4345 Clear 22 1015 56 10000 2.1 80 09:38 01.08.2019
4346 Clear 22 1015 60 10000 1.5 60 09:20 01.08.2019
4347 Clear 21 1015 64 10000 1.5 80 08:42 01.08.2019
4348 Clear 21 1015 64 10000 1.5 80 08:19 01.08.2019
4349 Clouds 21 1014 64 10000 2.6 100 07:46 01.08.2019
4350 Clear 21 1014 60 10000 2.1 110 07:22 01.08.2019
4351 Clear 22 1014 56 10000 2.1 140 06:45 01.08.2019
4352 Clear 22 1014 56 10000 3.1 120 05:48 01.08.2019
4353 Clear 23 1014 57 10000 4.1 130 03:53 01.08.2019
4354 Clear 24 1014 57 10000 4.1 130 02:27 01.08.2019
4355 Clear 26 1014 48 10000 4.6 130 00:42 01.08.2019
4356 Clouds 26 1013 48 10000 4.1 140 00:24 01.08.2019
4357 Clouds 27 1013 45 10000 5.7 130 23:42 31.07.2019
4358 Clouds 27 1013 45 10000 5.1 130 23:20 31.07.2019
4359 Clouds 28 1013 51 10000 5.7 100 22:47 31.07.2019
4360 Clouds 29 1013 51 10000 5.7 100 22:29 31.07.2019
4361 Rain 30 1013 57 10000 3.6 80 21:45 31.07.2019
4362 Clear 31 1012 27 10000 3.1 100 21:25 31.07.2019
4363 Clear 31 1012 27 10000 3.1 130 20:58 31.07.2019
4364 Clear 31 1012 27 10000 3.1 130 20:58 31.07.2019
4365 Clear 31 1012 27 10000 3.1 130 20:39 31.07.2019
4366 Clear 32 1013 25 10000 2.6 0 20:21 31.07.2019
4367 Clear 33 1013 24 10000 2.6 160 19:41 31.07.2019
4368 Clear 32 1013 23 10000 3.6 190 19:23 31.07.2019
4369 Clear 33 1013 23 10000 3.6 180 18:53 31.07.2019
4370 Clear 33 1014 24 10000 2.1 150 18:25 31.07.2019
4371 Clear 33 1014 24 10000 2.1 150 17:57 31.07.2019
4372 Clouds 33 1013 24 10000 4.1 180 17:39 31.07.2019
4373 Clear 33 1014 24 10000 3.1 0 17:19 31.07.2019
4374 Clouds 32 1015 27 10000 3.6 0 16:42 31.07.2019
4375 Clouds 32 1015 29 10000 1.5 100 16:20 31.07.2019
4376 Clouds 31 1016 31 10000 3.1 150 15:44 31.07.2019
4377 Clouds 30 1016 37 10000 2.6 0 15:24 31.07.2019
4378 Clouds 30 1016 37 10000 3.1 0 14:43 31.07.2019
4379 Clouds 29 1017 42 10000 2.6 0 14:22 31.07.2019
4380 Clouds 29 1017 39 9000 1.5 60 13:58 31.07.2019
4381 Clouds 28 1017 39 9000 1.5 60 13:38 31.07.2019
4382 Clouds 28 1017 42 8000 2.6 90 13:20 31.07.2019
4383 Clouds 27 1018 47 8000 3.6 90 12:45 31.07.2019
4384 Clouds 27 1018 47 8000 3.6 90 12:45 31.07.2019
4385 Clouds 25 1018 47 8000 3.1 50 12:27 31.07.2019
4386 Clear 25 1018 44 10000 2.6 0 11:58 31.07.2019
4387 Clear 24 1018 44 10000 2.6 0 11:38 31.07.2019
4388 Clear 24 1018 44 10000 3.1 30 11:19 31.07.2019
4389 Clear 23 1017 46 10000 3.6 30 10:41 31.07.2019
4390 Clouds 22 1017 46 10000 3.1 10 10:20 31.07.2019
4391 Clouds 21 1018 49 10000 3.1 10 09:43 31.07.2019
4392 Clouds 20 1018 49 10000 2.6 10 09:24 31.07.2019
4393 Clouds 19 1018 52 10000 2.6 10 08:56 31.07.2019
4394 Clouds 19 1018 52 10000 2.6 10 08:37 31.07.2019
4395 Clouds 18 1018 52 10000 3.1 30 08:19 31.07.2019
4396 Clouds 18 1018 52 10000 3.1 30 07:34 31.07.2019
4397 Clear 18 1018 52 10000 3.1 10 06:31 31.07.2019
4398 Clear 19 1017 48 10000 4.6 360 04:50 31.07.2019
4399 Clouds 21 1017 37 10000 5.1 350 01:48 31.07.2019
4400 Clear 24 1016 24 10000 5.7 350 23:58 30.07.2019
4401 Clear 24 1016 24 10000 5.7 350 23:39 30.07.2019
4402 Clear 24 1015 19 10000 5.1 350 23:19 30.07.2019
4403 Clear 26 1015 16 10000 2.25 356.303 22:45 30.07.2019
4404 Clear 27 1015 15 10000 2.25 356.303 22:25 30.07.2019
4405 Clear 28 1015 11 10000 2.25 356.303 21:40 30.07.2019
4406 Clear 29 1015 12 10000 1 0 21:20 30.07.2019
4407 Clear 29 1015 12 10000 1 0 20:59 30.07.2019
4408 Clear 30 1015 12 10000 1.5 200 20:41 30.07.2019
4409 Clear 30 1015 12 10000 1.5 0 20:23 30.07.2019
4410 Clear 30 1015 12 10000 2.1 150 19:56 30.07.2019
4411 Clear 30 1015 12 10000 2.1 150 19:38 30.07.2019
4412 Clear 30 1015 14 10000 1 0 18:55 30.07.2019
4413 Clear 30 1015 14 10000 1 0 18:37 30.07.2019
4414 Clear 30 1016 14 10000 1.5 0 18:18 30.07.2019
4415 Clear 30 1016 14 10000 1.5 0 17:41 30.07.2019
4416 Clear 29 1016 15 10000 1.5 0 17:19 30.07.2019
4417 Clear 29 1017 15 10000 1.5 300 16:50 30.07.2019
4418 Clear 29 1017 17 10000 2.6 0 16:20 30.07.2019
4419 Clear 29 1017 15 10000 2.1 0 15:55 30.07.2019
4420 Clear 29 1017 15 10000 2.1 0 15:36 30.07.2019
4421 Clear 28 1017 16 10000 2.1 0 15:18 30.07.2019
4422 Clear 28 1018 17 10000 2.1 20 14:41 30.07.2019
4423 Clear 27 1018 22 10000 2.1 140 14:19 30.07.2019
4424 Clear 27 1018 26 10000 2.1 0 13:44 30.07.2019
4425 Clear 26 1018 26 10000 1.5 70 13:25 30.07.2019
4426 Clear 26 1018 27 10000 1.5 0 12:57 30.07.2019
4427 Clear 25 1018 27 10000 1.5 0 12:38 30.07.2019
4428 Clear 24 1018 31 10000 2.1 0 12:19 30.07.2019
4429 Clear 23 1018 31 10000 2.1 0 11:39 30.07.2019
4430 Clear 23 1018 33 10000 2.1 0 11:20 30.07.2019
4431 Clear 23 1018 33 10000 2.1 0 11:20 30.07.2019
4432 Clear 22 1018 33 10000 2.1 20 10:46 30.07.2019
4433 Clear 21 1018 35 10000 2.1 10 10:26 30.07.2019
4434 Clear 20 1018 37 10000 1 0 09:49 30.07.2019
4435 Fog 19 1018 42 10000 1.5 260 09:31 30.07.2019
4436 Fog 18 1017 45 10000 1 0 08:49 30.07.2019
4437 Fog 17 1017 45 10000 1 0 08:31 30.07.2019
4438 Clear 17 1017 45 10000 1.5 300 07:47 30.07.2019
4439 Clear 17 1017 45 10000 1.5 300 07:28 30.07.2019
4440 Clear 17 1016 42 10000 2.47 326.966 06:48 30.07.2019
4441 Clear 18 1016 42 10000 0.5 360 06:21 30.07.2019
4442 Clear 18 1016 37 10000 1.5 100 05:33 30.07.2019
4443 Clear 21 1015 28 10000 1.5 110 02:31 30.07.2019
4444 Clear 24 1014 27 10000 3.51 320.66 01:19 30.07.2019
4445 Clear 24 1014 22 10000 4.6 290 00:21 30.07.2019
4446 Clear 25 1013 21 10000 4.1 280 23:45 29.07.2019
4447 Clear 25 1014 24 10000 4.1 300 23:26 29.07.2019
4448 Clear 27 1013 26 10000 4.6 300 22:57 29.07.2019
4449 Clear 27 1013 26 10000 4.6 300 22:38 29.07.2019
4450 Clear 28 1013 22 10000 5.1 300 22:20 29.07.2019
4451 Clear 28 1012 24 10000 4.6 310 21:56 29.07.2019
4452 Clear 28 1012 24 10000 4.6 310 21:37 29.07.2019
4453 Clear 29 1012 25 10000 5.1 310 21:18 29.07.2019
4454 Clear 30 1012 20 10000 8.7 230 20:48 29.07.2019
4455 Clear 31 1012 20 10000 9.3 230 20:24 29.07.2019
4456 Clear 31 1012 20 10000 8.7 230 19:56 29.07.2019
4457 Clear 31 1012 20 10000 8.7 230 19:37 29.07.2019
4458 Clear 31 1012 18 10000 8.2 230 19:19 29.07.2019
4459 Clear 32 1012 18 10000 7.2 220 18:42 29.07.2019
4460 Clear 32 1012 17 10000 7.7 230 18:22 29.07.2019
4461 Clear 32 1012 15 10000 7.7 210 17:51 29.07.2019
4462 Clear 32 1012 14 10000 7.2 210 17:33 29.07.2019
4463 Clear 32 1012 14 10000 6.7 200 16:59 29.07.2019
4464 Clear 32 1012 14 10000 6.7 200 16:40 29.07.2019
4465 Clear 32 1013 13 10000 6.7 230 16:22 29.07.2019
4466 Clear 31 1013 17 10000 5.7 200 15:51 29.07.2019
4467 Clear 31 1013 17 10000 5.7 200 15:31 29.07.2019
4468 Clear 31 1013 20 10000 5.7 220 14:56 29.07.2019
4469 Clear 30 1013 25 10000 5.7 220 14:37 29.07.2019
4470 Clear 30 1013 25 10000 5.1 210 14:18 29.07.2019
4471 Clear 30 1013 26 10000 4.6 200 13:41 29.07.2019
4472 Clear 29 1013 26 10000 4.1 210 13:23 29.07.2019
4473 Clear 29 1013 25 10000 3.1 190 12:42 29.07.2019
4474 Clear 27 1013 24 10000 2.1 200 12:22 29.07.2019
4475 Clear 26 1013 26 10000 1 0 11:43 29.07.2019
4476 Clear 26 1013 24 10000 0.5 0 11:22 29.07.2019
4477 Clear 25 1013 27 10000 1 0 10:46 29.07.2019
4478 Clear 24 1013 27 10000 0.5 0 10:25 29.07.2019
4479 Clear 23 1013 29 10000 0.5 0 09:48 29.07.2019
4480 Clear 23 1013 29 10000 0.5 0 09:28 29.07.2019
4481 Clear 20 1013 37 10000 0.5 0 08:57 29.07.2019
4482 Clear 20 1013 37 10000 0.5 0 08:31 29.07.2019
4483 Clear 19 1012 34 10000 0.5 0 07:58 29.07.2019
4484 Clear 19 1012 37 10000 1 0 07:36 29.07.2019
4485 Clear 19 1012 36 10000 1.5 340 06:45 29.07.2019
4486 Clear 20 1012 34 10000 1.5 350 05:46 29.07.2019
4487 Clear 19 1011 30 10000 1.5 10 04:51 29.07.2019
4488 Clear 23 1011 33 10000 2.1 310 02:26 29.07.2019
4489 Clear 23 1011 26 10000 3.1 220 01:41 29.07.2019
4490 Clear 24 1011 30 10000 4.1 220 01:21 29.07.2019
4491 Clear 24 1011 33 10000 1 0 00:41 29.07.2019
4492 Clear 25 1011 29 10000 1 0 00:19 29.07.2019
4493 Clear 25 1011 24 10000 3.1 180 23:40 28.07.2019
4494 Clear 26 1011 23 10000 2.6 170 23:18 28.07.2019
4495 Clear 27 1011 32 10000 2.6 190 22:39 28.07.2019
4496 Clear 27 1011 30 10000 3.1 180 22:21 28.07.2019
4497 Clear 28 1011 30 10000 3.1 210 21:46 28.07.2019
4498 Clear 28 1011 26 10000 2.6 200 21:19 28.07.2019
4499 Clear 29 1011 25 10000 2.6 210 20:47 28.07.2019
4500 Clear 29 1011 23 10000 4.1 200 20:29 28.07.2019
4501 Clear 29 1011 25 10000 2.6 0 19:42 28.07.2019
4502 Clear 29 1011 25 10000 2.6 0 19:42 28.07.2019
4503 Clear 29 1011 23 10000 2.6 200 19:22 28.07.2019
4504 Clear 29 1011 23 10000 2.6 0 18:58 28.07.2019
4505 Clear 30 1011 23 10000 2.6 0 18:38 28.07.2019
4506 Clear 30 1011 23 10000 2.6 0 18:38 28.07.2019
4507 Clear 29 1011 26 10000 3.6 150 18:18 28.07.2019
4508 Clear 29 1011 26 10000 2.6 0 17:41 28.07.2019
4509 Clear 29 1012 28 10000 3.6 160 17:22 28.07.2019
4510 Clear 29 1012 28 10000 3.6 160 16:57 28.07.2019
4511 Clear 29 1012 26 10000 2.1 0 16:39 28.07.2019
4512 Clear 29 1012 26 10000 2.6 0 16:20 28.07.2019
4513 Clear 28 1013 30 10000 4.1 210 15:43 28.07.2019
4514 Clear 27 1013 30 10000 3.1 200 15:21 28.07.2019
4515 Clear 26 1013 31 10000 1 0 14:37 28.07.2019
4516 Clear 26 1013 31 10000 1 0 14:37 28.07.2019
4517 Clear 26 1013 31 10000 1 0 14:37 28.07.2019
4518 Clear 26 1013 31 10000 1 0 14:37 28.07.2019
4519 Clear 26 1013 33 10000 1.5 130 14:19 28.07.2019
4520 Clear 25 1014 33 10000 1 0 13:45 28.07.2019
4521 Clear 24 1014 36 10000 1.5 100 13:25 28.07.2019
4522 Clear 24 1014 36 10000 1.5 0 12:59 28.07.2019
4523 Clear 23 1014 36 10000 1.5 0 12:40 28.07.2019
4524 Clear 22 1014 40 10000 1.5 130 12:22 28.07.2019
4525 Clear 22 1015 40 10000 1.5 30 11:47 28.07.2019
4526 Clear 21 1015 45 10000 1 140 11:27 28.07.2019
4527 Clear 20 1015 49 10000 2.1 60 10:42 28.07.2019
4528 Clear 19 1015 48 10000 2.1 0 10:22 28.07.2019
4529 Clear 18 1014 52 10000 1.5 0 09:54 28.07.2019
4530 Clear 17 1014 52 10000 1.5 0 09:36 28.07.2019
4531 Clear 17 1014 59 10000 3.1 60 09:18 28.07.2019
4532 Clear 16 1014 59 10000 2.1 40 08:41 28.07.2019
4533 Clear 15 1014 63 10000 2.6 60 08:18 28.07.2019
4534 Clear 15 1014 59 10000 2.1 70 07:38 28.07.2019
4535 Clouds 15 1013 63 10000 1.5 50 06:46 28.07.2019
4536 Clear 16 1013 59 10000 2.6 40 05:53 28.07.2019
4537 Clear 18 1013 55 10000 1.5 30 03:39 28.07.2019
4538 Clear 19 1013 56 10000 0.5 0 02:24 28.07.2019
4539 Clear 20 1012 56 10000 5.1 360 01:21 28.07.2019
4540 Clouds 21 1012 49 10000 5.7 360 00:47 28.07.2019
4541 Clouds 21 1012 46 10000 5.7 360 00:22 28.07.2019
4542 Clouds 21 1011 40 10000 4.1 350 23:46 27.07.2019
4543 Clouds 22 1011 33 10000 6.2 310 23:22 27.07.2019
4544 Clear 24 1011 36 10000 4.1 320 22:42 27.07.2019
4545 Clear 24 1010 36 10000 4.1 320 22:22 27.07.2019
4546 Clear 25 1010 29 10000 5.7 300 21:43 27.07.2019
4547 Clear 25 1010 27 10000 6.2 310 21:20 27.07.2019
4548 Clear 25 1009 27 10000 6.7 310 20:53 27.07.2019
4549 Clouds 26 1009 24 10000 8.2 300 20:26 27.07.2019
4550 Clear 26 1009 28 10000 7.7 290 19:58 27.07.2019
4551 Clear 26 1009 28 10000 7.7 290 19:38 27.07.2019
4552 Clear 27 1009 32 10000 6.7 310 19:19 27.07.2019
4553 Clouds 27 1009 30 10000 5.7 290 18:45 27.07.2019
4554 Clouds 27 1009 30 10000 6.7 280 18:27 27.07.2019
4555 Clouds 27 1009 25 10000 8.2 310 17:42 27.07.2019
4556 Clouds 27 1010 32 10000 6.2 240 17:24 27.07.2019
4557 Clouds 26 1010 41 10000 5.1 300 16:51 27.07.2019
4558 Clouds 26 1010 41 10000 5.1 300 16:32 27.07.2019
4559 Clouds 25 1010 39 10000 6.7 270 15:55 27.07.2019
4560 Clouds 25 1010 44 10000 6.2 260 15:25 27.07.2019
4561 Clouds 25 1010 38 10000 8.2 250 14:53 27.07.2019
4562 Clear 25 1010 31 10000 6.7 220 14:34 27.07.2019
4563 Clear 25 1010 31 10000 6.7 220 13:59 27.07.2019
4564 Clear 25 1011 34 10000 5.7 230 13:41 27.07.2019
4565 Clear 24 1011 36 10000 4.6 220 13:21 27.07.2019
4566 Clear 24 1010 36 10000 5.7 230 12:49 27.07.2019
4567 Clear 23 1011 35 10000 5.7 230 12:26 27.07.2019
4568 Clear 23 1011 33 10000 6.7 220 11:46 27.07.2019
4569 Clouds 23 1011 35 10000 2.1 180 11:25 27.07.2019
4570 Clear 22 1011 40 10000 5.7 250 10:57 27.07.2019
4571 Clear 22 1011 40 10000 5.7 250 10:39 27.07.2019
4572 Clear 21 1011 49 10000 4.1 240 10:19 27.07.2019
4573 Clear 20 1011 52 10000 4.1 240 09:40 27.07.2019
4574 Clear 20 1011 55 10000 4.1 230 09:22 27.07.2019
4575 Clear 19 1011 52 10000 3.1 250 08:47 27.07.2019
4576 Clear 19 1011 48 10000 3.6 230 08:27 27.07.2019
4577 Clear 18 1010 52 10000 3.6 230 07:47 27.07.2019
4578 Clear 19 1010 37 10000 3.1 240 07:27 27.07.2019
4579 Clear 19 1010 40 10000 2.6 240 06:55 27.07.2019
4580 Clear 19 1010 40 10000 2.6 240 06:29 27.07.2019
4581 Clear 19 1010 37 10000 3.6 240 05:43 27.07.2019
4582 Clear 20 1010 35 10000 5.1 250 04:59 27.07.2019
4583 Clear 20 1011 33 10000 4.6 240 04:21 27.07.2019
4584 Clear 21 1011 29 10000 3.6 240 02:44 27.07.2019
4585 Clear 21 1011 25 10000 3.6 250 02:25 27.07.2019
4586 Clear 22 1011 23 10000 4.1 250 01:43 27.07.2019
4587 Clear 23 1012 21 10000 3.6 260 00:57 27.07.2019
4588 Clear 23 1011 21 10000 3.1 250 00:32 27.07.2019
4589 Clear 24 1011 18 10000 4.6 280 23:51 26.07.2019
4590 Clear 24 1011 18 10000 4.6 280 23:32 26.07.2019
4591 Clear 26 1012 21 10000 4.1 300 22:45 26.07.2019
4592 Clear 27 1012 19 10000 4.6 300 22:27 26.07.2019
4593 Clear 27 1012 19 10000 4.6 300 21:59 26.07.2019
4594 Clear 28 1011 18 10000 5.1 290 21:37 26.07.2019
4595 Clear 28 1011 21 10000 7.2 240 21:18 26.07.2019
4596 Clear 29 1011 20 10000 5.1 270 20:42 26.07.2019
4597 Clear 30 1011 25 10000 6.2 260 20:22 26.07.2019
4598 Clear 30 1011 27 10000 7.2 220 19:43 26.07.2019
4599 Clear 30 1011 28 10000 7.2 220 19:24 26.07.2019
4600 Clear 31 1011 27 10000 7.2 240 18:47 26.07.2019
4601 Clear 31 1012 27 10000 6.2 230 18:23 26.07.2019
4602 Clear 31 1012 27 10000 6.2 230 17:58 26.07.2019
4603 Clouds 31 1012 25 10000 6.2 220 17:40 26.07.2019
4604 Clouds 31 1012 19 10000 6.7 200 17:19 26.07.2019
4605 Clear 30 1012 17 10000 6.2 200 16:56 26.07.2019
4606 Clear 30 1012 17 10000 6.2 200 16:37 26.07.2019
4607 Clouds 30 1013 19 10000 6.2 220 16:18 26.07.2019
4608 Clouds 30 1013 19 10000 6.2 220 15:45 26.07.2019
4609 Clouds 30 1013 26 10000 5.7 190 15:23 26.07.2019
4610 Clouds 30 1013 27 10000 6.7 210 14:58 26.07.2019
4611 Clouds 30 1013 27 10000 6.7 210 14:40 26.07.2019
4612 Clouds 29 1013 35 10000 6.2 220 14:21 26.07.2019
4613 Clouds 29 1013 37 10000 6.2 200 13:40 26.07.2019
4614 Clouds 29 1014 42 10000 5.1 220 13:21 26.07.2019
4615 Clear 28 1014 42 10000 6.2 240 12:45 26.07.2019
4616 Clear 27 1014 44 10000 6.2 220 12:20 26.07.2019
4617 Clear 26 1014 50 10000 5.7 240 11:40 26.07.2019
4618 Clear 26 1014 53 10000 6.7 240 11:20 26.07.2019
4619 Clear 26 1014 53 10000 6.7 240 10:55 26.07.2019
4620 Clear 26 1014 53 10000 5.7 240 10:36 26.07.2019
4621 Clear 25 1014 53 10000 4.1 230 09:55 26.07.2019
4622 Clear 24 1014 53 10000 4.1 230 09:36 26.07.2019
4623 Clear 23 1013 60 10000 4.6 240 08:44 26.07.2019
4624 Clear 23 1013 56 10000 3.6 250 08:22 26.07.2019
4625 Clear 24 1013 56 10000 4.6 240 07:59 26.07.2019
4626 Clear 24 1013 56 10000 4.6 240 07:29 26.07.2019
4627 Clear 24 1012 39 10000 1.5 260 06:53 26.07.2019
4628 Clear 25 1013 32 10000 4.1 240 05:23 26.07.2019
4629 Clear 25 1013 32 10000 1.5 130 04:22 26.07.2019
4630 Clear 26 1013 25 10000 3.1 210 02:45 26.07.2019
4631 Clear 26 1013 26 10000 2.1 180 01:43 26.07.2019
4632 Clear 28 1013 22 10000 2.1 240 00:45 26.07.2019
4633 Clear 29 1014 28 10000 3.6 260 23:57 25.07.2019
4634 Clear 29 1014 26 10000 4.6 260 23:24 25.07.2019
4635 Clear 30 1014 23 10000 4.6 270 22:58 25.07.2019
4636 Clear 31 1014 23 10000 4.6 270 22:39 25.07.2019
4637 Clear 32 1013 22 10000 6.2 250 22:20 25.07.2019
4638 Clear 32 1013 21 10000 6.7 250 21:44 25.07.2019
4639 Clear 33 1013 22 10000 7.7 250 21:21 25.07.2019
4640 Clear 32 1013 22 10000 7.7 250 21:21 25.07.2019
4641 Clear 33 1013 19 10000 7.7 260 20:48 25.07.2019
4642 Clear 34 1013 21 10000 7.7 240 20:23 25.07.2019
4643 Clear 34 1013 20 10000 6.2 260 19:44 25.07.2019
4644 Clear 34 1013 20 10000 6.2 260 19:44 25.07.2019
4645 Clear 35 1013 16 10000 6.2 190 19:26 25.07.2019
4646 Clear 35 1013 15 10000 4.6 220 18:58 25.07.2019
4647 Clear 35 1013 15 10000 4.6 220 18:39 25.07.2019
4648 Clear 35 1014 15 10000 5.7 220 18:20 25.07.2019
4649 Clear 36 1014 16 10000 5.7 230 17:44 25.07.2019
4650 Clear 35 1014 16 10000 5.1 220 17:24 25.07.2019
4651 Clear 35 1014 19 10000 5.1 220 16:45 25.07.2019
4652 Clear 35 1015 20 10000 4.6 200 16:26 25.07.2019
4653 -273 0 0 0 0 0 15:56 25.07.2019
4654 Clear 34 1015 21 10000 6.2 210 15:21 25.07.2019
4655 Clear 34 1016 21 10000 5.7 220 14:59 25.07.2019
4656 Clear 34 1016 21 10000 5.7 220 14:40 25.07.2019
4657 Clear 33 1016 22 10000 5.1 220 14:21 25.07.2019
4658 Clear 33 1016 21 10000 3.1 200 13:43 25.07.2019
4659 Clear 33 1016 21 10000 2.1 0 13:25 25.07.2019
4660 Clear 32 1016 24 10000 1.5 0 12:39 25.07.2019
4661 Clear 30 1017 25 10000 1.5 190 12:21 25.07.2019
4662 Clear 30 1017 27 10000 1.5 110 11:41 25.07.2019
4663 Clear 29 1017 30 10000 1 0 11:23 25.07.2019
4664 Clear 28 1017 28 10000 1 0 10:45 25.07.2019
4665 Clear 28 1016 28 10000 0.5 0 10:26 25.07.2019
4666 Clear 27 1016 32 10000 0.5 0 09:52 25.07.2019
4667 Clear 25 1016 36 10000 0.5 0 09:34 25.07.2019
4668 Clear 24 1016 36 10000 1.5 360 08:53 25.07.2019
4669 Clear 24 1016 36 10000 1.5 360 08:33 25.07.2019
4670 Clear 23 1015 38 10000 1 0 07:42 25.07.2019
4671 Clear 23 1015 38 10000 2.1 90 07:24 25.07.2019
4672 Clear 23 1015 38 10000 1.5 60 06:40 25.07.2019
4673 Clear 24 1015 36 10000 1.5 40 05:37 25.07.2019
4674 Clear 26 1015 32 10000 1.5 90 04:53 25.07.2019
4675 Clear 27 1015 26 10000 1.5 190 03:24 25.07.2019
4676 Clear 30 1014 21 10000 6.7 140 01:21 25.07.2019
4677 Clear 30 1014 21 10000 5.1 150 00:35 25.07.2019
4678 Clear 31 1014 25 10000 1.5 180 23:59 24.07.2019
4679 Clear 31 1014 25 10000 1.5 180 23:40 24.07.2019
4680 Clear 32 1014 25 10000 2.1 200 23:22 24.07.2019
4681 Clear 32 1014 22 10000 2.1 220 22:45 24.07.2019
4682 Clouds 34 1014 20 10000 2.6 150 22:22 24.07.2019
4683 Clouds 34 1014 19 10000 3.6 140 21:56 24.07.2019
4684 Clouds 35 1014 19 10000 3.6 140 21:38 24.07.2019
4685 Clouds 35 1014 19 10000 3.6 140 21:38 24.07.2019
4686 Clouds 35 1014 17 10000 3.6 130 21:19 24.07.2019
4687 Clear 35 1014 16 10000 3.6 150 20:46 24.07.2019
4688 Clear 36 1014 18 10000 5.7 140 20:28 24.07.2019
4689 Clear 36 1014 18 10000 4.1 180 19:58 24.07.2019
4690 Clear 36 1014 18 10000 4.1 180 19:58 24.07.2019
4691 Clear 36 1014 18 10000 4.1 180 19:40 24.07.2019
4692 Clear 36 1014 18 10000 4.1 180 19:40 24.07.2019
4693 Clear 36 1014 16 10000 3.1 180 19:20 24.07.2019
4694 Clear 36 1015 18 10000 3.1 190 18:43 24.07.2019
4695 Clear 36 1015 20 10000 3.6 190 18:24 24.07.2019
4696 Clear 36 1015 19 10000 3.6 210 17:47 24.07.2019
4697 Clear 36 1016 22 10000 2.6 0 17:22 24.07.2019
4698 Clear 36 1016 23 10000 2.6 210 16:57 24.07.2019
4699 Clear 36 1016 23 10000 2.6 210 16:39 24.07.2019
4700 Clear 36 1016 23 10000 2.6 0 16:20 24.07.2019
4701 Clear 35 1017 23 10000 3.1 0 15:37 24.07.2019
4702 Clear 35 1017 24 10000 3.6 0 15:19 24.07.2019
4703 Clear 34 1017 23 10000 3.6 110 14:45 24.07.2019
4704 Clear 34 1018 22 10000 2.1 90 14:20 24.07.2019
4705 Clear 33 1018 25 10000 3.6 110 13:40 24.07.2019
4706 Clear 32 1018 27 10000 2.1 0 13:19 24.07.2019
4707 Clear 32 1018 27 10000 2.6 90 12:53 24.07.2019
4708 Clear 32 1018 27 10000 2.6 90 12:34 24.07.2019
4709 Clear 30 1018 30 10000 3.1 90 11:55 24.07.2019
4710 Clear 30 1018 30 10000 3.1 90 11:36 24.07.2019
4711 Clear 29 1018 34 10000 2.6 80 11:18 24.07.2019
4712 Clear 28 1018 37 10000 1.5 40 10:39 24.07.2019
4713 Clear 27 1018 36 10000 2.1 50 10:18 24.07.2019
4714 Clear 26 1018 41 10000 1 0 09:43 24.07.2019
4715 Clear 25 1018 44 10000 1 0 09:22 24.07.2019
4716 Clear 24 1018 49 10000 2.1 360 08:43 24.07.2019
4717 Clear 22 1018 56 10000 1 0 08:22 24.07.2019
4718 Clear 22 1018 53 10000 1 360 07:46 24.07.2019
4719 Clear 22 1017 56 10000 2.1 340 07:20 24.07.2019
4720 Clear 22 1017 53 10000 1 20 06:28 24.07.2019
4721 Clear 22 1017 50 10000 2.1 350 05:22 24.07.2019
4722 Rain 25 1018 22 10000 11.3 170 01:49 24.07.2019
4723 Rain 27 1019 32 10000 7.2 230 00:58 24.07.2019
4724 Rain 26 1019 32 10000 7.2 230 00:39 24.07.2019
4725 Rain 27 1021 36 10000 7.2 210 23:54 23.07.2019
4726 Rain 26 1020 47 10000 7.7 250 23:26 23.07.2019
4727 Rain 26 1020 50 10000 7.7 250 22:59 23.07.2019
4728 Rain 25 1020 50 10000 7.7 250 22:38 23.07.2019
4729 Rain 26 1019 65 10000 1.5 250 22:19 23.07.2019
4730 Thunderstorm 27 1017 39 10000 5.1 290 21:45 23.07.2019
4731 Thunderstorm 29 1017 54 8000 4.6 260 21:26 23.07.2019
4732 Thunderstorm 27 1018 48 10000 1 170 20:49 23.07.2019
4733 Thunderstorm 28 1018 48 10000 1 170 20:29 23.07.2019
4734 Thunderstorm 35 1014 16 10000 1 0 19:44 23.07.2019
4735 Rain 36 1016 14 10000 6.7 210 19:24 23.07.2019
4736 Clear 37 1016 14 10000 3.6 0 18:59 23.07.2019
4737 Clear 37 1016 14 10000 3.6 0 18:40 23.07.2019
4738 Clear 37 1016 14 10000 3.6 0 18:40 23.07.2019
4739 Clear 37 1016 14 10000 3.6 160 18:20 23.07.2019
4740 Clear 37 1017 14 10000 3.6 170 17:43 23.07.2019
4741 Clear 36 1017 16 10000 4.1 0 17:22 23.07.2019
4742 Clear 36 1017 13 10000 4.1 150 16:48 23.07.2019
4743 Clear 36 1018 14 10000 5.1 130 16:27 23.07.2019
4744 Clear 36 1018 14 10000 3.6 130 15:52 23.07.2019
4745 Clear 35 1018 14 10000 3.6 130 15:34 23.07.2019
4746 Clear 35 1018 16 10000 3.1 90 14:59 23.07.2019
4747 Clear 34 1019 16 10000 2.1 60 14:37 23.07.2019
4748 Clear 34 1019 17 10000 1 70 14:18 23.07.2019
4749 Clear 34 1019 17 10000 1 70 13:56 23.07.2019
4750 Clear 33 1020 18 10000 1.5 0 13:37 23.07.2019
4751 Clouds 32 1020 19 10000 1 60 13:19 23.07.2019
4752 Clouds 31 1020 23 10000 1 0 12:42 23.07.2019
4753 Clouds 31 1020 22 10000 1.5 350 12:22 23.07.2019
4754 Clouds 30 1020 23 10000 1 0 11:41 23.07.2019
4755 Thunderstorm 29 1020 24 10000 1.5 0 11:22 23.07.2019
4756 Clouds 28 1020 26 10000 3.6 90 10:51 23.07.2019
4757 Clear 28 1020 28 10000 2.6 90 10:25 23.07.2019
4758 Clouds 26 1020 27 10000 3.6 110 09:43 23.07.2019
4759 Clouds 25 1020 29 10000 3.1 80 09:22 23.07.2019
4760 Clouds 24 1020 36 10000 1 0 08:57 23.07.2019
4761 Clouds 24 1020 36 10000 1 0 08:38 23.07.2019
4762 Rain 24 1020 36 10000 1 0 08:18 23.07.2019
4763 Rain 24 1021 33 10000 0.5 0 07:44 23.07.2019
4764 Clouds 24 1020 29 10000 1.5 130 07:26 23.07.2019
4765 Clouds 23 1020 28 10000 2.6 150 06:37 23.07.2019
4766 Thunderstorm 26 1020 21 10000 2.6 110 04:45 23.07.2019
4767 Clear 29 1019 27 10000 3.1 120 01:55 23.07.2019
4768 Clear 30 1019 27 10000 2.1 120 00:54 23.07.2019
4769 Clear 30 1019 24 10000 3.6 120 00:26 23.07.2019
4770 Thunderstorm 31 1019 13 10000 3.1 120 23:40 22.07.2019
4771 Thunderstorm 32 1019 17 10000 4.6 100 23:21 22.07.2019
4772 Clear 33 1019 18 10000 5.7 120 22:46 22.07.2019
4773 Clear 34 1019 16 10000 7.2 120 22:27 22.07.2019
4774 Clear 34 1018 20 10000 6.2 110 21:58 22.07.2019
4775 Clear 34 1018 20 10000 6.2 110 21:40 22.07.2019
4776 Clear 35 1018 18 10000 5.1 110 21:20 22.07.2019
4777 Clear 35 1018 16 10000 4.6 130 20:44 22.07.2019
4778 Clear 36 1018 18 10000 5.1 110 20:23 22.07.2019
4779 Clear 36 1018 18 10000 5.1 130 19:43 22.07.2019
4780 Clear 36 1019 18 10000 4.6 120 19:24 22.07.2019
4781 Clear 36 1018 16 10000 6.2 140 18:57 22.07.2019
4782 Clear 37 1019 18 10000 4.6 110 18:39 22.07.2019
4783 Clear 37 1019 17 10000 4.6 120 18:21 22.07.2019
4784 Clear 36 1020 18 10000 3.6 110 17:39 22.07.2019
4785 Clear 36 1020 17 10000 5.7 100 17:21 22.07.2019
4786 Clear 36 1020 19 10000 3.6 0 16:41 22.07.2019
4787 Clear 36 1021 18 10000 3.1 100 16:21 22.07.2019
4788 Clear 36 1021 19 10000 3.1 100 15:58 22.07.2019
4789 Clear 35 1021 19 10000 3.1 100 15:37 22.07.2019
4790 Clear 35 1021 20 10000 4.1 70 15:18 22.07.2019
4791 Clear 34 1022 20 10000 3.1 0 14:42 22.07.2019
4792 Clear 33 1022 24 10000 3.1 60 14:20 22.07.2019
4793 Clear 33 1023 22 10000 3.1 100 13:46 22.07.2019
4794 Clear 32 1023 22 10000 2.6 100 13:28 22.07.2019
4795 Clear 32 1023 22 10000 3.6 80 12:45 22.07.2019
4796 Clear 30 1023 25 10000 3.6 90 12:25 22.07.2019
4797 Clear 30 1023 23 10000 4.1 100 11:45 22.07.2019
4798 Clear 29 1023 26 10000 3.6 80 11:24 22.07.2019
4799 Clear 29 1023 28 10000 3.1 80 10:48 22.07.2019
4800 Clear 28 1023 30 10000 2.6 60 10:29 22.07.2019
4801 Clear 26 1023 30 10000 1.5 60 09:44 22.07.2019
4802 Clear 25 1023 31 10000 1.5 60 09:25 22.07.2019
4803 Clear 24 1023 31 10000 1.5 70 08:45 22.07.2019
4804 Clear 24 1023 31 10000 2.1 60 08:25 22.07.2019
4805 Clear 23 1022 31 10000 2.6 70 07:58 22.07.2019
4806 Clear 23 1022 31 10000 2.6 70 07:40 22.07.2019
4807 Clear 23 1022 40 10000 1 0 07:21 22.07.2019
4808 Clear 26 1022 47 10000 1.5 340 03:57 22.07.2019
4809 Clear 28 1022 34 10000 2.1 130 02:42 22.07.2019
4810 Clear 29 1020 37 10000 5.1 130 00:57 22.07.2019
4811 Clear 31 1020 38 10000 5.7 130 00:28 22.07.2019
4812 Clear 31 1019 40 10000 4.1 130 23:56 21.07.2019
4813 Clear 31 1019 40 10000 4.1 130 23:36 21.07.2019
4814 Rain 32 1019 27 10000 3.1 90 22:54 21.07.2019
4815 Rain 32 1019 27 10000 3.1 90 22:36 21.07.2019
4816 Thunderstorm 33 1019 23 10000 3.6 140 22:18 21.07.2019
4817 Thunderstorm 33 1018 24 10000 6.2 160 21:43 21.07.2019
4818 Rain 34 1018 33 10000 4.1 200 21:22 21.07.2019
4819 Thunderstorm 35 1017 38 8000 6.7 190 20:54 21.07.2019
4820 Thunderstorm 35 1017 38 8000 6.7 190 20:36 21.07.2019
4821 Thunderstorm 35 1017 38 8000 6.7 190 20:36 21.07.2019
4822 Thunderstorm 36 1017 20 10000 3.6 160 20:18 21.07.2019
4823 Clouds 37 1017 20 10000 5.7 90 19:44 21.07.2019
4824 Clouds 37 1018 17 10000 2.6 0 19:22 21.07.2019
4825 Clouds 37 1018 19 10000 3.1 110 18:48 21.07.2019
4826 Clouds 37 1018 18 10000 2.6 230 18:26 21.07.2019
4827 Clouds 37 1019 19 10000 2.1 0 17:43 21.07.2019
4828 Clear 37 1019 17 10000 3.1 200 17:20 21.07.2019
4829 Clear 37 1019 20 10000 1 0 16:57 21.07.2019
4830 Clear 36 1019 20 10000 1 0 16:38 21.07.2019
4831 Clear 36 1020 18 10000 1.5 0 16:20 21.07.2019
4832 Clear 36 1020 20 10000 1.5 80 15:37 21.07.2019
4833 Clear 35 1020 23 10000 2.6 0 15:18 21.07.2019
4834 Clear 34 1020 24 10000 2.1 0 14:41 21.07.2019
4835 Clear 34 1021 26 10000 2.1 0 14:22 21.07.2019
4836 Clear 33 1021 27 10000 2.1 0 13:51 21.07.2019
4837 Clear 32 1021 27 10000 3.1 0 13:30 21.07.2019
4838 Clear 32 1021 29 10000 2.6 0 12:44 21.07.2019
4839 Clear 30 1021 33 10000 2.6 80 12:25 21.07.2019
4840 Clear 30 1021 35 10000 3.1 90 11:51 21.07.2019
4841 Clear 29 1021 37 10000 3.1 70 11:30 21.07.2019
4842 Clear 29 1021 37 10000 2.6 70 10:58 21.07.2019
4843 Clear 28 1021 37 10000 2.6 70 10:40 21.07.2019
4844 Clear 28 1020 39 10000 2.6 70 10:22 21.07.2019
4845 Clear 27 1020 36 10000 2.6 80 09:38 21.07.2019
4846 Clear 26 1020 41 10000 2.1 70 09:20 21.07.2019
4847 Clear 24 1020 44 10000 1 0 08:43 21.07.2019
4848 Clear 24 1020 44 10000 2.1 70 08:25 21.07.2019
4849 Clear 24 1019 44 10000 1.5 60 07:37 21.07.2019
4850 Clear 24 1019 44 10000 1.5 80 06:45 21.07.2019
4851 Clear 25 1019 44 10000 3.9 82.171 05:41 21.07.2019
4852 Clear 28 1018 35 10000 5.7 140 02:43 21.07.2019
4853 Clear 30 1017 33 10000 4.6 120 00:58 21.07.2019
4854 Clear 30 1016 25 10000 1.5 40 00:39 21.07.2019
4855 Clear 31 1016 20 10000 3.1 270 00:18 21.07.2019
4856 Clear 31 1015 19 10000 3.1 260 23:39 20.07.2019
4857 Clear 32 1015 20 10000 2.6 260 23:19 20.07.2019
4858 Clear 33 1016 24 10000 3.1 270 22:43 20.07.2019
4859 Clear 34 1015 20 10000 3.1 260 22:21 20.07.2019
4860 Clear 35 1015 20 10000 3.6 260 21:45 20.07.2019
4861 Clear 35 1015 19 10000 3.1 230 21:26 20.07.2019
4862 Clear 35 1015 20 10000 3.1 250 20:56 20.07.2019
4863 Clear 35 1015 20 10000 3.1 250 20:38 20.07.2019
4864 Clear 35 1015 20 10000 3.1 250 20:38 20.07.2019
4865 Clear 36 1015 19 10000 5.7 220 20:18 20.07.2019
4866 Clear 36 1015 19 10000 3.6 230 19:42 20.07.2019
4867 Clear 37 1015 18 10000 4.6 230 19:19 20.07.2019
4868 Clear 37 1015 18 10000 3.1 0 18:40 20.07.2019
4869 Clear 37 1015 18 10000 2.6 0 18:20 20.07.2019
4870 Clear 37 1015 17 10000 1.5 220 17:48 20.07.2019
4871 Clear 36 1016 20 10000 3.1 200 17:20 20.07.2019
4872 Clear 36 1016 22 10000 2.1 250 16:43 20.07.2019
4873 Clear 36 1016 22 10000 2.1 250 16:25 20.07.2019
4874 Clear 36 1016 20 10000 2.1 180 15:57 20.07.2019
4875 Clear 35 1016 23 10000 1 60 15:38 20.07.2019
4876 Clear 35 1016 24 10000 2.1 0 15:19 20.07.2019
4877 Clear 34 1017 26 10000 2.6 80 14:43 20.07.2019
4878 Clear 33 1017 29 10000 2.1 0 14:21 20.07.2019
4879 Clear 32 1017 31 10000 2.1 60 13:38 20.07.2019
4880 Clear 31 1017 33 10000 2.6 0 13:20 20.07.2019
4881 Clear 31 1017 33 10000 1.5 0 12:52 20.07.2019
4882 Clear 30 1017 35 10000 2.6 0 12:21 20.07.2019
4883 Clear 29 1017 37 10000 2.1 80 11:55 20.07.2019
4884 Clear 28 1017 39 10000 2.1 60 11:23 20.07.2019
4885 Clear 27 1017 44 10000 3.6 90 10:55 20.07.2019
4886 Clear 27 1017 44 10000 3.6 90 10:36 20.07.2019
4887 Clear 27 1017 41 10000 3.1 80 10:18 20.07.2019
4888 Clear 26 1016 44 10000 2.6 80 09:43 20.07.2019
4889 Clear 24 1016 47 10000 3.1 80 09:18 20.07.2019
4890 Clear 24 1016 50 10000 3.1 90 08:39 20.07.2019
4891 Clear 23 1015 47 10000 3.1 90 08:19 20.07.2019
4892 Clear 22 1015 44 10000 2.1 120 07:18 20.07.2019
4893 Clear 23 1014 41 10000 1.5 90 06:35 20.07.2019
4894 Clear 26 1014 24 10000 2.6 120 04:31 20.07.2019
4895 Clear 28 1014 20 10000 2.6 160 02:38 20.07.2019
4896 Clear 30 1013 17 10000 4.6 160 01:21 20.07.2019
4897 Clear 31 1013 16 10000 7.2 150 00:46 20.07.2019
4898 Clear 30 1013 17 10000 6.2 140 00:19 20.07.2019
4899 Clouds 31 1013 14 10000 6.7 160 23:43 19.07.2019
4900 Clouds 32 1013 14 10000 6.7 160 23:24 19.07.2019
4901 Clear 32 1013 23 10000 2.1 260 22:45 19.07.2019
4902 Clear 33 1013 21 10000 2.6 200 22:26 19.07.2019
4903 Clear 34 1013 19 10000 2.6 180 21:49 19.07.2019
4904 Clear 34 1013 20 10000 2.1 170 21:31 19.07.2019
4905 Clear 35 1013 21 10000 2.6 0 20:58 19.07.2019
4906 Clear 35 1013 21 10000 2.6 0 20:37 19.07.2019
4907 Clear 35 1013 19 10000 1.5 150 20:18 19.07.2019
4908 Clear 36 1013 20 10000 3.6 210 19:35 19.07.2019
4909 Clear 36 1013 19 10000 4.1 240 18:43 19.07.2019
4910 Clear 36 1014 18 10000 5.1 210 18:25 19.07.2019
4911 Clear 36 1014 15 10000 4.1 230 17:55 19.07.2019
4912 Clear 36 1014 18 10000 4.1 230 17:29 19.07.2019
4913 Clear 36 1015 19 10000 5.1 190 16:57 19.07.2019
4914 Clear 35 1015 19 10000 5.1 190 16:39 19.07.2019
4915 Clear 35 1015 20 10000 4.1 230 16:18 19.07.2019
4916 Clear 35 1015 22 10000 2.6 140 15:43 19.07.2019
4917 Clear 34 1016 26 10000 2.1 0 15:24 19.07.2019
4918 Clear 34 1016 28 10000 2.1 0 14:45 19.07.2019
4919 Clear 33 1016 31 10000 2.1 0 14:25 19.07.2019
4920 Clear 33 1016 31 10000 2.1 0 13:57 19.07.2019
4921 Clear 33 1017 27 10000 2.1 100 13:38 19.07.2019
4922 Clear 31 1017 31 10000 2.1 60 13:20 19.07.2019
4923 Clear 31 1017 35 10000 2.6 0 12:44 19.07.2019
4924 Clear 29 1017 35 10000 1.5 0 12:25 19.07.2019
4925 Clear 29 1017 37 10000 1.5 0 11:46 19.07.2019
4926 Clear 28 1017 36 10000 2.1 90 11:19 19.07.2019
4927 Clear 28 1017 36 10000 2.1 90 11:19 19.07.2019
4928 Clear 27 1018 39 10000 2.1 60 10:48 19.07.2019
4929 Clear 26 1017 41 10000 1.5 60 10:23 19.07.2019
4930 Clear 26 1017 41 10000 1.5 50 09:59 19.07.2019
4931 Clear 25 1017 41 10000 1.5 50 09:41 19.07.2019
4932 Clear 24 1017 41 10000 2.1 60 09:22 19.07.2019
4933 Clear 23 1017 44 10000 2.1 50 08:49 19.07.2019
4934 Clear 22 1017 46 10000 1.5 40 08:22 19.07.2019
4935 Clear 22 1016 46 10000 1 0 07:29 19.07.2019
4936 Clear 22 1016 41 10000 2.6 360 06:26 19.07.2019
4937 Clear 25 1016 36 10000 3.1 340 02:56 19.07.2019
4938 Clear 27 1015 32 10000 4.1 20 01:21 19.07.2019
4939 Clear 28 1015 29 10000 3.1 20 00:46 19.07.2019
4940 Clear 30 1015 29 10000 3.1 350 23:59 18.07.2019
4941 Clear 30 1015 29 10000 2.6 290 23:40 18.07.2019
4942 Clear 30 1015 29 10000 0.5 0 23:22 18.07.2019
4943 Clear 32 1014 25 10000 2.1 290 22:42 18.07.2019
4944 Clear 32 1014 22 10000 2.6 260 22:20 18.07.2019
4945 Clear 33 1014 21 10000 2.1 230 21:52 18.07.2019
4946 Clear 33 1014 22 10000 2.6 260 21:34 18.07.2019
4947 Clear 33 1014 20 10000 1.5 210 20:57 18.07.2019
4948 Clear 33 1014 20 10000 1.5 210 20:38 18.07.2019
4949 Clear 33 1014 21 10000 2.6 0 20:18 18.07.2019
4950 Clear 34 1014 20 10000 2.1 150 19:46 18.07.2019
4951 Clear 34 1014 21 10000 2.1 0 19:21 18.07.2019
4952 Clear 34 1014 20 10000 2.1 240 18:49 18.07.2019
4953 Clear 34 1014 19 10000 5.7 230 18:21 18.07.2019
4954 Clear 35 1015 19 10000 2.1 90 17:45 18.07.2019
4955 Clear 35 1015 19 10000 2.1 90 17:45 18.07.2019
4956 Clear 35 1015 19 10000 2.1 90 17:45 18.07.2019
4957 Clear 34 1015 19 10000 3.6 200 17:26 18.07.2019
4958 Clear 34 1015 20 10000 3.1 200 16:58 18.07.2019
4959 Clear 34 1015 20 10000 3.1 200 16:40 18.07.2019
4960 Clear 34 1016 21 10000 1.5 0 16:21 18.07.2019
4961 Clear 34 1016 21 10000 2.1 0 15:55 18.07.2019
4962 Clear 33 1016 21 10000 2.1 0 15:35 18.07.2019
4963 Clear 33 1016 26 10000 1.5 70 14:55 18.07.2019
4964 Clear 33 1016 26 10000 1.5 70 14:37 18.07.2019
4965 Clear 32 1017 33 10000 2.1 0 13:54 18.07.2019
4966 Clear 31 1017 35 10000 2.1 0 13:36 18.07.2019
4967 Clear 31 1017 35 10000 2.1 0 13:18 18.07.2019
4968 Clear 30 1017 35 10000 2.1 60 12:42 18.07.2019
4969 Clear 29 1017 37 10000 1.5 0 12:18 18.07.2019
4970 Clear 28 1017 42 10000 2.1 70 11:48 18.07.2019
4971 Clear 27 1017 44 10000 2.6 70 11:27 18.07.2019
4972 Clear 26 1017 47 10000 2.1 70 10:52 18.07.2019
4973 Clear 24 1017 50 10000 2.6 60 10:18 18.07.2019
4974 Clear 24 1017 53 10000 2.6 70 09:44 18.07.2019
4975 Clear 23 1017 56 10000 2.1 30 09:21 18.07.2019
4976 Clear 22 1016 60 10000 2.1 10 08:41 18.07.2019
4977 Clear 21 1016 60 10000 1.5 360 08:18 18.07.2019
4978 Clear 21 1016 64 10000 1.5 350 07:37 18.07.2019
4979 Clear 21 1015 60 10000 2.1 360 06:59 18.07.2019
4980 Clear 21 1015 60 10000 1.5 360 06:34 18.07.2019
4981 Clear 23 1015 53 10000 0.5 0 04:19 18.07.2019
4982 Clear 24 1015 47 10000 3.1 360 02:52 18.07.2019
4983 Clear 25 1015 36 10000 1.5 360 01:37 18.07.2019
4984 Clear 26 1015 35 10000 5.7 280 00:26 18.07.2019
4985 Clear 27 1014 30 10000 2.1 10 23:49 17.07.2019
4986 Clear 28 1013 26 10000 0.5 10 23:18 17.07.2019
4987 Clear 29 1014 22 10000 1.5 200 22:43 17.07.2019
4988 Clear 30 1014 23 10000 1.5 250 22:23 17.07.2019
4989 Clear 31 1014 20 10000 1 0 21:58 17.07.2019
4990 Clear 31 1014 20 10000 1 0 21:39 17.07.2019
4991 Clear 31 1014 19 10000 1.5 170 21:21 17.07.2019
4992 Clear 31 1014 19 10000 1.5 250 20:57 17.07.2019
4993 Clear 32 1014 19 10000 1.5 250 20:39 17.07.2019
4994 Clear 32 1014 22 10000 2.6 250 20:20 17.07.2019
4995 Clear 32 1014 21 10000 2.6 260 19:43 17.07.2019
4996 Clouds 32 1014 22 10000 1 0 19:21 17.07.2019
4997 Clouds 32 1014 21 10000 2.1 0 18:56 17.07.2019
4998 Clouds 32 1014 21 10000 2.1 0 18:37 17.07.2019
4999 Clouds 32 1014 22 10000 2.1 230 18:18 17.07.2019
5000 Clouds 31 1014 24 10000 1.5 90 17:43 17.07.2019
5001 Clouds 32 1014 24 10000 1.5 90 17:22 17.07.2019
5002 Clouds 32 1014 22 10000 3.1 260 16:42 17.07.2019
5003 Clouds 32 1014 22 10000 2.1 220 16:22 17.07.2019
5004 Clouds 32 1014 22 10000 2.1 220 15:51 17.07.2019
5005 Clouds 32 1015 22 10000 3.6 0 15:31 17.07.2019
5006 Clouds 31 1015 25 10000 3.6 120 14:57 17.07.2019
5007 Clear 31 1015 25 10000 3.1 0 14:39 17.07.2019
5008 Clear 31 1015 25 10000 3.1 0 14:21 17.07.2019
5009 Clear 31 1015 27 10000 3.1 240 13:56 17.07.2019
5010 Clear 30 1015 28 10000 2.1 0 13:36 17.07.2019
5011 Clear 30 1015 28 10000 2.1 0 13:18 17.07.2019
5012 Clear 28 1016 30 10000 1.5 190 12:39 17.07.2019
5013 Clear 28 1016 30 10000 1.5 190 12:19 17.07.2019
5014 Clear 27 1016 36 10000 2.1 140 11:43 17.07.2019
5015 Clear 26 1016 44 10000 2.1 120 11:19 17.07.2019
5016 Clear 25 1016 44 10000 2.1 140 10:49 17.07.2019
5017 Clear 25 1016 44 10000 2.1 140 10:24 17.07.2019
5018 Clear 23 1015 43 10000 1.5 60 09:46 17.07.2019
5019 Clear 23 1015 43 10000 1.5 60 09:28 17.07.2019
5020 Clear 22 1015 56 10000 2.1 350 08:56 17.07.2019
5021 Clear 22 1015 60 10000 2.6 360 08:37 17.07.2019
5022 Clear 22 1015 60 10000 2.1 350 08:18 17.07.2019
5023 Clear 22 1015 60 10000 2.1 350 07:41 17.07.2019
5024 Clear 22 1015 60 10000 2.1 350 07:22 17.07.2019
5025 Clear 22 1014 49 10000 2.1 90 06:46 17.07.2019
5026 Clear 22 1014 49 10000 2.1 90 06:45 17.07.2019
5027 Clear 23 1014 49 10000 2.1 90 06:27 17.07.2019
5028 Clear 23 1013 44 10000 3.1 130 05:41 17.07.2019
5029 Clear 24 1013 41 10000 3.6 150 04:59 17.07.2019
5030 Clear 25 1013 32 10000 5.1 150 03:57 17.07.2019
5031 Clear 27 1012 37 10000 2.6 230 02:44 17.07.2019
5032 Clear 28 1012 28 10000 3.1 180 01:42 17.07.2019
5033 Clear 28 1012 28 10000 3.1 180 01:23 17.07.2019
5034 Clear 29 1012 33 10000 6.2 140 00:43 17.07.2019
5035 Clear 30 1012 27 10000 5.7 140 00:23 17.07.2019
5036 Clear 29 1011 21 10000 1.5 360 23:47 16.07.2019
5037 Clear 31 1011 22 10000 1 0 23:25 16.07.2019
5038 Clear 31 1011 22 10000 1 0 22:57 16.07.2019
5039 Clear 32 1012 25 10000 2.6 320 22:39 16.07.2019
5040 Clear 33 1012 22 10000 2.6 0 22:19 16.07.2019
5041 Clear 33 1012 19 10000 1.5 150 21:43 16.07.2019
5042 Clear 33 1012 18 10000 1 0 21:20 16.07.2019
5043 Clear 34 1012 19 10000 3.1 100 20:41 16.07.2019
5044 Clear 35 1012 19 10000 3.1 100 20:23 16.07.2019
5045 Clear 35 1012 17 10000 2.1 0 19:56 16.07.2019
5046 Clear 35 1012 17 10000 3.1 0 19:37 16.07.2019
5047 Clear 35 1012 18 10000 3.1 120 19:19 16.07.2019
5048 Clear 35 1013 17 10000 2.1 0 18:45 16.07.2019
5049 Clear 35 1013 18 10000 2.1 180 18:21 16.07.2019
5050 Clear 35 1013 18 10000 2.1 180 18:21 16.07.2019
5051 Clear 35 1013 18 10000 2.1 180 17:55 16.07.2019
5052 Clouds 35 1014 20 10000 2.6 150 17:36 16.07.2019
5053 Clouds 35 1014 20 10000 3.6 150 16:56 16.07.2019
5054 Clouds 35 1014 20 10000 2.1 150 16:38 16.07.2019
5055 Clouds 35 1014 20 10000 2.1 0 16:18 16.07.2019
5056 Clouds 34 1015 19 10000 3.6 170 15:39 16.07.2019
5057 Clear 33 1015 24 10000 2.6 0 15:20 16.07.2019
5058 Clear 33 1015 24 10000 2.6 0 14:57 16.07.2019
5059 Clear 33 1015 26 10000 2.1 0 14:38 16.07.2019
5060 Clear 33 1015 26 10000 2.1 0 14:19 16.07.2019
5061 Clear 31 1016 29 10000 2.6 0 13:44 16.07.2019
5062 Clear 31 1016 29 10000 2.6 0 13:20 16.07.2019
5063 Clear 30 1017 37 10000 2.6 90 12:44 16.07.2019
5064 Clear 29 1017 34 10000 2.1 60 12:20 16.07.2019
5065 Clear 28 1017 34 10000 2.1 60 11:55 16.07.2019
5066 Clear 27 1017 36 10000 3.1 70 11:37 16.07.2019
5067 Clear 27 1017 39 10000 2.1 0 11:19 16.07.2019
5068 Clear 26 1017 34 10000 2.1 30 10:45 16.07.2019
5069 Clear 26 1017 34 10000 2.1 30 10:22 16.07.2019
5070 Clear 24 1017 38 10000 2.1 10 09:44 16.07.2019
5071 Clear 24 1017 38 10000 2.1 10 09:22 16.07.2019
5072 Clear 22 1017 40 10000 2.1 360 08:58 16.07.2019
5073 Clear 22 1016 40 10000 2.1 360 08:40 16.07.2019
5074 Clear 21 1016 43 10000 2.6 360 08:18 16.07.2019
5075 Clear 20 1016 43 10000 2.6 360 07:41 16.07.2019
5076 Clear 20 1016 43 10000 2.6 360 07:22 16.07.2019
5077 Clear 20 1016 43 10000 2.6 350 06:45 16.07.2019
5078 Clear 21 1015 40 10000 2.1 360 05:59 16.07.2019
5079 Clear 21 1016 40 10000 2.1 10 05:32 16.07.2019
5080 Clear 22 1015 38 10000 2.1 360 04:54 16.07.2019
5081 Clear 23 1015 36 10000 2.1 60 03:52 16.07.2019
5082 Clear 24 1015 29 10000 2.6 40 02:55 16.07.2019
5083 Clear 24 1015 27 10000 2.1 40 02:30 16.07.2019
5084 Clear 25 1015 26 10000 1 0 01:41 16.07.2019
5085 Clear 26 1014 24 10000 3.6 360 00:41 16.07.2019
5086 Clear 27 1014 24 10000 3.6 360 00:19 16.07.2019
5087 Clear 28 1014 25 10000 4.1 360 23:44 15.07.2019
5088 Clear 28 1014 20 10000 2.1 340 23:25 15.07.2019
5089 Clear 30 1014 18 10000 2.6 320 22:47 15.07.2019
5090 Clear 31 1014 18 10000 3.6 330 22:22 15.07.2019
5091 Clear 31 1014 18 10000 3.6 330 21:58 15.07.2019
5092 Clear 32 1013 18 10000 3.6 330 21:40 15.07.2019
5093 Clear 32 1013 15 10000 5.7 300 21:20 15.07.2019
5094 Clear 33 1013 15 10000 5.7 300 20:55 15.07.2019
5095 Clear 33 1013 16 10000 5.1 300 20:36 15.07.2019
5096 Clear 33 1013 13 10000 5.1 300 20:18 15.07.2019
5097 Clear 34 1013 14 10000 4.1 310 19:39 15.07.2019
5098 Clear 34 1013 15 10000 5.7 290 19:19 15.07.2019
5099 Clear 34 1013 15 10000 5.7 290 18:50 15.07.2019
5100 Clear 35 1013 17 10000 5.1 300 18:23 15.07.2019
5101 Clear 35 1013 17 10000 5.1 300 17:59 15.07.2019
5102 Clear 34 1013 15 10000 5.1 290 17:41 15.07.2019
5103 Clear 34 1013 22 10000 3.6 0 17:22 15.07.2019
5104 Clear 34 1013 22 10000 3.6 0 16:58 15.07.2019
5105 Clouds 34 1014 23 10000 3.6 230 16:38 15.07.2019
5106 Clouds 33 1014 23 10000 3.6 0 16:20 15.07.2019
5107 Clouds 33 1014 26 10000 4.1 210 15:45 15.07.2019
5108 Clouds 33 1014 26 10000 4.1 210 15:27 15.07.2019
5109 Clouds 32 1015 25 10000 3.1 0 14:59 15.07.2019
5110 Clear 32 1015 25 10000 1.5 0 14:40 15.07.2019
5111 Clear 32 1015 25 10000 1.5 0 14:21 15.07.2019
5112 Clear 31 1015 27 10000 2.6 0 13:48 15.07.2019
5113 Clear 30 1015 27 10000 1.5 0 13:21 15.07.2019
5114 Clear 29 1015 27 10000 1.5 0 12:56 15.07.2019
5115 Clear 28 1016 28 10000 1.5 0 12:37 15.07.2019
5116 Clear 28 1016 30 10000 1.5 0 12:18 15.07.2019
5117 Clear 26 1016 30 10000 1.5 0 11:41 15.07.2019
5118 Clear 25 1016 31 10000 1.5 0 11:20 15.07.2019
5119 Clear 24 1016 36 10000 1.5 40 10:43 15.07.2019
5120 Clear 24 1016 36 10000 1.5 40 10:24 15.07.2019
5121 Clear 22 1016 38 10000 2.1 60 09:43 15.07.2019
5122 Clear 22 1016 38 10000 2.1 60 09:23 15.07.2019
5123 Clear 21 1016 40 10000 1.5 50 08:47 15.07.2019
5124 Clear 20 1016 40 10000 1.5 50 08:27 15.07.2019
5125 Clear 19 1016 49 10000 1.5 30 07:55 15.07.2019
5126 Clear 19 1016 49 10000 1.5 10 07:33 15.07.2019
5127 Clear 20 1015 49 10000 1.5 350 06:48 15.07.2019
5128 Clear 20 1015 49 10000 1.5 350 06:30 15.07.2019
5129 Clouds 20 1015 46 10000 2.1 60 05:43 15.07.2019
5130 Clouds 21 1015 46 10000 0.5 30 04:52 15.07.2019
5131 Clear 22 1015 43 10000 2.1 350 04:34 15.07.2019
5132 Clear 22 1015 41 10000 2.6 50 03:29 15.07.2019
5133 Clear 22 1014 35 10000 2.1 340 02:25 15.07.2019
5134 Clear 24 1014 31 10000 1.5 80 01:37 15.07.2019
5135 Clear 25 1014 30 10000 2.1 40 00:54 15.07.2019
5136 Clear 26 1014 30 10000 5.7 360 00:28 15.07.2019
5137 Clear 27 1014 28 10000 4.6 350 23:59 14.07.2019
5138 Clear 27 1014 28 10000 3.6 350 23:40 14.07.2019
5139 Clear 27 1014 28 10000 3.6 350 23:20 14.07.2019
5140 Clear 28 1014 25 10000 4.1 350 22:57 14.07.2019
5141 Clear 29 1014 28 10000 3.1 300 22:38 14.07.2019
5142 Clear 29 1014 28 10000 3.1 300 22:20 14.07.2019
5143 Clear 30 1014 25 10000 5.1 300 21:46 14.07.2019
5144 Clear 30 1013 21 10000 5.1 360 21:19 14.07.2019
5145 Clouds 31 1013 24 10000 4.1 290 20:59 14.07.2019
5146 Clouds 31 1013 25 10000 4.6 310 20:38 14.07.2019
5147 Clouds 31 1013 25 10000 4.6 310 20:38 14.07.2019
5148 Clouds 32 1013 24 10000 4.6 290 20:20 14.07.2019
5149 Clouds 32 1013 26 10000 1.5 0 19:55 14.07.2019
5150 Clouds 32 1013 26 10000 1.5 0 19:36 14.07.2019
5151 Clouds 32 1013 27 10000 2.1 290 19:18 14.07.2019
5152 Clouds 32 1013 25 10000 1 0 18:40 14.07.2019
5153 Clouds 32 1013 24 10000 1.5 360 18:22 14.07.2019
5154 Clouds 32 1013 24 10000 1.5 360 17:58 14.07.2019
5155 Clouds 32 1013 21 10000 3.6 40 17:23 14.07.2019
5156 Clouds 32 1014 29 10000 2.1 0 16:54 14.07.2019
5157 Clouds 32 1014 29 10000 2.1 0 16:26 14.07.2019
5158 Clouds 31 1014 35 10000 2.6 340 15:58 14.07.2019
5159 Clouds 31 1014 29 10000 2.1 300 15:38 14.07.2019
5160 Clouds 30 1015 33 10000 2.1 340 15:19 14.07.2019
5161 Clouds 30 1015 31 10000 2.1 0 14:44 14.07.2019
5162 Clouds 29 1015 31 10000 2.1 0 14:20 14.07.2019
5163 Clouds 29 1015 37 10000 1.5 0 13:45 14.07.2019
5164 Clouds 28 1015 37 10000 1 110 13:23 14.07.2019
5165 Clouds 28 1015 37 10000 1 110 12:56 14.07.2019
5166 Clouds 28 1015 39 10000 1.5 10 12:37 14.07.2019
5167 Clouds 27 1015 42 10000 1 350 12:18 14.07.2019
5168 Clear 27 1015 42 10000 1 140 11:45 14.07.2019
5169 Clear 25 1015 44 10000 2.6 0 11:20 14.07.2019
5170 Clear 25 1015 44 10000 1 0 10:42 14.07.2019
5171 Clear 24 1015 47 10000 1 0 10:20 14.07.2019
5172 Clear 24 1014 50 10000 2.6 320 09:45 14.07.2019
5173 Clear 23 1014 50 10000 2.6 320 09:27 14.07.2019
5174 Clear 21 1014 60 10000 2.1 310 08:46 14.07.2019
5175 Clear 22 1014 60 10000 2.1 310 08:24 14.07.2019
5176 Clear 21 1014 64 10000 3.1 10 07:41 14.07.2019
5177 Clear 21 1014 64 10000 3.1 10 07:19 14.07.2019
5178 Clear 22 1013 60 10000 1.5 20 05:45 14.07.2019
5179 Clear 22 1013 60 10000 1.5 20 05:45 14.07.2019
5180 Clear 23 1013 50 10000 0.5 0 03:51 14.07.2019
5181 Clear 23 1013 50 10000 0.5 0 03:33 14.07.2019
5182 Clear 24 1013 44 10000 4.1 200 02:52 14.07.2019
5183 Clear 24 1013 44 10000 4.1 200 02:22 14.07.2019
5184 Clear 25 1013 39 10000 4.6 260 01:35 14.07.2019
5185 Clear 27 1013 32 10000 5.7 250 00:59 14.07.2019
5186 Clear 27 1013 28 10000 7.2 240 00:40 14.07.2019
5187 Clear 27 1013 28 10000 7.2 240 00:20 14.07.2019
5188 Clear 27 1012 28 10000 6.7 240 23:56 13.07.2019
5189 Clear 28 1012 28 10000 6.7 240 23:37 13.07.2019
5190 Clear 28 1012 28 10000 6.7 240 23:19 13.07.2019
5191 Clear 29 1013 37 10000 8.2 250 22:40 13.07.2019
5192 Clear 30 1013 26 10000 7.7 240 22:21 13.07.2019
5193 Clear 31 1012 23 10000 7.7 240 21:45 13.07.2019
5194 Clear 31 1012 23 10000 7.7 240 21:20 13.07.2019
5195 Clear 32 1012 19 10000 7.2 220 20:47 13.07.2019
5196 Clear 33 1012 19 10000 7.2 220 20:28 13.07.2019
5197 Clear 33 1012 21 10000 6.2 210 19:48 13.07.2019
5198 Clear 34 1012 21 10000 6.2 210 19:29 13.07.2019
5199 Clouds 34 1013 24 10000 4.1 200 18:46 13.07.2019
5200 Clouds 34 1013 24 10000 7.2 200 18:23 13.07.2019
5201 Clear 34 1014 26 10000 5.1 190 17:42 13.07.2019
5202 Clear 34 1014 26 10000 5.1 190 17:42 13.07.2019
5203 Clear 34 1014 27 10000 6.2 190 17:21 13.07.2019
5204 Clear 34 1014 27 10000 6.2 190 16:58 13.07.2019
5205 Clear 34 1015 28 10000 4.6 190 16:38 13.07.2019
5206 Clear 34 1015 28 10000 4.6 190 16:19 13.07.2019
5207 Clouds 33 1015 31 10000 6.7 220 15:45 13.07.2019
5208 Clouds 32 1015 31 10000 6.7 220 15:22 13.07.2019
5209 Clouds 33 1016 29 10000 1 0 14:46 13.07.2019
5210 Clouds 33 1016 29 10000 1 0 14:25 13.07.2019
5211 Thunderstorm 32 1016 45 10000 1.5 310 13:46 13.07.2019
5212 Thunderstorm 32 1016 32 10000 2.6 330 13:27 13.07.2019
5213 Thunderstorm 31 1016 32 10000 2.6 330 12:59 13.07.2019
5214 Thunderstorm 31 1017 28 10000 1.5 290 12:39 13.07.2019
5215 Clouds 30 1016 27 10000 2.6 30 12:20 13.07.2019
5216 Clouds 30 1016 31 10000 1 0 11:43 13.07.2019
5217 Clear 30 1017 35 10000 1 250 11:19 13.07.2019
5218 Clouds 29 1017 35 10000 2.6 200 10:45 13.07.2019
5219 Clouds 28 1017 32 10000 2.1 120 10:23 13.07.2019
5220 Clouds 29 1017 32 10000 2.1 120 09:57 13.07.2019
5221 Clear 27 1016 34 10000 1.5 110 09:38 13.07.2019
5222 Thunderstorm 26 1016 36 10000 0.5 0 09:18 13.07.2019
5223 Thunderstorm 25 1016 36 10000 2.1 60 08:33 13.07.2019
5224 Thunderstorm 25 1016 68 10000 3.6 360 07:59 13.07.2019
5225 Thunderstorm 25 1016 44 10000 3.1 260 07:30 13.07.2019
5226 Clear 25 1015 38 10000 1 340 06:39 13.07.2019
5227 Clear 26 1015 33 10000 1 90 05:58 13.07.2019
5228 Clear 27 1016 33 10000 1 0 05:28 13.07.2019
5229 Clear 27 1015 31 10000 0.5 0 04:23 13.07.2019
5230 Clear 27 1015 31 10000 0.5 0 03:56 13.07.2019
5231 Clear 27 1016 34 10000 1.5 330 03:37 13.07.2019
5232 Clear 29 1016 28 10000 0.5 0 01:55 13.07.2019
5233 Clear 29 1016 26 10000 0.87 284.808 01:37 13.07.2019
5234 Clear 30 1016 25 10000 1 0 01:18 13.07.2019
5235 Clear 30 1016 25 10000 1 0 00:51 13.07.2019
5236 Clear 30 1016 21 10000 2.1 10 00:19 13.07.2019
5237 Clear 31 1015 19 10000 2.25 173.22 23:44 12.07.2019
5238 Clear 32 1015 19 10000 2.25 173.22 23:25 12.07.2019
5239 Clear 33 1016 19 10000 2.25 173.22 22:46 12.07.2019
5240 Clear 33 1016 19 10000 2.25 173.22 22:24 12.07.2019
5241 Clear 35 1016 15 10000 0.5 300 21:43 12.07.2019
5242 Clear 36 1016 16 10000 2.6 160 21:22 12.07.2019
5243 Clear 36 1016 16 10000 2.6 160 20:54 12.07.2019
5244 Clear 37 1016 15 10000 1 0 20:24 12.07.2019
5245 Clear 37 1016 15 10000 1 0 19:59 12.07.2019
5246 Clear 37 1016 16 10000 2.1 310 19:41 12.07.2019
5247 Clear 37 1016 16 10000 2.1 310 19:23 12.07.2019
5248 Clear 38 1017 16 10000 5.1 220 18:41 12.07.2019
5249 Clear 37 1017 16 10000 5.1 220 18:21 12.07.2019
5250 Clear 38 1017 15 10000 1.5 0 17:49 12.07.2019
5251 Clear 38 1017 15 10000 1.5 0 17:28 12.07.2019
5252 Clear 38 1017 13 10000 3.6 200 16:45 12.07.2019
5253 Clear 38 1017 13 10000 3.6 200 16:21 12.07.2019
5254 Clear 38 1018 17 10000 3.1 150 15:41 12.07.2019
5255 Clear 37 1018 17 10000 3.1 150 15:22 12.07.2019
5256 Clear 37 1018 17 10000 1.5 0 14:57 12.07.2019
5257 Clear 36 1018 16 10000 1.5 0 14:38 12.07.2019
5258 Clear 36 1018 16 10000 1.5 0 14:20 12.07.2019
5259 Clear 35 1018 20 10000 1 0 13:42 12.07.2019
5260 Clear 34 1019 21 10000 2.1 110 13:20 12.07.2019
5261 Clear 33 1018 22 10000 1.5 130 12:40 12.07.2019
5262 Clear 32 1018 25 10000 1 0 12:20 12.07.2019
5263 Clear 31 1018 27 10000 2.1 50 11:45 12.07.2019
5264 Clear 30 1018 27 10000 2.1 50 11:23 12.07.2019
5265 Clear 29 1018 28 10000 1.5 50 10:44 12.07.2019
5266 Clear 28 1018 28 10000 1.5 50 10:25 12.07.2019
5267 Clear 27 1018 30 10000 1.5 60 09:55 12.07.2019
5268 Clear 26 1018 32 10000 1.5 40 09:31 12.07.2019
5269 Clear 25 1018 31 10000 0.5 0 09:00 12.07.2019
5270 Clear 24 1018 36 10000 1 0 08:41 12.07.2019
5271 Clear 23 1018 36 10000 1 0 08:19 12.07.2019
5272 Clear 23 1017 38 10000 1 0 07:46 12.07.2019
5273 Clear 22 1017 38 10000 1 0 07:27 12.07.2019
5274 Clear 22 1016 40 10000 1.5 360 06:29 12.07.2019
5275 Clear 22 1016 40 10000 0.5 0 05:48 12.07.2019
5276 Clear 24 1016 36 10000 1.5 350 03:24 12.07.2019
5277 Clear 27 1016 26 10000 2.6 350 01:46 12.07.2019
5278 Clear 27 1016 26 10000 2.6 350 01:26 12.07.2019
5279 Clear 29 1015 23 10000 0.5 180 00:31 12.07.2019
5280 Clear 30 1015 17 10000 1.5 140 23:50 11.07.2019
5281 Clear 31 1015 17 10000 1.5 140 23:27 11.07.2019
5282 Clear 32 1015 14 10000 2.6 160 22:59 11.07.2019
5283 Clear 33 1015 18 10000 0.5 220 22:40 11.07.2019
5284 Clear 34 1015 14 10000 1.5 210 22:21 11.07.2019
5285 Clear 35 1015 12 10000 2.6 210 21:42 11.07.2019
5286 Clear 35 1015 12 10000 3.1 160 21:19 11.07.2019
5287 Clear 35 1015 12 10000 3.1 160 20:56 11.07.2019
5288 Clear 35 1015 12 10000 3.1 160 20:56 11.07.2019
5289 Clear 36 1015 13 10000 2.1 0 20:37 11.07.2019
5290 Clear 36 1015 14 10000 4.1 180 20:19 11.07.2019
5291 Clear 37 1015 13 10000 3.6 220 19:47 11.07.2019
5292 Clear 37 1015 13 10000 3.6 220 19:25 11.07.2019
5293 Clear 36 1015 13 10000 3.1 190 18:54 11.07.2019
5294 Clear 36 1015 13 10000 3.1 190 18:36 11.07.2019
5295 Clear 36 1015 13 10000 4.1 190 18:18 11.07.2019
5296 Clear 36 1016 13 10000 2.1 0 17:41 11.07.2019
5297 Clear 36 1016 13 10000 2.1 0 17:23 11.07.2019
5298 Clear 36 1016 14 10000 2.6 0 16:51 11.07.2019
5299 Clear 36 1016 14 10000 2.6 0 16:23 11.07.2019
5300 Clear 35 1016 14 10000 3.1 0 15:54 11.07.2019
5301 Clear 35 1017 19 10000 2.6 0 15:54 11.07.2019
5302 Clear 35 1016 14 10000 3.1 0 15:54 11.07.2019
5303 Clear 35 1017 19 10000 2.6 0 15:36 11.07.2019
5304 Clear 34 1017 18 10000 1.5 0 15:18 11.07.2019
5305 Clear 33 1017 20 10000 2.1 0 14:43 11.07.2019
5306 Clear 33 1017 20 10000 2.1 0 14:21 11.07.2019
5307 Clear 32 1017 20 10000 2.1 160 13:46 11.07.2019
5308 Clear 32 1017 24 10000 2.1 0 13:26 11.07.2019
5309 Clear 31 1018 28 10000 2.1 90 12:45 11.07.2019
5310 Clear 30 1018 28 10000 2.1 90 12:27 11.07.2019
5311 Clear 29 1018 30 10000 2.1 100 11:55 11.07.2019
5312 Clear 28 1018 35 10000 1.5 0 11:37 11.07.2019
5313 Clear 27 1018 36 10000 1.5 110 11:18 11.07.2019
5314 Clear 27 1018 36 10000 1 80 10:45 11.07.2019
5315 Clear 26 1018 41 10000 1.5 70 10:19 11.07.2019
5316 Clear 25 1018 41 10000 1 0 09:44 11.07.2019
5317 Clear 24 1018 41 10000 1 0 09:26 11.07.2019
5318 Clear 23 1017 44 10000 1 0 08:52 11.07.2019
5319 Clear 22 1017 46 10000 1 0 08:26 11.07.2019
5320 Clear 21 1017 49 10000 1 0 07:52 11.07.2019
5321 Clear 20 1017 46 10000 1 0 07:34 11.07.2019
5322 Clear 20 1016 52 10000 1.91 70.372 06:35 11.07.2019
5323 Clear 21 1016 52 10000 1.5 350 05:48 11.07.2019
5324 Clear 21 1016 52 10000 1.5 350 05:29 11.07.2019
5325 Clear 20 1016 48 10000 0.5 0 04:53 11.07.2019
5326 Clear 23 1015 35 10000 2.1 350 02:40 11.07.2019
5327 Clear 24 1016 33 10000 0.5 0 01:27 11.07.2019
5328 Clear 25 1016 28 10000 1 0 00:27 11.07.2019
5329 Clear 27 1015 23 10000 2.1 170 23:37 10.07.2019
5330 Clear 27 1015 22 10000 2.6 160 23:18 10.07.2019
5331 Clear 28 1015 26 10000 1 0 22:44 10.07.2019
5332 Clear 30 1015 23 10000 1 0 22:20 10.07.2019
5333 Clear 30 1015 20 10000 2.6 150 21:45 10.07.2019
5334 Clear 31 1015 20 10000 2.6 150 21:26 10.07.2019
5335 Clear 31 1015 21 10000 1 0 20:56 10.07.2019
5336 Clear 31 1015 21 10000 1 0 20:38 10.07.2019
5337 Clear 31 1015 19 10000 1.5 0 20:18 10.07.2019
5338 Clear 32 1015 19 10000 1.5 0 19:45 10.07.2019
5339 Clear 32 1015 18 10000 1.5 0 19:22 10.07.2019
5340 Clear 32 1015 18 10000 1.5 0 18:55 10.07.2019
5341 Clear 32 1015 19 10000 1 0 18:37 10.07.2019
5342 Clear 31 1016 22 10000 1.5 0 18:19 10.07.2019
5343 Smoke 31 1016 21 10000 2.1 320 17:41 10.07.2019
5344 Smoke 31 1016 21 10000 2.1 320 17:20 10.07.2019
5345 Clear 30 1016 25 10000 2.1 0 16:22 10.07.2019
5346 Clear 30 1016 25 10000 2.1 0 15:59 10.07.2019
5347 Clear 30 1017 25 10000 1.5 0 15:41 10.07.2019
5348 Clear 29 1017 30 10000 1.5 50 15:19 10.07.2019
5349 Clear 29 1017 25 10000 1.5 0 15:19 10.07.2019
5350 Clear 28 1017 30 10000 1.5 40 14:40 10.07.2019
5351 Clear 28 1017 30 10000 1.5 40 14:22 10.07.2019
5352 Clear 27 1018 32 10000 1.5 0 13:45 10.07.2019
5353 Clear 26 1018 39 10000 2.1 0 13:19 10.07.2019
5354 Clear 26 1018 39 10000 2.1 0 12:58 10.07.2019
5355 Clear 25 1018 41 10000 2.6 20 12:37 10.07.2019
5356 Clear 24 1018 38 10000 2.6 0 12:18 10.07.2019
5357 Clear 24 1019 43 10000 3.6 70 11:45 10.07.2019
5358 Clear 23 1019 40 10000 3.1 40 11:21 10.07.2019
5359 Clear 22 1018 43 10000 2.6 50 10:44 10.07.2019
5360 Clear 22 1019 46 10000 2.1 0 10:20 10.07.2019
5361 Clear 21 1019 46 10000 1 0 09:44 10.07.2019
5362 Clear 19 1018 55 10000 1 0 09:21 10.07.2019
5363 Clear 18 1018 55 10000 2.1 350 08:50 10.07.2019
5364 Clear 18 1018 55 10000 2.1 350 08:29 10.07.2019
5365 Clear 17 1018 55 10000 1 0 07:54 10.07.2019
5366 Clear 17 1018 59 10000 1 0 07:32 10.07.2019
5367 Clear 16 1018 67 10000 1 0 06:56 10.07.2019
5368 Clear 17 1017 59 10000 0.5 0 05:59 10.07.2019
5369 Clear 18 1017 59 10000 1.5 20 04:38 10.07.2019
5370 Clear 18 1017 56 10000 2.6 50 03:40 10.07.2019
5371 Clear 22 1017 46 10000 2.1 40 00:47 10.07.2019
5372 Clear 22 1017 46 10000 2.1 40 00:26 10.07.2019
5373 Clear 23 1017 41 10000 3.1 40 23:41 09.07.2019
5374 Clear 24 1017 44 10000 3.1 40 23:21 09.07.2019
5375 Clear 24 1016 41 10000 3.1 30 22:41 09.07.2019
5376 Clear 24 1016 41 10000 3.1 30 22:22 09.07.2019
5377 Clouds 25 1016 38 10000 3.6 50 21:56 09.07.2019
5378 Clouds 25 1016 41 10000 3.6 50 21:38 09.07.2019
5379 Clouds 25 1015 36 10000 3.1 30 21:19 09.07.2019
5380 Clouds 26 1015 34 10000 3.6 40 20:43 09.07.2019
5381 Clouds 26 1015 34 10000 3.6 40 20:24 09.07.2019
5382 Clouds 26 1015 30 10000 2.1 0 19:41 09.07.2019
5383 Clouds 26 1015 26 10000 1 0 19:21 09.07.2019
5384 Clouds 26 1015 26 10000 0.5 100 18:46 09.07.2019
5385 Clouds 27 1015 26 10000 1.5 0 18:23 09.07.2019
5386 Clouds 28 1015 26 10000 1.5 0 17:57 09.07.2019
5387 Clouds 28 1015 26 10000 1 120 17:37 09.07.2019
5388 Clouds 28 1015 26 10000 3.6 200 17:19 09.07.2019
5389 Clouds 28 1015 28 10000 3.6 200 16:47 09.07.2019
5390 Clouds 28 1015 25 10000 2.1 340 16:24 09.07.2019
5391 Clouds 28 1015 25 10000 2.1 340 15:50 09.07.2019
5392 Clouds 27 1015 26 10000 1.5 0 15:31 09.07.2019
5393 Clouds 27 1016 28 10000 2.6 170 14:57 09.07.2019
5394 Clouds 27 1016 28 10000 3.6 150 14:39 09.07.2019
5395 Clouds 26 1016 28 10000 2.1 0 14:18 09.07.2019
5396 Clouds 26 1016 31 10000 2.1 0 13:43 09.07.2019
5397 Clear 26 1016 36 10000 2.6 0 13:24 09.07.2019
5398 Clear 25 1016 38 10000 3.1 210 12:40 09.07.2019
5399 Clear 24 1016 38 10000 3.1 250 12:22 09.07.2019
5400 Clear 24 1016 38 10000 3.1 250 11:58 09.07.2019
5401 Clear 23 1016 40 10000 2.6 250 11:39 09.07.2019
5402 Clear 23 1016 43 10000 2.1 240 11:20 09.07.2019
5403 Clear 22 1016 43 10000 1.07 215.85 10:50 09.07.2019
5404 Clear 22 1016 43 10000 1.07 215.85 10:31 09.07.2019
5405 Clear 21 1016 52 10000 1.07 215.85 09:42 09.07.2019
5406 Clear 20 1016 52 10000 1.66 240.855 09:22 09.07.2019
5407 Clear 20 1016 52 10000 1.66 240.855 09:22 09.07.2019
5408 Clear 18 1016 52 10000 1.66 240.855 08:55 09.07.2019
5409 Clear 18 1016 68 10000 1.66 240.855 08:35 09.07.2019
5410 Clear 23 1017 47 10000 4.1 120 03:58 05.07.2019
5411 Clear 23 1017 44 10000 3.6 110 03:38 05.07.2019
5412 Clear 23 1017 44 10000 3.6 110 03:38 05.07.2019
5413 Clear 24 1017 41 10000 7.2 140 03:19 05.07.2019
5414 Clear 25 1017 42 10000 7.2 140 02:44 05.07.2019
5415 Clear 26 1017 37 10000 7.7 150 01:39 05.07.2019
5416 Clear 27 1016 37 10000 6.7 140 01:19 05.07.2019
5417 Clear 28 1016 35 10000 7.7 140 00:46 05.07.2019
5418 Clear 29 1015 23 10000 3.1 180 23:53 04.07.2019
5419 Clear 30 1014 22 10000 3.6 160 23:21 04.07.2019
5420 Clear 30 1015 28 10000 2.6 230 22:45 04.07.2019
5421 Rain 31 1015 28 10000 2.6 230 22:25 04.07.2019
5422 Rain 31 1015 23 10000 3.1 160 21:57 04.07.2019
5423 Rain 31 1014 19 10000 3.6 150 21:39 04.07.2019
5424 Rain 31 1014 19 10000 3.6 150 21:21 04.07.2019
5425 Clouds 32 1014 18 10000 4.1 110 20:40 04.07.2019
5426 Clouds 32 1014 18 10000 4.1 110 20:22 04.07.2019
5427 Clouds 33 1014 18 10000 4.1 150 19:57 04.07.2019
5428 Clouds 32 1014 17 10000 4.1 160 19:38 04.07.2019
5429 Clouds 33 1015 18 10000 3.6 110 19:20 04.07.2019
5430 Clouds 33 1015 17 10000 5.1 130 18:43 04.07.2019
5431 Clouds 32 1015 17 10000 5.1 130 18:25 04.07.2019
5432 Clouds 32 1016 22 10000 3.1 130 17:47 04.07.2019
5433 Clouds 32 1016 22 10000 3.1 130 17:19 04.07.2019
5434 Clouds 31 1016 19 10000 4.6 140 15:59 04.07.2019
5435 Clouds 31 1017 23 10000 4.1 140 15:41 04.07.2019
5436 Clouds 31 1017 23 10000 4.1 140 15:22 04.07.2019
5437 Clear 31 1017 25 10000 4.1 120 14:56 04.07.2019
5438 Clouds 30 1017 27 10000 5.1 140 14:37 04.07.2019
5439 Clouds 30 1017 29 10000 4.1 140 14:18 04.07.2019
5440 Clouds 31 1017 29 10000 4.1 140 13:54 04.07.2019
5441 Clouds 30 1017 27 10000 3.1 90 13:36 04.07.2019
5442 Clear 29 1017 28 10000 5.1 190 13:18 04.07.2019
5443 Clear 28 1018 34 10000 2.6 70 12:37 04.07.2019
5444 Clear 27 1017 36 10000 2.1 0 12:19 04.07.2019
5445 Clouds 27 1017 34 10000 2.6 0 11:40 04.07.2019
5446 Clouds 26 1017 38 10000 3.1 80 11:20 04.07.2019
5447 Clear 25 1018 41 10000 2.6 80 10:41 04.07.2019
5448 Clear 25 1018 41 10000 2.6 80 10:23 04.07.2019
5449 Clear 24 1018 46 10000 3.6 90 09:45 04.07.2019
5450 Clear 24 1018 46 10000 3.6 90 09:26 04.07.2019
5451 Clear 23 1017 43 10000 4.1 80 08:57 04.07.2019
5452 Clear 23 1017 43 10000 3.6 80 08:29 04.07.2019
5453 Clear 21 1017 49 10000 3.1 90 07:47 04.07.2019
5454 Clear 21 1017 49 10000 3.1 90 07:47 04.07.2019
5455 Clouds 21 1016 53 10000 1.5 130 07:23 04.07.2019
5456 Clouds 22 1016 49 10000 1.5 110 06:56 04.07.2019
5457 Clouds 23 1016 47 10000 2.1 120 05:55 04.07.2019
5458 Clouds 23 1016 47 10000 2.1 150 05:36 04.07.2019
5459 Clear 24 1015 44 10000 3.1 140 03:30 04.07.2019
5460 Clear 26 1013 34 10000 9.3 140 01:46 04.07.2019
5461 Clear 27 1013 34 10000 9.3 140 01:25 04.07.2019
5462 Clouds 27 1013 30 10000 6.7 130 00:37 04.07.2019
5463 Clear 29 1013 22 10000 5.7 110 23:48 03.07.2019
5464 Clear 30 1013 18 10000 4.6 110 23:20 03.07.2019
5465 Clear 31 1013 18 10000 4.6 110 22:56 03.07.2019
5466 Clear 31 1012 18 10000 3.6 110 22:36 03.07.2019
5467 Clear 32 1012 19 10000 3.6 110 22:18 03.07.2019
5468 Clear 32 1012 17 10000 3.1 110 21:47 03.07.2019
5469 Clear 32 1012 17 10000 3.1 110 21:28 03.07.2019
5470 Clear 33 1012 17 10000 3.6 150 20:47 03.07.2019
5471 Clear 33 1012 17 10000 3.6 150 20:28 03.07.2019
5472 Clouds 33 1012 13 10000 4.6 160 19:54 03.07.2019
5473 Clouds 34 1012 13 10000 4.6 160 19:36 03.07.2019
5474 Clouds 34 1012 14 10000 6.2 110 18:55 03.07.2019
5475 Clouds 34 1012 15 10000 5.1 140 18:37 03.07.2019
5476 Clouds 34 1013 14 10000 7.2 120 18:18 03.07.2019
5477 Clouds 34 1013 18 10000 5.1 110 17:45 03.07.2019
5478 Clouds 33 1013 18 10000 7.2 150 17:19 03.07.2019
5479 Clouds 33 1013 21 10000 5.1 160 16:44 03.07.2019
5480 Clouds 33 1013 21 10000 5.1 160 16:44 03.07.2019
5481 Clouds 33 1013 21 10000 5.1 160 16:24 03.07.2019
5482 Clouds 33 1014 19 10000 6.7 120 15:54 03.07.2019
5483 Clouds 32 1014 24 10000 4.6 110 15:36 03.07.2019
5484 Clouds 32 1015 27 10000 4.1 170 15:18 03.07.2019
5485 Clear 32 1015 29 10000 4.1 150 14:42 03.07.2019
5486 Clear 31 1015 29 10000 3.1 0 14:19 03.07.2019
5487 Clear 31 1015 29 10000 3.6 110 13:43 03.07.2019
5488 Clear 31 1015 29 10000 3.6 110 13:24 03.07.2019
5489 Clouds 29 1016 37 10000 3.6 100 12:46 03.07.2019
5490 Clear 28 1016 42 10000 3.1 70 12:18 03.07.2019
5491 Clear 27 1016 44 10000 3.6 80 11:43 03.07.2019
5492 Clouds 26 1016 47 10000 4.1 80 11:23 03.07.2019
5493 Clouds 26 1016 44 10000 3.6 80 10:57 03.07.2019
5494 Clouds 26 1016 44 10000 3.6 80 10:36 03.07.2019
5495 Clouds 25 1016 44 10000 3.6 80 10:18 03.07.2019
5496 Clouds 24 1016 49 10000 4.6 90 09:39 03.07.2019
5497 Clouds 24 1016 49 10000 4.6 90 09:20 03.07.2019
5498 Rain 23 1016 46 10000 4.1 80 08:50 03.07.2019
5499 Rain 23 1016 46 10000 4.1 80 08:26 03.07.2019
5500 Clouds 21 1015 53 10000 3.6 90 07:40 03.07.2019
5501 Clouds 21 1015 53 10000 3.6 90 07:20 03.07.2019
5502 Clear 21 1015 88 10000 1.5 310 06:25 03.07.2019
5503 Clear 21 1015 77 10000 4.54 80.525 05:32 03.07.2019
5504 Clear 21 1015 73 10000 2.6 350 04:38 03.07.2019
5505 Clear 23 1015 73 10000 2.6 350 03:24 03.07.2019
5506 Thunderstorm 22 1015 73 10000 4.1 50 01:49 03.07.2019
5507 Thunderstorm 21 1015 88 8000 12.3 350 01:21 03.07.2019
5508 Thunderstorm 21 1015 88 8000 12.3 350 01:21 03.07.2019
5509 Thunderstorm 22 1015 88 1000 9.3 30 00:45 03.07.2019
5510 Thunderstorm 27 1014 48 9000 6.7 250 23:59 02.07.2019
5511 Thunderstorm 29 1014 48 9000 6.7 250 23:37 02.07.2019
5512 Clouds 29 1012 22 10000 1.5 130 23:19 02.07.2019
5513 Clouds 28 1013 22 10000 1 0 22:56 02.07.2019
5514 Clouds 29 1013 22 10000 1 0 22:37 02.07.2019
5515 Clouds 32 1013 21 10000 1 0 22:18 02.07.2019
5516 Clouds 33 1013 18 10000 1.5 200 21:42 02.07.2019
5517 Clouds 33 1013 19 10000 2.6 230 21:22 02.07.2019
5518 Clouds 33 1013 19 10000 2.6 230 20:58 02.07.2019
5519 Clouds 33 1013 18 10000 2.1 220 20:39 02.07.2019
5520 Clouds 33 1013 20 10000 2.1 0 20:20 02.07.2019
5521 -273 0 0 0 0 0 19:42 02.07.2019
5522 Clouds 34 1013 20 10000 2.1 160 19:23 02.07.2019
5523 Clouds 33 1014 24 10000 1 0 18:50 02.07.2019
5524 Clouds 33 1014 24 10000 1.5 230 18:19 02.07.2019
5525 Clouds 33 1014 23 10000 3.1 110 17:44 02.07.2019
5526 Clouds 33 1014 23 10000 3.1 110 17:24 02.07.2019
5527 Clouds 33 1015 22 10000 1.5 0 16:54 02.07.2019
5528 Clouds 33 1015 22 10000 1.5 0 16:35 02.07.2019
5529 Clouds 33 1015 23 10000 2.6 0 15:59 02.07.2019
5530 Clouds 33 1016 24 10000 3.1 190 15:38 02.07.2019
5531 Clouds 32 1016 25 10000 2.1 0 15:18 02.07.2019
5532 Clear 32 1016 25 10000 2.1 0 14:40 02.07.2019
5533 Clear 31 1016 25 10000 2.1 0 14:21 02.07.2019
5534 Clear 31 1017 33 10000 2.6 0 13:42 02.07.2019
5535 Clear 30 1017 35 10000 1.5 0 13:19 02.07.2019
5536 Clear 30 1017 35 10000 1.5 0 13:19 02.07.2019
5537 Clear 29 1017 37 10000 2.1 90 12:44 02.07.2019
5538 Clear 28 1017 37 10000 2.1 90 12:23 02.07.2019
5539 Clear 28 1017 39 10000 2.6 0 11:44 02.07.2019
5540 Clear 28 1017 39 10000 2.6 0 11:44 02.07.2019
5541 Clear 27 1017 39 10000 1 100 11:23 02.07.2019
5542 Clear 27 1017 39 10000 1 100 10:58 02.07.2019
5543 Clear 26 1017 41 10000 2.6 110 10:37 02.07.2019
5544 Clear 25 1018 41 10000 1.5 60 10:18 02.07.2019
5545 Clear 23 1017 44 10000 1 0 09:23 02.07.2019
5546 Clear 22 1017 44 10000 1 0 08:59 02.07.2019
5547 Clear 22 1017 46 10000 1.5 60 08:38 02.07.2019
5548 Clear 21 1017 46 10000 1.5 50 08:19 02.07.2019
5549 Clear 21 1017 46 10000 1.5 60 07:43 02.07.2019
5550 Clear 21 1016 49 10000 1 0 07:20 02.07.2019
5551 Clear 21 1016 52 10000 1 0 06:38 02.07.2019
5552 Clear 21 1016 49 10000 1 0 05:46 02.07.2019
5553 Clear 23 1017 44 10000 4.1 350 02:43 02.07.2019
5554 Clear 24 1017 47 10000 3.6 10 00:31 02.07.2019
5555 Clear 25 1017 44 10000 3.1 350 23:39 01.07.2019
5556 Clear 25 1017 44 10000 3.1 350 23:19 01.07.2019
5557 Clear 27 1017 34 10000 4.1 40 22:42 01.07.2019
5558 Clear 28 1017 34 10000 4.1 40 22:24 01.07.2019
5559 Clear 30 1016 19 10000 3.6 240 21:45 01.07.2019
5560 Clear 30 1016 19 10000 3.6 240 21:45 01.07.2019
5561 Clear 31 1015 22 10000 4.6 250 21:25 01.07.2019
5562 Clouds 32 1015 18 10000 6.7 250 20:51 01.07.2019
5563 Clouds 33 1015 19 10000 6.2 240 20:21 01.07.2019
5564 Clouds 33 1015 19 10000 6.2 240 19:57 01.07.2019
5565 Clouds 33 1015 20 10000 6.7 230 19:38 01.07.2019
5566 Clouds 34 1015 19 10000 5.7 220 19:20 01.07.2019
5567 Clouds 34 1015 19 10000 5.7 220 18:50 01.07.2019
5568 Clouds 34 1016 18 10000 6.2 230 18:28 01.07.2019
5569 Clouds 34 1016 20 10000 5.7 170 17:48 01.07.2019
5570 Clouds 34 1016 20 10000 5.7 170 17:27 01.07.2019
5571 Clouds 34 1016 21 10000 5.7 230 16:58 01.07.2019
5572 Clouds 34 1016 21 10000 5.7 230 16:40 01.07.2019
5573 Clear 34 1016 23 10000 3.6 0 16:22 01.07.2019
5574 Clear 34 1017 21 10000 2.6 0 15:44 01.07.2019
5575 Clear 34 1017 21 10000 2.1 0 15:26 01.07.2019
5576 Clear 33 1017 21 10000 1.5 200 14:45 01.07.2019
5577 Clear 33 1018 22 10000 1.5 0 14:24 01.07.2019
5578 Clear 32 1018 24 10000 2.1 0 13:48 01.07.2019
5579 Clear 32 1018 22 10000 1.5 0 13:24 01.07.2019
5580 Clear 31 1018 24 10000 1 0 12:58 01.07.2019
5581 Clear 31 1018 24 10000 1 0 12:38 01.07.2019
5582 Clear 30 1017 30 10000 1 160 12:20 01.07.2019
5583 Clear 30 1018 25 10000 1.5 0 11:47 01.07.2019
5584 Clear 29 1018 27 10000 1 0 11:28 01.07.2019
5585 Clear 29 1018 27 10000 0.5 0 10:55 01.07.2019
5586 Clear 29 1018 27 10000 0.5 0 10:37 01.07.2019
5587 Clear 27 1018 32 10000 1 0 10:18 01.07.2019
5588 Clear 26 1018 34 10000 1 0 09:41 01.07.2019
5589 Clouds 25 1018 34 10000 2.1 350 09:22 01.07.2019
5590 Clouds 24 1018 31 10000 2.1 330 08:39 01.07.2019
5591 Clouds 24 1018 33 10000 2.6 320 08:21 01.07.2019
5592 Clear 23 1017 36 10000 1.5 70 07:29 01.07.2019
5593 Clear 24 1017 33 10000 1.5 80 06:39 01.07.2019
5594 Clear 26 1016 22 10000 2.6 120 04:31 01.07.2019
5595 Clear 30 1016 22 10000 2.1 100 00:53 01.07.2019
5596 Clear 30 1016 22 10000 2.1 100 00:31 01.07.2019
5597 Clear 30 1016 19 10000 3.6 240 23:58 30.06.2019
5598 Clear 32 1015 19 10000 3.1 240 23:24 30.06.2019
5599 Clear 32 1016 19 10000 4.1 240 22:54 30.06.2019
5600 Clear 34 1016 20 10000 3.6 230 22:23 30.06.2019
5601 Clear 35 1016 20 10000 4.1 230 21:58 30.06.2019
5602 Clear 35 1016 20 10000 4.1 230 21:40 30.06.2019
5603 Clear 35 1016 20 10000 3.1 210 21:18 30.06.2019
5604 Clear 36 1016 22 10000 2.6 230 20:41 30.06.2019
5605 Clear 37 1016 18 10000 4.1 230 20:23 30.06.2019
5606 Clear 37 1016 19 10000 3.6 230 19:51 30.06.2019
5607 Clear 37 1017 18 10000 4.1 210 19:25 30.06.2019
5608 Clear 37 1017 18 10000 4.1 210 19:25 30.06.2019
5609 Clear 37 1017 19 10000 3.6 190 18:48 30.06.2019
5610 Clear 37 1017 17 10000 4.1 0 18:22 30.06.2019
5611 Clear 37 1018 19 10000 3.6 0 17:41 30.06.2019
5612 Clear 37 1018 19 10000 2.6 0 17:19 30.06.2019
5613 Clear 36 1018 17 10000 3.6 210 16:52 30.06.2019
5614 Clear 36 1018 18 10000 1.5 0 16:33 30.06.2019
5615 Clear 36 1018 16 10000 5.7 230 15:58 30.06.2019
5616 Clear 36 1018 16 10000 5.7 230 15:36 30.06.2019
5617 Clear 35 1019 15 10000 2.1 0 15:18 30.06.2019
5618 Clear 35 1019 16 10000 3.1 0 14:43 30.06.2019
5619 Clear 34 1019 18 10000 2.6 0 14:24 30.06.2019
5620 Clear 34 1019 17 10000 2.1 0 13:43 30.06.2019
5621 Clear 33 1019 19 10000 1.5 0 13:20 30.06.2019
5622 Clear 33 1019 17 10000 1 0 12:47 30.06.2019
5623 Clear 31 1019 19 10000 1 80 12:24 30.06.2019
5624 Clear 31 1019 19 10000 1 0 11:48 30.06.2019
5625 Clear 30 1019 19 10000 1 0 11:26 30.06.2019
5626 Clear 30 1019 22 10000 1.5 20 10:59 30.06.2019
5627 Clear 29 1019 22 10000 1.5 20 10:38 30.06.2019
5628 Clear 29 1019 21 10000 1.5 80 10:19 30.06.2019
5629 Clear 28 1018 22 10000 1.5 120 09:44 30.06.2019
5630 Clear 28 1018 22 10000 1.5 120 09:44 30.06.2019
5631 Clear 26 1018 22 10000 1.5 90 09:23 30.06.2019
5632 Clear 25 1018 24 10000 1.5 80 08:58 30.06.2019
5633 Clear 24 1018 24 10000 1.5 90 08:32 30.06.2019
5634 Clear 24 1017 26 10000 1.5 60 07:58 30.06.2019
5635 Clear 23 1017 27 10000 2.1 320 07:29 30.06.2019
5636 Clear 24 1017 27 10000 2.1 340 06:41 30.06.2019
5637 Clear 26 1017 22 10000 2.6 360 05:33 30.06.2019
5638 Clear 30 1016 15 10000 3.1 110 02:53 30.06.2019
5639 Clear 31 1016 15 10000 2.6 120 01:30 30.06.2019
5640 Clear 32 1016 15 10000 5.1 160 00:32 30.06.2019
5641 Clear 32 1015 11 10000 1.5 130 23:55 29.06.2019
5642 Clear 34 1014 9 10000 1.5 140 23:25 29.06.2019
5643 Clear 34 1015 9 10000 1 0 22:57 29.06.2019
5644 Clear 35 1015 9 10000 1 0 22:38 29.06.2019
5645 Clear 36 1015 8 10000 2.6 140 22:19 29.06.2019
5646 Clear 37 1015 16 10000 3.1 140 21:42 29.06.2019
5647 Clear 37 1015 9 10000 3.6 120 21:22 29.06.2019
5648 Clear 38 1015 15 10000 2.6 0 20:41 29.06.2019
5649 Clear 38 1015 13 10000 2.6 130 20:23 29.06.2019
5650 Clear 39 1015 12 10000 2.1 140 19:48 29.06.2019
5651 Clear 39 1015 11 10000 1 0 19:24 29.06.2019
5652 Clear 39 1015 13 10000 2.1 0 18:51 29.06.2019
5653 Clear 38 1015 13 10000 2.6 120 18:26 29.06.2019
5654 Clear 38 1016 11 10000 3.1 0 17:43 29.06.2019
5655 Clear 38 1016 15 10000 3.1 160 17:23 29.06.2019
5656 Clear 38 1016 15 10000 3.1 160 16:58 29.06.2019
5657 Clear 38 1016 16 10000 1.5 20 16:39 29.06.2019
5658 Clear 37 1017 18 10000 2.6 0 15:53 29.06.2019
5659 Clear 37 1017 19 10000 2.1 50 15:30 29.06.2019
5660 Clear 36 1017 19 10000 2.6 80 14:44 29.06.2019
5661 Clear 35 1018 20 10000 1.5 0 14:26 29.06.2019
5662 Clear 35 1018 20 10000 2.1 0 13:47 29.06.2019
5663 Clear 34 1018 21 10000 1.5 0 13:27 29.06.2019
5664 Clear 33 1018 22 10000 2.1 0 12:53 29.06.2019
5665 Clear 32 1018 24 10000 2.1 50 12:34 29.06.2019
5666 Clear 31 1018 22 10000 3.1 80 11:55 29.06.2019
5667 Clear 31 1018 22 10000 3.1 80 11:37 29.06.2019
5668 Clear 30 1018 22 10000 2.1 50 11:19 29.06.2019
5669 Clear 30 1018 23 10000 3.1 70 10:41 29.06.2019
5670 Clear 28 1018 23 10000 2.1 60 10:20 29.06.2019
5671 Clear 28 1018 24 10000 1.5 40 09:48 29.06.2019
5672 Clear 25 1018 27 10000 2.1 20 08:54 29.06.2019
5673 Clear 23 1018 26 10000 2.1 50 08:25 29.06.2019
5674 Clear 22 1017 31 10000 1.5 60 07:44 29.06.2019
5675 Clear 22 1017 30 10000 1.5 360 06:47 29.06.2019
5676 Clear 22 1017 30 10000 1 360 06:24 29.06.2019
5677 Clear 28 1017 16 10000 2.1 150 02:52 29.06.2019
5678 Clear 30 1016 12 10000 3.6 150 01:32 29.06.2019
5679 Clear 31 1016 12 10000 6.7 140 00:31 29.06.2019
5680 Clear 33 1016 12 10000 6.2 130 23:37 28.06.2019
5681 Clear 33 1016 12 10000 6.2 130 23:37 28.06.2019
5682 Clear 33 1015 12 10000 4.6 130 23:19 28.06.2019
5683 Clear 35 1016 12 10000 4.1 110 22:45 28.06.2019
5684 Clear 36 1015 11 10000 6.7 120 21:58 28.06.2019
5685 -273 0 0 0 0 0 21:26 28.06.2019
5686 Clear 38 1015 9 10000 7.2 130 20:55 28.06.2019
5687 Clear 38 1015 9 10000 7.2 130 20:37 28.06.2019
5688 Clear 38 1015 10 10000 6.7 120 20:18 28.06.2019
5689 Clear 39 1015 10 10000 6.2 130 19:37 28.06.2019
5690 Clear 39 1016 10 10000 5.7 120 19:19 28.06.2019
5691 Clear 39 1016 9 10000 6.2 110 18:41 28.06.2019
5692 Clear 39 1016 12 10000 6.2 110 18:21 28.06.2019
5693 Clear 39 1016 11 10000 6.2 130 17:41 28.06.2019
5694 Clear 39 1017 12 10000 7.2 140 17:23 28.06.2019
5695 Clear 39 1017 13 10000 6.7 130 16:46 28.06.2019
5696 Clear 38 1017 13 10000 6.2 130 16:18 28.06.2019
5697 Clear 37 1018 16 10000 4.6 100 15:40 28.06.2019
5698 Clear 36 1018 18 10000 4.6 80 15:18 28.06.2019
5699 Clear 36 1019 16 10000 5.1 100 14:39 28.06.2019
5700 Clear 35 1019 19 10000 4.1 80 14:21 28.06.2019
5701 Clear 35 1019 20 10000 3.6 80 13:46 28.06.2019
5702 Clear 34 1020 24 10000 3.1 50 13:27 28.06.2019
5703 Clear 33 1020 24 10000 3.1 0 12:51 28.06.2019
5704 Clear 31 1020 27 10000 3.1 90 12:32 28.06.2019
5705 Clear 30 1020 28 10000 3.6 70 11:29 28.06.2019
5706 Clear 29 1020 36 10000 3.1 60 10:58 28.06.2019
5707 Clear 29 1020 36 10000 3.1 60 10:38 28.06.2019
5708 Clear 28 1020 34 10000 2.6 50 10:18 28.06.2019
5709 Clear 27 1021 34 10000 3.6 60 09:43 28.06.2019
5710 Clear 24 1020 39 10000 2.6 60 09:24 28.06.2019
5711 Clear 23 1020 41 10000 2.1 50 08:42 28.06.2019
5712 Clear 23 1020 41 10000 2.1 50 08:23 28.06.2019
5713 Clear 22 1020 44 10000 1.5 50 07:42 28.06.2019
5714 Clear 22 1019 43 10000 1.5 30 06:54 28.06.2019
5715 Clear 25 1019 34 10000 1.5 130 03:59 28.06.2019
5716 Clear 30 1018 27 10000 4.6 130 00:47 28.06.2019
5717 Clear 30 1018 25 10000 1 130 00:19 28.06.2019
5718 Clear 30 1018 29 10000 6.2 110 23:46 27.06.2019
5719 Clear 31 1017 27 10000 6.7 110 23:24 27.06.2019
5720 Clear 32 1017 27 10000 6.7 110 22:43 27.06.2019
5721 Clear 33 1017 24 10000 8.7 110 22:25 27.06.2019
5722 Clear 34 1016 21 10000 8.2 120 21:58 27.06.2019
5723 Clear 34 1016 21 10000 8.2 120 21:39 27.06.2019
5724 Clear 35 1016 22 10000 8.2 130 21:20 27.06.2019
5725 Clear 36 1016 16 10000 5.7 160 20:46 27.06.2019
5726 Clear 37 1015 16 10000 6.2 170 20:28 27.06.2019
5727 Clear 37 1015 16 10000 7.2 180 19:49 27.06.2019
5728 Clear 38 1016 17 10000 4.1 160 19:29 27.06.2019
5729 Clear 38 1016 18 10000 6.7 160 18:52 27.06.2019
5730 Clear 37 1016 18 10000 6.7 160 18:30 27.06.2019
5731 Clear 38 1017 18 10000 6.2 140 17:58 27.06.2019
5732 Clear 37 1017 18 10000 6.2 140 17:37 27.06.2019
5733 Clear 37 1017 20 10000 7.7 150 17:18 27.06.2019
5734 Clear 36 1017 20 10000 7.2 150 16:38 27.06.2019
5735 Clear 36 1018 23 10000 4.6 140 16:19 27.06.2019
5736 Clear 35 1018 24 10000 5.7 140 15:45 27.06.2019
5737 Clear 34 1019 26 10000 6.7 150 15:24 27.06.2019
5738 Clear 34 1019 26 10000 7.2 130 14:48 27.06.2019
5739 Clear 33 1019 27 10000 6.2 130 14:29 27.06.2019
5740 Clear 33 1019 27 10000 7.2 130 13:50 27.06.2019
5741 Clear 33 1019 27 10000 7.2 130 13:31 27.06.2019
5742 Clear 32 1019 28 10000 8.2 120 12:58 27.06.2019
5743 Clear 31 1019 28 10000 8.2 120 12:38 27.06.2019
5744 Clear 30 1019 25 10000 5.7 130 12:19 27.06.2019
5745 Clear 30 1019 25 10000 6.7 120 11:42 27.06.2019
5746 Clear 30 1019 26 10000 5.7 90 11:21 27.06.2019
5747 Clear 29 1019 26 10000 6.2 90 10:46 27.06.2019
5748 Clear 28 1019 28 10000 5.7 90 10:22 27.06.2019
5749 Clear 27 1019 30 10000 3.6 80 09:56 27.06.2019
5750 Clear 27 1019 30 10000 3.6 80 09:36 27.06.2019
5751 Clear 23 1019 36 10000 2.6 60 09:18 27.06.2019
5752 Clear 24 1019 38 10000 2.6 60 08:40 27.06.2019
5753 Clear 23 1019 44 10000 2.6 60 08:19 27.06.2019
5754 Clear 23 1019 47 10000 1 0 07:38 27.06.2019
5755 Clear 23 1019 47 10000 1.5 30 06:54 27.06.2019
5756 Clear 23 1019 47 10000 0.5 50 06:28 27.06.2019
5757 Clear 25 943 42 0 4.14 112.336 03:22 27.06.2019
5758 Clear 26 1018 37 10000 6.2 140 02:39 27.06.2019
5759 Clear 28 1018 35 10000 8.2 140 01:18 27.06.2019
5760 Clear 28 1017 37 10000 5.1 130 00:42 27.06.2019
5761 Clear 29 1018 40 10000 5.7 110 00:19 27.06.2019
5762 Clear 30 1017 35 10000 4.1 120 23:42 26.06.2019
5763 Clear 31 1016 29 10000 2.1 120 23:22 26.06.2019
5764 Clear 32 1016 25 10000 2.6 140 22:46 26.06.2019
5765 Clear 33 1016 24 10000 4.6 160 22:27 26.06.2019
5766 Clear 33 1016 24 10000 5.1 150 21:59 26.06.2019
5767 Clear 33 1016 24 10000 5.1 150 21:39 26.06.2019
5768 Clear 34 1016 24 10000 4.6 170 21:19 26.06.2019
5769 Clear 34 1015 23 10000 4.1 140 20:49 26.06.2019
5770 Clear 34 1018 24 10000 4.6 170 20:30 26.06.2019
5771 Clear 34 1015 24 10000 4.6 150 19:50 26.06.2019
5772 Clear 34 1015 24 10000 5.1 130 19:31 26.06.2019
5773 -273 0 0 0 0 0 18:58 26.06.2019
5774 Clear 34 1016 26 10000 4.1 150 18:58 26.06.2019
5775 Clear 34 1016 26 10000 4.1 150 18:39 26.06.2019
5776 Clear 34 1016 28 10000 4.6 130 18:19 26.06.2019
5777 Clear 34 1016 28 10000 4.6 130 18:19 26.06.2019
5778 Clear 34 1016 26 10000 4.1 130 17:46 26.06.2019
5779 Clear 34 1016 26 10000 5.1 130 17:27 26.06.2019
5780 Clear 34 1016 26 10000 5.1 130 17:27 26.06.2019
5781 Clear 34 1016 26 10000 5.1 130 17:27 26.06.2019
5782 Clear 34 1016 26 10000 5.1 130 17:27 26.06.2019
5783 Clear 34 1017 28 10000 4.6 130 16:52 26.06.2019
5784 Clear 33 1017 28 10000 4.6 130 16:29 26.06.2019
5785 Clear 34 1017 28 10000 4.6 110 16:29 26.06.2019
5786 Clear 33 1018 29 10000 5.1 130 15:53 26.06.2019
5787 Clear 33 1018 29 10000 5.1 130 15:28 26.06.2019
5788 Clear 32 1018 29 10000 3.1 140 14:57 26.06.2019
5789 Clear 32 1018 29 10000 3.1 140 14:37 26.06.2019
5790 Clear 31 1018 31 10000 3.1 170 14:18 26.06.2019
5791 Clear 31 1019 33 10000 3.1 100 13:39 26.06.2019
5792 Clear 30 1019 33 10000 2.1 140 13:18 26.06.2019
5793 Clear 29 1019 33 10000 2.1 130 12:40 26.06.2019
5794 Clear 28 1019 35 10000 1.5 0 12:19 26.06.2019
5795 Clear 27 1019 42 10000 1.5 0 11:25 26.06.2019
5796 Clear 27 1019 42 10000 1.5 0 11:25 26.06.2019
5797 Clear 26 1019 50 10000 2.6 110 10:56 26.06.2019
5798 Clear 26 1019 50 10000 2.6 110 10:38 26.06.2019
5799 Clear 26 1019 57 10000 2.6 100 10:19 26.06.2019
5800 Clear 23 1018 60 10000 2.1 100 09:30 26.06.2019
5801 Clear 23 1018 60 10000 2.1 120 08:57 26.06.2019
5802 Clear 22 1018 64 10000 3.1 130 08:23 26.06.2019
5803 Clear 21 1018 73 10000 2.6 120 07:59 26.06.2019
5804 Clear 21 1018 73 10000 2.6 120 07:41 26.06.2019
5805 Clear 22 1016 64 10000 2.6 120 06:33 26.06.2019
5806 Clear 24 1016 54 10000 4.6 130 03:33 26.06.2019
5807 Clear 28 1015 32 10000 0.5 140 00:41 26.06.2019
5808 Clear 29 1014 25 10000 1.5 330 23:58 25.06.2019
5809 Clear 29 1014 25 10000 1.5 330 23:39 25.06.2019
5810 Clear 29 1014 25 10000 1.5 140 23:20 25.06.2019
5811 Clear 31 1014 22 10000 2.6 220 22:42 25.06.2019
5812 Clear 32 1014 22 10000 2.1 270 22:23 25.06.2019
5813 Clear 33 1014 22 10000 4.1 180 21:46 25.06.2019
5814 Clear 33 1014 20 10000 3.1 190 21:26 25.06.2019
5815 Clear 33 1014 21 10000 5.1 180 20:57 25.06.2019
5816 Clear 33 1014 18 10000 4.6 180 20:36 25.06.2019
5817 Clear 34 1014 18 10000 4.6 180 20:18 25.06.2019
5818 Clear 34 1014 16 10000 3.6 170 19:43 25.06.2019
5819 Clear 34 1015 17 10000 5.1 190 19:21 25.06.2019
5820 Clear 33 1015 21 10000 2.6 0 18:42 25.06.2019
5821 Clear 33 1015 20 10000 4.6 150 18:24 25.06.2019
5822 -273 0 0 0 0 0 17:46 25.06.2019
5823 Clear 33 1016 24 10000 4.1 140 17:27 25.06.2019
5824 Clear 33 1016 24 10000 4.1 140 17:27 25.06.2019
5825 Clear 33 1016 24 10000 4.1 140 17:27 25.06.2019
5826 -273 0 0 0 0 0 17:27 25.06.2019
5827 Clear 33 1015 23 10000 5.1 230 16:45 25.06.2019
5828 Clear 32 1016 22 10000 4.6 180 16:26 25.06.2019
5829 Clear 32 1016 22 10000 4.6 180 16:26 25.06.2019
5830 Clear 32 1017 25 10000 3.1 0 15:59 25.06.2019
5831 Clear 32 1017 25 10000 3.1 0 15:39 25.06.2019
5832 Clear 31 1017 25 10000 4.1 190 15:20 25.06.2019
5833 Clear 31 1017 25 10000 4.1 190 15:20 25.06.2019
5834 Clear 30 1017 29 10000 4.1 170 14:45 25.06.2019
5835 Clear 30 1017 30 10000 3.1 160 14:26 25.06.2019
5836 Clear 29 1018 37 10000 2.6 150 13:43 25.06.2019
5837 Clear 28 1018 39 10000 3.1 120 13:24 25.06.2019
5838 Clear 28 1018 42 10000 2.6 150 12:43 25.06.2019
5839 Clear 27 1018 44 10000 2.6 130 12:24 25.06.2019
5840 Clear 27 1018 44 10000 2.6 130 12:24 25.06.2019
5841 Clear 26 1018 44 10000 2.1 100 11:46 25.06.2019
5842 Clear 25 1018 44 10000 2.6 100 11:25 25.06.2019
5843 Clear 24 1018 47 10000 2.1 110 10:58 25.06.2019
5844 Clear 24 1018 47 10000 2.1 110 10:57 25.06.2019
5845 Clear 23 1018 47 10000 1 100 10:37 25.06.2019
5846 Clear 23 1018 47 10000 1 100 10:18 25.06.2019
5847 Clear 22 1017 49 10000 1.5 0 09:39 25.06.2019
5848 -273 0 0 0 0 0 09:21 25.06.2019
5849 Clear 21 1017 53 10000 0.93 171.566 09:21 25.06.2019
5850 Clear 20 1017 60 10000 0.5 0 08:52 25.06.2019
5851 Clear 19 1017 68 10000 1.07 180.535 08:31 25.06.2019
5852 Clear 19 1017 68 10000 1.5 260 07:44 25.06.2019
5853 Clear 19 1016 60 10000 2.6 350 07:25 25.06.2019
5854 Clear 19 1016 56 10000 2.1 350 06:44 25.06.2019
5855 Clear 19 1016 52 10000 2.1 320 05:56 25.06.2019
5856 Clear 22 1015 49 10000 2.1 320 02:43 25.06.2019
5857 Clear 23 1015 44 10000 3.6 340 00:39 25.06.2019
5858 Clear 24 1014 39 10000 4.6 300 00:19 25.06.2019
5859 Clear 25 1014 36 10000 5.7 360 23:51 24.06.2019
5860 Clear 25 1014 36 10000 5.7 360 23:32 24.06.2019
5861 Clear 28 1014 26 10000 3.6 240 22:48 24.06.2019
5862 Clear 29 1014 26 10000 5.7 240 22:21 24.06.2019
5863 Clear 29 1014 27 10000 5.7 240 21:56 24.06.2019
5864 Clear 29 1014 27 10000 5.7 240 21:37 24.06.2019
5865 Clear 30 1013 25 10000 6.2 240 21:18 24.06.2019
5866 Clear 30 1013 25 10000 3.1 250 20:42 24.06.2019
5867 Clear 30 1013 21 10000 3.6 210 20:22 24.06.2019
5868 Clear 31 1013 24 10000 3.6 120 19:49 24.06.2019
5869 Clear 31 1013 25 10000 4.6 150 19:27 24.06.2019
5870 Clear 31 1013 25 10000 3.6 100 18:58 24.06.2019
5871 Clear 31 1013 25 10000 3.6 100 18:38 24.06.2019
5872 Clear 31 1013 24 10000 4.6 150 18:20 24.06.2019
5873 Clear 30 1014 27 10000 4.1 120 17:37 24.06.2019
5874 Clear 30 1014 28 10000 4.1 130 17:18 24.06.2019
5875 Clear 30 1014 28 10000 3.1 180 16:40 24.06.2019
5876 Clear 30 1014 27 10000 5.1 190 16:19 24.06.2019
5877 Clear 30 1014 22 10000 3.1 200 15:41 24.06.2019
5878 Clear 29 1014 27 10000 3.6 150 15:22 24.06.2019
5879 Clear 28 1015 28 10000 3.6 130 14:35 24.06.2019
5880 Clear 28 1015 26 10000 2.6 110 13:59 24.06.2019
5881 Clear 27 1015 26 10000 2.6 110 13:32 24.06.2019
5882 Clear 27 1016 28 10000 2.1 120 12:57 24.06.2019
5883 Clear 25 1016 28 10000 1.5 0 12:38 24.06.2019
5884 Clear 25 1016 33 10000 2.1 110 12:20 24.06.2019
5885 Clear 24 1016 33 10000 2.6 120 11:43 24.06.2019
5886 Clear 24 1016 31 10000 1 90 11:24 24.06.2019
5887 Clear 23 1016 33 10000 2.1 110 10:51 24.06.2019
5888 Clear 23 1015 33 10000 2.6 120 10:31 24.06.2019
5889 Clear 23 1015 37 10000 2.1 0 09:56 24.06.2019
5890 Clear 23 1015 37 10000 2.1 0 09:37 24.06.2019
5891 Clear 21 1015 40 10000 3.1 80 09:18 24.06.2019
5892 Clear 21 1015 40 10000 2.6 80 08:34 24.06.2019
5893 Clear 21 1015 40 10000 1.5 50 07:49 24.06.2019
5894 Clear 20 1014 40 10000 0.5 0 07:27 24.06.2019
5895 Clear 21 1014 37 10000 1 0 06:56 24.06.2019
5896 Clear 21 1014 40 10000 0.5 0 06:23 24.06.2019
5897 Clear 22 1014 35 10000 2.1 130 05:31 24.06.2019
5898 Clear 21 1014 31 10000 6.2 130 04:34 24.06.2019
5899 Clear 24 1014 29 10000 6.7 140 03:32 24.06.2019
5900 Clear 24 1014 26 10000 5.1 150 02:34 24.06.2019
5901 Clear 25 1013 24 10000 3.6 160 01:54 24.06.2019
5902 Clear 26 1013 26 10000 2.6 110 01:28 24.06.2019
5903 Clear 26 1013 26 10000 1 0 00:45 24.06.2019
5904 Clear 27 1012 22 10000 2.6 270 00:20 24.06.2019
5905 Clear 27 1012 22 10000 3.1 270 23:47 23.06.2019
5906 Clear 27 1012 22 10000 3.1 270 23:28 23.06.2019
5907 Clear 28 1012 24 10000 3.1 250 22:55 23.06.2019
5908 Clear 28 1012 24 10000 3.1 250 22:37 23.06.2019
5909 Clear 29 1012 23 10000 3.1 260 22:19 23.06.2019
5910 Clear 30 1012 20 10000 3.1 270 21:40 23.06.2019
5911 Clear 30 1012 19 10000 3.1 250 21:21 23.06.2019
5912 Clear 31 1012 18 10000 1.5 210 20:45 23.06.2019
5913 Clear 32 1012 19 10000 2.6 210 20:26 23.06.2019
5914 Clear 32 1012 19 10000 3.1 200 19:46 23.06.2019
5915 Clear 32 1013 18 10000 2.6 170 19:21 23.06.2019
5916 Clear 32 1012 16 10000 3.6 200 18:54 23.06.2019
5917 Clear 32 1013 18 10000 2.6 160 18:25 23.06.2019
5918 Clear 32 1013 16 10000 3.1 180 17:54 23.06.2019
5919 Clear 32 1014 17 10000 3.6 0 17:28 23.06.2019
5920 Clear 32 1014 18 10000 3.6 180 16:59 23.06.2019
5921 Clear 32 1014 18 10000 3.6 180 16:41 23.06.2019
5922 Clear 32 1014 18 10000 4.1 190 16:22 23.06.2019
5923 Clear 31 1015 18 10000 4.6 180 15:41 23.06.2019
5924 Clear 30 1015 16 10000 4.6 220 15:22 23.06.2019
5925 Clear 30 1015 19 10000 3.6 190 14:42 23.06.2019
5926 Clear 30 1015 17 10000 3.1 180 14:24 23.06.2019
5927 Clear 29 1016 18 10000 1 200 13:59 23.06.2019
5928 Clear 29 1016 18 10000 1 200 13:41 23.06.2019
5929 Clear 29 1016 22 10000 1.5 130 13:19 23.06.2019
5930 Clear 27 1016 26 10000 1.5 0 12:47 23.06.2019
5931 Clear 27 1016 32 10000 1.5 0 12:23 23.06.2019
5932 Clear 26 1016 38 10000 2.6 100 11:58 23.06.2019
5933 Clear 25 1016 38 10000 2.6 100 11:40 23.06.2019
5934 Clear 25 1016 41 10000 2.1 90 11:21 23.06.2019
5935 Clear 24 1016 46 10000 2.6 70 10:46 23.06.2019
5936 Clear 23 1015 43 10000 2.1 80 10:20 23.06.2019
5937 Clear 23 1015 43 10000 2.1 80 10:20 23.06.2019
5938 Clear 22 1015 49 10000 2.1 90 09:44 23.06.2019
5939 Clear 22 1015 49 10000 2.1 90 09:21 23.06.2019
5940 Clear 20 1015 43 10000 1 0 08:45 23.06.2019
5941 Clear 19 1015 49 10000 0.5 0 08:27 23.06.2019
5942 Clear 17 1015 45 10000 2.74 73.099 07:54 23.06.2019
5943 Clear 17 1015 45 10000 1 0 07:24 23.06.2019
5944 Clear 17 1014 48 10000 1.5 340 06:54 23.06.2019
5945 Clear 19 1014 48 10000 1.5 10 05:55 23.06.2019
5946 Clear 19 1013 45 10000 0.5 0 04:38 23.06.2019
5947 Clear 22 1014 35 10000 2.1 340 02:19 23.06.2019
5948 Clear 24 1013 29 10000 1 20 01:37 23.06.2019
5949 Clear 24 1014 29 10000 1.5 10 00:37 23.06.2019
5950 Clear 26 1013 23 10000 2.1 280 23:57 22.06.2019
5951 Clear 26 1013 23 10000 2.1 280 23:38 22.06.2019
5952 Clear 26 1013 21 10000 2.6 270 23:19 22.06.2019
5953 Clear 27 1014 27 10000 3.1 260 22:44 22.06.2019
5954 Clear 28 1014 24 10000 2.6 260 22:19 22.06.2019
5955 Clear 29 1013 20 10000 3.6 230 21:38 22.06.2019
5956 Clear 29 1013 21 10000 2.6 250 21:19 22.06.2019
5957 Clear 29 1013 20 10000 3.1 180 20:50 22.06.2019
5958 Clear 30 1013 19 10000 3.6 220 20:25 22.06.2019
5959 Clear 30 1014 20 10000 4.1 210 19:50 22.06.2019
5960 Clear 31 1014 25 10000 4.6 190 19:28 22.06.2019
5961 Clear 30 1014 20 10000 4.1 220 18:55 22.06.2019
5962 Clear 30 1014 20 10000 4.1 220 18:33 22.06.2019
5963 Clear 30 1014 20 10000 5.1 250 17:57 22.06.2019
5964 Clear 30 1014 20 10000 5.1 250 17:36 22.06.2019
5965 Clear 30 1015 22 10000 2.6 0 17:18 22.06.2019
5966 Clear 30 1015 22 10000 2.1 0 16:39 22.06.2019
5967 Clear 30 1015 22 10000 3.6 180 16:20 22.06.2019
5968 Clear 29 1016 23 10000 3.1 0 15:40 22.06.2019
5969 Clouds 29 1016 28 10000 2.6 0 15:22 22.06.2019
5970 Clear 28 1017 32 10000 2.1 0 14:37 22.06.2019
5971 Clear 27 1017 36 10000 2.6 0 14:18 22.06.2019
5972 Clear 27 1017 36 10000 2.1 80 13:42 22.06.2019
5973 Clear 26 1017 41 10000 2.6 0 13:22 22.06.2019
5974 Clear 25 1018 44 10000 2.1 0 12:52 22.06.2019
5975 Clear 24 1018 44 10000 2.1 0 12:33 22.06.2019
5976 Clear 23 1018 46 10000 2.6 90 11:58 22.06.2019
5977 Clear 22 1018 56 10000 2.1 80 11:34 22.06.2019
5978 Clear 21 1018 56 10000 2.6 60 10:53 22.06.2019
5979 Clear 21 1018 46 10000 2.6 40 10:21 22.06.2019
5980 Clear 20 1018 52 10000 1.5 20 09:55 22.06.2019
5981 Clear 19 1018 55 10000 2.1 30 09:22 22.06.2019
5982 Clear 18 1018 59 10000 2.1 10 08:43 22.06.2019
5983 Clear 17 1018 63 10000 2.1 360 08:22 22.06.2019
5984 Clear 16 1017 63 10000 1 0 07:32 22.06.2019
5985 Clear 16 1017 63 10000 2.1 340 06:55 22.06.2019
5986 Clear 16 1017 55 10000 2.1 330 05:22 22.06.2019
5987 Clear 19 1017 49 10000 4.6 40 02:33 22.06.2019
5988 Clear 21 1017 38 10000 4.1 30 01:19 22.06.2019
5989 Clouds 21 1017 38 10000 3.1 20 00:39 22.06.2019
5990 Clouds 21 1017 33 10000 3.1 10 00:19 22.06.2019
5991 Clouds 23 1016 33 10000 4.6 10 23:42 21.06.2019
5992 Clouds 23 1016 31 10000 5.1 350 23:21 21.06.2019
5993 Clear 24 1016 29 10000 3.6 320 22:47 21.06.2019
5994 Clear 24 1016 29 10000 3.6 320 22:47 21.06.2019
5995 Clear 25 1016 27 10000 4.1 300 22:23 21.06.2019
5996 Clouds 26 1015 26 10000 4.1 290 21:40 21.06.2019
5997 Clouds 26 1015 26 10000 4.1 290 21:40 21.06.2019
5998 Clouds 26 1015 24 10000 3.6 270 21:22 21.06.2019
5999 Clouds 27 1015 24 10000 3.1 290 20:54 21.06.2019
6000 Clouds 28 1015 23 10000 1.5 280 20:28 21.06.2019
6001 Clouds 28 1015 25 10000 4.6 250 19:59 21.06.2019
6002 Clouds 28 1015 25 10000 4.6 250 19:31 21.06.2019
6003 Clouds 28 1014 26 10000 5.7 360 18:49 21.06.2019
6004 Clouds 28 1015 24 10000 1.5 0 18:29 21.06.2019
6005 Clouds 28 1015 28 10000 3.1 300 17:46 21.06.2019
6006 Clouds 28 1015 26 10000 1.5 0 17:28 21.06.2019
6007 Clouds 28 1015 24 10000 3.6 190 16:40 21.06.2019
6008 Clouds 27 1015 24 10000 3.1 220 16:22 21.06.2019
6009 Clouds 27 1015 24 10000 2.1 0 15:40 21.06.2019
6010 Clouds 27 1016 28 10000 2.6 320 15:20 21.06.2019
6011 Clouds 27 1016 28 10000 2.1 190 14:49 21.06.2019
6012 Clouds 26 1016 34 10000 2.6 150 14:30 21.06.2019
6013 Clouds 26 1016 41 10000 0.5 270 13:53 21.06.2019
6014 Clouds 25 1016 41 10000 0.5 270 13:33 21.06.2019
6015 Clouds 25 1016 38 10000 1.5 0 12:58 21.06.2019
6016 Clouds 24 1016 38 10000 1.5 0 12:38 21.06.2019
6017 Clouds 24 1017 38 10000 1.5 0 12:18 21.06.2019
6018 Clouds 24 1017 38 10000 1.5 0 12:18 21.06.2019
6019 Clouds 24 1017 38 10000 1.5 0 12:18 21.06.2019
6020 Clear 23 1017 44 10000 1 0 11:46 21.06.2019
6021 Clear 23 1017 46 10000 1.5 0 11:24 21.06.2019
6022 Clear 22 1016 49 10000 2.1 0 10:49 21.06.2019
6023 Clear 21 1016 52 10000 2.6 30 10:21 21.06.2019
6024 Clear 20 1016 56 10000 3.1 30 09:56 21.06.2019
6025 Clear 20 1016 56 10000 3.1 30 09:38 21.06.2019
6026 Clear 19 1016 56 10000 2.6 20 09:19 21.06.2019
6027 Clear 18 1016 55 10000 2.6 0 08:42 21.06.2019
6028 Clear 17 1015 59 10000 2.1 20 08:22 21.06.2019
6029 Clear 16 1015 59 10000 3.1 30 07:46 21.06.2019
6030 Clear 16 1015 63 10000 2.1 340 07:27 21.06.2019
6031 Clear 16 1015 63 10000 1.74 224.464 06:53 21.06.2019
6032 Clear 16 1015 59 10000 1 0 06:20 21.06.2019
6033 Clear 17 1015 59 10000 2.6 40 05:25 21.06.2019
6034 Clear 18 1014 56 10000 1.5 40 04:22 21.06.2019
6035 Clear 19 1014 52 10000 1 60 03:33 21.06.2019
6036 Clear 19 1014 46 10000 2.6 340 02:48 21.06.2019
6037 Clear 21 1013 40 10000 1.5 250 01:48 21.06.2019
6038 Clear 22 1013 38 10000 2.6 250 00:55 21.06.2019
6039 Clear 23 1014 40 10000 5.7 250 00:22 21.06.2019
6040 Clear 23 1013 38 10000 5.1 250 23:44 20.06.2019
6041 Clear 24 1013 40 10000 5.7 240 23:22 20.06.2019
6042 Clear 25 1013 38 10000 6.2 240 22:56 20.06.2019
6043 Clear 25 1013 38 10000 6.2 240 22:38 20.06.2019
6044 Clear 25 1013 33 10000 6.2 240 22:19 20.06.2019
6045 Clear 26 1012 36 10000 5.7 240 21:44 20.06.2019
6046 Clear 26 1012 31 10000 6.2 230 21:19 20.06.2019
6047 Clear 26 1012 31 10000 7.2 240 20:47 20.06.2019
6048 Clear 27 1012 30 10000 5.7 210 20:26 20.06.2019
6049 Clear 27 1012 28 10000 6.7 210 19:58 20.06.2019
6050 Clear 27 1012 28 10000 6.7 210 19:39 20.06.2019
6051 Clear 27 1012 26 10000 5.7 220 19:18 20.06.2019
6052 Clear 27 1012 28 10000 6.2 200 18:43 20.06.2019
6053 Clear 27 1013 28 10000 6.2 220 18:23 20.06.2019
6054 Clouds 28 1012 23 10000 6.2 250 17:53 20.06.2019
6055 Clouds 28 1012 23 10000 6.2 250 17:35 20.06.2019
6056 Clouds 27 1014 26 10000 5.1 210 16:55 20.06.2019
6057 Clouds 27 1014 26 10000 5.1 210 16:36 20.06.2019
6058 Clouds 26 1014 28 10000 5.7 220 16:18 20.06.2019
6059 Clouds 26 1014 28 10000 5.7 220 16:18 20.06.2019
6060 Clouds 26 1014 29 10000 4.6 230 15:41 20.06.2019
6061 Clouds 26 1014 31 10000 4.6 210 15:22 20.06.2019
6062 Clouds 26 1015 32 10000 4.1 250 14:46 20.06.2019
6063 Clouds 26 1015 31 10000 4.1 0 14:23 20.06.2019
6064 Clouds 26 1015 31 10000 4.1 0 14:23 20.06.2019
6065 Clouds 25 1015 34 10000 2.1 210 13:41 20.06.2019
6066 Clouds 25 1015 38 10000 2.6 250 13:21 20.06.2019
6067 Clouds 25 1015 36 10000 1 230 12:50 20.06.2019
6068 Clouds 24 1015 40 10000 2.1 0 12:25 20.06.2019
6069 Clear 23 1015 43 10000 1 0 11:55 20.06.2019
6070 Clear 23 1015 43 10000 1 0 11:55 20.06.2019
6071 Clear 23 1015 43 10000 1 0 11:37 20.06.2019
6072 Clear 23 1015 43 10000 1.5 0 11:18 20.06.2019
6073 Clear 22 1015 46 10000 1.5 50 10:41 20.06.2019
6074 Clear 21 1015 46 10000 1.5 60 10:21 20.06.2019
6075 Clear 21 1015 43 10000 1 0 09:40 20.06.2019
6076 Clear 19 1015 49 10000 0.5 0 09:22 20.06.2019
6077 Clear 19 1015 55 10000 1 0 08:46 20.06.2019
6078 Clear 17 1015 67 10000 1 0 08:27 20.06.2019
6079 Clear 16 1015 67 10000 1 0 07:54 20.06.2019
6080 Clear 16 1015 63 10000 1 0 07:30 20.06.2019
6081 Clear 16 1015 59 10000 1.52 143.561 06:38 20.06.2019
6082 Clear 16 1014 63 10000 0.5 0 05:54 20.06.2019
6083 Clear 18 1015 52 10000 1 0 03:37 20.06.2019
6084 Clear 21 1015 38 10000 4.6 220 00:34 20.06.2019
6085 Clear 22 1015 38 10000 6.7 230 23:59 19.06.2019
6086 Clear 22 1015 38 10000 6.7 230 23:41 19.06.2019
6087 Clear 23 1015 36 10000 4.6 210 23:23 19.06.2019
6088 Clear 23 1015 36 10000 4.6 210 23:23 19.06.2019
6089 Clear 23 1015 43 10000 5.7 230 22:47 19.06.2019
6090 Clear 24 1015 41 10000 5.7 230 22:20 19.06.2019
6091 Clear 25 1015 38 10000 6.2 230 21:47 19.06.2019
6092 Clear 25 1015 36 10000 5.7 230 21:26 19.06.2019
6093 Clear 25 1015 33 10000 5.7 230 20:57 19.06.2019
6094 Clear 26 1015 33 10000 5.7 230 20:37 19.06.2019
6095 Clear 26 1015 34 10000 6.7 210 20:19 19.06.2019
6096 Clear 26 1015 31 10000 6.7 210 19:41 19.06.2019
6097 Clear 26 1015 32 10000 5.7 210 19:21 19.06.2019
6098 Clear 26 1015 34 10000 6.7 210 18:49 19.06.2019
6099 Clouds 27 1015 34 10000 6.7 220 18:21 19.06.2019
6100 Clouds 26 1015 34 10000 7.7 200 17:41 19.06.2019
6101 Clouds 26 1016 36 10000 7.7 220 17:22 19.06.2019
6102 Clouds 26 1016 36 10000 7.2 210 16:40 19.06.2019
6103 Clouds 26 1016 36 10000 7.2 210 16:22 19.06.2019
6104 Clouds 26 1016 36 10000 6.7 200 15:55 19.06.2019
6105 Clouds 26 1016 38 10000 6.7 200 15:31 19.06.2019
6106 Clouds 25 1017 38 10000 7.2 190 14:57 19.06.2019
6107 Clouds 25 1017 38 10000 7.2 190 14:39 19.06.2019
6108 Clouds 25 1017 41 10000 7.2 210 14:21 19.06.2019
6109 Clouds 24 1017 38 10000 5.7 200 13:43 19.06.2019
6110 Clouds 24 1017 47 10000 7.2 220 13:24 19.06.2019
6111 Clouds 23 1017 43 10000 6.7 220 12:44 19.06.2019
6112 Clouds 23 1016 46 10000 7.2 200 12:22 19.06.2019
6113 Clouds 23 1017 49 10000 6.7 220 11:56 19.06.2019
6114 Clouds 22 1017 49 10000 6.7 220 11:38 19.06.2019
6115 Clouds 22 1016 46 10000 5.7 220 11:19 19.06.2019
6116 Clear 22 1017 52 10000 6.2 230 10:45 19.06.2019
6117 Clear 21 1016 52 10000 4.1 210 10:26 19.06.2019
6118 Clear 20 1016 52 10000 3.6 210 09:43 19.06.2019
6119 Clear 19 1016 55 10000 4.1 220 09:22 19.06.2019
6120 Clear 18 1016 55 10000 2.6 190 08:51 19.06.2019
6121 Clear 18 1016 59 10000 3.6 180 08:29 19.06.2019
6122 Clear 17 1016 63 10000 3.1 190 07:49 19.06.2019
6123 Clear 17 1015 56 10000 4.1 220 07:30 19.06.2019
6124 Clear 17 1015 60 10000 4.6 230 06:55 19.06.2019
6125 Clear 18 1015 60 10000 4.6 230 06:30 19.06.2019
6126 Clear 18 1015 56 10000 5.1 220 05:50 19.06.2019
6127 Clear 19 1015 56 10000 4.6 230 04:41 19.06.2019
6128 Clear 20 1015 49 10000 4.1 240 03:37 19.06.2019
6129 Clear 21 1015 43 10000 3.6 240 02:34 19.06.2019
6130 Clear 21 1015 38 10000 3.6 250 01:29 19.06.2019
6131 Clear 22 1015 38 10000 4.1 250 00:52 19.06.2019
6132 Clear 22 1015 38 10000 5.7 260 00:34 19.06.2019
6133 Clear 22 1014 36 10000 5.1 260 23:58 18.06.2019
6134 Clear 22 1014 36 10000 5.1 260 23:58 18.06.2019
6135 Clear 23 1014 36 10000 6.7 260 23:30 18.06.2019
6136 Clear 24 1015 40 10000 6.7 260 22:55 18.06.2019
6137 Clear 25 1015 40 10000 6.7 260 22:37 18.06.2019
6138 Clear 25 1015 38 10000 7.7 260 22:18 18.06.2019
6139 Clear 26 1014 33 10000 6.7 250 21:43 18.06.2019
6140 Clear 26 1014 29 10000 8.2 230 21:21 18.06.2019
6141 Clear 27 1014 22 10000 8.2 230 20:44 18.06.2019
6142 Clear 28 1014 17 10000 9.3 230 20:26 18.06.2019
6143 Clear 28 1014 14 10000 7.2 230 19:56 18.06.2019
6144 Clear 28 1014 14 10000 7.2 230 19:38 18.06.2019
6145 Clear 29 1014 10 10000 7.2 220 19:19 18.06.2019
6146 Clear 29 1014 8 10000 7.2 210 18:45 18.06.2019
6147 Clear 29 1014 11 10000 7.7 210 18:24 18.06.2019
6148 Clear 29 1014 9 10000 7.2 210 17:42 18.06.2019
6149 Clear 29 1014 9 10000 6.7 210 17:20 18.06.2019
6150 Clear 29 1014 9 10000 7.2 220 16:47 18.06.2019
6151 Clear 29 1014 9 10000 6.7 210 16:27 18.06.2019
6152 Clear 29 1015 11 10000 5.7 180 15:56 18.06.2019
6153 Clear 29 1015 11 10000 5.7 180 15:37 18.06.2019
6154 Clear 28 1015 9 10000 7.7 200 15:19 18.06.2019
6155 Clear 28 1015 11 10000 4.6 210 14:45 18.06.2019
6156 Clear 28 1015 11 10000 4.6 210 14:45 18.06.2019
6157 Clear 28 1016 12 10000 4.1 200 14:22 18.06.2019
6158 Clear 27 1016 12 10000 5.1 210 13:56 18.06.2019
6159 Clear 27 1016 12 10000 5.1 210 13:38 18.06.2019
6160 Clear 27 1016 15 10000 5.1 200 13:19 18.06.2019
6161 Clear 26 1016 15 10000 5.7 220 12:42 18.06.2019
6162 Clear 25 1016 20 10000 5.1 200 12:24 18.06.2019
6163 Clear 25 1016 23 10000 4.6 210 11:43 18.06.2019
6164 Clear 25 1016 23 10000 3.6 200 11:21 18.06.2019
6165 Clear 25 1016 23 10000 4.6 230 10:57 18.06.2019
6166 Clear 24 1016 23 10000 4.6 230 10:37 18.06.2019
6167 Clear 24 1016 25 10000 5.1 230 10:18 18.06.2019
6168 Clear 23 1016 25 10000 4.1 240 09:47 18.06.2019
6169 Clear 21 1015 26 10000 4.6 230 09:22 18.06.2019
6170 Clear 20 1015 26 10000 4.1 220 08:43 18.06.2019
6171 Clear 18 1015 30 10000 2.6 210 08:21 18.06.2019
6172 Clear 18 1015 30 10000 3.1 220 07:41 18.06.2019
6173 Clear 18 1014 30 10000 2.1 90 07:20 18.06.2019
6174 Clear 19 1014 30 10000 2.6 180 06:33 18.06.2019
6175 Clear 20 1014 26 10000 1 0 05:19 18.06.2019
6176 Clear 23 1014 23 10000 1 0 02:53 18.06.2019
6177 Clear 25 1014 20 10000 0.5 270 01:55 18.06.2019
6178 Clear 25 1014 17 10000 2.6 270 01:24 18.06.2019
6179 Clear 25 1014 21 10000 2.6 270 00:54 18.06.2019
6180 Clear 26 1014 19 10000 3.1 270 00:26 18.06.2019
6181 Clear 27 1014 16 10000 4.1 250 23:41 17.06.2019
6182 Clear 27 1014 16 10000 3.1 260 23:20 17.06.2019
6183 Clear 28 1014 18 10000 3.6 250 22:55 17.06.2019
6184 Clear 28 1014 18 10000 3.6 250 22:36 17.06.2019
6185 Clear 28 1014 17 10000 4.1 250 22:18 17.06.2019
6186 Clear 29 1014 16 10000 4.6 220 21:42 17.06.2019
6187 Clear 29 1014 15 10000 3.1 220 21:21 17.06.2019
6188 Clear 29 1014 15 10000 3.1 220 21:21 17.06.2019
6189 Clear 29 1014 15 10000 3.6 220 20:37 17.06.2019
6190 Clear 30 1014 12 10000 4.1 210 20:18 17.06.2019
6191 Clear 30 1014 12 10000 5.1 210 19:42 17.06.2019
6192 Clear 30 1014 15 10000 4.1 200 19:23 17.06.2019
6193 Clear 31 1015 15 10000 2.1 0 18:57 17.06.2019
6194 Clear 31 1015 15 10000 2.1 0 18:37 17.06.2019
6195 Clear 30 1015 15 10000 3.1 200 18:18 17.06.2019
6196 Clear 30 1015 15 10000 3.1 200 18:18 17.06.2019
6197 Clear 30 1015 16 10000 4.1 200 17:44 17.06.2019
6198 Clear 30 1015 16 10000 4.1 200 17:26 17.06.2019
6199 Clear 30 1016 14 10000 3.1 0 16:47 17.06.2019
6200 Clear 30 1016 14 10000 3.1 0 16:29 17.06.2019
6201 Clear 30 1016 16 10000 3.1 0 15:57 17.06.2019
6202 Clear 29 1017 16 10000 4.1 190 15:38 17.06.2019
6203 Clear 29 1017 16 10000 4.1 190 15:19 17.06.2019
6204 Clear 28 1018 16 10000 4.1 170 14:51 17.06.2019
6205 Clear 28 1018 16 10000 4.1 170 14:31 17.06.2019
6206 Clear 28 1018 17 10000 2.1 0 13:54 17.06.2019
6207 Clear 28 1018 17 10000 3.1 220 13:36 17.06.2019
6208 Clear 27 1018 24 10000 2.1 0 13:18 17.06.2019
6209 Clear 26 1019 27 10000 2.1 0 12:32 17.06.2019
6210 Clear 24 1019 36 10000 1.5 0 11:51 17.06.2019
6211 Clear 24 1019 36 10000 1.5 0 11:27 17.06.2019
6212 Clear 24 1019 36 10000 1.5 0 11:27 17.06.2019
6213 Clear 24 1019 36 10000 1.5 0 11:27 17.06.2019
6214 Clear 23 1019 38 10000 2.1 100 10:59 17.06.2019
6215 Clear 23 1019 40 10000 1.5 70 10:41 17.06.2019
6216 Clear 21 1019 43 10000 1.5 90 10:22 17.06.2019
6217 Clear 21 1019 43 10000 1.5 80 09:55 17.06.2019
6218 Clear 20 1019 43 10000 1.5 80 09:30 17.06.2019
6219 Clear 18 1018 45 10000 1.5 90 08:43 17.06.2019
6220 Clear 18 1018 45 10000 1.5 90 08:23 17.06.2019
6221 Clear 16 1018 47 10000 1.59 66.735 07:47 17.06.2019
6222 Clear 16 1018 47 10000 1.59 66.735 07:28 17.06.2019
6223 Clear 15 1018 38 10000 1.5 320 06:48 17.06.2019
6224 Clear 16 1017 41 10000 1.5 330 05:53 17.06.2019
6225 Clear 17 1017 45 10000 1 0 04:52 17.06.2019
6226 Clear 18 1017 42 10000 2.1 100 03:50 17.06.2019
6227 Clear 18 1017 42 10000 2.1 100 03:25 17.06.2019
6228 Clear 20 1017 32 10000 1.5 120 02:42 17.06.2019
6229 Clear 21 1018 28 10000 2.1 110 02:18 17.06.2019
6230 Clear 21 1018 26 10000 2.1 110 01:34 17.06.2019
6231 Clear 21 1017 23 10000 1 0 00:47 17.06.2019
6232 Clear 22 1017 20 10000 1 0 00:26 17.06.2019
6233 Clear 23 1017 20 10000 1 0 23:58 16.06.2019
6234 Clear 23 1017 20 10000 1.37 248.431 23:37 16.06.2019
6235 Clear 23 1017 20 10000 0.5 110 23:19 16.06.2019
6236 Clear 25 1017 22 10000 2.6 270 22:43 16.06.2019
6237 Clear 26 1017 20 10000 2.6 280 22:19 16.06.2019
6238 Clear 26 1017 20 10000 2.6 280 21:56 16.06.2019
6239 Clear 26 1017 19 10000 3.1 280 21:38 16.06.2019
6240 Clear 27 1017 15 10000 3.1 280 21:20 16.06.2019
6241 Clear 27 1017 15 10000 4.6 240 20:38 16.06.2019
6242 Clear 28 1017 14 10000 3.6 220 20:19 16.06.2019
6243 Clear 28 1017 14 10000 3.6 220 19:58 16.06.2019
6244 Clear 28 1017 14 10000 2.6 290 19:38 16.06.2019
6245 Clear 28 1017 14 10000 2.6 290 19:19 16.06.2019
6246 Clear 28 1017 14 10000 2.6 220 18:41 16.06.2019
6247 Clear 29 1017 16 10000 3.1 0 18:21 16.06.2019
6248 Clear 28 1018 17 10000 1.5 0 17:49 16.06.2019
6249 Clear 28 1018 17 10000 1.5 0 17:25 16.06.2019
6250 Clear 28 1018 15 10000 2.1 0 16:58 16.06.2019
6251 Clear 28 1018 15 10000 2.1 0 16:58 16.06.2019
6252 Clear 28 1018 18 10000 2.1 0 16:40 16.06.2019
6253 Clear 28 1018 20 10000 1.5 0 16:21 16.06.2019
6254 Clear 27 1018 20 10000 1.5 0 15:57 16.06.2019
6255 Clear 27 1019 19 10000 1 170 15:38 16.06.2019
6256 Clear 26 1019 19 10000 2.6 110 15:19 16.06.2019
6257 Clear 26 1019 21 10000 2.1 0 14:37 16.06.2019
6258 Clear 26 1020 20 10000 2.1 0 14:19 16.06.2019
6259 Clear 25 1020 23 10000 2.6 140 13:46 16.06.2019
6260 Clear 25 1020 23 10000 2.6 140 13:25 16.06.2019
6261 Clear 24 1020 25 10000 1.5 0 12:45 16.06.2019
6262 Clear 23 1020 25 10000 1 0 12:22 16.06.2019
6263 Clear 23 1020 25 10000 1 0 11:56 16.06.2019
6264 Clear 23 1020 28 10000 2.1 70 11:38 16.06.2019
6265 Clear 21 1020 32 10000 2.1 70 11:18 16.06.2019
6266 Clear 21 1020 32 10000 1.5 60 10:44 16.06.2019
6267 Clear 20 1020 32 10000 1.5 60 10:19 16.06.2019
6268 Clear 19 1020 42 10000 2.1 40 09:43 16.06.2019
6269 Clear 17 1020 42 10000 1.5 20 09:23 16.06.2019
6270 Clear 16 1020 48 10000 2.1 10 08:47 16.06.2019
6271 Clear 14 1019 51 10000 1.5 360 08:21 16.06.2019
6272 Clear 13 1019 54 10000 2.1 360 07:49 16.06.2019
6273 Clear 13 1019 54 10000 2.1 360 07:31 16.06.2019
6274 Clear 12 1019 54 10000 1.5 340 06:53 16.06.2019
6275 Clear 13 1019 50 10000 2.1 340 05:56 16.06.2019
6276 Clear 13 1019 50 10000 1.5 340 05:24 16.06.2019
6277 Clear 14 1019 41 10000 0.5 340 04:22 16.06.2019
6278 Clear 14 1019 41 10000 1.5 320 03:42 16.06.2019
6279 Clear 15 1019 41 10000 1.5 320 03:22 16.06.2019
6280 Clear 17 1019 32 10000 1 0 01:49 16.06.2019
6281 Clear 18 1019 32 10000 1 0 01:30 16.06.2019
6282 Clear 19 1019 25 10000 1 0 00:44 16.06.2019
6283 Clear 19 1019 25 10000 1 0 00:25 16.06.2019
6284 Clear 20 1019 22 10000 2.1 180 23:58 15.06.2019
6285 Clear 21 1019 20 10000 2.6 190 23:39 15.06.2019
6286 Clear 22 1019 19 10000 2.6 180 23:20 15.06.2019
6287 Clear 22 1019 21 10000 2.1 200 22:44 15.06.2019
6288 Clear 23 1019 21 10000 2.1 200 22:25 15.06.2019
6289 Clear 24 1018 26 10000 2.1 160 21:45 15.06.2019
6290 Clear 24 1018 21 10000 2.1 170 21:21 15.06.2019
6291 Clear 24 1018 21 10000 2.1 170 20:46 15.06.2019
6292 Clear 24 1018 21 10000 2.1 170 20:23 15.06.2019
6293 Clear 25 1018 19 10000 2.6 0 19:50 15.06.2019
6294 Clear 25 1018 19 10000 2.6 0 19:28 15.06.2019
6295 Clear 25 1019 21 10000 2.6 0 18:46 15.06.2019
6296 Clear 25 1019 20 10000 2.6 0 18:26 15.06.2019
6297 Clear 24 1019 23 10000 2.6 0 17:58 15.06.2019
6298 Clear 24 1019 23 10000 2.6 0 17:40 15.06.2019
6299 Clear 24 1019 23 10000 2.6 0 17:21 15.06.2019
6300 Clear 24 1019 22 10000 2.1 0 16:43 15.06.2019
6301 Clear 24 1019 23 10000 3.1 210 16:18 15.06.2019
6302 Clear 23 1019 25 10000 1.5 0 15:41 15.06.2019
6303 Clear 23 1020 25 10000 3.6 230 15:21 15.06.2019
6304 Clear 22 1020 24 10000 2.1 300 14:38 15.06.2019
6305 Clear 22 1020 26 10000 1.5 0 14:18 15.06.2019
6306 Clear 21 1020 30 10000 2.1 0 13:44 15.06.2019
6307 Clear 21 1020 32 10000 2.6 190 13:21 15.06.2019
6308 Clear 21 1020 32 10000 2.6 190 12:58 15.06.2019
6309 Clear 20 1020 30 10000 1 190 12:40 15.06.2019
6310 Clear 19 1020 34 10000 1 160 12:20 15.06.2019
6311 Clear 19 1020 34 10000 1.5 0 11:42 15.06.2019
6312 Clear 19 1020 34 10000 1.5 0 11:23 15.06.2019
6313 Clear 18 1020 37 10000 0.5 150 10:42 15.06.2019
6314 Clear 17 1020 37 10000 0.5 150 10:24 15.06.2019
6315 Clear 16 1020 47 10000 3.1 290 09:48 15.06.2019
6316 Clear 15 1020 47 10000 3.1 290 09:26 15.06.2019
6317 Clear 13 1019 54 10000 4.1 260 08:54 15.06.2019
6318 Clear 13 1019 54 10000 4.1 260 08:33 15.06.2019
6319 Clear 13 1019 54 10000 4.1 260 08:33 15.06.2019
6320 Clear 11 1019 58 10000 4.6 250 07:54 15.06.2019
6321 Clear 11 1019 62 10000 3.6 270 07:25 15.06.2019
6322 Clear 11 1018 54 10000 1 0 07:25 15.06.2019
6323 Clear 11 1018 50 10000 1 0 06:47 15.06.2019
6324 Clear 12 1018 50 10000 1 0 06:20 15.06.2019
6325 Clear 12 1017 44 10000 5.1 230 05:28 15.06.2019
6326 Clear 13 1017 41 10000 5.1 230 04:46 15.06.2019
6327 Clear 14 1017 41 10000 5.1 240 03:49 15.06.2019
6328 Clear 15 1017 39 10000 5.7 240 02:58 15.06.2019
6329 Clear 16 1017 39 10000 5.7 240 02:23 15.06.2019
6330 Clear 17 1017 36 10000 5.7 240 01:50 15.06.2019
6331 Clear 17 1016 36 10000 6.7 240 00:59 15.06.2019
6332 Clear 17 1016 32 10000 7.2 240 00:40 15.06.2019
6333 Clear 18 1016 39 10000 4.6 240 23:55 14.06.2019
6334 Clear 18 1016 39 10000 4.6 240 23:27 14.06.2019
6335 Clear 20 1016 34 10000 5.1 240 22:57 14.06.2019
6336 Clear 20 1015 32 10000 6.7 240 22:39 14.06.2019
6337 Clear 19 1015 32 10000 6.7 240 22:19 14.06.2019
6338 Clear 21 1015 28 10000 7.7 240 21:41 14.06.2019
6339 Clear 21 1015 28 10000 7.7 240 21:23 14.06.2019
6340 Clear 22 1014 20 10000 7.2 230 20:44 14.06.2019
6341 Clear 23 1013 20 10000 7.7 210 20:19 14.06.2019
6342 Clear 23 1013 20 10000 7.7 210 19:57 14.06.2019
6343 Clear 23 1013 20 10000 7.2 210 19:37 14.06.2019
6344 Clear 24 1013 25 10000 7.2 220 19:18 14.06.2019
6345 Clear 24 1013 22 10000 7.2 220 18:43 14.06.2019
6346 Clear 24 1013 22 10000 7.7 220 18:25 14.06.2019
6347 Clear 24 1013 22 10000 7.7 220 18:25 14.06.2019
6348 Clear 24 1013 22 10000 7.7 220 17:58 14.06.2019
6349 Clear 24 1013 22 10000 8.2 230 17:39 14.06.2019
6350 Clear 24 1013 22 10000 8.2 230 17:20 14.06.2019
6351 Clear 24 1013 22 10000 8.7 230 16:46 14.06.2019
6352 Clear 24 1013 22 10000 8.7 230 16:21 14.06.2019
6353 Clear 24 1013 22 10000 5.7 220 15:57 14.06.2019
6354 Clear 24 1013 23 10000 7.7 210 15:38 14.06.2019
6355 Clear 23 1013 25 10000 7.7 210 15:18 14.06.2019
6356 Clear 23 1013 23 10000 7.2 200 14:41 14.06.2019
6357 Clear 23 1013 25 10000 7.2 220 14:22 14.06.2019
6358 Clear 23 1013 26 10000 6.7 220 13:45 14.06.2019
6359 Clear 23 1013 26 10000 6.7 220 13:26 14.06.2019
6360 Clear 22 1013 32 10000 7.2 220 12:49 14.06.2019
6361 Clear 22 1013 32 10000 7.2 220 12:49 14.06.2019
6362 Clear 22 1013 32 10000 8.2 220 12:27 14.06.2019
6363 Clear 21 1013 32 10000 8.2 220 11:59 14.06.2019
6364 Clear 21 1013 30 10000 6.7 220 11:41 14.06.2019
6365 Clear 21 1013 30 10000 6.7 220 11:23 14.06.2019
6366 Clear 21 1013 32 10000 5.7 220 10:46 14.06.2019
6367 Clear 20 1013 32 10000 5.7 220 10:20 14.06.2019
6368 Clear 18 1013 36 10000 4.1 240 09:49 14.06.2019
6369 Clear 18 1013 36 10000 4.1 240 09:31 14.06.2019
6370 Clear 16 1012 41 10000 5.1 240 08:48 14.06.2019
6371 Clear 13 1012 44 10000 3.1 250 08:20 14.06.2019
6372 Clear 13 1011 44 10000 1.5 230 07:53 14.06.2019
6373 Clouds 12 1011 43 10000 1 0 07:23 14.06.2019
6374 Clouds 12 1011 43 10000 1 0 06:52 14.06.2019
6375 Clouds 12 1011 43 10000 1 0 06:52 14.06.2019
6376 Clear 14 1011 42 10000 2.1 170 06:18 14.06.2019
6377 Clear 15 1010 52 10000 3.1 180 05:35 14.06.2019
6378 Clear 16 1010 55 10000 1 0 04:51 14.06.2019
6379 Clear 16 1010 52 10000 2.6 150 04:19 14.06.2019
6380 Clear 18 1011 31 10000 2.1 120 03:38 14.06.2019
6381 Clear 18 1010 31 10000 2.1 140 03:19 14.06.2019
6382 Clear 19 1011 19 10000 2.1 130 02:35 14.06.2019
6383 Clear 20 1011 19 10000 4.1 150 01:39 14.06.2019
6384 Clear 20 1011 19 10000 4.1 150 01:39 14.06.2019
6385 Clear 21 1010 19 10000 1.5 360 00:37 14.06.2019
6386 Clear 21 1010 15 10000 2.6 340 00:18 14.06.2019
6387 Clear 22 1009 20 10000 2.6 310 23:49 13.06.2019
6388 Clear 22 1009 20 10000 2.6 310 23:25 13.06.2019
6389 Clear 24 1010 15 10000 4.6 260 22:41 13.06.2019
6390 Clear 24 1009 15 10000 5.7 260 22:22 13.06.2019
6391 Clear 24 1009 15 10000 5.7 260 21:59 13.06.2019
6392 Clear 24 1009 23 10000 6.2 260 21:37 13.06.2019
6393 Clear 25 1009 20 10000 6.7 240 21:18 13.06.2019
6394 Clear 25 1009 20 10000 6.7 240 21:18 13.06.2019
6395 Clear 25 1008 19 10000 6.7 260 20:44 13.06.2019
6396 Clear 27 1008 19 10000 5.7 230 20:20 13.06.2019
6397 Clear 27 1008 17 10000 4.6 210 19:43 13.06.2019
6398 Clear 27 1009 17 10000 5.1 230 19:25 13.06.2019
6399 Clear 27 1009 17 10000 5.1 230 18:59 13.06.2019
6400 Clear 27 1009 12 10000 4.1 170 18:41 13.06.2019
6401 Clear 27 1009 12 10000 4.1 170 18:22 13.06.2019
6402 Clear 27 1009 18 10000 1.5 0 17:45 13.06.2019
6403 Clear 26 1009 18 10000 1.5 0 17:22 13.06.2019
6404 Clear 27 1009 18 10000 4.6 190 16:59 13.06.2019
6405 Clear 27 1009 17 10000 3.1 200 16:41 13.06.2019
6406 Clear 27 1009 17 10000 3.1 200 16:20 13.06.2019
6407 Clouds 26 1010 22 10000 5.7 210 15:41 13.06.2019
6408 Clouds 26 1010 21 10000 4.6 190 15:22 13.06.2019
6409 Clear 25 1011 22 10000 4.6 170 14:52 13.06.2019
6410 Clear 25 1011 22 10000 4.6 170 14:31 13.06.2019
6411 Clear 24 1011 25 10000 3.6 170 13:57 13.06.2019
6412 -273 0 0 0 0 0 13:57 13.06.2019
6413 Clear 24 1011 25 10000 3.6 170 13:57 13.06.2019
6414 Clear 24 1011 29 10000 3.1 150 13:39 13.06.2019
6415 Clear 24 1011 29 10000 3.1 150 13:20 13.06.2019
6416 Clear 23 1012 37 10000 2.6 0 12:41 13.06.2019
6417 Clear 22 1012 45 10000 3.1 100 12:21 13.06.2019
6418 Clear 20 1012 52 10000 2.6 70 11:46 13.06.2019
6419 Clear 20 1012 52 10000 2.6 70 11:28 13.06.2019
6420 Clouds 18 1012 59 10000 3.1 90 10:51 13.06.2019
6421 Clouds 18 1012 59 10000 3.1 90 10:31 13.06.2019
6422 -273 0 0 0 0 0 09:58 13.06.2019
6423 Clouds 17 1012 63 10000 2.1 70 09:58 13.06.2019
6424 Clouds 17 1012 59 10000 2.1 60 09:40 13.06.2019
6425 Clouds 15 1012 63 10000 1 0 09:22 13.06.2019
6426 Clouds 14 1011 67 10000 1.5 350 08:43 13.06.2019
6427 Clear 13 1011 71 10000 1.5 50 08:23 13.06.2019
6428 Clear 13 1011 71 10000 1.5 50 07:50 13.06.2019
6429 Clear 12 1011 71 10000 2.1 50 07:25 13.06.2019
6430 Clear 13 1011 57 10000 1.5 360 06:45 13.06.2019
6431 Clear 13 1011 57 10000 1.5 360 06:22 13.06.2019
6432 Clear 13 1011 67 10000 1.89 130.546 05:54 13.06.2019
6433 Clear 14 1010 67 10000 1.5 90 05:36 13.06.2019
6434 Clear 14 1010 62 10000 4.1 150 04:55 13.06.2019
6435 Clear 15 1010 51 10000 3.6 120 02:23 13.06.2019
6436 Clear 17 1010 25 10000 0.5 0 00:47 13.06.2019
6437 Clear 19 1010 20 10000 0.5 0 23:49 12.06.2019
6438 Clear 19 1010 20 10000 0.5 0 23:22 12.06.2019
6439 Clear 21 1010 19 10000 1.5 270 22:43 12.06.2019
6440 Clear 22 1010 18 10000 3.1 260 22:24 12.06.2019
6441 Clear 23 1010 18 10000 3.1 260 21:56 12.06.2019
6442 Clear 23 1010 18 10000 3.1 250 21:36 12.06.2019
6443 Clear 24 1010 15 10000 1 0 21:18 12.06.2019
6444 Clear 24 1010 16 10000 2.6 190 20:37 12.06.2019
6445 Clear 24 1010 16 10000 2.6 190 20:37 12.06.2019
6446 Clear 24 1010 16 10000 2.6 190 20:19 12.06.2019
6447 Clear 24 1010 13 10000 4.6 250 19:42 12.06.2019
6448 -273 0 0 0 0 0 19:23 12.06.2019
6449 Clear 24 1011 13 10000 4.6 240 18:55 12.06.2019
6450 Clear 24 1011 12 10000 4.1 210 18:37 12.06.2019
6451 Clear 24 1011 13 10000 2.6 0 18:18 12.06.2019
6452 Clouds 24 1011 16 10000 3.6 0 17:43 12.06.2019
6453 Clouds 24 1011 16 10000 3.6 0 17:20 12.06.2019
6454 Clouds 24 1012 16 10000 3.6 150 16:42 12.06.2019
6455 Clouds 23 1012 18 10000 3.6 0 16:23 12.06.2019
6456 Clouds 23 1012 18 10000 3.6 0 15:52 12.06.2019
6457 Clouds 22 1013 18 10000 5.1 180 15:32 12.06.2019
6458 Clouds 21 1014 19 10000 1.5 0 14:46 12.06.2019
6459 Clouds 21 1014 19 10000 1.5 0 14:27 12.06.2019
6460 -273 0 0 0 0 0 13:43 12.06.2019
6461 Clear 20 1014 22 10000 2.6 0 13:20 12.06.2019
6462 Clear 19 1015 30 10000 3.1 130 12:59 12.06.2019
6463 Clear 19 1015 32 10000 2.6 0 12:38 12.06.2019
6464 Clear 19 1015 32 10000 2.6 0 12:38 12.06.2019
6465 Clear 19 1015 32 10000 2.6 0 12:38 12.06.2019
6466 Clear 18 1015 36 10000 2.6 0 12:19 12.06.2019
6467 Clear 18 1015 36 10000 2.6 0 12:19 12.06.2019
6468 Clear 18 1015 36 10000 2.6 0 12:19 12.06.2019
6469 Clear 17 1015 36 10000 1.5 110 11:46 12.06.2019
6470 Clear 17 1015 36 10000 1.5 110 11:28 12.06.2019
6471 Clear 15 1015 44 10000 1.5 0 10:51 12.06.2019
6472 Clear 15 1015 44 10000 1.5 0 10:31 12.06.2019
6473 Clear 14 1015 44 10000 1 0 09:45 12.06.2019
6474 Clear 13 1015 44 10000 1 0 09:24 12.06.2019
6475 Clear 11 1015 44 10000 1.5 50 08:58 12.06.2019
6476 Clear 10 1015 46 10000 1 0 08:24 12.06.2019
6477 Clear 8 1015 53 10000 1.5 350 07:48 12.06.2019
6478 Clear 8 1014 60 10000 1.88 25.775 06:55 12.06.2019
6479 Clear 9 1014 52 10000 1.5 350 05:52 12.06.2019
6480 Clear 9 1014 52 10000 2.1 340 05:23 12.06.2019
6481 Clear 11 1015 37 10000 2.6 340 02:18 12.06.2019
6482 Clear 13 1015 30 10000 1 0 00:40 12.06.2019
6483 Clear 15 1015 29 10000 1 0 23:52 11.06.2019
6484 Clear 15 1015 29 10000 1 0 23:33 11.06.2019
6485 Clear 17 1015 25 10000 2.6 360 22:44 11.06.2019
6486 Clear 18 1014 23 10000 2.6 360 22:23 11.06.2019
6487 Clear 19 1014 23 10000 2.6 360 21:58 11.06.2019
6488 Clear 18 1014 24 10000 3.6 360 21:40 11.06.2019
6489 Clear 18 1014 22 10000 3.1 10 21:21 11.06.2019
6490 Clear 19 1014 22 10000 3.1 10 20:49 11.06.2019
6491 Clear 20 1013 21 10000 3.6 0 20:27 11.06.2019
6492 Clear 21 1013 21 10000 4.1 0 19:57 11.06.2019
6493 Clear 21 1013 21 10000 4.1 0 19:39 11.06.2019
6494 Clear 21 1013 21 10000 4.1 0 19:38 11.06.2019
6495 Clear 21 1013 18 10000 3.6 10 18:59 11.06.2019
6496 Clear 21 1013 18 10000 3.6 10 18:58 11.06.2019
6497 Clear 20 1013 24 10000 2.6 0 18:23 11.06.2019
6498 Clear 20 1013 24 10000 2.6 0 17:54 11.06.2019
6499 Clear 20 1013 21 10000 1.5 0 17:36 11.06.2019
6500 Clear 20 1013 28 10000 1.5 10 17:18 11.06.2019
6501 Clouds 20 1014 21 10000 2.1 0 16:41 11.06.2019
6502 Clouds 19 1014 29 10000 3.1 0 16:23 11.06.2019
6503 Clouds 19 1014 34 10000 3.6 50 15:42 11.06.2019
6504 Clouds 18 1014 36 10000 3.6 30 15:24 11.06.2019
6505 Clouds 18 1014 36 10000 3.6 30 14:54 11.06.2019
6506 Clouds 17 1013 36 10000 4.6 30 14:23 11.06.2019
6507 Clouds 17 1013 36 10000 4.6 30 13:57 11.06.2019
6508 Clouds 17 1013 39 10000 4.6 30 13:37 11.06.2019
6509 Clouds 17 1013 42 10000 4.6 40 13:18 11.06.2019
6510 Clouds 17 1013 44 10000 4.6 0 12:40 11.06.2019
6511 Clouds 16 1013 44 10000 4.6 0 12:21 11.06.2019
6512 Clouds 16 1012 42 10000 4.1 50 11:41 11.06.2019
6513 Clouds 16 1012 48 10000 4.1 50 11:21 11.06.2019
6514 Clouds 16 1012 48 10000 3.1 40 10:50 11.06.2019
6515 Clouds 16 1012 48 10000 3.1 40 10:26 11.06.2019
6516 Clouds 16 1012 48 10000 3.1 70 09:50 11.06.2019
6517 Clouds 16 1012 48 10000 2.6 70 09:25 11.06.2019
6518 Clear 16 1011 44 10000 2.6 320 08:49 11.06.2019
6519 Clear 16 1011 44 10000 2.6 320 08:30 11.06.2019
6520 Clear 16 1011 48 10000 2.6 310 07:57 11.06.2019
6521 Clear 15 1011 44 10000 5.1 280 07:31 11.06.2019
6522 Clear 15 1011 41 10000 1.5 100 06:51 11.06.2019
6523 Clear 15 1011 38 10000 1.5 150 05:20 11.06.2019
6524 Clear 15 1012 38 10000 0.5 0 03:55 11.06.2019
6525 Clear 17 1013 27 10000 5.86 321.046 01:53 11.06.2019
6526 Clear 18 1013 22 10000 1.5 30 00:49 11.06.2019
6527 Clear 20 1013 22 10000 1.5 10 00:23 11.06.2019
6528 Clear 21 1013 18 10000 3.1 300 23:44 10.06.2019
6529 Clear 22 1013 18 10000 4.1 310 23:19 10.06.2019
6530 Clear 22 1013 19 10000 3.6 330 22:42 10.06.2019
6531 Clear 22 1013 19 10000 3.6 330 22:24 10.06.2019
6532 Clear 23 1013 19 10000 4.1 310 21:41 10.06.2019
6533 Clear 23 1013 20 10000 3.6 300 21:23 10.06.2019
6534 Clear 24 1013 20 10000 3.6 300 20:59 10.06.2019
6535 Clear 24 1013 20 10000 3.6 300 20:40 10.06.2019
6536 Clouds 25 1013 20 10000 5.1 300 20:21 10.06.2019
6537 Clouds 25 1013 19 10000 5.7 300 19:43 10.06.2019
6538 Clouds 25 1013 20 10000 5.7 270 19:22 10.06.2019
6539 Clouds 26 1013 20 10000 5.7 270 18:56 10.06.2019
6540 Clouds 26 1014 20 10000 5.1 270 18:38 10.06.2019
6541 Clouds 25 1014 18 10000 6.2 290 18:19 10.06.2019
6542 Clouds 25 1014 18 10000 5.1 270 18:19 10.06.2019
6543 Clouds 25 1015 15 10000 6.7 270 17:43 10.06.2019
6544 Clouds 25 1015 15 10000 6.7 270 17:24 10.06.2019
6545 Clouds 25 1015 18 10000 5.7 300 16:49 10.06.2019
6546 Clouds 24 1015 18 10000 5.7 300 16:30 10.06.2019
6547 Clouds 24 1015 25 10000 3.1 330 15:57 10.06.2019
6548 Clouds 24 1015 25 10000 3.1 330 15:38 10.06.2019
6549 Clouds 24 1015 25 10000 3.1 330 15:20 10.06.2019
6550 Clouds 23 1016 27 10000 2.1 0 14:41 10.06.2019
6551 Clouds 23 1016 28 10000 2.6 0 14:23 10.06.2019
6552 Clouds 23 1017 28 10000 2.6 0 13:46 10.06.2019
6553 Clouds 23 1017 28 10000 2.6 0 13:26 10.06.2019
6554 Clouds 22 1017 31 10000 1.5 0 12:54 10.06.2019
6555 Clouds 21 1017 35 10000 1 0 12:30 10.06.2019
6556 Clouds 20 1017 37 10000 3.1 0 11:54 10.06.2019
6557 Clear 20 1017 42 10000 1.5 0 11:30 10.06.2019
6558 Clear 19 1017 45 10000 2.6 80 10:59 10.06.2019
6559 Clear 19 1017 45 10000 1.5 100 10:41 10.06.2019
6560 Clear 17 1017 48 10000 1.5 0 10:19 10.06.2019
6561 Clear 17 1017 52 10000 1.5 80 09:51 10.06.2019
6562 Clear 17 1017 52 10000 1.5 80 09:29 10.06.2019
6563 Clear 15 1017 51 10000 2.1 130 08:49 10.06.2019
6564 Clear 15 1017 51 10000 2.1 130 08:26 10.06.2019
6565 Clear 13 1017 58 10000 2.27 338.997 07:41 10.06.2019
6566 Clear 15 1017 41 10000 1 0 04:43 10.06.2019
6567 Clouds 16 1017 36 10000 2.1 100 03:29 10.06.2019
6568 Clear 18 1016 32 10000 1.5 360 01:55 10.06.2019
6569 Clear 19 1016 30 10000 4.1 300 01:19 10.06.2019
6570 Clear 20 1016 28 10000 5.1 280 00:47 10.06.2019
6571 Clear 20 1016 24 10000 4.6 280 23:48 09.06.2019
6572 Clear 20 1015 25 10000 4.1 270 23:48 09.06.2019
6573 Clear 21 1015 23 10000 3.6 280 23:23 09.06.2019
6574 Clear 23 1015 28 10000 6.2 240 22:48 09.06.2019
6575 Clear 23 1015 28 10000 8.2 240 22:26 09.06.2019
6576 Clear 24 1015 28 10000 8.2 240 21:59 09.06.2019
6577 Clear 24 1015 25 10000 7.7 230 21:37 09.06.2019
6578 Clear 24 1015 22 10000 5.7 220 21:19 09.06.2019
6579 Clear 25 1015 17 10000 5.1 220 20:42 09.06.2019
6580 Clear 25 1014 24 10000 5.7 200 20:22 09.06.2019
6581 Clear 26 1014 16 10000 6.2 200 19:45 09.06.2019
6582 Clear 26 1014 16 10000 6.2 200 19:19 09.06.2019
6583 Clear 26 1015 16 10000 5.7 220 18:45 09.06.2019
6584 Clear 26 1015 14 10000 6.7 210 18:26 09.06.2019
6585 Clear 26 1015 14 10000 6.7 210 17:57 09.06.2019
6586 Clear 26 1015 16 10000 6.2 230 17:38 09.06.2019
6587 Clear 26 1016 19 10000 7.2 200 16:59 09.06.2019
6588 Clear 26 1016 19 10000 7.2 200 16:40 09.06.2019
6589 Clear 26 1016 19 10000 7.2 200 16:21 09.06.2019
6590 Clear 25 1016 16 10000 6.2 220 15:51 09.06.2019
6591 Clear 25 1016 16 10000 6.2 220 15:29 09.06.2019
6592 Clear 25 1017 15 10000 6.7 200 14:59 09.06.2019
6593 Clear 25 1017 16 10000 6.2 220 14:41 09.06.2019
6594 Clear 25 1017 22 10000 7.2 200 14:20 09.06.2019
6595 Clear 25 1017 20 10000 5.7 200 13:48 09.06.2019
6596 Clear 24 1017 23 10000 5.7 230 13:18 09.06.2019
6597 Clear 23 1018 25 10000 5.1 230 12:38 09.06.2019
6598 Clear 22 1018 25 10000 4.6 240 12:20 09.06.2019
6599 Clear 22 1018 30 10000 2.1 0 11:39 09.06.2019
6600 Clear 21 1018 30 10000 2.1 0 11:39 09.06.2019
6601 Clear 21 1018 43 10000 1 70 11:20 09.06.2019
6602 Clear 19 1018 45 10000 1 100 10:44 09.06.2019
6603 Clear 19 1018 45 10000 1 100 10:22 09.06.2019
6604 Clear 18 1018 48 10000 1 0 09:40 09.06.2019
6605 Clear 18 1018 48 10000 1 0 09:40 09.06.2019
6606 Clear 18 1018 48 10000 1 0 09:21 09.06.2019
6607 Clear 16 1018 59 10000 1 0 08:46 09.06.2019
6608 Clear 15 1018 59 10000 1 0 08:28 09.06.2019
6609 Clear 14 1018 67 10000 1 100 07:21 09.06.2019
6610 Clear 14 1017 67 10000 2.1 120 06:30 09.06.2019
6611 Clear 16 1018 59 10000 1.5 360 04:35 09.06.2019
6612 Clear 19 1018 49 10000 4.1 150 01:38 09.06.2019
6613 Clear 20 1018 52 10000 5.1 150 01:20 09.06.2019
6614 Clear 20 1018 52 10000 5.1 150 00:58 09.06.2019
6615 Clouds 21 1017 46 10000 5.1 140 23:43 08.06.2019
6616 Clouds 22 1017 46 10000 5.1 140 23:24 08.06.2019
6617 Clouds 23 1017 43 10000 4.6 130 22:57 08.06.2019
6618 Clear 23 1017 17 10000 1 0 22:39 08.06.2019
6619 Clear 24 1017 17 10000 1 0 22:19 08.06.2019
6620 Clear 24 1017 17 10000 2.6 240 21:51 08.06.2019
6621 Clear 25 1016 16 10000 5.7 240 21:26 08.06.2019
6622 Clear 26 1016 13 10000 4.6 220 20:49 08.06.2019
6623 Clear 26 1016 13 10000 4.6 220 20:26 08.06.2019
6624 Clouds 27 1016 14 10000 5.7 240 19:59 08.06.2019
6625 Clear 27 1016 13 10000 5.7 210 19:39 08.06.2019
6626 Clouds 27 1016 12 10000 4.6 210 19:20 08.06.2019
6627 Clouds 27 1016 12 10000 4.6 210 18:56 08.06.2019
6628 Clouds 27 1016 15 10000 5.1 190 18:35 08.06.2019
6629 Clouds 27 1016 13 10000 6.2 180 17:49 08.06.2019
6630 Clouds 27 1016 13 10000 6.2 180 17:25 08.06.2019
6631 Clouds 27 1017 24 10000 4.1 190 16:58 08.06.2019
6632 Clouds 27 1017 24 10000 4.1 190 16:38 08.06.2019
6633 Clear 26 1018 24 10000 6.2 190 15:57 08.06.2019
6634 Clear 26 1018 24 10000 3.6 120 15:36 08.06.2019
6635 Clear 25 1019 33 10000 4.6 140 14:50 08.06.2019
6636 Clear 25 1019 33 10000 4.6 140 14:31 08.06.2019
6637 Clear 24 1020 33 10000 1.5 0 13:54 08.06.2019
6638 Clear 24 1020 33 10000 1.5 0 13:22 08.06.2019
6639 Clear 23 1020 33 10000 2.6 90 12:42 08.06.2019
6640 Clear 21 1021 32 10000 2.6 0 11:59 08.06.2019
6641 Clear 20 1021 32 10000 3.6 70 11:40 08.06.2019
6642 Clear 19 1021 32 10000 2.6 50 11:20 08.06.2019
6643 Clear 18 1021 32 10000 2.1 40 10:43 08.06.2019
6644 Clear 18 1021 32 10000 2.1 40 10:22 08.06.2019
6645 Clear 16 1021 38 10000 2.6 10 09:43 08.06.2019
6646 Clear 13 1021 37 10000 2.6 10 08:59 08.06.2019
6647 Clear 13 1021 37 10000 2.6 360 08:28 08.06.2019
6648 Clear 11 1021 37 10000 2.1 10 07:47 08.06.2019
6649 Clear 10 1021 38 10000 3.6 330 06:45 08.06.2019
6650 Clear 12 1021 37 10000 3.6 330 04:19 08.06.2019
6651 Clear 13 1021 31 10000 1.5 360 02:21 08.06.2019
6652 Clear 15 1020 34 10000 3.1 340 00:45 08.06.2019
6653 Clear 15 1020 26 10000 2.6 350 00:24 08.06.2019
6654 Clear 16 1020 26 10000 1.5 350 23:39 07.06.2019
6655 Clear 17 1020 26 10000 1.5 340 23:19 07.06.2019
6656 Clear 18 1020 24 10000 1.5 340 22:35 07.06.2019
6657 Clear 20 1019 24 10000 2.1 360 21:58 07.06.2019
6658 Clear 21 1019 24 10000 1 0 21:40 07.06.2019
6659 Clear 20 1019 17 10000 2.6 320 21:21 07.06.2019
6660 Clear 21 1019 22 10000 2.6 320 20:54 07.06.2019
6661 Clear 21 1019 22 10000 2.6 320 20:35 07.06.2019
6662 Clear 21 1018 17 10000 1 0 19:46 07.06.2019
6663 Clear 21 1018 17 10000 1 0 19:20 07.06.2019
6664 Clear 21 1018 17 10000 2.6 310 18:52 07.06.2019
6665 Clear 21 1018 21 10000 3.1 0 18:28 07.06.2019
6666 Clear 21 1018 22 10000 4.6 280 17:47 07.06.2019
6667 Clear 21 1018 22 10000 4.6 280 17:26 07.06.2019
6668 Clear 21 1018 21 10000 4.1 250 16:52 07.06.2019
6669 Clear 20 1018 17 10000 3.6 250 16:33 07.06.2019
6670 Clear 20 1018 28 10000 3.1 0 15:50 07.06.2019
6671 Clear 19 1018 21 10000 4.1 0 15:21 07.06.2019
6672 Clouds 18 1018 29 10000 6.2 250 14:47 07.06.2019
6673 Clouds 18 1018 29 10000 6.2 250 14:25 07.06.2019
6674 Clouds 17 1018 34 10000 6.2 270 13:44 07.06.2019
6675 Clouds 17 1017 36 10000 5.1 260 13:23 07.06.2019
6676 Clouds 16 1017 38 10000 6.2 260 12:44 07.06.2019
6677 Clouds 15 1017 41 10000 5.1 280 12:22 07.06.2019
6678 Clouds 15 1017 44 10000 6.7 250 11:43 07.06.2019
6679 Clouds 14 1017 44 10000 6.7 270 11:22 07.06.2019
6680 Clouds 13 1016 47 10000 6.7 260 10:49 07.06.2019
6681 Clouds 13 1016 47 10000 7.2 280 10:25 07.06.2019
6682 Clear 12 1015 50 10000 7.2 260 09:51 07.06.2019
6683 Clear 12 1015 50 10000 7.2 260 09:29 07.06.2019
6684 Clouds 11 1015 62 10000 5.7 250 08:56 07.06.2019
6685 Clouds 10 1015 61 10000 4.6 260 08:31 07.06.2019
6686 Clouds 10 1013 76 10000 3.6 250 07:57 07.06.2019
6687 Clouds 9 1013 76 10000 3.6 250 07:38 07.06.2019
6688 Clouds 10 1012 66 10000 4.6 280 07:20 07.06.2019
6689 Clouds 10 1012 81 10000 4.1 280 06:41 07.06.2019
6690 Rain 10 1012 81 10000 6.2 280 06:18 07.06.2019
6691 Clouds 13 1010 72 10000 9.8 240 04:27 07.06.2019
6692 Rain 17 1009 34 10000 6.2 200 01:46 07.06.2019
6693 Rain 18 1009 34 10000 6.2 200 01:27 07.06.2019
6694 Clear 18 1009 28 10000 6.2 210 00:26 07.06.2019
6695 Clear 18 1008 47 10000 7.7 220 23:43 06.06.2019
6696 Clear 18 1008 47 10000 7.7 220 23:22 06.06.2019
6697 Clear 20 1009 28 10000 5.7 210 22:44 06.06.2019
6698 Clear 19 1009 28 10000 5.7 210 22:44 06.06.2019
6699 Clear 20 1009 28 10000 5.7 210 22:23 06.06.2019
6700 Clear 21 1008 28 10000 5.7 220 21:57 06.06.2019
6701 Clear 21 1008 47 10000 7.7 210 21:39 06.06.2019
6702 Clear 21 1008 26 10000 8.7 210 21:21 06.06.20